<?xml version='1.0' encoding='UTF-8'?><gpx version="1.1" creator="JPX - https://github.com/jenetics/jpx" xmlns="http://www.topografix.com/GPX/1/1"><trk><trkseg><trkpt lat="46.0543217" lon="12.56256"><ele>129.0</ele><time>2026-04-25T12:45:53.995Z</time></trkpt><trkpt lat="46.0544" lon="12.5623983"><ele>129.0</ele><time>2026-04-25T12:45:55.994Z</time></trkpt><trkpt lat="46.0544467" lon="12.5622867"><ele>129.0</ele><time>2026-04-25T12:45:56.997Z</time></trkpt><trkpt lat="46.0544917" lon="12.562155"><ele>129.0</ele><time>2026-04-25T12:45:57.996Z</time></trkpt><trkpt lat="46.0545333" lon="12.5620067"><ele>129.0</ele><time>2026-04-25T12:45:58.996Z</time></trkpt><trkpt lat="46.0545717" lon="12.5618533"><ele>129.0</ele><time>2026-04-25T12:45:59.994Z</time></trkpt><trkpt lat="46.0546117" lon="12.5616867"><ele>129.0</ele><time>2026-04-25T12:46:00.993Z</time></trkpt><trkpt lat="46.0546567" lon="12.561515"><ele>129.0</ele><time>2026-04-25T12:46:01.997Z</time></trkpt><trkpt lat="46.0547033" lon="12.5613433"><ele>129.0</ele><time>2026-04-25T12:46:02.994Z</time></trkpt><trkpt lat="46.0547517" lon="12.5611667"><ele>128.75</ele><time>2026-04-25T12:46:03.994Z</time></trkpt><trkpt lat="46.0548017" lon="12.5609817"><ele>128.5</ele><time>2026-04-25T12:46:04.994Z</time></trkpt><trkpt lat="46.05485" lon="12.560795"><ele>128.25</ele><time>2026-04-25T12:46:05.994Z</time></trkpt><trkpt lat="46.0548983" lon="12.5606017"><ele>128.0</ele><time>2026-04-25T12:46:06.993Z</time></trkpt><trkpt lat="46.054945" lon="12.560405"><ele>128.25</ele><time>2026-04-25T12:46:07.994Z</time></trkpt><trkpt lat="46.0549967" lon="12.5602067"><ele>128.5</ele><time>2026-04-25T12:46:08.993Z</time></trkpt><trkpt lat="46.0550533" lon="12.56001"><ele>128.75</ele><time>2026-04-25T12:46:09.993Z</time></trkpt><trkpt lat="46.0551167" lon="12.559815"><ele>129.0</ele><time>2026-04-25T12:46:10.995Z</time></trkpt><trkpt lat="46.0551867" lon="12.5596217"><ele>130.0</ele><time>2026-04-25T12:46:11.994Z</time></trkpt><trkpt lat="46.0552667" lon="12.5594317"><ele>131.0</ele><time>2026-04-25T12:46:12.993Z</time></trkpt><trkpt lat="46.0553533" lon="12.5592483"><ele>132.0</ele><time>2026-04-25T12:46:13.995Z</time></trkpt><trkpt lat="46.0554483" lon="12.5590667"><ele>132.0</ele><time>2026-04-25T12:46:14.995Z</time></trkpt><trkpt lat="46.055545" lon="12.55889"><ele>132.0</ele><time>2026-04-25T12:46:15.996Z</time></trkpt><trkpt lat="46.0556433" lon="12.5587183"><ele>132.0</ele><time>2026-04-25T12:46:16.995Z</time></trkpt><trkpt lat="46.0557367" lon="12.5585433"><ele>132.33333333333334</ele><time>2026-04-25T12:46:17.995Z</time></trkpt><trkpt lat="46.0558217" lon="12.55836"><ele>132.66666666666669</ele><time>2026-04-25T12:46:18.994Z</time></trkpt><trkpt lat="46.0558967" lon="12.558165"><ele>133.0</ele><time>2026-04-25T12:46:19.994Z</time></trkpt><trkpt lat="46.0559617" lon="12.5579583"><ele>134.33333333333334</ele><time>2026-04-25T12:46:20.994Z</time></trkpt><trkpt lat="46.0560217" lon="12.55774"><ele>135.66666666666666</ele><time>2026-04-25T12:46:21.994Z</time></trkpt><trkpt lat="46.0560733" lon="12.557515"><ele>137.0</ele><time>2026-04-25T12:46:22.995Z</time></trkpt><trkpt lat="46.056125" lon="12.55729"><ele>137.0</ele><time>2026-04-25T12:46:23.995Z</time></trkpt><trkpt lat="46.0561767" lon="12.557075"><ele>137.0</ele><time>2026-04-25T12:46:24.994Z</time></trkpt><trkpt lat="46.0562233" lon="12.556875"><ele>137.0</ele><time>2026-04-25T12:46:25.995Z</time></trkpt><trkpt lat="46.0562667" lon="12.5566917"><ele>137.0</ele><time>2026-04-25T12:46:26.995Z</time></trkpt><trkpt lat="46.056305" lon="12.556525"><ele>137.2</ele><time>2026-04-25T12:46:27.994Z</time></trkpt><trkpt lat="46.0563383" lon="12.5563733"><ele>137.39999999999998</ele><time>2026-04-25T12:46:28.993Z</time></trkpt><trkpt lat="46.0563733" lon="12.5562517"><ele>137.60000000000002</ele><time>2026-04-25T12:46:29.996Z</time></trkpt><trkpt lat="46.0564133" lon="12.5561617"><ele>137.8</ele><time>2026-04-25T12:46:30.993Z</time></trkpt><trkpt lat="46.0565" lon="12.5561183"><ele>138.0</ele><time>2026-04-25T12:46:32.995Z</time></trkpt><trkpt lat="46.056625" lon="12.556205"><ele>138.0</ele><time>2026-04-25T12:46:34.993Z</time></trkpt><trkpt lat="46.05671" lon="12.5562817"><ele>138.0</ele><time>2026-04-25T12:46:35.994Z</time></trkpt><trkpt lat="46.0568033" lon="12.5563617"><ele>138.0</ele><time>2026-04-25T12:46:36.993Z</time></trkpt><trkpt lat="46.05691" lon="12.55645"><ele>138.0</ele><time>2026-04-25T12:46:37.994Z</time></trkpt><trkpt lat="46.0570217" lon="12.5565467"><ele>138.0</ele><time>2026-04-25T12:46:38.994Z</time></trkpt><trkpt lat="46.05714" lon="12.55665"><ele>138.0</ele><time>2026-04-25T12:46:39.994Z</time></trkpt><trkpt lat="46.0572517" lon="12.5567567"><ele>138.0</ele><time>2026-04-25T12:46:40.994Z</time></trkpt><trkpt lat="46.0573517" lon="12.5568517"><ele>138.0</ele><time>2026-04-25T12:46:41.996Z</time></trkpt><trkpt lat="46.0574383" lon="12.5569417"><ele>137.83333333333334</ele><time>2026-04-25T12:46:42.993Z</time></trkpt><trkpt lat="46.057515" lon="12.5570283"><ele>137.66666666666666</ele><time>2026-04-25T12:46:43.993Z</time></trkpt><trkpt lat="46.0575867" lon="12.55712"><ele>137.5</ele><time>2026-04-25T12:46:44.995Z</time></trkpt><trkpt lat="46.0576533" lon="12.5572033"><ele>137.33333333333331</ele><time>2026-04-25T12:46:45.994Z</time></trkpt><trkpt lat="46.057715" lon="12.55727"><ele>137.16666666666666</ele><time>2026-04-25T12:46:46.993Z</time></trkpt><trkpt lat="46.0577733" lon="12.557315"><ele>137.0</ele><time>2026-04-25T12:46:47.993Z</time></trkpt><trkpt lat="46.0578717" lon="12.557295"><ele>137.0</ele><time>2026-04-25T12:46:49.993Z</time></trkpt><trkpt lat="46.0579283" lon="12.557215"><ele>137.0</ele><time>2026-04-25T12:46:50.995Z</time></trkpt><trkpt lat="46.057985" lon="12.5571217"><ele>137.0</ele><time>2026-04-25T12:46:51.993Z</time></trkpt><trkpt lat="46.0580333" lon="12.557045"><ele>137.0</ele><time>2026-04-25T12:46:52.993Z</time></trkpt><trkpt lat="46.0581" lon="12.5569617"><ele>137.0</ele><time>2026-04-25T12:46:54.997Z</time></trkpt><trkpt lat="46.0582498" lon="12.5572261"><ele>136.75</ele><time>2026-04-25T12:47:07.994Z</time></trkpt><trkpt lat="46.0583036" lon="12.5573804"><ele>136.5</ele><time>2026-04-25T12:47:08.995Z</time></trkpt><trkpt lat="46.0583569" lon="12.5575409"><ele>136.25</ele><time>2026-04-25T12:47:09.994Z</time></trkpt><trkpt lat="46.0584101" lon="12.5576942"><ele>136.0</ele><time>2026-04-25T12:47:10.995Z</time></trkpt><trkpt lat="46.0584625" lon="12.5578433"><ele>135.4</ele><time>2026-04-25T12:47:11.994Z</time></trkpt><trkpt lat="46.0585115" lon="12.5579858"><ele>134.8</ele><time>2026-04-25T12:47:12.994Z</time></trkpt><trkpt lat="46.0585517" lon="12.5581113"><ele>134.20000000000002</ele><time>2026-04-25T12:47:13.996Z</time></trkpt><trkpt lat="46.0585852" lon="12.5582159"><ele>133.6</ele><time>2026-04-25T12:47:14.994Z</time></trkpt><trkpt lat="46.0586266" lon="12.5583509"><ele>133.0</ele><time>2026-04-25T12:47:16.993Z</time></trkpt><trkpt lat="46.0587137" lon="12.5583303"><ele>133.0</ele><time>2026-04-25T12:47:24.994Z</time></trkpt><trkpt lat="46.0588" lon="12.558325"><ele>133.0</ele><time>2026-04-25T12:47:32.994Z</time></trkpt><trkpt lat="46.058725" lon="12.5583133"><ele>133.0</ele><time>2026-04-25T12:47:56.995Z</time></trkpt><trkpt lat="46.05876" lon="12.5582267"><ele>133.0</ele><time>2026-04-25T12:48:06.994Z</time></trkpt><trkpt lat="46.0588183" lon="12.558155"><ele>133.0</ele><time>2026-04-25T12:48:09.995Z</time></trkpt><trkpt lat="46.0588683" lon="12.5580867"><ele>133.0</ele><time>2026-04-25T12:48:13.993Z</time></trkpt><trkpt lat="46.058795" lon="12.5581817"><ele>133.0</ele><time>2026-04-25T12:48:20.994Z</time></trkpt><trkpt lat="46.0587283" lon="12.558275"><ele>133.0</ele><time>2026-04-25T12:48:22.995Z</time></trkpt><trkpt lat="46.0587017" lon="12.5584"><ele>133.0</ele><time>2026-04-25T12:48:28.995Z</time></trkpt><trkpt lat="46.0587533" lon="12.5585833"><ele>133.0</ele><time>2026-04-25T12:48:30.995Z</time></trkpt><trkpt lat="46.0587983" lon="12.5587083"><ele>133.0</ele><time>2026-04-25T12:48:31.995Z</time></trkpt><trkpt lat="46.0588483" lon="12.5588483"><ele>132.5</ele><time>2026-04-25T12:48:32.994Z</time></trkpt><trkpt lat="46.058895" lon="12.558995"><ele>132.0</ele><time>2026-04-25T12:48:33.993Z</time></trkpt><trkpt lat="46.0589433" lon="12.5591433"><ele>131.5</ele><time>2026-04-25T12:48:34.994Z</time></trkpt><trkpt lat="46.0589917" lon="12.5592933"><ele>131.0</ele><time>2026-04-25T12:48:35.995Z</time></trkpt><trkpt lat="46.05904" lon="12.55945"><ele>131.0</ele><time>2026-04-25T12:48:36.995Z</time></trkpt><trkpt lat="46.059095" lon="12.5595983"><ele>131.0</ele><time>2026-04-25T12:48:37.995Z</time></trkpt><trkpt lat="46.05915" lon="12.55975"><ele>131.0</ele><time>2026-04-25T12:48:38.994Z</time></trkpt><trkpt lat="46.0592067" lon="12.5599067"><ele>131.0</ele><time>2026-04-25T12:48:39.994Z</time></trkpt><trkpt lat="46.0592633" lon="12.5600683"><ele>131.25</ele><time>2026-04-25T12:48:40.994Z</time></trkpt><trkpt lat="46.0593233" lon="12.56023"><ele>131.5</ele><time>2026-04-25T12:48:41.996Z</time></trkpt><trkpt lat="46.0593817" lon="12.5603917"><ele>131.75</ele><time>2026-04-25T12:48:42.996Z</time></trkpt><trkpt lat="46.0594433" lon="12.5605617"><ele>132.0</ele><time>2026-04-25T12:48:43.995Z</time></trkpt><trkpt lat="46.0595083" lon="12.5607333"><ele>132.0</ele><time>2026-04-25T12:48:44.995Z</time></trkpt><trkpt lat="46.0595733" lon="12.5609067"><ele>132.0</ele><time>2026-04-25T12:48:45.994Z</time></trkpt><trkpt lat="46.0596433" lon="12.561085"><ele>132.0</ele><time>2026-04-25T12:48:46.994Z</time></trkpt><trkpt lat="46.0597167" lon="12.5612633"><ele>132.0</ele><time>2026-04-25T12:48:47.994Z</time></trkpt><trkpt lat="46.0597967" lon="12.561435"><ele>132.0</ele><time>2026-04-25T12:48:48.993Z</time></trkpt><trkpt lat="46.0598767" lon="12.561605"><ele>132.0</ele><time>2026-04-25T12:48:49.993Z</time></trkpt><trkpt lat="46.0599633" lon="12.56177"><ele>132.0</ele><time>2026-04-25T12:48:50.995Z</time></trkpt><trkpt lat="46.0600517" lon="12.5619317"><ele>132.0</ele><time>2026-04-25T12:48:51.995Z</time></trkpt><trkpt lat="46.0601483" lon="12.562095"><ele>132.0</ele><time>2026-04-25T12:48:52.995Z</time></trkpt><trkpt lat="46.0602467" lon="12.5622617"><ele>132.0</ele><time>2026-04-25T12:48:53.997Z</time></trkpt><trkpt lat="46.0603433" lon="12.562435"><ele>132.0</ele><time>2026-04-25T12:48:54.994Z</time></trkpt><trkpt lat="46.060445" lon="12.5626017"><ele>132.0</ele><time>2026-04-25T12:48:55.993Z</time></trkpt><trkpt lat="46.0605433" lon="12.5627717"><ele>132.0</ele><time>2026-04-25T12:48:56.994Z</time></trkpt><trkpt lat="46.0606383" lon="12.5629417"><ele>132.0</ele><time>2026-04-25T12:48:57.995Z</time></trkpt><trkpt lat="46.0607367" lon="12.5631133"><ele>132.33333333333334</ele><time>2026-04-25T12:48:58.996Z</time></trkpt><trkpt lat="46.060835" lon="12.5632833"><ele>132.66666666666669</ele><time>2026-04-25T12:48:59.995Z</time></trkpt><trkpt lat="46.0609333" lon="12.5634567"><ele>133.0</ele><time>2026-04-25T12:49:00.995Z</time></trkpt><trkpt lat="46.061035" lon="12.56363"><ele>132.66666666666669</ele><time>2026-04-25T12:49:01.995Z</time></trkpt><trkpt lat="46.0611383" lon="12.5638"><ele>132.33333333333334</ele><time>2026-04-25T12:49:02.994Z</time></trkpt><trkpt lat="46.06124" lon="12.5639717"><ele>132.0</ele><time>2026-04-25T12:49:03.995Z</time></trkpt><trkpt lat="46.0613433" lon="12.5641483"><ele>132.0</ele><time>2026-04-25T12:49:04.994Z</time></trkpt><trkpt lat="46.061445" lon="12.5643333"><ele>132.0</ele><time>2026-04-25T12:49:05.995Z</time></trkpt><trkpt lat="46.0615467" lon="12.564515"><ele>132.0</ele><time>2026-04-25T12:49:06.995Z</time></trkpt><trkpt lat="46.06165" lon="12.564695"><ele>133.66666666666666</ele><time>2026-04-25T12:49:07.995Z</time></trkpt><trkpt lat="46.061755" lon="12.5648767"><ele>135.33333333333331</ele><time>2026-04-25T12:49:08.994Z</time></trkpt><trkpt lat="46.0618617" lon="12.5650517"><ele>137.0</ele><time>2026-04-25T12:49:09.994Z</time></trkpt><trkpt lat="46.0619667" lon="12.5652283"><ele>136.66666666666666</ele><time>2026-04-25T12:49:10.995Z</time></trkpt><trkpt lat="46.0620717" lon="12.5654117"><ele>136.33333333333334</ele><time>2026-04-25T12:49:11.995Z</time></trkpt><trkpt lat="46.062175" lon="12.565595"><ele>136.0</ele><time>2026-04-25T12:49:12.994Z</time></trkpt><trkpt lat="46.0622833" lon="12.56578"><ele>136.0</ele><time>2026-04-25T12:49:13.994Z</time></trkpt><trkpt lat="46.0623917" lon="12.5659683"><ele>136.0</ele><time>2026-04-25T12:49:14.995Z</time></trkpt><trkpt lat="46.0624983" lon="12.566155"><ele>136.0</ele><time>2026-04-25T12:49:15.995Z</time></trkpt><trkpt lat="46.062605" lon="12.5663383"><ele>135.66666666666669</ele><time>2026-04-25T12:49:16.995Z</time></trkpt><trkpt lat="46.0627167" lon="12.566525"><ele>135.33333333333334</ele><time>2026-04-25T12:49:17.995Z</time></trkpt><trkpt lat="46.0628367" lon="12.5666933"><ele>135.0</ele><time>2026-04-25T12:49:18.994Z</time></trkpt><trkpt lat="46.0629683" lon="12.5668367"><ele>135.0</ele><time>2026-04-25T12:49:19.995Z</time></trkpt><trkpt lat="46.0631083" lon="12.5669567"><ele>135.0</ele><time>2026-04-25T12:49:20.995Z</time></trkpt><trkpt lat="46.063255" lon="12.5670533"><ele>135.0</ele><time>2026-04-25T12:49:21.994Z</time></trkpt><trkpt lat="46.063405" lon="12.56714"><ele>136.66666666666666</ele><time>2026-04-25T12:49:22.995Z</time></trkpt><trkpt lat="46.0635633" lon="12.56722"><ele>138.33333333333331</ele><time>2026-04-25T12:49:23.994Z</time></trkpt><trkpt lat="46.0637233" lon="12.5672767"><ele>140.0</ele><time>2026-04-25T12:49:24.994Z</time></trkpt><trkpt lat="46.0638867" lon="12.5673233"><ele>140.0</ele><time>2026-04-25T12:49:25.995Z</time></trkpt><trkpt lat="46.0640533" lon="12.5673517"><ele>140.0</ele><time>2026-04-25T12:49:26.997Z</time></trkpt><trkpt lat="46.0642133" lon="12.567395"><ele>140.0</ele><time>2026-04-25T12:49:27.995Z</time></trkpt><trkpt lat="46.064375" lon="12.56743"><ele>141.33333333333331</ele><time>2026-04-25T12:49:28.995Z</time></trkpt><trkpt lat="46.0645417" lon="12.5674717"><ele>142.66666666666666</ele><time>2026-04-25T12:49:29.997Z</time></trkpt><trkpt lat="46.0647083" lon="12.5675117"><ele>144.0</ele><time>2026-04-25T12:49:30.994Z</time></trkpt><trkpt lat="46.064875" lon="12.5675483"><ele>144.0</ele><time>2026-04-25T12:49:31.994Z</time></trkpt><trkpt lat="46.0650333" lon="12.56761"><ele>144.0</ele><time>2026-04-25T12:49:32.994Z</time></trkpt><trkpt lat="46.065185" lon="12.56771"><ele>144.0</ele><time>2026-04-25T12:49:33.993Z</time></trkpt><trkpt lat="46.06533" lon="12.567835"><ele>144.33333333333334</ele><time>2026-04-25T12:49:34.994Z</time></trkpt><trkpt lat="46.0654683" lon="12.56798"><ele>144.66666666666669</ele><time>2026-04-25T12:49:35.994Z</time></trkpt><trkpt lat="46.0655983" lon="12.5681333"><ele>145.0</ele><time>2026-04-25T12:49:36.994Z</time></trkpt><trkpt lat="46.0657283" lon="12.5682833"><ele>145.33333333333334</ele><time>2026-04-25T12:49:37.993Z</time></trkpt><trkpt lat="46.0658633" lon="12.56843"><ele>145.66666666666666</ele><time>2026-04-25T12:49:38.994Z</time></trkpt><trkpt lat="46.0659983" lon="12.568575"><ele>146.0</ele><time>2026-04-25T12:49:39.993Z</time></trkpt><trkpt lat="46.0661283" lon="12.5687317"><ele>146.0</ele><time>2026-04-25T12:49:40.993Z</time></trkpt><trkpt lat="46.0662533" lon="12.5688917"><ele>146.0</ele><time>2026-04-25T12:49:41.995Z</time></trkpt><trkpt lat="46.0663767" lon="12.569055"><ele>146.0</ele><time>2026-04-25T12:49:42.995Z</time></trkpt><trkpt lat="46.0665" lon="12.5692167"><ele>146.0</ele><time>2026-04-25T12:49:43.993Z</time></trkpt><trkpt lat="46.066625" lon="12.5693733"><ele>146.0</ele><time>2026-04-25T12:49:44.993Z</time></trkpt><trkpt lat="46.0667483" lon="12.5695267"><ele>146.0</ele><time>2026-04-25T12:49:45.993Z</time></trkpt><trkpt lat="46.0668667" lon="12.56968"><ele>146.33333333333331</ele><time>2026-04-25T12:49:46.994Z</time></trkpt><trkpt lat="46.06698" lon="12.5698283"><ele>146.66666666666666</ele><time>2026-04-25T12:49:47.994Z</time></trkpt><trkpt lat="46.0670983" lon="12.5699783"><ele>147.0</ele><time>2026-04-25T12:49:48.992Z</time></trkpt><trkpt lat="46.0672167" lon="12.5701317"><ele>147.0</ele><time>2026-04-25T12:49:49.997Z</time></trkpt><trkpt lat="46.0673383" lon="12.5702817"><ele>147.0</ele><time>2026-04-25T12:49:50.995Z</time></trkpt><trkpt lat="46.0674583" lon="12.57044"><ele>147.0</ele><time>2026-04-25T12:49:51.993Z</time></trkpt><trkpt lat="46.0675783" lon="12.5706017"><ele>148.0</ele><time>2026-04-25T12:49:52.993Z</time></trkpt><trkpt lat="46.0677033" lon="12.5707617"><ele>149.0</ele><time>2026-04-25T12:49:53.994Z</time></trkpt><trkpt lat="46.0678283" lon="12.5709183"><ele>150.0</ele><time>2026-04-25T12:49:54.997Z</time></trkpt><trkpt lat="46.0679537" lon="12.5710728"><ele>149.66666666666666</ele><time>2026-04-25T12:49:55.993Z</time></trkpt><trkpt lat="46.0680738" lon="12.5712269"><ele>149.33333333333331</ele><time>2026-04-25T12:49:56.993Z</time></trkpt><trkpt lat="46.0681907" lon="12.5713767"><ele>149.0</ele><time>2026-04-25T12:49:57.993Z</time></trkpt><trkpt lat="46.0683111" lon="12.5715158"><ele>150.33333333333331</ele><time>2026-04-25T12:49:58.994Z</time></trkpt><trkpt lat="46.0684412" lon="12.5716363"><ele>151.66666666666666</ele><time>2026-04-25T12:49:59.993Z</time></trkpt><trkpt lat="46.0685823" lon="12.5717269"><ele>153.0</ele><time>2026-04-25T12:50:00.994Z</time></trkpt><trkpt lat="46.0687318" lon="12.5717888"><ele>153.0</ele><time>2026-04-25T12:50:01.994Z</time></trkpt><trkpt lat="46.0688831" lon="12.5718365"><ele>153.0</ele><time>2026-04-25T12:50:02.993Z</time></trkpt><trkpt lat="46.0690394" lon="12.5718648"><ele>153.0</ele><time>2026-04-25T12:50:03.994Z</time></trkpt><trkpt lat="46.0692011" lon="12.5718724"><ele>154.66666666666666</ele><time>2026-04-25T12:50:04.997Z</time></trkpt><trkpt lat="46.0693638" lon="12.5718641"><ele>156.33333333333331</ele><time>2026-04-25T12:50:05.993Z</time></trkpt><trkpt lat="46.0695263" lon="12.571847"><ele>158.0</ele><time>2026-04-25T12:50:06.994Z</time></trkpt><trkpt lat="46.0696853" lon="12.5718256"><ele>158.0</ele><time>2026-04-25T12:50:07.994Z</time></trkpt><trkpt lat="46.0698352" lon="12.5717988"><ele>158.0</ele><time>2026-04-25T12:50:08.994Z</time></trkpt><trkpt lat="46.0699842" lon="12.5717812"><ele>158.0</ele><time>2026-04-25T12:50:09.995Z</time></trkpt><trkpt lat="46.0701354" lon="12.5717756"><ele>158.0</ele><time>2026-04-25T12:50:10.993Z</time></trkpt><trkpt lat="46.0702884" lon="12.5717851"><ele>158.0</ele><time>2026-04-25T12:50:11.996Z</time></trkpt><trkpt lat="46.070442" lon="12.571824"><ele>158.0</ele><time>2026-04-25T12:50:12.994Z</time></trkpt><trkpt lat="46.0705901" lon="12.5719072"><ele>158.0</ele><time>2026-04-25T12:50:13.994Z</time></trkpt><trkpt lat="46.070732" lon="12.5720247"><ele>158.0</ele><time>2026-04-25T12:50:14.993Z</time></trkpt><trkpt lat="46.0708666" lon="12.5721625"><ele>158.0</ele><time>2026-04-25T12:50:15.993Z</time></trkpt><trkpt lat="46.070985" lon="12.5723294"><ele>158.33333333333331</ele><time>2026-04-25T12:50:16.994Z</time></trkpt><trkpt lat="46.0710869" lon="12.5725175"><ele>158.66666666666666</ele><time>2026-04-25T12:50:17.993Z</time></trkpt><trkpt lat="46.0711745" lon="12.5727234"><ele>159.0</ele><time>2026-04-25T12:50:18.994Z</time></trkpt><trkpt lat="46.0712538" lon="12.5729355"><ele>159.0</ele><time>2026-04-25T12:50:19.993Z</time></trkpt><trkpt lat="46.0713321" lon="12.5731486"><ele>159.0</ele><time>2026-04-25T12:50:20.994Z</time></trkpt><trkpt lat="46.071416" lon="12.5733645"><ele>159.0</ele><time>2026-04-25T12:50:21.995Z</time></trkpt><trkpt lat="46.0715046" lon="12.573582"><ele>158.33333333333334</ele><time>2026-04-25T12:50:22.993Z</time></trkpt><trkpt lat="46.0715922" lon="12.5738033"><ele>157.66666666666669</ele><time>2026-04-25T12:50:23.995Z</time></trkpt><trkpt lat="46.0716818" lon="12.5740271"><ele>157.0</ele><time>2026-04-25T12:50:24.997Z</time></trkpt><trkpt lat="46.0717658" lon="12.5742542"><ele>158.66666666666669</ele><time>2026-04-25T12:50:25.994Z</time></trkpt><trkpt lat="46.0718394" lon="12.5744725"><ele>160.33333333333334</ele><time>2026-04-25T12:50:26.994Z</time></trkpt><trkpt lat="46.0719108" lon="12.5746682"><ele>162.0</ele><time>2026-04-25T12:50:27.996Z</time></trkpt><trkpt lat="46.0719849" lon="12.5748534"><ele>162.33333333333334</ele><time>2026-04-25T12:50:28.995Z</time></trkpt><trkpt lat="46.0720657" lon="12.5750356"><ele>162.66666666666669</ele><time>2026-04-25T12:50:29.993Z</time></trkpt><trkpt lat="46.0721382" lon="12.5752297"><ele>163.0</ele><time>2026-04-25T12:50:30.994Z</time></trkpt><trkpt lat="46.0722101" lon="12.5754279"><ele>163.0</ele><time>2026-04-25T12:50:31.994Z</time></trkpt><trkpt lat="46.0722836" lon="12.5756278"><ele>163.0</ele><time>2026-04-25T12:50:32.993Z</time></trkpt><trkpt lat="46.0723609" lon="12.5758235"><ele>163.0</ele><time>2026-04-25T12:50:33.993Z</time></trkpt><trkpt lat="46.072451" lon="12.5760096"><ele>164.66666666666669</ele><time>2026-04-25T12:50:34.993Z</time></trkpt><trkpt lat="46.0725576" lon="12.5761821"><ele>166.33333333333334</ele><time>2026-04-25T12:50:35.993Z</time></trkpt><trkpt lat="46.0726804" lon="12.5763377"><ele>168.0</ele><time>2026-04-25T12:50:36.994Z</time></trkpt><trkpt lat="46.0728107" lon="12.576485"><ele>168.0</ele><time>2026-04-25T12:50:37.993Z</time></trkpt><trkpt lat="46.0729439" lon="12.5766248"><ele>168.0</ele><time>2026-04-25T12:50:38.994Z</time></trkpt><trkpt lat="46.0730795" lon="12.5767556"><ele>168.0</ele><time>2026-04-25T12:50:39.993Z</time></trkpt><trkpt lat="46.0732114" lon="12.5768913"><ele>170.0</ele><time>2026-04-25T12:50:40.993Z</time></trkpt><trkpt lat="46.0733423" lon="12.5770285"><ele>172.0</ele><time>2026-04-25T12:50:41.993Z</time></trkpt><trkpt lat="46.0734738" lon="12.5771625"><ele>174.0</ele><time>2026-04-25T12:50:42.994Z</time></trkpt><trkpt lat="46.0736039" lon="12.5772945"><ele>174.0</ele><time>2026-04-25T12:50:43.993Z</time></trkpt><trkpt lat="46.0737312" lon="12.5774246"><ele>174.0</ele><time>2026-04-25T12:50:44.995Z</time></trkpt><trkpt lat="46.0738537" lon="12.5775543"><ele>174.0</ele><time>2026-04-25T12:50:45.994Z</time></trkpt><trkpt lat="46.0739738" lon="12.5776825"><ele>174.0</ele><time>2026-04-25T12:50:46.993Z</time></trkpt><trkpt lat="46.0740883" lon="12.5778052"><ele>174.0</ele><time>2026-04-25T12:50:47.995Z</time></trkpt><trkpt lat="46.0742111" lon="12.5779112"><ele>174.0</ele><time>2026-04-25T12:50:48.993Z</time></trkpt><trkpt lat="46.074349" lon="12.5779991"><ele>174.0</ele><time>2026-04-25T12:50:49.994Z</time></trkpt><trkpt lat="46.0745009" lon="12.5780569"><ele>174.66666666666666</ele><time>2026-04-25T12:50:50.994Z</time></trkpt><trkpt lat="46.0746642" lon="12.5780693"><ele>175.33333333333331</ele><time>2026-04-25T12:50:51.993Z</time></trkpt><trkpt lat="46.0748351" lon="12.5780533"><ele>176.0</ele><time>2026-04-25T12:50:52.996Z</time></trkpt><trkpt lat="46.0750115" lon="12.5780043"><ele>177.0</ele><time>2026-04-25T12:50:53.994Z</time></trkpt><trkpt lat="46.075182" lon="12.577915"><ele>178.0</ele><time>2026-04-25T12:50:54.993Z</time></trkpt><trkpt lat="46.0753421" lon="12.5777906"><ele>179.0</ele><time>2026-04-25T12:50:55.994Z</time></trkpt><trkpt lat="46.0755016" lon="12.5776556"><ele>179.33333333333331</ele><time>2026-04-25T12:50:56.994Z</time></trkpt><trkpt lat="46.0756611" lon="12.577519"><ele>179.66666666666666</ele><time>2026-04-25T12:50:57.994Z</time></trkpt><trkpt lat="46.0758244" lon="12.5773842"><ele>180.0</ele><time>2026-04-25T12:50:58.995Z</time></trkpt><trkpt lat="46.0759879" lon="12.5772495"><ele>180.66666666666666</ele><time>2026-04-25T12:50:59.995Z</time></trkpt><trkpt lat="46.0761539" lon="12.5771166"><ele>181.33333333333331</ele><time>2026-04-25T12:51:00.994Z</time></trkpt><trkpt lat="46.0763193" lon="12.5769819"><ele>182.0</ele><time>2026-04-25T12:51:01.994Z</time></trkpt><trkpt lat="46.0764802" lon="12.5768429"><ele>183.66666666666666</ele><time>2026-04-25T12:51:02.997Z</time></trkpt><trkpt lat="46.0766461" lon="12.5767216"><ele>185.33333333333334</ele><time>2026-04-25T12:51:03.994Z</time></trkpt><trkpt lat="46.076821" lon="12.5766358"><ele>187.0</ele><time>2026-04-25T12:51:04.994Z</time></trkpt><trkpt lat="46.0770021" lon="12.5765898"><ele>187.0</ele><time>2026-04-25T12:51:05.993Z</time></trkpt><trkpt lat="46.0771859" lon="12.5765783"><ele>187.0</ele><time>2026-04-25T12:51:06.993Z</time></trkpt><trkpt lat="46.0773713" lon="12.5765804"><ele>187.0</ele><time>2026-04-25T12:51:07.993Z</time></trkpt><trkpt lat="46.0775569" lon="12.5765766"><ele>188.0</ele><time>2026-04-25T12:51:08.994Z</time></trkpt><trkpt lat="46.0777424" lon="12.576579"><ele>189.0</ele><time>2026-04-25T12:51:09.993Z</time></trkpt><trkpt lat="46.0779267" lon="12.5765877"><ele>190.0</ele><time>2026-04-25T12:51:10.994Z</time></trkpt><trkpt lat="46.0781102" lon="12.576594"><ele>191.33333333333334</ele><time>2026-04-25T12:51:11.995Z</time></trkpt><trkpt lat="46.0782923" lon="12.5765998"><ele>192.66666666666669</ele><time>2026-04-25T12:51:12.994Z</time></trkpt><trkpt lat="46.078474" lon="12.576601"><ele>194.0</ele><time>2026-04-25T12:51:13.994Z</time></trkpt><trkpt lat="46.0786543" lon="12.5765999"><ele>194.0</ele><time>2026-04-25T12:51:14.994Z</time></trkpt><trkpt lat="46.0788353" lon="12.5765927"><ele>194.0</ele><time>2026-04-25T12:51:15.993Z</time></trkpt><trkpt lat="46.0790127" lon="12.5765913"><ele>194.0</ele><time>2026-04-25T12:51:16.994Z</time></trkpt><trkpt lat="46.0791894" lon="12.5765978"><ele>196.0</ele><time>2026-04-25T12:51:17.994Z</time></trkpt><trkpt lat="46.0793686" lon="12.5766114"><ele>198.0</ele><time>2026-04-25T12:51:18.994Z</time></trkpt><trkpt lat="46.0795497" lon="12.5766251"><ele>200.0</ele><time>2026-04-25T12:51:19.994Z</time></trkpt><trkpt lat="46.0797314" lon="12.576636"><ele>200.0</ele><time>2026-04-25T12:51:20.994Z</time></trkpt><trkpt lat="46.0799132" lon="12.5766398"><ele>200.0</ele><time>2026-04-25T12:51:21.993Z</time></trkpt><trkpt lat="46.0800951" lon="12.5766416"><ele>200.0</ele><time>2026-04-25T12:51:22.993Z</time></trkpt><trkpt lat="46.0802743" lon="12.5766478"><ele>201.66666666666669</ele><time>2026-04-25T12:51:23.993Z</time></trkpt><trkpt lat="46.0804536" lon="12.5766741"><ele>203.33333333333331</ele><time>2026-04-25T12:51:24.995Z</time></trkpt><trkpt lat="46.0806265" lon="12.5767373"><ele>205.0</ele><time>2026-04-25T12:51:25.994Z</time></trkpt><trkpt lat="46.080795" lon="12.5768371"><ele>205.66666666666666</ele><time>2026-04-25T12:51:26.994Z</time></trkpt><trkpt lat="46.0809537" lon="12.5769638"><ele>206.33333333333331</ele><time>2026-04-25T12:51:27.994Z</time></trkpt><trkpt lat="46.0811097" lon="12.5771005"><ele>207.0</ele><time>2026-04-25T12:51:28.993Z</time></trkpt><trkpt lat="46.0812707" lon="12.5772255"><ele>207.0</ele><time>2026-04-25T12:51:29.994Z</time></trkpt><trkpt lat="46.0814304" lon="12.5773435"><ele>207.0</ele><time>2026-04-25T12:51:30.994Z</time></trkpt><trkpt lat="46.08158" lon="12.5774524"><ele>207.0</ele><time>2026-04-25T12:51:31.995Z</time></trkpt><trkpt lat="46.0817134" lon="12.5775525"><ele>207.8</ele><time>2026-04-25T12:51:32.995Z</time></trkpt><trkpt lat="46.0818285" lon="12.5776426"><ele>208.6</ele><time>2026-04-25T12:51:33.994Z</time></trkpt><trkpt lat="46.0819331" lon="12.5777228"><ele>209.4</ele><time>2026-04-25T12:51:34.994Z</time></trkpt><trkpt lat="46.082025" lon="12.57779"><ele>210.20000000000002</ele><time>2026-04-25T12:51:35.994Z</time></trkpt><trkpt lat="46.0821083" lon="12.57786"><ele>211.0</ele><time>2026-04-25T12:51:36.993Z</time></trkpt><trkpt lat="46.08219" lon="12.5779183"><ele>211.0</ele><time>2026-04-25T12:51:37.993Z</time></trkpt><trkpt lat="46.0822617" lon="12.577985"><ele>211.0</ele><time>2026-04-25T12:51:38.996Z</time></trkpt><trkpt lat="46.082305" lon="12.5780833"><ele>211.0</ele><time>2026-04-25T12:51:39.994Z</time></trkpt><trkpt lat="46.0823217" lon="12.5782033"><ele>211.0</ele><time>2026-04-25T12:51:40.994Z</time></trkpt><trkpt lat="46.0823267" lon="12.5782967"><ele>211.0</ele><time>2026-04-25T12:51:41.993Z</time></trkpt><trkpt lat="46.08222" lon="12.5784517"><ele>211.0</ele><time>2026-04-25T12:51:43.993Z</time></trkpt><trkpt lat="46.082155" lon="12.57856"><ele>211.0</ele><time>2026-04-25T12:51:44.994Z</time></trkpt><trkpt lat="46.0820917" lon="12.5786867"><ele>211.0</ele><time>2026-04-25T12:51:45.993Z</time></trkpt><trkpt lat="46.0820167" lon="12.5788283"><ele>211.0</ele><time>2026-04-25T12:51:46.994Z</time></trkpt><trkpt lat="46.08194" lon="12.57898"><ele>210.0</ele><time>2026-04-25T12:51:47.993Z</time></trkpt><trkpt lat="46.0818633" lon="12.5791517"><ele>209.0</ele><time>2026-04-25T12:51:48.994Z</time></trkpt><trkpt lat="46.08177" lon="12.5793283"><ele>208.0</ele><time>2026-04-25T12:51:49.994Z</time></trkpt><trkpt lat="46.08167" lon="12.579505"><ele>206.33333333333331</ele><time>2026-04-25T12:51:50.994Z</time></trkpt><trkpt lat="46.081575" lon="12.5796883"><ele>204.66666666666669</ele><time>2026-04-25T12:51:51.993Z</time></trkpt><trkpt lat="46.0814817" lon="12.5798583"><ele>203.0</ele><time>2026-04-25T12:51:52.994Z</time></trkpt><trkpt lat="46.0813867" lon="12.5800167"><ele>203.0</ele><time>2026-04-25T12:51:53.993Z</time></trkpt><trkpt lat="46.0812917" lon="12.5801867"><ele>203.0</ele><time>2026-04-25T12:51:54.993Z</time></trkpt><trkpt lat="46.0811983" lon="12.5803683"><ele>203.0</ele><time>2026-04-25T12:51:55.995Z</time></trkpt><trkpt lat="46.081105" lon="12.5805467"><ele>202.66666666666669</ele><time>2026-04-25T12:51:56.995Z</time></trkpt><trkpt lat="46.0810083" lon="12.5807233"><ele>202.33333333333331</ele><time>2026-04-25T12:51:57.993Z</time></trkpt><trkpt lat="46.0809117" lon="12.5809067"><ele>202.0</ele><time>2026-04-25T12:51:58.994Z</time></trkpt><trkpt lat="46.0808117" lon="12.58109"><ele>200.33333333333331</ele><time>2026-04-25T12:51:59.993Z</time></trkpt><trkpt lat="46.0807133" lon="12.5812767"><ele>198.66666666666669</ele><time>2026-04-25T12:52:00.994Z</time></trkpt><trkpt lat="46.080615" lon="12.58146"><ele>197.0</ele><time>2026-04-25T12:52:01.994Z</time></trkpt><trkpt lat="46.0805083" lon="12.5816383"><ele>197.0</ele><time>2026-04-25T12:52:02.995Z</time></trkpt><trkpt lat="46.0804" lon="12.5818317"><ele>197.0</ele><time>2026-04-25T12:52:03.994Z</time></trkpt><trkpt lat="46.080295" lon="12.5820367"><ele>197.0</ele><time>2026-04-25T12:52:04.995Z</time></trkpt><trkpt lat="46.0801983" lon="12.5822383"><ele>196.0</ele><time>2026-04-25T12:52:05.995Z</time></trkpt><trkpt lat="46.0801017" lon="12.582425"><ele>195.0</ele><time>2026-04-25T12:52:06.995Z</time></trkpt><trkpt lat="46.0800083" lon="12.5825967"><ele>194.0</ele><time>2026-04-25T12:52:07.997Z</time></trkpt><trkpt lat="46.0799183" lon="12.5827583"><ele>192.75</ele><time>2026-04-25T12:52:08.995Z</time></trkpt><trkpt lat="46.0798333" lon="12.582925"><ele>191.5</ele><time>2026-04-25T12:52:09.996Z</time></trkpt><trkpt lat="46.0797517" lon="12.5830833"><ele>190.25</ele><time>2026-04-25T12:52:10.994Z</time></trkpt><trkpt lat="46.07967" lon="12.583235"><ele>189.0</ele><time>2026-04-25T12:52:11.996Z</time></trkpt><trkpt lat="46.07959" lon="12.583385"><ele>189.0</ele><time>2026-04-25T12:52:12.993Z</time></trkpt><trkpt lat="46.0795167" lon="12.583515"><ele>189.0</ele><time>2026-04-25T12:52:13.993Z</time></trkpt><trkpt lat="46.0794583" lon="12.5836383"><ele>189.0</ele><time>2026-04-25T12:52:14.994Z</time></trkpt><trkpt lat="46.079405" lon="12.583735"><ele>189.0</ele><time>2026-04-25T12:52:15.994Z</time></trkpt><trkpt lat="46.079355" lon="12.5838217"><ele>189.0</ele><time>2026-04-25T12:52:17.995Z</time></trkpt><trkpt lat="46.0793833" lon="12.58391"><ele>188.6</ele><time>2026-04-25T12:52:21.994Z</time></trkpt><trkpt lat="46.0794967" lon="12.58399"><ele>188.2</ele><time>2026-04-25T12:52:23.993Z</time></trkpt><trkpt lat="46.0795817" lon="12.5840567"><ele>187.79999999999998</ele><time>2026-04-25T12:52:24.995Z</time></trkpt><trkpt lat="46.07968" lon="12.58414"><ele>187.39999999999998</ele><time>2026-04-25T12:52:25.994Z</time></trkpt><trkpt lat="46.0797717" lon="12.584225"><ele>187.0</ele><time>2026-04-25T12:52:26.996Z</time></trkpt><trkpt lat="46.079865" lon="12.5843017"><ele>187.0</ele><time>2026-04-25T12:52:27.993Z</time></trkpt><trkpt lat="46.0799483" lon="12.58439"><ele>187.0</ele><time>2026-04-25T12:52:28.996Z</time></trkpt><trkpt lat="46.0800267" lon="12.58448"><ele>187.0</ele><time>2026-04-25T12:52:29.994Z</time></trkpt><trkpt lat="46.0801033" lon="12.5845583"><ele>187.0</ele><time>2026-04-25T12:52:30.995Z</time></trkpt><trkpt lat="46.0801783" lon="12.5846317"><ele>187.0</ele><time>2026-04-25T12:52:31.994Z</time></trkpt><trkpt lat="46.080255" lon="12.5847083"><ele>186.6</ele><time>2026-04-25T12:52:32.995Z</time></trkpt><trkpt lat="46.0803317" lon="12.5848"><ele>186.2</ele><time>2026-04-25T12:52:33.995Z</time></trkpt><trkpt lat="46.0804067" lon="12.5848983"><ele>185.8</ele><time>2026-04-25T12:52:34.993Z</time></trkpt><trkpt lat="46.08049" lon="12.5849867"><ele>185.4</ele><time>2026-04-25T12:52:36.002Z</time></trkpt><trkpt lat="46.0805767" lon="12.585085"><ele>185.0</ele><time>2026-04-25T12:52:36.995Z</time></trkpt><trkpt lat="46.0806633" lon="12.5851817"><ele>185.0</ele><time>2026-04-25T12:52:37.995Z</time></trkpt><trkpt lat="46.0807517" lon="12.58527"><ele>185.0</ele><time>2026-04-25T12:52:38.998Z</time></trkpt><trkpt lat="46.0808533" lon="12.5853367"><ele>185.0</ele><time>2026-04-25T12:52:39.994Z</time></trkpt><trkpt lat="46.0809583" lon="12.5853583"><ele>185.0</ele><time>2026-04-25T12:52:40.995Z</time></trkpt><trkpt lat="46.0810533" lon="12.5853583"><ele>185.0</ele><time>2026-04-25T12:52:41.995Z</time></trkpt><trkpt lat="46.0811233" lon="12.585395"><ele>184.2</ele><time>2026-04-25T12:52:42.994Z</time></trkpt><trkpt lat="46.0811683" lon="12.58546"><ele>183.4</ele><time>2026-04-25T12:52:43.993Z</time></trkpt><trkpt lat="46.0811733" lon="12.5855767"><ele>182.60000000000002</ele><time>2026-04-25T12:52:44.996Z</time></trkpt><trkpt lat="46.0811517" lon="12.5857267"><ele>181.8</ele><time>2026-04-25T12:52:45.999Z</time></trkpt><trkpt lat="46.0811433" lon="12.5858917"><ele>181.0</ele><time>2026-04-25T12:52:46.993Z</time></trkpt><trkpt lat="46.0811467" lon="12.586075"><ele>180.0</ele><time>2026-04-25T12:52:47.994Z</time></trkpt><trkpt lat="46.0811417" lon="12.5862717"><ele>179.0</ele><time>2026-04-25T12:52:48.994Z</time></trkpt><trkpt lat="46.0811317" lon="12.5864583"><ele>178.0</ele><time>2026-04-25T12:52:49.994Z</time></trkpt><trkpt lat="46.0811267" lon="12.58664"><ele>177.0</ele><time>2026-04-25T12:52:50.995Z</time></trkpt><trkpt lat="46.0811433" lon="12.5868267"><ele>177.0</ele><time>2026-04-25T12:52:51.994Z</time></trkpt><trkpt lat="46.0811933" lon="12.5870233"><ele>177.0</ele><time>2026-04-25T12:52:52.994Z</time></trkpt><trkpt lat="46.081235" lon="12.587205"><ele>177.0</ele><time>2026-04-25T12:52:53.996Z</time></trkpt><trkpt lat="46.0812783" lon="12.5873683"><ele>177.0</ele><time>2026-04-25T12:52:54.993Z</time></trkpt><trkpt lat="46.0813183" lon="12.5875033"><ele>177.0</ele><time>2026-04-25T12:52:55.994Z</time></trkpt><trkpt lat="46.0813383" lon="12.5876067"><ele>177.0</ele><time>2026-04-25T12:52:56.994Z</time></trkpt><trkpt lat="46.0813583" lon="12.5877017"><ele>177.0</ele><time>2026-04-25T12:52:58.995Z</time></trkpt><trkpt lat="46.0813783" lon="12.5878283"><ele>177.0</ele><time>2026-04-25T12:53:07.995Z</time></trkpt><trkpt lat="46.0813783" lon="12.5879733"><ele>177.0</ele><time>2026-04-25T12:53:09.995Z</time></trkpt><trkpt lat="46.0813833" lon="12.58808"><ele>177.0</ele><time>2026-04-25T12:53:10.993Z</time></trkpt><trkpt lat="46.0813817" lon="12.5882067"><ele>176.75</ele><time>2026-04-25T12:53:11.994Z</time></trkpt><trkpt lat="46.08138" lon="12.588355"><ele>176.5</ele><time>2026-04-25T12:53:12.994Z</time></trkpt><trkpt lat="46.0813883" lon="12.5885117"><ele>176.25</ele><time>2026-04-25T12:53:13.995Z</time></trkpt><trkpt lat="46.0814117" lon="12.5886717"><ele>176.0</ele><time>2026-04-25T12:53:14.994Z</time></trkpt><trkpt lat="46.0814483" lon="12.5888467"><ele>175.75</ele><time>2026-04-25T12:53:15.993Z</time></trkpt><trkpt lat="46.0814917" lon="12.5890233"><ele>175.5</ele><time>2026-04-25T12:53:16.996Z</time></trkpt><trkpt lat="46.0815367" lon="12.58919"><ele>175.25</ele><time>2026-04-25T12:53:17.993Z</time></trkpt><trkpt lat="46.0815783" lon="12.5893517"><ele>175.0</ele><time>2026-04-25T12:53:18.995Z</time></trkpt><trkpt lat="46.0816133" lon="12.5895133"><ele>175.5</ele><time>2026-04-25T12:53:19.993Z</time></trkpt><trkpt lat="46.08165" lon="12.5896767"><ele>176.0</ele><time>2026-04-25T12:53:20.995Z</time></trkpt><trkpt lat="46.08168" lon="12.5898433"><ele>176.5</ele><time>2026-04-25T12:53:21.994Z</time></trkpt><trkpt lat="46.0817183" lon="12.590015"><ele>177.0</ele><time>2026-04-25T12:53:22.993Z</time></trkpt><trkpt lat="46.08175" lon="12.5901967"><ele>177.25</ele><time>2026-04-25T12:53:23.994Z</time></trkpt><trkpt lat="46.0817733" lon="12.590385"><ele>177.5</ele><time>2026-04-25T12:53:24.994Z</time></trkpt><trkpt lat="46.0817883" lon="12.5905683"><ele>177.75</ele><time>2026-04-25T12:53:25.993Z</time></trkpt><trkpt lat="46.08179" lon="12.59073"><ele>178.0</ele><time>2026-04-25T12:53:26.996Z</time></trkpt><trkpt lat="46.08177" lon="12.5908767"><ele>178.0</ele><time>2026-04-25T12:53:27.994Z</time></trkpt><trkpt lat="46.08173" lon="12.591005"><ele>178.0</ele><time>2026-04-25T12:53:28.994Z</time></trkpt><trkpt lat="46.08168" lon="12.591135"><ele>178.0</ele><time>2026-04-25T12:53:29.993Z</time></trkpt><trkpt lat="46.0816217" lon="12.5912817"><ele>178.0</ele><time>2026-04-25T12:53:30.993Z</time></trkpt><trkpt lat="46.081555" lon="12.591435"><ele>178.0</ele><time>2026-04-25T12:53:31.995Z</time></trkpt><trkpt lat="46.0814933" lon="12.5915867"><ele>178.60000000000002</ele><time>2026-04-25T12:53:32.994Z</time></trkpt><trkpt lat="46.0814333" lon="12.591725"><ele>179.20000000000002</ele><time>2026-04-25T12:53:33.994Z</time></trkpt><trkpt lat="46.0813783" lon="12.59185"><ele>179.8</ele><time>2026-04-25T12:53:34.994Z</time></trkpt><trkpt lat="46.0813217" lon="12.5919717"><ele>180.4</ele><time>2026-04-25T12:53:35.994Z</time></trkpt><trkpt lat="46.0812667" lon="12.5920917"><ele>181.0</ele><time>2026-04-25T12:53:36.995Z</time></trkpt><trkpt lat="46.0812133" lon="12.5921967"><ele>181.33333333333334</ele><time>2026-04-25T12:53:37.999Z</time></trkpt><trkpt lat="46.0811633" lon="12.592275"><ele>181.66666666666669</ele><time>2026-04-25T12:53:38.994Z</time></trkpt><trkpt lat="46.0811167" lon="12.59234"><ele>182.0</ele><time>2026-04-25T12:53:39.993Z</time></trkpt><trkpt lat="46.0810583" lon="12.59242"><ele>182.33333333333334</ele><time>2026-04-25T12:53:41.995Z</time></trkpt><trkpt lat="46.0809817" lon="12.5925133"><ele>182.66666666666666</ele><time>2026-04-25T12:53:44.996Z</time></trkpt><trkpt lat="46.080885" lon="12.592635"><ele>183.0</ele><time>2026-04-25T12:53:46.995Z</time></trkpt><trkpt lat="46.0808383" lon="12.5926983"><ele>182.8</ele><time>2026-04-25T12:53:47.994Z</time></trkpt><trkpt lat="46.0807617" lon="12.5928367"><ele>182.60000000000002</ele><time>2026-04-25T12:53:49.995Z</time></trkpt><trkpt lat="46.0807233" lon="12.5930117"><ele>182.39999999999998</ele><time>2026-04-25T12:53:51.994Z</time></trkpt><trkpt lat="46.0807133" lon="12.5931167"><ele>182.2</ele><time>2026-04-25T12:53:52.993Z</time></trkpt><trkpt lat="46.0807" lon="12.59323"><ele>182.0</ele><time>2026-04-25T12:53:53.993Z</time></trkpt><trkpt lat="46.08069" lon="12.593355"><ele>182.0</ele><time>2026-04-25T12:53:54.994Z</time></trkpt><trkpt lat="46.08069" lon="12.5934933"><ele>182.0</ele><time>2026-04-25T12:53:55.995Z</time></trkpt><trkpt lat="46.0806883" lon="12.5936417"><ele>182.0</ele><time>2026-04-25T12:53:56.994Z</time></trkpt><trkpt lat="46.0806933" lon="12.5937933"><ele>182.0</ele><time>2026-04-25T12:53:57.994Z</time></trkpt><trkpt lat="46.0806867" lon="12.59394"><ele>182.0</ele><time>2026-04-25T12:53:58.994Z</time></trkpt><trkpt lat="46.08067" lon="12.5940783"><ele>181.6</ele><time>2026-04-25T12:53:59.994Z</time></trkpt><trkpt lat="46.0806417" lon="12.5942067"><ele>181.2</ele><time>2026-04-25T12:54:00.993Z</time></trkpt><trkpt lat="46.0806" lon="12.594335"><ele>180.8</ele><time>2026-04-25T12:54:01.994Z</time></trkpt><trkpt lat="46.0805417" lon="12.5944683"><ele>180.4</ele><time>2026-04-25T12:54:02.997Z</time></trkpt><trkpt lat="46.080485" lon="12.5945917"><ele>180.0</ele><time>2026-04-25T12:54:03.995Z</time></trkpt><trkpt lat="46.0804333" lon="12.5947033"><ele>179.16666666666666</ele><time>2026-04-25T12:54:04.995Z</time></trkpt><trkpt lat="46.08038" lon="12.5948067"><ele>178.33333333333334</ele><time>2026-04-25T12:54:05.994Z</time></trkpt><trkpt lat="46.0803333" lon="12.5949017"><ele>177.5</ele><time>2026-04-25T12:54:06.993Z</time></trkpt><trkpt lat="46.0802883" lon="12.5949867"><ele>176.66666666666669</ele><time>2026-04-25T12:54:07.994Z</time></trkpt><trkpt lat="46.080245" lon="12.5950683"><ele>175.83333333333334</ele><time>2026-04-25T12:54:08.995Z</time></trkpt><trkpt lat="46.0802033" lon="12.59515"><ele>175.0</ele><time>2026-04-25T12:54:09.995Z</time></trkpt><trkpt lat="46.0801633" lon="12.5952317"><ele>175.0</ele><time>2026-04-25T12:54:10.995Z</time></trkpt><trkpt lat="46.0801217" lon="12.595315"><ele>175.0</ele><time>2026-04-25T12:54:11.993Z</time></trkpt><trkpt lat="46.0800817" lon="12.5954033"><ele>175.0</ele><time>2026-04-25T12:54:12.995Z</time></trkpt><trkpt lat="46.0800417" lon="12.5955"><ele>175.0</ele><time>2026-04-25T12:54:13.994Z</time></trkpt><trkpt lat="46.080005" lon="12.5955967"><ele>175.0</ele><time>2026-04-25T12:54:14.994Z</time></trkpt><trkpt lat="46.07997" lon="12.5957017"><ele>175.0</ele><time>2026-04-25T12:54:15.998Z</time></trkpt><trkpt lat="46.0799383" lon="12.59582"><ele>173.5</ele><time>2026-04-25T12:54:16.995Z</time></trkpt><trkpt lat="46.0799" lon="12.5959617"><ele>172.0</ele><time>2026-04-25T12:54:17.994Z</time></trkpt><trkpt lat="46.0798567" lon="12.5961317"><ele>170.5</ele><time>2026-04-25T12:54:18.994Z</time></trkpt><trkpt lat="46.0798133" lon="12.5963033"><ele>169.0</ele><time>2026-04-25T12:54:19.995Z</time></trkpt><trkpt lat="46.0797667" lon="12.5964583"><ele>168.5</ele><time>2026-04-25T12:54:20.994Z</time></trkpt><trkpt lat="46.0797183" lon="12.5966067"><ele>168.0</ele><time>2026-04-25T12:54:21.994Z</time></trkpt><trkpt lat="46.0796733" lon="12.5967533"><ele>167.5</ele><time>2026-04-25T12:54:22.993Z</time></trkpt><trkpt lat="46.079625" lon="12.5969017"><ele>167.0</ele><time>2026-04-25T12:54:23.994Z</time></trkpt><trkpt lat="46.0795733" lon="12.597045"><ele>167.0</ele><time>2026-04-25T12:54:24.994Z</time></trkpt><trkpt lat="46.0795167" lon="12.597185"><ele>167.0</ele><time>2026-04-25T12:54:25.994Z</time></trkpt><trkpt lat="46.07946" lon="12.5973183"><ele>167.0</ele><time>2026-04-25T12:54:26.994Z</time></trkpt><trkpt lat="46.0794033" lon="12.597435"><ele>167.0</ele><time>2026-04-25T12:54:27.992Z</time></trkpt><trkpt lat="46.079345" lon="12.5975383"><ele>167.0</ele><time>2026-04-25T12:54:28.994Z</time></trkpt><trkpt lat="46.0792817" lon="12.5976367"><ele>167.0</ele><time>2026-04-25T12:54:29.993Z</time></trkpt><trkpt lat="46.0792183" lon="12.59773"><ele>167.0</ele><time>2026-04-25T12:54:30.994Z</time></trkpt><trkpt lat="46.0791483" lon="12.5978267"><ele>167.0</ele><time>2026-04-25T12:54:31.993Z</time></trkpt><trkpt lat="46.0790833" lon="12.5979317"><ele>167.0</ele><time>2026-04-25T12:54:32.994Z</time></trkpt><trkpt lat="46.0790283" lon="12.5980383"><ele>167.0</ele><time>2026-04-25T12:54:33.992Z</time></trkpt><trkpt lat="46.0789767" lon="12.598135"><ele>167.16666666666666</ele><time>2026-04-25T12:54:34.994Z</time></trkpt><trkpt lat="46.078925" lon="12.59822"><ele>167.33333333333331</ele><time>2026-04-25T12:54:35.993Z</time></trkpt><trkpt lat="46.0788667" lon="12.5982917"><ele>167.5</ele><time>2026-04-25T12:54:36.993Z</time></trkpt><trkpt lat="46.0787967" lon="12.5983517"><ele>167.66666666666666</ele><time>2026-04-25T12:54:37.995Z</time></trkpt><trkpt lat="46.0787183" lon="12.5983967"><ele>167.83333333333334</ele><time>2026-04-25T12:54:38.994Z</time></trkpt><trkpt lat="46.0786367" lon="12.598435"><ele>168.0</ele><time>2026-04-25T12:54:39.994Z</time></trkpt><trkpt lat="46.0785583" lon="12.598475"><ele>168.0</ele><time>2026-04-25T12:54:40.993Z</time></trkpt><trkpt lat="46.0784883" lon="12.59851"><ele>168.0</ele><time>2026-04-25T12:54:41.995Z</time></trkpt><trkpt lat="46.0784233" lon="12.5985383"><ele>168.0</ele><time>2026-04-25T12:54:42.993Z</time></trkpt><trkpt lat="46.0783633" lon="12.5985683"><ele>168.0</ele><time>2026-04-25T12:54:43.993Z</time></trkpt><trkpt lat="46.0782533" lon="12.59862"><ele>168.0</ele><time>2026-04-25T12:54:45.995Z</time></trkpt><trkpt lat="46.0781417" lon="12.5986317"><ele>168.0</ele><time>2026-04-25T12:54:47.993Z</time></trkpt><trkpt lat="46.078075" lon="12.598615"><ele>167.71428571428572</ele><time>2026-04-25T12:54:48.993Z</time></trkpt><trkpt lat="46.0780033" lon="12.59859"><ele>167.42857142857144</ele><time>2026-04-25T12:54:49.994Z</time></trkpt><trkpt lat="46.0779305" lon="12.5985594"><ele>167.14285714285714</ele><time>2026-04-25T12:54:50.994Z</time></trkpt><trkpt lat="46.077856" lon="12.5985318"><ele>166.85714285714286</ele><time>2026-04-25T12:54:51.993Z</time></trkpt><trkpt lat="46.0777861" lon="12.5985087"><ele>166.57142857142858</ele><time>2026-04-25T12:54:52.997Z</time></trkpt><trkpt lat="46.0777171" lon="12.598488"><ele>166.28571428571428</ele><time>2026-04-25T12:54:53.993Z</time></trkpt><trkpt lat="46.0776473" lon="12.598465"><ele>166.0</ele><time>2026-04-25T12:54:54.994Z</time></trkpt><trkpt lat="46.0775838" lon="12.5984427"><ele>166.0</ele><time>2026-04-25T12:54:55.993Z</time></trkpt><trkpt lat="46.0775203" lon="12.5984239"><ele>166.0</ele><time>2026-04-25T12:54:56.995Z</time></trkpt><trkpt lat="46.077457" lon="12.5984083"><ele>166.0</ele><time>2026-04-25T12:54:57.994Z</time></trkpt><trkpt lat="46.0773927" lon="12.5983945"><ele>166.0</ele><time>2026-04-25T12:54:58.994Z</time></trkpt><trkpt lat="46.0773302" lon="12.5983794"><ele>166.0</ele><time>2026-04-25T12:54:59.994Z</time></trkpt><trkpt lat="46.077267" lon="12.5983612"><ele>166.0</ele><time>2026-04-25T12:55:00.993Z</time></trkpt><trkpt lat="46.0771466" lon="12.5983274"><ele>166.0</ele><time>2026-04-25T12:55:02.993Z</time></trkpt><trkpt lat="46.0770259" lon="12.5982886"><ele>165.60000000000002</ele><time>2026-04-25T12:55:04.993Z</time></trkpt><trkpt lat="46.0769075" lon="12.5982479"><ele>165.2</ele><time>2026-04-25T12:55:06.993Z</time></trkpt><trkpt lat="46.0768022" lon="12.5982158"><ele>164.8</ele><time>2026-04-25T12:55:08.996Z</time></trkpt><trkpt lat="46.0767048" lon="12.5981882"><ele>164.39999999999998</ele><time>2026-04-25T12:55:10.993Z</time></trkpt><trkpt lat="46.07662" lon="12.5981761"><ele>164.0</ele><time>2026-04-25T12:55:12.993Z</time></trkpt><trkpt lat="46.0765423" lon="12.5981599"><ele>163.83333333333331</ele><time>2026-04-25T12:55:14.994Z</time></trkpt><trkpt lat="46.0764659" lon="12.5981438"><ele>163.66666666666666</ele><time>2026-04-25T12:55:16.994Z</time></trkpt><trkpt lat="46.0763923" lon="12.5981388"><ele>163.5</ele><time>2026-04-25T12:55:20.07Z</time></trkpt><trkpt lat="46.0763031" lon="12.5981081"><ele>163.33333333333334</ele><time>2026-04-25T12:55:21.994Z</time></trkpt><trkpt lat="46.0762283" lon="12.5980814"><ele>163.16666666666669</ele><time>2026-04-25T12:55:24.016Z</time></trkpt><trkpt lat="46.0761619" lon="12.5980679"><ele>163.0</ele><time>2026-04-25T12:55:25.974Z</time></trkpt><trkpt lat="46.0760989" lon="12.5980444"><ele>163.0</ele><time>2026-04-25T12:55:27.996Z</time></trkpt><trkpt lat="46.076013" lon="12.5980246"><ele>163.0</ele><time>2026-04-25T12:55:31.009Z</time></trkpt><trkpt lat="46.0759502" lon="12.5980119"><ele>163.0</ele><time>2026-04-25T12:55:33.075Z</time></trkpt><trkpt lat="46.0758713" lon="12.5979734"><ele>163.0</ele><time>2026-04-25T12:55:35.993Z</time></trkpt><trkpt lat="46.0757875" lon="12.5979215"><ele>163.0</ele><time>2026-04-25T12:55:39.035Z</time></trkpt><trkpt lat="46.075705" lon="12.5978967"><ele>163.0</ele><time>2026-04-25T12:55:46.993Z</time></trkpt><trkpt lat="46.0756433" lon="12.59787"><ele>163.33333333333334</ele><time>2026-04-25T12:55:50.993Z</time></trkpt><trkpt lat="46.0755917" lon="12.5979483"><ele>163.66666666666669</ele><time>2026-04-25T12:55:57.995Z</time></trkpt><trkpt lat="46.0755483" lon="12.5980433"><ele>164.0</ele><time>2026-04-25T12:55:59.994Z</time></trkpt><trkpt lat="46.0755083" lon="12.5981483"><ele>164.33333333333334</ele><time>2026-04-25T12:56:02.993Z</time></trkpt><trkpt lat="46.0755117" lon="12.5982567"><ele>164.66666666666666</ele><time>2026-04-25T12:56:04.993Z</time></trkpt><trkpt lat="46.0755" lon="12.598405"><ele>165.0</ele><time>2026-04-25T12:56:06.993Z</time></trkpt><trkpt lat="46.07549" lon="12.5985833"><ele>165.00000000000003</ele><time>2026-04-25T12:56:08.995Z</time></trkpt><trkpt lat="46.0754867" lon="12.5986833"><ele>165.0</ele><time>2026-04-25T12:56:09.994Z</time></trkpt><trkpt lat="46.0754867" lon="12.5987817"><ele>165.0</ele><time>2026-04-25T12:56:10.993Z</time></trkpt><trkpt lat="46.07549" lon="12.5988817"><ele>165.0</ele><time>2026-04-25T12:56:11.994Z</time></trkpt><trkpt lat="46.0754933" lon="12.598985"><ele>165.0</ele><time>2026-04-25T12:56:12.996Z</time></trkpt><trkpt lat="46.075495" lon="12.5990917"><ele>165.00000000000003</ele><time>2026-04-25T12:56:13.993Z</time></trkpt><trkpt lat="46.0754983" lon="12.5991983"><ele>165.0</ele><time>2026-04-25T12:56:14.993Z</time></trkpt><trkpt lat="46.0755033" lon="12.599295"><ele>165.0</ele><time>2026-04-25T12:56:15.994Z</time></trkpt><trkpt lat="46.0755083" lon="12.5994433"><ele>165.0</ele><time>2026-04-25T12:56:17.996Z</time></trkpt><trkpt lat="46.0755183" lon="12.5995433"><ele>165.0</ele><time>2026-04-25T12:56:19.994Z</time></trkpt><trkpt lat="46.0755183" lon="12.5996733"><ele>165.0</ele><time>2026-04-25T12:56:22.994Z</time></trkpt><trkpt lat="46.075535" lon="12.5998317"><ele>165.0</ele><time>2026-04-25T12:56:24.994Z</time></trkpt><trkpt lat="46.0755467" lon="12.5999467"><ele>165.0</ele><time>2026-04-25T12:56:25.994Z</time></trkpt><trkpt lat="46.07556" lon="12.6000633"><ele>165.0</ele><time>2026-04-25T12:56:26.994Z</time></trkpt><trkpt lat="46.07558" lon="12.6001867"><ele>165.0</ele><time>2026-04-25T12:56:27.993Z</time></trkpt><trkpt lat="46.0756033" lon="12.6003283"><ele>165.0</ele><time>2026-04-25T12:56:28.993Z</time></trkpt><trkpt lat="46.075625" lon="12.60048"><ele>165.0</ele><time>2026-04-25T12:56:29.995Z</time></trkpt><trkpt lat="46.0756467" lon="12.60065"><ele>164.75</ele><time>2026-04-25T12:56:30.993Z</time></trkpt><trkpt lat="46.0756617" lon="12.60082"><ele>164.5</ele><time>2026-04-25T12:56:31.993Z</time></trkpt><trkpt lat="46.0756833" lon="12.601005"><ele>164.25</ele><time>2026-04-25T12:56:32.994Z</time></trkpt><trkpt lat="46.075705" lon="12.6011983"><ele>164.0</ele><time>2026-04-25T12:56:33.993Z</time></trkpt><trkpt lat="46.0757233" lon="12.60139"><ele>163.75</ele><time>2026-04-25T12:56:34.994Z</time></trkpt><trkpt lat="46.0757433" lon="12.6015767"><ele>163.5</ele><time>2026-04-25T12:56:35.993Z</time></trkpt><trkpt lat="46.075765" lon="12.6017567"><ele>163.25</ele><time>2026-04-25T12:56:36.995Z</time></trkpt><trkpt lat="46.0757783" lon="12.601945"><ele>163.0</ele><time>2026-04-25T12:56:37.995Z</time></trkpt><trkpt lat="46.07579" lon="12.6021383"><ele>163.5</ele><time>2026-04-25T12:56:38.994Z</time></trkpt><trkpt lat="46.0758017" lon="12.6023367"><ele>164.0</ele><time>2026-04-25T12:56:39.993Z</time></trkpt><trkpt lat="46.0758167" lon="12.602535"><ele>164.5</ele><time>2026-04-25T12:56:40.993Z</time></trkpt><trkpt lat="46.0758267" lon="12.6027367"><ele>165.0</ele><time>2026-04-25T12:56:41.994Z</time></trkpt><trkpt lat="46.0758417" lon="12.6029383"><ele>165.0</ele><time>2026-04-25T12:56:42.994Z</time></trkpt><trkpt lat="46.0758533" lon="12.6031333"><ele>165.0</ele><time>2026-04-25T12:56:43.993Z</time></trkpt><trkpt lat="46.0758667" lon="12.6033233"><ele>165.0</ele><time>2026-04-25T12:56:44.996Z</time></trkpt><trkpt lat="46.0758767" lon="12.6035167"><ele>165.0</ele><time>2026-04-25T12:56:45.993Z</time></trkpt><trkpt lat="46.075895" lon="12.603705"><ele>165.0</ele><time>2026-04-25T12:56:46.993Z</time></trkpt><trkpt lat="46.075915" lon="12.6038783"><ele>165.0</ele><time>2026-04-25T12:56:47.993Z</time></trkpt><trkpt lat="46.0759333" lon="12.6040367"><ele>165.0</ele><time>2026-04-25T12:56:48.993Z</time></trkpt><trkpt lat="46.0759483" lon="12.604185"><ele>165.0</ele><time>2026-04-25T12:56:49.994Z</time></trkpt><trkpt lat="46.07596" lon="12.6043183"><ele>165.0</ele><time>2026-04-25T12:56:50.995Z</time></trkpt><trkpt lat="46.0759683" lon="12.604435"><ele>165.0</ele><time>2026-04-25T12:56:51.999Z</time></trkpt><trkpt lat="46.0759667" lon="12.6045433"><ele>165.0</ele><time>2026-04-25T12:56:52.993Z</time></trkpt><trkpt lat="46.07595" lon="12.60464"><ele>165.0</ele><time>2026-04-25T12:56:53.993Z</time></trkpt><trkpt lat="46.075905" lon="12.6047383"><ele>165.0</ele><time>2026-04-25T12:56:54.993Z</time></trkpt><trkpt lat="46.07583" lon="12.604855"><ele>165.0</ele><time>2026-04-25T12:56:55.993Z</time></trkpt><trkpt lat="46.0757533" lon="12.6049867"><ele>165.0</ele><time>2026-04-25T12:56:56.994Z</time></trkpt><trkpt lat="46.07568" lon="12.6051283"><ele>165.0</ele><time>2026-04-25T12:56:57.994Z</time></trkpt><trkpt lat="46.0755988" lon="12.6052823"><ele>165.0</ele><time>2026-04-25T12:56:58.993Z</time></trkpt><trkpt lat="46.0755153" lon="12.6054368"><ele>165.0</ele><time>2026-04-25T12:56:59.993Z</time></trkpt><trkpt lat="46.0754361" lon="12.6055833"><ele>165.25</ele><time>2026-04-25T12:57:00.993Z</time></trkpt><trkpt lat="46.0753627" lon="12.6057196"><ele>165.5</ele><time>2026-04-25T12:57:01.993Z</time></trkpt><trkpt lat="46.0752929" lon="12.6058545"><ele>165.75</ele><time>2026-04-25T12:57:02.994Z</time></trkpt><trkpt lat="46.0752222" lon="12.6059977"><ele>166.0</ele><time>2026-04-25T12:57:03.994Z</time></trkpt><trkpt lat="46.0751547" lon="12.6061306"><ele>166.20000000000002</ele><time>2026-04-25T12:57:04.993Z</time></trkpt><trkpt lat="46.0750942" lon="12.6062359"><ele>166.4</ele><time>2026-04-25T12:57:05.994Z</time></trkpt><trkpt lat="46.0750435" lon="12.6063239"><ele>166.6</ele><time>2026-04-25T12:57:06.993Z</time></trkpt><trkpt lat="46.074962" lon="12.6064213"><ele>166.8</ele><time>2026-04-25T12:57:08.995Z</time></trkpt><trkpt lat="46.074864" lon="12.6064062"><ele>167.0</ele><time>2026-04-25T12:57:10.996Z</time></trkpt><trkpt lat="46.074789" lon="12.6063568"><ele>166.5</ele><time>2026-04-25T12:57:11.994Z</time></trkpt><trkpt lat="46.0746901" lon="12.606286"><ele>166.0</ele><time>2026-04-25T12:57:12.996Z</time></trkpt><trkpt lat="46.0745813" lon="12.6062034"><ele>165.5</ele><time>2026-04-25T12:57:13.993Z</time></trkpt><trkpt lat="46.0744742" lon="12.6061168"><ele>165.0</ele><time>2026-04-25T12:57:14.994Z</time></trkpt><trkpt lat="46.0743615" lon="12.6060283"><ele>164.75</ele><time>2026-04-25T12:57:15.993Z</time></trkpt><trkpt lat="46.0742433" lon="12.6059336"><ele>164.5</ele><time>2026-04-25T12:57:16.994Z</time></trkpt><trkpt lat="46.0741163" lon="12.6058368"><ele>164.25</ele><time>2026-04-25T12:57:17.993Z</time></trkpt><trkpt lat="46.0739883" lon="12.6057329"><ele>164.0</ele><time>2026-04-25T12:57:18.994Z</time></trkpt><trkpt lat="46.0738639" lon="12.6056209"><ele>163.66666666666666</ele><time>2026-04-25T12:57:19.995Z</time></trkpt><trkpt lat="46.0737391" lon="12.6055045"><ele>163.33333333333334</ele><time>2026-04-25T12:57:20.995Z</time></trkpt><trkpt lat="46.0736118" lon="12.60539"><ele>163.0</ele><time>2026-04-25T12:57:21.993Z</time></trkpt><trkpt lat="46.0734769" lon="12.6052791"><ele>163.66666666666669</ele><time>2026-04-25T12:57:22.994Z</time></trkpt><trkpt lat="46.0733418" lon="12.6051698"><ele>164.33333333333334</ele><time>2026-04-25T12:57:23.996Z</time></trkpt><trkpt lat="46.0732104" lon="12.6050524"><ele>165.0</ele><time>2026-04-25T12:57:24.993Z</time></trkpt><trkpt lat="46.0730771" lon="12.604933"><ele>163.66666666666666</ele><time>2026-04-25T12:57:25.994Z</time></trkpt><trkpt lat="46.0729418" lon="12.6048216"><ele>162.33333333333331</ele><time>2026-04-25T12:57:26.995Z</time></trkpt><trkpt lat="46.0728021" lon="12.6047174"><ele>161.0</ele><time>2026-04-25T12:57:27.993Z</time></trkpt><trkpt lat="46.0726602" lon="12.6046181"><ele>161.0</ele><time>2026-04-25T12:57:28.995Z</time></trkpt><trkpt lat="46.0725159" lon="12.6045231"><ele>161.0</ele><time>2026-04-25T12:57:29.994Z</time></trkpt><trkpt lat="46.0723688" lon="12.6044309"><ele>161.0</ele><time>2026-04-25T12:57:30.996Z</time></trkpt><trkpt lat="46.0722278" lon="12.604338"><ele>160.5</ele><time>2026-04-25T12:57:31.993Z</time></trkpt><trkpt lat="46.0720939" lon="12.6042406"><ele>160.0</ele><time>2026-04-25T12:57:32.993Z</time></trkpt><trkpt lat="46.0719635" lon="12.604138"><ele>159.5</ele><time>2026-04-25T12:57:33.995Z</time></trkpt><trkpt lat="46.0718313" lon="12.6040427"><ele>159.0</ele><time>2026-04-25T12:57:34.994Z</time></trkpt><trkpt lat="46.0717022" lon="12.6039662"><ele>159.0</ele><time>2026-04-25T12:57:35.994Z</time></trkpt><trkpt lat="46.0715879" lon="12.6039172"><ele>159.0</ele><time>2026-04-25T12:57:36.993Z</time></trkpt><trkpt lat="46.0714724" lon="12.6038831"><ele>159.0</ele><time>2026-04-25T12:57:37.996Z</time></trkpt><trkpt lat="46.0713486" lon="12.6038565"><ele>159.0</ele><time>2026-04-25T12:57:38.994Z</time></trkpt><trkpt lat="46.0712252" lon="12.6038296"><ele>159.0</ele><time>2026-04-25T12:57:39.993Z</time></trkpt><trkpt lat="46.07111" lon="12.6037895"><ele>159.0</ele><time>2026-04-25T12:57:40.994Z</time></trkpt><trkpt lat="46.0710023" lon="12.6037256"><ele>159.0</ele><time>2026-04-25T12:57:41.993Z</time></trkpt><trkpt lat="46.0708949" lon="12.6036316"><ele>159.0</ele><time>2026-04-25T12:57:42.996Z</time></trkpt><trkpt lat="46.0707845" lon="12.6035109"><ele>158.0</ele><time>2026-04-25T12:57:43.993Z</time></trkpt><trkpt lat="46.0706767" lon="12.6033808"><ele>157.0</ele><time>2026-04-25T12:57:44.994Z</time></trkpt><trkpt lat="46.0705787" lon="12.6032617"><ele>156.0</ele><time>2026-04-25T12:57:45.993Z</time></trkpt><trkpt lat="46.0704866" lon="12.6031584"><ele>155.0</ele><time>2026-04-25T12:57:46.994Z</time></trkpt><trkpt lat="46.0703969" lon="12.6030642"><ele>155.0</ele><time>2026-04-25T12:57:47.994Z</time></trkpt><trkpt lat="46.0703043" lon="12.6029728"><ele>155.0</ele><time>2026-04-25T12:57:48.998Z</time></trkpt><trkpt lat="46.0702043" lon="12.6028808"><ele>155.0</ele><time>2026-04-25T12:57:49.994Z</time></trkpt><trkpt lat="46.0701036" lon="12.6027904"><ele>155.0</ele><time>2026-04-25T12:57:50.994Z</time></trkpt><trkpt lat="46.0700091" lon="12.6027093"><ele>155.5</ele><time>2026-04-25T12:57:51.993Z</time></trkpt><trkpt lat="46.0699249" lon="12.6026331"><ele>156.0</ele><time>2026-04-25T12:57:52.995Z</time></trkpt><trkpt lat="46.0698458" lon="12.6025613"><ele>156.5</ele><time>2026-04-25T12:57:53.993Z</time></trkpt><trkpt lat="46.0697777" lon="12.60249"><ele>157.0</ele><time>2026-04-25T12:57:54.995Z</time></trkpt><trkpt lat="46.069729" lon="12.6024241"><ele>157.5</ele><time>2026-04-25T12:57:55.993Z</time></trkpt><trkpt lat="46.0696715" lon="12.6023352"><ele>158.0</ele><time>2026-04-25T12:57:57.994Z</time></trkpt><trkpt lat="46.0696283" lon="12.6022638"><ele>158.0</ele><time>2026-04-25T12:57:59.996Z</time></trkpt><trkpt lat="46.0695826" lon="12.6021663"><ele>158.0</ele><time>2026-04-25T12:58:01.994Z</time></trkpt><trkpt lat="46.0695194" lon="12.6020346"><ele>158.0</ele><time>2026-04-25T12:58:03.993Z</time></trkpt><trkpt lat="46.0694855" lon="12.6019572"><ele>158.0</ele><time>2026-04-25T12:58:04.994Z</time></trkpt><trkpt lat="46.0694397" lon="12.6018684"><ele>158.0</ele><time>2026-04-25T12:58:05.993Z</time></trkpt><trkpt lat="46.069377" lon="12.6017746"><ele>158.0</ele><time>2026-04-25T12:58:06.994Z</time></trkpt><trkpt lat="46.0693005" lon="12.601687"><ele>158.0</ele><time>2026-04-25T12:58:07.995Z</time></trkpt><trkpt lat="46.0692199" lon="12.6016104"><ele>158.0</ele><time>2026-04-25T12:58:08.994Z</time></trkpt><trkpt lat="46.0691417" lon="12.6015464"><ele>158.0</ele><time>2026-04-25T12:58:09.996Z</time></trkpt><trkpt lat="46.0690697" lon="12.601489"><ele>158.0</ele><time>2026-04-25T12:58:10.994Z</time></trkpt><trkpt lat="46.0689959" lon="12.6014232"><ele>158.0</ele><time>2026-04-25T12:58:11.994Z</time></trkpt><trkpt lat="46.0689209" lon="12.6013445"><ele>158.0</ele><time>2026-04-25T12:58:12.996Z</time></trkpt><trkpt lat="46.0688365" lon="12.6012561"><ele>157.25</ele><time>2026-04-25T12:58:13.994Z</time></trkpt><trkpt lat="46.068741" lon="12.601158"><ele>156.5</ele><time>2026-04-25T12:58:14.994Z</time></trkpt><trkpt lat="46.0686402" lon="12.6010538"><ele>155.75</ele><time>2026-04-25T12:58:15.994Z</time></trkpt><trkpt lat="46.0685407" lon="12.6009494"><ele>155.0</ele><time>2026-04-25T12:58:16.994Z</time></trkpt><trkpt lat="46.0684468" lon="12.6008337"><ele>155.0</ele><time>2026-04-25T12:58:17.993Z</time></trkpt><trkpt lat="46.0683575" lon="12.6006998"><ele>155.0</ele><time>2026-04-25T12:58:18.994Z</time></trkpt><trkpt lat="46.0682745" lon="12.6005681"><ele>155.0</ele><time>2026-04-25T12:58:19.993Z</time></trkpt><trkpt lat="46.0682017" lon="12.6004492"><ele>155.0</ele><time>2026-04-25T12:58:20.994Z</time></trkpt><trkpt lat="46.0681327" lon="12.6003476"><ele>154.5</ele><time>2026-04-25T12:58:21.995Z</time></trkpt><trkpt lat="46.0680686" lon="12.6002581"><ele>154.0</ele><time>2026-04-25T12:58:22.994Z</time></trkpt><trkpt lat="46.0680146" lon="12.6001804"><ele>153.5</ele><time>2026-04-25T12:58:23.994Z</time></trkpt><trkpt lat="46.0679679" lon="12.6001083"><ele>153.0</ele><time>2026-04-25T12:58:24.994Z</time></trkpt><trkpt lat="46.0679084" lon="12.5999986"><ele>152.5</ele><time>2026-04-25T12:58:26.994Z</time></trkpt><trkpt lat="46.0679052" lon="12.5998626"><ele>152.0</ele><time>2026-04-25T12:58:28.994Z</time></trkpt><trkpt lat="46.0679248" lon="12.5997738"><ele>152.0</ele><time>2026-04-25T12:58:29.996Z</time></trkpt><trkpt lat="46.0679574" lon="12.5996717"><ele>152.0</ele><time>2026-04-25T12:58:30.995Z</time></trkpt><trkpt lat="46.0679958" lon="12.5995599"><ele>152.0</ele><time>2026-04-25T12:58:31.994Z</time></trkpt><trkpt lat="46.0680393" lon="12.5994373"><ele>152.0</ele><time>2026-04-25T12:58:32.995Z</time></trkpt><trkpt lat="46.0680867" lon="12.5993037"><ele>152.0</ele><time>2026-04-25T12:58:33.994Z</time></trkpt><trkpt lat="46.068136" lon="12.5991661"><ele>152.0</ele><time>2026-04-25T12:58:34.996Z</time></trkpt><trkpt lat="46.0681825" lon="12.5990323"><ele>152.0</ele><time>2026-04-25T12:58:35.995Z</time></trkpt><trkpt lat="46.068231" lon="12.5988925"><ele>152.0</ele><time>2026-04-25T12:58:36.995Z</time></trkpt><trkpt lat="46.0682839" lon="12.5987476"><ele>152.0</ele><time>2026-04-25T12:58:37.995Z</time></trkpt><trkpt lat="46.0683394" lon="12.598599"><ele>152.0</ele><time>2026-04-25T12:58:38.994Z</time></trkpt><trkpt lat="46.0683973" lon="12.5984457"><ele>152.2</ele><time>2026-04-25T12:58:39.993Z</time></trkpt><trkpt lat="46.0684523" lon="12.5982833"><ele>152.39999999999998</ele><time>2026-04-25T12:58:40.997Z</time></trkpt><trkpt lat="46.068503" lon="12.5981366"><ele>152.60000000000002</ele><time>2026-04-25T12:58:41.993Z</time></trkpt><trkpt lat="46.0685432" lon="12.5980321"><ele>152.8</ele><time>2026-04-25T12:58:42.993Z</time></trkpt><trkpt lat="46.0685396" lon="12.5979184"><ele>153.0</ele><time>2026-04-25T12:58:44.995Z</time></trkpt><trkpt lat="46.0684433" lon="12.5979166"><ele>153.0</ele><time>2026-04-25T12:58:46.994Z</time></trkpt><trkpt lat="46.0683063" lon="12.5979614"><ele>153.0</ele><time>2026-04-25T12:58:48.995Z</time></trkpt><trkpt lat="46.0682113" lon="12.5980083"><ele>153.0</ele><time>2026-04-25T12:58:49.997Z</time></trkpt><trkpt lat="46.0681025" lon="12.5980673"><ele>153.0</ele><time>2026-04-25T12:58:50.994Z</time></trkpt><trkpt lat="46.0679859" lon="12.5981361"><ele>152.75</ele><time>2026-04-25T12:58:51.994Z</time></trkpt><trkpt lat="46.067864" lon="12.5981938"><ele>152.5</ele><time>2026-04-25T12:58:52.993Z</time></trkpt><trkpt lat="46.0677409" lon="12.5982314"><ele>152.25</ele><time>2026-04-25T12:58:53.994Z</time></trkpt><trkpt lat="46.0676073" lon="12.5982779"><ele>152.0</ele><time>2026-04-25T12:58:54.994Z</time></trkpt><trkpt lat="46.0674667" lon="12.5983309"><ele>151.25</ele><time>2026-04-25T12:58:55.994Z</time></trkpt><trkpt lat="46.0673251" lon="12.5983879"><ele>150.5</ele><time>2026-04-25T12:58:56.994Z</time></trkpt><trkpt lat="46.0671855" lon="12.5984349"><ele>149.75</ele><time>2026-04-25T12:58:57.994Z</time></trkpt><trkpt lat="46.0670586" lon="12.5984317"><ele>149.0</ele><time>2026-04-25T12:58:58.995Z</time></trkpt><trkpt lat="46.0669376" lon="12.5983985"><ele>149.0</ele><time>2026-04-25T12:58:59.993Z</time></trkpt><trkpt lat="46.0668137" lon="12.5983612"><ele>149.0</ele><time>2026-04-25T12:59:00.994Z</time></trkpt><trkpt lat="46.0666917" lon="12.59833"><ele>149.0</ele><time>2026-04-25T12:59:01.994Z</time></trkpt><trkpt lat="46.0665767" lon="12.5982817"><ele>149.0</ele><time>2026-04-25T12:59:02.995Z</time></trkpt><trkpt lat="46.066465" lon="12.5981983"><ele>148.5</ele><time>2026-04-25T12:59:03.994Z</time></trkpt><trkpt lat="46.066355" lon="12.5980833"><ele>148.0</ele><time>2026-04-25T12:59:04.993Z</time></trkpt><trkpt lat="46.06625" lon="12.5979433"><ele>147.5</ele><time>2026-04-25T12:59:05.997Z</time></trkpt><trkpt lat="46.0661417" lon="12.5977983"><ele>147.0</ele><time>2026-04-25T12:59:06.995Z</time></trkpt><trkpt lat="46.0660383" lon="12.59766"><ele>147.0</ele><time>2026-04-25T12:59:07.994Z</time></trkpt><trkpt lat="46.06593" lon="12.597525"><ele>147.0</ele><time>2026-04-25T12:59:08.995Z</time></trkpt><trkpt lat="46.065825" lon="12.5973883"><ele>147.0</ele><time>2026-04-25T12:59:09.994Z</time></trkpt><trkpt lat="46.0657283" lon="12.59726"><ele>147.0</ele><time>2026-04-25T12:59:10.993Z</time></trkpt><trkpt lat="46.065645" lon="12.5971433"><ele>147.0</ele><time>2026-04-25T12:59:11.994Z</time></trkpt><trkpt lat="46.0655683" lon="12.59704"><ele>147.0</ele><time>2026-04-25T12:59:12.994Z</time></trkpt><trkpt lat="46.0655067" lon="12.596935"><ele>147.0</ele><time>2026-04-25T12:59:13.993Z</time></trkpt><trkpt lat="46.06547" lon="12.59681"><ele>147.0</ele><time>2026-04-25T12:59:14.994Z</time></trkpt><trkpt lat="46.0654733" lon="12.5966633"><ele>147.0</ele><time>2026-04-25T12:59:15.996Z</time></trkpt><trkpt lat="46.0655133" lon="12.59651"><ele>147.0</ele><time>2026-04-25T12:59:16.994Z</time></trkpt><trkpt lat="46.0655767" lon="12.59635"><ele>147.0</ele><time>2026-04-25T12:59:17.995Z</time></trkpt><trkpt lat="46.065645" lon="12.5961833"><ele>147.0</ele><time>2026-04-25T12:59:18.994Z</time></trkpt><trkpt lat="46.06572" lon="12.59601"><ele>147.0</ele><time>2026-04-25T12:59:19.994Z</time></trkpt><trkpt lat="46.0658033" lon="12.5958367"><ele>147.0</ele><time>2026-04-25T12:59:20.995Z</time></trkpt><trkpt lat="46.06589" lon="12.5956633"><ele>147.0</ele><time>2026-04-25T12:59:21.994Z</time></trkpt><trkpt lat="46.06598" lon="12.59549"><ele>147.0</ele><time>2026-04-25T12:59:22.993Z</time></trkpt><trkpt lat="46.0660717" lon="12.595315"><ele>147.0</ele><time>2026-04-25T12:59:23.997Z</time></trkpt><trkpt lat="46.0661617" lon="12.59514"><ele>147.0</ele><time>2026-04-25T12:59:24.995Z</time></trkpt><trkpt lat="46.06625" lon="12.5949683"><ele>147.0</ele><time>2026-04-25T12:59:25.994Z</time></trkpt><trkpt lat="46.06634" lon="12.5947933"><ele>147.0</ele><time>2026-04-25T12:59:26.999Z</time></trkpt><trkpt lat="46.0664283" lon="12.5946167"><ele>147.0</ele><time>2026-04-25T12:59:27.995Z</time></trkpt><trkpt lat="46.066515" lon="12.5944467"><ele>147.0</ele><time>2026-04-25T12:59:28.994Z</time></trkpt><trkpt lat="46.0666" lon="12.5942783"><ele>147.0</ele><time>2026-04-25T12:59:29.994Z</time></trkpt><trkpt lat="46.066685" lon="12.5941083"><ele>147.25</ele><time>2026-04-25T12:59:30.995Z</time></trkpt><trkpt lat="46.0667733" lon="12.5939417"><ele>147.5</ele><time>2026-04-25T12:59:31.994Z</time></trkpt><trkpt lat="46.0668633" lon="12.5937717"><ele>147.75</ele><time>2026-04-25T12:59:32.994Z</time></trkpt><trkpt lat="46.0669533" lon="12.5935967"><ele>148.0</ele><time>2026-04-25T12:59:33.993Z</time></trkpt><trkpt lat="46.0670467" lon="12.5934217"><ele>148.33333333333334</ele><time>2026-04-25T12:59:34.993Z</time></trkpt><trkpt lat="46.06714" lon="12.593245"><ele>148.66666666666666</ele><time>2026-04-25T12:59:35.993Z</time></trkpt><trkpt lat="46.067235" lon="12.5930667"><ele>149.0</ele><time>2026-04-25T12:59:36.993Z</time></trkpt><trkpt lat="46.0673283" lon="12.5928833"><ele>149.0</ele><time>2026-04-25T12:59:37.994Z</time></trkpt><trkpt lat="46.0674217" lon="12.5926983"><ele>149.0</ele><time>2026-04-25T12:59:38.995Z</time></trkpt><trkpt lat="46.067515" lon="12.5925133"><ele>149.0</ele><time>2026-04-25T12:59:39.994Z</time></trkpt><trkpt lat="46.0676083" lon="12.5923333"><ele>150.33333333333331</ele><time>2026-04-25T12:59:40.994Z</time></trkpt><trkpt lat="46.0677" lon="12.5921583"><ele>151.66666666666666</ele><time>2026-04-25T12:59:41.994Z</time></trkpt><trkpt lat="46.0677917" lon="12.5919817"><ele>153.0</ele><time>2026-04-25T12:59:42.994Z</time></trkpt><trkpt lat="46.06788" lon="12.5918033"><ele>153.33333333333334</ele><time>2026-04-25T12:59:43.996Z</time></trkpt><trkpt lat="46.06797" lon="12.5916233"><ele>153.66666666666669</ele><time>2026-04-25T12:59:44.994Z</time></trkpt><trkpt lat="46.0680583" lon="12.59144"><ele>154.0</ele><time>2026-04-25T12:59:45.994Z</time></trkpt><trkpt lat="46.0681467" lon="12.5912567"><ele>154.0</ele><time>2026-04-25T12:59:46.994Z</time></trkpt><trkpt lat="46.0682367" lon="12.5910783"><ele>154.0</ele><time>2026-04-25T12:59:47.995Z</time></trkpt><trkpt lat="46.0683267" lon="12.590905"><ele>154.0</ele><time>2026-04-25T12:59:48.995Z</time></trkpt><trkpt lat="46.0684117" lon="12.5907333"><ele>154.5</ele><time>2026-04-25T12:59:49.994Z</time></trkpt><trkpt lat="46.0684883" lon="12.5905567"><ele>155.0</ele><time>2026-04-25T12:59:50.994Z</time></trkpt><trkpt lat="46.0685533" lon="12.5903767"><ele>155.5</ele><time>2026-04-25T12:59:51.993Z</time></trkpt><trkpt lat="46.0685933" lon="12.5901917"><ele>156.0</ele><time>2026-04-25T12:59:52.995Z</time></trkpt><trkpt lat="46.068635" lon="12.5900117"><ele>156.25</ele><time>2026-04-25T12:59:53.995Z</time></trkpt><trkpt lat="46.0686817" lon="12.58983"><ele>156.5</ele><time>2026-04-25T12:59:54.994Z</time></trkpt><trkpt lat="46.0687267" lon="12.5896583"><ele>156.75</ele><time>2026-04-25T12:59:55.993Z</time></trkpt><trkpt lat="46.0687833" lon="12.589495"><ele>157.0</ele><time>2026-04-25T12:59:56.993Z</time></trkpt><trkpt lat="46.0688583" lon="12.5893417"><ele>157.25</ele><time>2026-04-25T12:59:57.993Z</time></trkpt><trkpt lat="46.0689517" lon="12.5892017"><ele>157.5</ele><time>2026-04-25T12:59:58.993Z</time></trkpt><trkpt lat="46.0690383" lon="12.5890517"><ele>157.75</ele><time>2026-04-25T12:59:59.994Z</time></trkpt><trkpt lat="46.0691183" lon="12.588905"><ele>158.0</ele><time>2026-04-25T13:00:00.993Z</time></trkpt><trkpt lat="46.069195" lon="12.5887667"><ele>159.0</ele><time>2026-04-25T13:00:01.993Z</time></trkpt><trkpt lat="46.0692667" lon="12.5886317"><ele>160.0</ele><time>2026-04-25T13:00:02.993Z</time></trkpt><trkpt lat="46.0693383" lon="12.5885017"><ele>161.0</ele><time>2026-04-25T13:00:03.992Z</time></trkpt><trkpt lat="46.069405" lon="12.5883667"><ele>162.0</ele><time>2026-04-25T13:00:04.993Z</time></trkpt><trkpt lat="46.0694683" lon="12.5882433"><ele>162.0</ele><time>2026-04-25T13:00:05.996Z</time></trkpt><trkpt lat="46.0695283" lon="12.5881283"><ele>162.0</ele><time>2026-04-25T13:00:06.995Z</time></trkpt><trkpt lat="46.0695783" lon="12.5880217"><ele>162.0</ele><time>2026-04-25T13:00:07.993Z</time></trkpt><trkpt lat="46.0696233" lon="12.5879283"><ele>162.0</ele><time>2026-04-25T13:00:08.996Z</time></trkpt><trkpt lat="46.0696617" lon="12.5878517"><ele>162.0</ele><time>2026-04-25T13:00:09.993Z</time></trkpt><trkpt lat="46.0697383" lon="12.5877267"><ele>162.0</ele><time>2026-04-25T13:00:11.993Z</time></trkpt><trkpt lat="46.0698017" lon="12.5875983"><ele>162.0</ele><time>2026-04-25T13:00:13.993Z</time></trkpt><trkpt lat="46.0698633" lon="12.5874817"><ele>162.0</ele><time>2026-04-25T13:00:15.994Z</time></trkpt><trkpt lat="46.06991" lon="12.5873983"><ele>162.0</ele><time>2026-04-25T13:00:17.992Z</time></trkpt><trkpt lat="46.0699783" lon="12.587335"><ele>162.0</ele><time>2026-04-25T13:00:21.997Z</time></trkpt><trkpt lat="46.0700317" lon="12.5872383"><ele>162.0</ele><time>2026-04-25T13:00:24.993Z</time></trkpt><trkpt lat="46.07008" lon="12.587135"><ele>162.0</ele><time>2026-04-25T13:00:27.993Z</time></trkpt><trkpt lat="46.0701267" lon="12.5870583"><ele>162.0</ele><time>2026-04-25T13:00:30.993Z</time></trkpt><trkpt lat="46.0701283" lon="12.5869533"><ele>162.0</ele><time>2026-04-25T13:00:45.992Z</time></trkpt><trkpt lat="46.0701817" lon="12.58686"><ele>162.0</ele><time>2026-04-25T13:00:46.993Z</time></trkpt><trkpt lat="46.07024" lon="12.5867633"><ele>162.0</ele><time>2026-04-25T13:00:47.993Z</time></trkpt><trkpt lat="46.0702933" lon="12.5866633"><ele>162.0</ele><time>2026-04-25T13:00:48.994Z</time></trkpt><trkpt lat="46.0703483" lon="12.5865617"><ele>162.0</ele><time>2026-04-25T13:00:49.993Z</time></trkpt><trkpt lat="46.0704067" lon="12.586445"><ele>162.0</ele><time>2026-04-25T13:00:50.993Z</time></trkpt><trkpt lat="46.0704633" lon="12.5863233"><ele>162.0</ele><time>2026-04-25T13:00:51.994Z</time></trkpt><trkpt lat="46.0705267" lon="12.5862117"><ele>162.0</ele><time>2026-04-25T13:00:52.994Z</time></trkpt><trkpt lat="46.0705933" lon="12.5860933"><ele>162.0</ele><time>2026-04-25T13:00:53.993Z</time></trkpt><trkpt lat="46.0706583" lon="12.585975"><ele>162.0</ele><time>2026-04-25T13:00:54.992Z</time></trkpt><trkpt lat="46.0707267" lon="12.585845"><ele>162.0</ele><time>2026-04-25T13:00:55.995Z</time></trkpt><trkpt lat="46.070795" lon="12.58571"><ele>162.0</ele><time>2026-04-25T13:00:56.994Z</time></trkpt><trkpt lat="46.0708667" lon="12.5855767"><ele>162.0</ele><time>2026-04-25T13:00:57.994Z</time></trkpt><trkpt lat="46.070935" lon="12.5854417"><ele>162.0</ele><time>2026-04-25T13:00:58.994Z</time></trkpt><trkpt lat="46.0710033" lon="12.5853067"><ele>162.0</ele><time>2026-04-25T13:00:59.995Z</time></trkpt><trkpt lat="46.07107" lon="12.5851633"><ele>162.0</ele><time>2026-04-25T13:01:00.995Z</time></trkpt><trkpt lat="46.0711367" lon="12.585025"><ele>162.0</ele><time>2026-04-25T13:01:01.994Z</time></trkpt><trkpt lat="46.0712067" lon="12.5848883"><ele>162.0</ele><time>2026-04-25T13:01:02.993Z</time></trkpt><trkpt lat="46.0712783" lon="12.584755"><ele>162.0</ele><time>2026-04-25T13:01:03.994Z</time></trkpt><trkpt lat="46.0713533" lon="12.5846217"><ele>162.0</ele><time>2026-04-25T13:01:04.993Z</time></trkpt><trkpt lat="46.0714267" lon="12.5844833"><ele>162.0</ele><time>2026-04-25T13:01:05.993Z</time></trkpt><trkpt lat="46.0715017" lon="12.58434"><ele>162.0</ele><time>2026-04-25T13:01:06.992Z</time></trkpt><trkpt lat="46.0715767" lon="12.5841933"><ele>162.2</ele><time>2026-04-25T13:01:07.993Z</time></trkpt><trkpt lat="46.0716467" lon="12.5840533"><ele>162.39999999999998</ele><time>2026-04-25T13:01:08.994Z</time></trkpt><trkpt lat="46.071715" lon="12.5839267"><ele>162.60000000000002</ele><time>2026-04-25T13:01:09.993Z</time></trkpt><trkpt lat="46.0717767" lon="12.5838217"><ele>162.8</ele><time>2026-04-25T13:01:10.993Z</time></trkpt><trkpt lat="46.07185" lon="12.5837533"><ele>163.0</ele><time>2026-04-25T13:01:11.993Z</time></trkpt><trkpt lat="46.0719333" lon="12.58375"><ele>163.0</ele><time>2026-04-25T13:01:12.993Z</time></trkpt><trkpt lat="46.072005" lon="12.58381"><ele>163.0</ele><time>2026-04-25T13:01:13.998Z</time></trkpt><trkpt lat="46.0720717" lon="12.5838717"><ele>163.0</ele><time>2026-04-25T13:01:14.994Z</time></trkpt><trkpt lat="46.0721417" lon="12.5839433"><ele>163.0</ele><time>2026-04-25T13:01:15.997Z</time></trkpt><trkpt lat="46.0722283" lon="12.5840183"><ele>163.0</ele><time>2026-04-25T13:01:16.993Z</time></trkpt><trkpt lat="46.0723217" lon="12.58408"><ele>163.0</ele><time>2026-04-25T13:01:17.993Z</time></trkpt><trkpt lat="46.072415" lon="12.5841183"><ele>163.0</ele><time>2026-04-25T13:01:18.993Z</time></trkpt><trkpt lat="46.0725033" lon="12.5841433"><ele>163.0</ele><time>2026-04-25T13:01:19.994Z</time></trkpt><trkpt lat="46.0725833" lon="12.584145"><ele>163.0</ele><time>2026-04-25T13:01:20.994Z</time></trkpt><trkpt lat="46.07267" lon="12.5841183"><ele>163.0</ele><time>2026-04-25T13:01:21.994Z</time></trkpt><trkpt lat="46.0727583" lon="12.5840783"><ele>163.0</ele><time>2026-04-25T13:01:22.994Z</time></trkpt><trkpt lat="46.072855" lon="12.58404"><ele>163.16666666666669</ele><time>2026-04-25T13:01:23.993Z</time></trkpt><trkpt lat="46.072955" lon="12.5839983"><ele>163.33333333333334</ele><time>2026-04-25T13:01:24.992Z</time></trkpt><trkpt lat="46.0730467" lon="12.58396"><ele>163.5</ele><time>2026-04-25T13:01:25.994Z</time></trkpt><trkpt lat="46.0731233" lon="12.5839233"><ele>163.66666666666666</ele><time>2026-04-25T13:01:26.993Z</time></trkpt><trkpt lat="46.0731833" lon="12.5838767"><ele>163.83333333333331</ele><time>2026-04-25T13:01:27.993Z</time></trkpt><trkpt lat="46.0732283" lon="12.5837983"><ele>164.0</ele><time>2026-04-25T13:01:28.993Z</time></trkpt><trkpt lat="46.0732717" lon="12.5837083"><ele>164.33333333333331</ele><time>2026-04-25T13:01:29.993Z</time></trkpt><trkpt lat="46.0733167" lon="12.58362"><ele>164.66666666666666</ele><time>2026-04-25T13:01:30.994Z</time></trkpt><trkpt lat="46.0733583" lon="12.583545"><ele>165.0</ele><time>2026-04-25T13:01:31.994Z</time></trkpt><trkpt lat="46.073445" lon="12.5834333"><ele>165.33333333333334</ele><time>2026-04-25T13:01:33.994Z</time></trkpt><trkpt lat="46.0735183" lon="12.5834183"><ele>165.66666666666669</ele><time>2026-04-25T13:01:35.993Z</time></trkpt><trkpt lat="46.0736" lon="12.5834883"><ele>166.0</ele><time>2026-04-25T13:01:37.994Z</time></trkpt><trkpt lat="46.0736867" lon="12.583585"><ele>165.60000000000002</ele><time>2026-04-25T13:01:39.995Z</time></trkpt><trkpt lat="46.073785" lon="12.5836867"><ele>165.2</ele><time>2026-04-25T13:01:41.993Z</time></trkpt><trkpt lat="46.0738783" lon="12.5837783"><ele>164.8</ele><time>2026-04-25T13:01:43.994Z</time></trkpt><trkpt lat="46.07395" lon="12.5838417"><ele>164.39999999999998</ele><time>2026-04-25T13:01:46.999Z</time></trkpt><trkpt lat="46.07401" lon="12.5838717"><ele>164.0</ele><time>2026-04-25T13:01:48.993Z</time></trkpt><trkpt lat="46.0740883" lon="12.5839033"><ele>164.5</ele><time>2026-04-25T13:01:50.994Z</time></trkpt><trkpt lat="46.0742033" lon="12.5839817"><ele>165.0</ele><time>2026-04-25T13:01:52.996Z</time></trkpt><trkpt lat="46.0742717" lon="12.58401"><ele>165.5</ele><time>2026-04-25T13:01:53.993Z</time></trkpt><trkpt lat="46.0743483" lon="12.5840267"><ele>166.0</ele><time>2026-04-25T13:01:54.993Z</time></trkpt><trkpt lat="46.0744267" lon="12.5840317"><ele>166.5</ele><time>2026-04-25T13:01:55.993Z</time></trkpt><trkpt lat="46.0745017" lon="12.5840333"><ele>167.0</ele><time>2026-04-25T13:01:56.994Z</time></trkpt><trkpt lat="46.07458" lon="12.58403"><ele>167.0</ele><time>2026-04-25T13:01:57.995Z</time></trkpt><trkpt lat="46.07466" lon="12.5840183"><ele>167.0</ele><time>2026-04-25T13:01:58.994Z</time></trkpt><trkpt lat="46.07474" lon="12.5840067"><ele>167.0</ele><time>2026-04-25T13:01:59.994Z</time></trkpt><trkpt lat="46.074815" lon="12.584"><ele>167.0</ele><time>2026-04-25T13:02:00.993Z</time></trkpt><trkpt lat="46.0748867" lon="12.5839917"><ele>167.0</ele><time>2026-04-25T13:02:01.993Z</time></trkpt><trkpt lat="46.0749583" lon="12.5839683"><ele>167.0</ele><time>2026-04-25T13:02:02.993Z</time></trkpt><trkpt lat="46.0750267" lon="12.58392"><ele>167.0</ele><time>2026-04-25T13:02:03.994Z</time></trkpt><trkpt lat="46.0751" lon="12.5838467"><ele>167.0</ele><time>2026-04-25T13:02:04.993Z</time></trkpt><trkpt lat="46.0751767" lon="12.5837617"><ele>167.0</ele><time>2026-04-25T13:02:05.993Z</time></trkpt><trkpt lat="46.0752517" lon="12.5836817"><ele>167.0</ele><time>2026-04-25T13:02:06.993Z</time></trkpt><trkpt lat="46.0753267" lon="12.583605"><ele>167.0</ele><time>2026-04-25T13:02:07.994Z</time></trkpt><trkpt lat="46.0754067" lon="12.583525"><ele>167.6</ele><time>2026-04-25T13:02:08.994Z</time></trkpt><trkpt lat="46.0754917" lon="12.58344"><ele>168.2</ele><time>2026-04-25T13:02:09.993Z</time></trkpt><trkpt lat="46.0755767" lon="12.5833483"><ele>168.8</ele><time>2026-04-25T13:02:10.997Z</time></trkpt><trkpt lat="46.0756567" lon="12.5832617"><ele>169.4</ele><time>2026-04-25T13:02:11.994Z</time></trkpt><trkpt lat="46.075735" lon="12.5831767"><ele>170.0</ele><time>2026-04-25T13:02:12.993Z</time></trkpt><trkpt lat="46.0758167" lon="12.5830933"><ele>170.5</ele><time>2026-04-25T13:02:13.995Z</time></trkpt><trkpt lat="46.0758983" lon="12.5830117"><ele>171.0</ele><time>2026-04-25T13:02:14.996Z</time></trkpt><trkpt lat="46.07597" lon="12.5829383"><ele>171.5</ele><time>2026-04-25T13:02:15.994Z</time></trkpt><trkpt lat="46.076035" lon="12.5828833"><ele>172.0</ele><time>2026-04-25T13:02:16.993Z</time></trkpt><trkpt lat="46.0760933" lon="12.58284"><ele>172.5</ele><time>2026-04-25T13:02:17.997Z</time></trkpt><trkpt lat="46.076155" lon="12.5828067"><ele>173.0</ele><time>2026-04-25T13:02:18.993Z</time></trkpt><trkpt lat="46.0762617" lon="12.58275"><ele>173.16666666666666</ele><time>2026-04-25T13:02:20.995Z</time></trkpt><trkpt lat="46.076355" lon="12.5826333"><ele>173.33333333333331</ele><time>2026-04-25T13:02:22.996Z</time></trkpt><trkpt lat="46.076395" lon="12.5825483"><ele>173.5</ele><time>2026-04-25T13:02:23.994Z</time></trkpt><trkpt lat="46.0764367" lon="12.5824783"><ele>173.66666666666666</ele><time>2026-04-25T13:02:24.993Z</time></trkpt><trkpt lat="46.076505" lon="12.582415"><ele>173.83333333333334</ele><time>2026-04-25T13:02:26.996Z</time></trkpt><trkpt lat="46.0765567" lon="12.5823517"><ele>174.0</ele><time>2026-04-25T13:02:30.993Z</time></trkpt><trkpt lat="46.0765417" lon="12.5822217"><ele>174.0</ele><time>2026-04-25T13:02:33.994Z</time></trkpt><trkpt lat="46.07648" lon="12.5821017"><ele>174.0</ele><time>2026-04-25T13:02:35.994Z</time></trkpt><trkpt lat="46.0764267" lon="12.5819933"><ele>174.0</ele><time>2026-04-25T13:02:37.994Z</time></trkpt><trkpt lat="46.0763767" lon="12.581905"><ele>174.0</ele><time>2026-04-25T13:02:39.994Z</time></trkpt><trkpt lat="46.0763333" lon="12.5818283"><ele>174.0</ele><time>2026-04-25T13:02:41.995Z</time></trkpt><trkpt lat="46.07628" lon="12.5817533"><ele>174.0</ele><time>2026-04-25T13:02:43.993Z</time></trkpt><trkpt lat="46.0762383" lon="12.5816567"><ele>174.0</ele><time>2026-04-25T13:02:45.993Z</time></trkpt><trkpt lat="46.0761783" lon="12.581555"><ele>174.0</ele><time>2026-04-25T13:02:47.994Z</time></trkpt><trkpt lat="46.0761333" lon="12.5814267"><ele>174.0</ele><time>2026-04-25T13:02:49.993Z</time></trkpt><trkpt lat="46.0760967" lon="12.58128"><ele>174.0</ele><time>2026-04-25T13:02:51.994Z</time></trkpt><trkpt lat="46.0760617" lon="12.581135"><ele>174.0</ele><time>2026-04-25T13:02:53.993Z</time></trkpt><trkpt lat="46.07604" lon="12.5809917"><ele>174.0</ele><time>2026-04-25T13:02:55.997Z</time></trkpt><trkpt lat="46.0760083" lon="12.5808583"><ele>174.0</ele><time>2026-04-25T13:02:57.993Z</time></trkpt><trkpt lat="46.0759867" lon="12.580745"><ele>174.0</ele><time>2026-04-25T13:02:59.993Z</time></trkpt><trkpt lat="46.0759717" lon="12.5806467"><ele>174.0</ele><time>2026-04-25T13:03:02.995Z</time></trkpt><trkpt lat="46.07602" lon="12.58056"><ele>174.0</ele><time>2026-04-25T13:03:06.994Z</time></trkpt><trkpt lat="46.0760783" lon="12.5804833"><ele>174.0</ele><time>2026-04-25T13:03:09.995Z</time></trkpt><trkpt lat="46.0761383" lon="12.5803867"><ele>174.0</ele><time>2026-04-25T13:03:12.993Z</time></trkpt><trkpt lat="46.0761933" lon="12.5803083"><ele>174.0</ele><time>2026-04-25T13:03:15.993Z</time></trkpt><trkpt lat="46.0762533" lon="12.5802633"><ele>174.0</ele><time>2026-04-25T13:03:18.995Z</time></trkpt><trkpt lat="46.0763433" lon="12.5802333"><ele>174.0</ele><time>2026-04-25T13:03:21.995Z</time></trkpt><trkpt lat="46.07641" lon="12.5802633"><ele>174.0</ele><time>2026-04-25T13:03:23.993Z</time></trkpt><trkpt lat="46.0764733" lon="12.580325"><ele>174.0</ele><time>2026-04-25T13:03:25.995Z</time></trkpt><trkpt lat="46.0765167" lon="12.5803933"><ele>174.0</ele><time>2026-04-25T13:03:27.994Z</time></trkpt><trkpt lat="46.076575" lon="12.58045"><ele>174.71428571428572</ele><time>2026-04-25T13:03:29.995Z</time></trkpt><trkpt lat="46.0766317" lon="12.5805083"><ele>175.42857142857144</ele><time>2026-04-25T13:03:31.997Z</time></trkpt><trkpt lat="46.076685" lon="12.58056"><ele>176.14285714285717</ele><time>2026-04-25T13:03:33.994Z</time></trkpt><trkpt lat="46.076745" lon="12.5806183"><ele>176.85714285714286</ele><time>2026-04-25T13:03:35.994Z</time></trkpt><trkpt lat="46.0768033" lon="12.5806717"><ele>177.57142857142858</ele><time>2026-04-25T13:03:37.997Z</time></trkpt><trkpt lat="46.07686" lon="12.58073"><ele>178.2857142857143</ele><time>2026-04-25T13:03:40.994Z</time></trkpt><trkpt lat="46.0769083" lon="12.5807917"><ele>179.0</ele><time>2026-04-25T13:03:42.994Z</time></trkpt><trkpt lat="46.0769667" lon="12.580855"><ele>179.0</ele><time>2026-04-25T13:03:44.998Z</time></trkpt><trkpt lat="46.0770333" lon="12.580915"><ele>179.0</ele><time>2026-04-25T13:03:46.993Z</time></trkpt><trkpt lat="46.0771" lon="12.5809783"><ele>179.0</ele><time>2026-04-25T13:03:48.995Z</time></trkpt><trkpt lat="46.0771617" lon="12.5810383"><ele>179.0</ele><time>2026-04-25T13:03:50.994Z</time></trkpt><trkpt lat="46.0772317" lon="12.5810833"><ele>179.0</ele><time>2026-04-25T13:03:53.994Z</time></trkpt><trkpt lat="46.077315" lon="12.5810683"><ele>179.0</ele><time>2026-04-25T13:03:56.995Z</time></trkpt><trkpt lat="46.0773967" lon="12.5810333"><ele>179.71428571428572</ele><time>2026-04-25T13:03:59.998Z</time></trkpt><trkpt lat="46.0774617" lon="12.58101"><ele>180.42857142857144</ele><time>2026-04-25T13:04:01.994Z</time></trkpt><trkpt lat="46.077525" lon="12.581"><ele>181.14285714285717</ele><time>2026-04-25T13:04:03.994Z</time></trkpt><trkpt lat="46.0776033" lon="12.58097"><ele>181.85714285714286</ele><time>2026-04-25T13:04:06.995Z</time></trkpt><trkpt lat="46.0776667" lon="12.580915"><ele>182.57142857142856</ele><time>2026-04-25T13:04:13.996Z</time></trkpt><trkpt lat="46.0777333" lon="12.5809083"><ele>183.2857142857143</ele><time>2026-04-25T13:04:24.995Z</time></trkpt><trkpt lat="46.077825" lon="12.5808717"><ele>184.0</ele><time>2026-04-25T13:04:27.995Z</time></trkpt><trkpt lat="46.07789" lon="12.5808467"><ele>184.0</ele><time>2026-04-25T13:04:30Z</time></trkpt><trkpt lat="46.0779567" lon="12.58082"><ele>184.0</ele><time>2026-04-25T13:04:31.994Z</time></trkpt><trkpt lat="46.078025" lon="12.5807933"><ele>184.0</ele><time>2026-04-25T13:04:33.994Z</time></trkpt><trkpt lat="46.078105" lon="12.5807567"><ele>184.0</ele><time>2026-04-25T13:04:35.996Z</time></trkpt><trkpt lat="46.0781983" lon="12.5807283"><ele>184.0</ele><time>2026-04-25T13:04:37.994Z</time></trkpt><trkpt lat="46.078285" lon="12.580685"><ele>184.0</ele><time>2026-04-25T13:04:39.995Z</time></trkpt><trkpt lat="46.078375" lon="12.5806683"><ele>184.42857142857144</ele><time>2026-04-25T13:04:41.993Z</time></trkpt><trkpt lat="46.0784617" lon="12.5806333"><ele>184.85714285714283</ele><time>2026-04-25T13:04:43.995Z</time></trkpt><trkpt lat="46.078535" lon="12.580605"><ele>185.28571428571428</ele><time>2026-04-25T13:04:45.993Z</time></trkpt><trkpt lat="46.07859" lon="12.5805517"><ele>185.71428571428572</ele><time>2026-04-25T13:04:48.994Z</time></trkpt><trkpt lat="46.07865" lon="12.580505"><ele>186.14285714285717</ele><time>2026-04-25T13:04:50.994Z</time></trkpt><trkpt lat="46.0787067" lon="12.5804617"><ele>186.57142857142856</ele><time>2026-04-25T13:04:52.995Z</time></trkpt><trkpt lat="46.078765" lon="12.58039"><ele>187.0</ele><time>2026-04-25T13:04:54.995Z</time></trkpt><trkpt lat="46.0787983" lon="12.5802917"><ele>187.0</ele><time>2026-04-25T13:04:56.995Z</time></trkpt><trkpt lat="46.07878" lon="12.5801933"><ele>187.0</ele><time>2026-04-25T13:04:58.994Z</time></trkpt><trkpt lat="46.0787333" lon="12.580075"><ele>187.0</ele><time>2026-04-25T13:05:00.992Z</time></trkpt><trkpt lat="46.0786783" lon="12.57996"><ele>187.0</ele><time>2026-04-25T13:05:02.993Z</time></trkpt><trkpt lat="46.0786533" lon="12.5798617"><ele>187.0</ele><time>2026-04-25T13:05:04.996Z</time></trkpt><trkpt lat="46.0786317" lon="12.5797383"><ele>187.0</ele><time>2026-04-25T13:05:07.992Z</time></trkpt><trkpt lat="46.0785983" lon="12.579645"><ele>187.0</ele><time>2026-04-25T13:05:09.994Z</time></trkpt><trkpt lat="46.0785833" lon="12.5795417"><ele>187.0</ele><time>2026-04-25T13:05:11.993Z</time></trkpt><trkpt lat="46.0785667" lon="12.5794417"><ele>187.0</ele><time>2026-04-25T13:05:14.995Z</time></trkpt><trkpt lat="46.0785617" lon="12.5795383"><ele>187.0</ele><time>2026-04-25T13:05:19.993Z</time></trkpt><trkpt lat="46.0785983" lon="12.5796433"><ele>187.0</ele><time>2026-04-25T13:05:22.993Z</time></trkpt><trkpt lat="46.0786083" lon="12.5797667"><ele>187.0</ele><time>2026-04-25T13:05:25.996Z</time></trkpt><trkpt lat="46.0786533" lon="12.579865"><ele>187.0</ele><time>2026-04-25T13:05:29.994Z</time></trkpt><trkpt lat="46.078695" lon="12.5799367"><ele>187.0</ele><time>2026-04-25T13:05:33.994Z</time></trkpt><trkpt lat="46.078735" lon="12.5800133"><ele>187.0</ele><time>2026-04-25T13:05:36.994Z</time></trkpt><trkpt lat="46.0787733" lon="12.5800967"><ele>187.0</ele><time>2026-04-25T13:05:38.994Z</time></trkpt><trkpt lat="46.07881" lon="12.5802033"><ele>187.0</ele><time>2026-04-25T13:05:40.994Z</time></trkpt><trkpt lat="46.078815" lon="12.5802983"><ele>187.0</ele><time>2026-04-25T13:05:42.994Z</time></trkpt><trkpt lat="46.07877" lon="12.58039"><ele>187.0</ele><time>2026-04-25T13:05:44.995Z</time></trkpt><trkpt lat="46.0787133" lon="12.5804583"><ele>187.0</ele><time>2026-04-25T13:05:46.993Z</time></trkpt><trkpt lat="46.0786333" lon="12.5804217"><ele>187.0</ele><time>2026-04-25T13:05:50.993Z</time></trkpt><trkpt lat="46.0785717" lon="12.580345"><ele>187.0</ele><time>2026-04-25T13:05:53.994Z</time></trkpt><trkpt lat="46.078525" lon="12.5802833"><ele>187.0</ele><time>2026-04-25T13:05:57.995Z</time></trkpt><trkpt lat="46.0784483" lon="12.5801867"><ele>187.0</ele><time>2026-04-25T13:06:20.994Z</time></trkpt><trkpt lat="46.078425" lon="12.5800933"><ele>187.0</ele><time>2026-04-25T13:06:23.993Z</time></trkpt><trkpt lat="46.07838" lon="12.5800217"><ele>187.0</ele><time>2026-04-25T13:06:27.994Z</time></trkpt><trkpt lat="46.0784083" lon="12.5801167"><ele>187.0</ele><time>2026-04-25T13:06:41.995Z</time></trkpt><trkpt lat="46.0784417" lon="12.5802183"><ele>187.0</ele><time>2026-04-25T13:06:44.993Z</time></trkpt><trkpt lat="46.0784167" lon="12.5803033"><ele>187.0</ele><time>2026-04-25T13:06:46.994Z</time></trkpt><trkpt lat="46.0783617" lon="12.5803767"><ele>187.0</ele><time>2026-04-25T13:06:48.993Z</time></trkpt><trkpt lat="46.078295" lon="12.58046"><ele>187.0</ele><time>2026-04-25T13:06:51.993Z</time></trkpt><trkpt lat="46.07825" lon="12.5805467"><ele>186.5</ele><time>2026-04-25T13:06:54.993Z</time></trkpt><trkpt lat="46.0781783" lon="12.5806167"><ele>186.0</ele><time>2026-04-25T13:06:57.993Z</time></trkpt><trkpt lat="46.0781267" lon="12.5806967"><ele>185.5</ele><time>2026-04-25T13:07:00.996Z</time></trkpt><trkpt lat="46.0780617" lon="12.5807567"><ele>185.0</ele><time>2026-04-25T13:07:04.994Z</time></trkpt><trkpt lat="46.078005" lon="12.58082"><ele>184.5</ele><time>2026-04-25T13:07:07.995Z</time></trkpt><trkpt lat="46.0779467" lon="12.5808633"><ele>184.0</ele><time>2026-04-25T13:07:10.994Z</time></trkpt><trkpt lat="46.07786" lon="12.5809017"><ele>184.0</ele><time>2026-04-25T13:07:13.993Z</time></trkpt><trkpt lat="46.0777767" lon="12.580935"><ele>184.0</ele><time>2026-04-25T13:07:15.994Z</time></trkpt><trkpt lat="46.0776883" lon="12.58098"><ele>184.0</ele><time>2026-04-25T13:07:17.994Z</time></trkpt><trkpt lat="46.0776" lon="12.5810117"><ele>184.0</ele><time>2026-04-25T13:07:19.995Z</time></trkpt><trkpt lat="46.0775" lon="12.581055"><ele>184.0</ele><time>2026-04-25T13:07:21.994Z</time></trkpt><trkpt lat="46.0774083" lon="12.581085"><ele>183.0</ele><time>2026-04-25T13:07:23.994Z</time></trkpt><trkpt lat="46.0773133" lon="12.58111"><ele>182.0</ele><time>2026-04-25T13:07:25.993Z</time></trkpt><trkpt lat="46.077215" lon="12.5810833"><ele>181.0</ele><time>2026-04-25T13:07:27.994Z</time></trkpt><trkpt lat="46.0771333" lon="12.5810167"><ele>180.0</ele><time>2026-04-25T13:07:29.993Z</time></trkpt><trkpt lat="46.07704" lon="12.580925"><ele>179.0</ele><time>2026-04-25T13:07:31.994Z</time></trkpt><trkpt lat="46.0769533" lon="12.5808367"><ele>179.0</ele><time>2026-04-25T13:07:33.994Z</time></trkpt><trkpt lat="46.076885" lon="12.580755"><ele>179.0</ele><time>2026-04-25T13:07:35.994Z</time></trkpt><trkpt lat="46.07682" lon="12.580665"><ele>179.0</ele><time>2026-04-25T13:07:37.996Z</time></trkpt><trkpt lat="46.0767417" lon="12.58059"><ele>179.0</ele><time>2026-04-25T13:07:39.994Z</time></trkpt><trkpt lat="46.0766783" lon="12.5805317"><ele>179.0</ele><time>2026-04-25T13:07:41.995Z</time></trkpt><trkpt lat="46.076625" lon="12.5804567"><ele>179.0</ele><time>2026-04-25T13:07:44.996Z</time></trkpt><trkpt lat="46.0765733" lon="12.5803883"><ele>178.71428571428572</ele><time>2026-04-25T13:07:46.994Z</time></trkpt><trkpt lat="46.0765133" lon="12.580325"><ele>178.42857142857144</ele><time>2026-04-25T13:07:48.994Z</time></trkpt><trkpt lat="46.0764517" lon="12.580275"><ele>178.14285714285717</ele><time>2026-04-25T13:07:50.996Z</time></trkpt><trkpt lat="46.0763883" lon="12.58023"><ele>177.85714285714286</ele><time>2026-04-25T13:07:52.995Z</time></trkpt><trkpt lat="46.0763217" lon="12.5802133"><ele>177.57142857142856</ele><time>2026-04-25T13:07:54.994Z</time></trkpt><trkpt lat="46.0762417" lon="12.5802533"><ele>177.2857142857143</ele><time>2026-04-25T13:07:57.994Z</time></trkpt><trkpt lat="46.07618" lon="12.5803167"><ele>177.0</ele><time>2026-04-25T13:07:59.996Z</time></trkpt><trkpt lat="46.0761333" lon="12.5803817"><ele>176.5</ele><time>2026-04-25T13:08:01.997Z</time></trkpt><trkpt lat="46.0760783" lon="12.5804567"><ele>176.0</ele><time>2026-04-25T13:08:04.994Z</time></trkpt><trkpt lat="46.0760267" lon="12.580525"><ele>175.5</ele><time>2026-04-25T13:08:08.993Z</time></trkpt><trkpt lat="46.0759733" lon="12.5806017"><ele>175.0</ele><time>2026-04-25T13:08:12.993Z</time></trkpt><trkpt lat="46.0759317" lon="12.5807517"><ele>174.5</ele><time>2026-04-25T13:08:15.993Z</time></trkpt><trkpt lat="46.075945" lon="12.5808533"><ele>174.0</ele><time>2026-04-25T13:08:16.993Z</time></trkpt><trkpt lat="46.0759583" lon="12.5809767"><ele>174.0</ele><time>2026-04-25T13:08:17.995Z</time></trkpt><trkpt lat="46.07599" lon="12.581135"><ele>174.0</ele><time>2026-04-25T13:08:18.995Z</time></trkpt><trkpt lat="46.0760317" lon="12.58131"><ele>174.0</ele><time>2026-04-25T13:08:19.994Z</time></trkpt><trkpt lat="46.0760917" lon="12.58148"><ele>174.0</ele><time>2026-04-25T13:08:20.994Z</time></trkpt><trkpt lat="46.0761783" lon="12.5816333"><ele>174.0</ele><time>2026-04-25T13:08:21.995Z</time></trkpt><trkpt lat="46.0762583" lon="12.581775"><ele>174.0</ele><time>2026-04-25T13:08:22.993Z</time></trkpt><trkpt lat="46.076325" lon="12.5818967"><ele>174.0</ele><time>2026-04-25T13:08:23.994Z</time></trkpt><trkpt lat="46.076385" lon="12.5820033"><ele>174.0</ele><time>2026-04-25T13:08:24.994Z</time></trkpt><trkpt lat="46.0764433" lon="12.5821083"><ele>174.0</ele><time>2026-04-25T13:08:25.996Z</time></trkpt><trkpt lat="46.0765" lon="12.5822083"><ele>174.0</ele><time>2026-04-25T13:08:26.996Z</time></trkpt><trkpt lat="46.0765633" lon="12.5822967"><ele>174.0</ele><time>2026-04-25T13:08:27.994Z</time></trkpt><trkpt lat="46.0766267" lon="12.582375"><ele>174.0</ele><time>2026-04-25T13:08:28.993Z</time></trkpt><trkpt lat="46.0766967" lon="12.582445"><ele>174.0</ele><time>2026-04-25T13:08:29.993Z</time></trkpt><trkpt lat="46.07678" lon="12.582515"><ele>174.0</ele><time>2026-04-25T13:08:30.994Z</time></trkpt><trkpt lat="46.0768767" lon="12.582575"><ele>174.75</ele><time>2026-04-25T13:08:31.993Z</time></trkpt><trkpt lat="46.0769783" lon="12.58263"><ele>175.5</ele><time>2026-04-25T13:08:32.994Z</time></trkpt><trkpt lat="46.0770767" lon="12.5827"><ele>176.25</ele><time>2026-04-25T13:08:33.994Z</time></trkpt><trkpt lat="46.0771783" lon="12.5827783"><ele>177.0</ele><time>2026-04-25T13:08:34.995Z</time></trkpt><trkpt lat="46.0772833" lon="12.58285"><ele>177.0</ele><time>2026-04-25T13:08:35.994Z</time></trkpt><trkpt lat="46.07739" lon="12.58292"><ele>177.0</ele><time>2026-04-25T13:08:36.994Z</time></trkpt><trkpt lat="46.0774967" lon="12.5829933"><ele>177.0</ele><time>2026-04-25T13:08:37.995Z</time></trkpt><trkpt lat="46.0775983" lon="12.5830733"><ele>177.0</ele><time>2026-04-25T13:08:38.994Z</time></trkpt><trkpt lat="46.0776967" lon="12.5831567"><ele>178.5</ele><time>2026-04-25T13:08:39.994Z</time></trkpt><trkpt lat="46.077795" lon="12.58324"><ele>180.0</ele><time>2026-04-25T13:08:40.994Z</time></trkpt><trkpt lat="46.07789" lon="12.5833267"><ele>181.5</ele><time>2026-04-25T13:08:41.993Z</time></trkpt><trkpt lat="46.07799" lon="12.583415"><ele>183.0</ele><time>2026-04-25T13:08:42.995Z</time></trkpt><trkpt lat="46.07809" lon="12.5835033"><ele>183.0</ele><time>2026-04-25T13:08:43.995Z</time></trkpt><trkpt lat="46.0781917" lon="12.58359"><ele>183.0</ele><time>2026-04-25T13:08:44.994Z</time></trkpt><trkpt lat="46.0782933" lon="12.5836817"><ele>183.0</ele><time>2026-04-25T13:08:45.993Z</time></trkpt><trkpt lat="46.078395" lon="12.5837683"><ele>183.0</ele><time>2026-04-25T13:08:46.994Z</time></trkpt><trkpt lat="46.0784883" lon="12.5838467"><ele>183.16666666666666</ele><time>2026-04-25T13:08:47.994Z</time></trkpt><trkpt lat="46.0785717" lon="12.5839183"><ele>183.33333333333334</ele><time>2026-04-25T13:08:48.994Z</time></trkpt><trkpt lat="46.0786433" lon="12.5839783"><ele>183.5</ele><time>2026-04-25T13:08:49.994Z</time></trkpt><trkpt lat="46.0786983" lon="12.5840233"><ele>183.66666666666669</ele><time>2026-04-25T13:08:50.995Z</time></trkpt><trkpt lat="46.078775" lon="12.584095"><ele>183.83333333333334</ele><time>2026-04-25T13:08:52.994Z</time></trkpt><trkpt lat="46.078835" lon="12.584155"><ele>184.0</ele><time>2026-04-25T13:08:55.994Z</time></trkpt><trkpt lat="46.0788817" lon="12.584245"><ele>184.0</ele><time>2026-04-25T13:09:00.994Z</time></trkpt><trkpt lat="46.0788467" lon="12.5843217"><ele>184.0</ele><time>2026-04-25T13:09:02.996Z</time></trkpt><trkpt lat="46.0787383" lon="12.5844267"><ele>184.0</ele><time>2026-04-25T13:09:04.994Z</time></trkpt><trkpt lat="46.0786667" lon="12.5844867"><ele>184.0</ele><time>2026-04-25T13:09:05.995Z</time></trkpt><trkpt lat="46.078605" lon="12.584555"><ele>184.0</ele><time>2026-04-25T13:09:06.997Z</time></trkpt><trkpt lat="46.0785417" lon="12.5846217"><ele>184.0</ele><time>2026-04-25T13:09:07.994Z</time></trkpt><trkpt lat="46.0784817" lon="12.584675"><ele>183.66666666666669</ele><time>2026-04-25T13:09:08.994Z</time></trkpt><trkpt lat="46.0784233" lon="12.5847267"><ele>183.33333333333334</ele><time>2026-04-25T13:09:09.995Z</time></trkpt><trkpt lat="46.0783667" lon="12.584785"><ele>183.0</ele><time>2026-04-25T13:09:10.994Z</time></trkpt><trkpt lat="46.0783067" lon="12.5848433"><ele>182.66666666666666</ele><time>2026-04-25T13:09:11.993Z</time></trkpt><trkpt lat="46.07824" lon="12.5849017"><ele>182.33333333333331</ele><time>2026-04-25T13:09:12.994Z</time></trkpt><trkpt lat="46.0781683" lon="12.5849617"><ele>182.0</ele><time>2026-04-25T13:09:13.995Z</time></trkpt><trkpt lat="46.0780917" lon="12.58504"><ele>181.6</ele><time>2026-04-25T13:09:14.995Z</time></trkpt><trkpt lat="46.07801" lon="12.5851233"><ele>181.2</ele><time>2026-04-25T13:09:15.994Z</time></trkpt><trkpt lat="46.077925" lon="12.5852083"><ele>180.8</ele><time>2026-04-25T13:09:16.995Z</time></trkpt><trkpt lat="46.07784" lon="12.5852933"><ele>180.4</ele><time>2026-04-25T13:09:17.995Z</time></trkpt><trkpt lat="46.0777483" lon="12.585375"><ele>180.0</ele><time>2026-04-25T13:09:18.994Z</time></trkpt><trkpt lat="46.0776533" lon="12.5854567"><ele>179.75</ele><time>2026-04-25T13:09:19.995Z</time></trkpt><trkpt lat="46.0775567" lon="12.5855433"><ele>179.5</ele><time>2026-04-25T13:09:20.994Z</time></trkpt><trkpt lat="46.0774633" lon="12.5856467"><ele>179.25</ele><time>2026-04-25T13:09:21.993Z</time></trkpt><trkpt lat="46.0773667" lon="12.5857433"><ele>179.0</ele><time>2026-04-25T13:09:22.995Z</time></trkpt><trkpt lat="46.0772683" lon="12.5858317"><ele>178.2</ele><time>2026-04-25T13:09:23.993Z</time></trkpt><trkpt lat="46.07717" lon="12.5859217"><ele>177.39999999999998</ele><time>2026-04-25T13:09:24.995Z</time></trkpt><trkpt lat="46.0770783" lon="12.5860117"><ele>176.6</ele><time>2026-04-25T13:09:25.993Z</time></trkpt><trkpt lat="46.07699" lon="12.5860983"><ele>175.8</ele><time>2026-04-25T13:09:26.994Z</time></trkpt><trkpt lat="46.0769017" lon="12.58618"><ele>175.0</ele><time>2026-04-25T13:09:27.999Z</time></trkpt><trkpt lat="46.076815" lon="12.5862517"><ele>174.8</ele><time>2026-04-25T13:09:28.994Z</time></trkpt><trkpt lat="46.07673" lon="12.5863267"><ele>174.6</ele><time>2026-04-25T13:09:29.994Z</time></trkpt><trkpt lat="46.0766417" lon="12.586405"><ele>174.39999999999998</ele><time>2026-04-25T13:09:30.993Z</time></trkpt><trkpt lat="46.07655" lon="12.5864917"><ele>174.2</ele><time>2026-04-25T13:09:31.994Z</time></trkpt><trkpt lat="46.0764517" lon="12.5865817"><ele>174.0</ele><time>2026-04-25T13:09:32.995Z</time></trkpt><trkpt lat="46.0763517" lon="12.5866783"><ele>173.5</ele><time>2026-04-25T13:09:33.994Z</time></trkpt><trkpt lat="46.0762483" lon="12.5867717"><ele>173.0</ele><time>2026-04-25T13:09:34.994Z</time></trkpt><trkpt lat="46.0761483" lon="12.58686"><ele>172.5</ele><time>2026-04-25T13:09:35.994Z</time></trkpt><trkpt lat="46.07605" lon="12.5869433"><ele>172.0</ele><time>2026-04-25T13:09:36.993Z</time></trkpt><trkpt lat="46.07596" lon="12.5870283"><ele>172.0</ele><time>2026-04-25T13:09:37.995Z</time></trkpt><trkpt lat="46.0758817" lon="12.5871017"><ele>172.0</ele><time>2026-04-25T13:09:38.994Z</time></trkpt><trkpt lat="46.07582" lon="12.5871583"><ele>172.0</ele><time>2026-04-25T13:09:39.993Z</time></trkpt><trkpt lat="46.0757233" lon="12.5872517"><ele>172.0</ele><time>2026-04-25T13:09:41.993Z</time></trkpt><trkpt lat="46.0756217" lon="12.58735"><ele>172.0</ele><time>2026-04-25T13:09:43.995Z</time></trkpt><trkpt lat="46.0755583" lon="12.5874083"><ele>171.6</ele><time>2026-04-25T13:09:44.994Z</time></trkpt><trkpt lat="46.0754833" lon="12.5874717"><ele>171.2</ele><time>2026-04-25T13:09:45.993Z</time></trkpt><trkpt lat="46.0754033" lon="12.58753"><ele>170.8</ele><time>2026-04-25T13:09:46.993Z</time></trkpt><trkpt lat="46.0753183" lon="12.5875867"><ele>170.4</ele><time>2026-04-25T13:09:47.993Z</time></trkpt><trkpt lat="46.0752233" lon="12.58764"><ele>170.0</ele><time>2026-04-25T13:09:48.993Z</time></trkpt><trkpt lat="46.0751183" lon="12.5876683"><ele>170.0</ele><time>2026-04-25T13:09:49.995Z</time></trkpt><trkpt lat="46.07501" lon="12.5876683"><ele>170.0</ele><time>2026-04-25T13:09:50.998Z</time></trkpt><trkpt lat="46.0749017" lon="12.58765"><ele>170.0</ele><time>2026-04-25T13:09:51.993Z</time></trkpt><trkpt lat="46.0747933" lon="12.587625"><ele>170.0</ele><time>2026-04-25T13:09:52.993Z</time></trkpt><trkpt lat="46.074685" lon="12.5876"><ele>170.0</ele><time>2026-04-25T13:09:53.993Z</time></trkpt><trkpt lat="46.07458" lon="12.5875767"><ele>170.5</ele><time>2026-04-25T13:09:54.993Z</time></trkpt><trkpt lat="46.0744733" lon="12.5875517"><ele>171.0</ele><time>2026-04-25T13:09:55.996Z</time></trkpt><trkpt lat="46.0743583" lon="12.5875367"><ele>171.5</ele><time>2026-04-25T13:09:56.993Z</time></trkpt><trkpt lat="46.0742383" lon="12.587535"><ele>172.0</ele><time>2026-04-25T13:09:57.997Z</time></trkpt><trkpt lat="46.0741183" lon="12.5875317"><ele>171.39999999999998</ele><time>2026-04-25T13:09:58.993Z</time></trkpt><trkpt lat="46.0740067" lon="12.5875333"><ele>170.79999999999998</ele><time>2026-04-25T13:09:59.993Z</time></trkpt><trkpt lat="46.0738983" lon="12.5875383"><ele>170.2</ele><time>2026-04-25T13:10:00.994Z</time></trkpt><trkpt lat="46.07379" lon="12.5875633"><ele>169.6</ele><time>2026-04-25T13:10:01.995Z</time></trkpt><trkpt lat="46.073685" lon="12.5876083"><ele>169.0</ele><time>2026-04-25T13:10:02.994Z</time></trkpt><trkpt lat="46.0735783" lon="12.587675"><ele>169.0</ele><time>2026-04-25T13:10:03.994Z</time></trkpt><trkpt lat="46.073485" lon="12.5877383"><ele>169.0</ele><time>2026-04-25T13:10:04.995Z</time></trkpt><trkpt lat="46.073405" lon="12.58779"><ele>169.0</ele><time>2026-04-25T13:10:05.994Z</time></trkpt><trkpt lat="46.0733283" lon="12.587855"><ele>169.0</ele><time>2026-04-25T13:10:06.995Z</time></trkpt><trkpt lat="46.0732617" lon="12.58792"><ele>169.0</ele><time>2026-04-25T13:10:07.993Z</time></trkpt><trkpt lat="46.0732083" lon="12.5879767"><ele>169.0</ele><time>2026-04-25T13:10:08.994Z</time></trkpt><trkpt lat="46.0731417" lon="12.5880433"><ele>168.79999999999998</ele><time>2026-04-25T13:10:10.994Z</time></trkpt><trkpt lat="46.0730767" lon="12.5880933"><ele>168.6</ele><time>2026-04-25T13:10:12.995Z</time></trkpt><trkpt lat="46.0729833" lon="12.588135"><ele>168.4</ele><time>2026-04-25T13:10:14.994Z</time></trkpt><trkpt lat="46.0728667" lon="12.5880917"><ele>168.2</ele><time>2026-04-25T13:10:16.994Z</time></trkpt><trkpt lat="46.0727867" lon="12.5880883"><ele>168.0</ele><time>2026-04-25T13:10:17.995Z</time></trkpt><trkpt lat="46.07268" lon="12.5880533"><ele>168.0</ele><time>2026-04-25T13:10:18.993Z</time></trkpt><trkpt lat="46.0725683" lon="12.58798"><ele>168.0</ele><time>2026-04-25T13:10:19.993Z</time></trkpt><trkpt lat="46.07245" lon="12.5879133"><ele>168.0</ele><time>2026-04-25T13:10:20.993Z</time></trkpt><trkpt lat="46.07233" lon="12.587855"><ele>168.0</ele><time>2026-04-25T13:10:21.993Z</time></trkpt><trkpt lat="46.0722117" lon="12.5877867"><ele>167.0</ele><time>2026-04-25T13:10:22.994Z</time></trkpt><trkpt lat="46.07209" lon="12.5877183"><ele>166.0</ele><time>2026-04-25T13:10:23.993Z</time></trkpt><trkpt lat="46.0719683" lon="12.5876567"><ele>165.0</ele><time>2026-04-25T13:10:24.994Z</time></trkpt><trkpt lat="46.071855" lon="12.5875917"><ele>164.0</ele><time>2026-04-25T13:10:25.993Z</time></trkpt><trkpt lat="46.07174" lon="12.5875283"><ele>164.0</ele><time>2026-04-25T13:10:26.994Z</time></trkpt><trkpt lat="46.0716183" lon="12.5874667"><ele>164.0</ele><time>2026-04-25T13:10:27.994Z</time></trkpt><trkpt lat="46.071495" lon="12.58741"><ele>164.0</ele><time>2026-04-25T13:10:28.994Z</time></trkpt><trkpt lat="46.07137" lon="12.58734"><ele>164.0</ele><time>2026-04-25T13:10:29.993Z</time></trkpt><trkpt lat="46.071245" lon="12.587265"><ele>163.5</ele><time>2026-04-25T13:10:30.993Z</time></trkpt><trkpt lat="46.071125" lon="12.5871917"><ele>163.0</ele><time>2026-04-25T13:10:31.993Z</time></trkpt><trkpt lat="46.0710133" lon="12.5871267"><ele>162.5</ele><time>2026-04-25T13:10:32.994Z</time></trkpt><trkpt lat="46.07091" lon="12.587065"><ele>162.0</ele><time>2026-04-25T13:10:33.995Z</time></trkpt><trkpt lat="46.070815" lon="12.5870083"><ele>162.0</ele><time>2026-04-25T13:10:34.996Z</time></trkpt><trkpt lat="46.07073" lon="12.5869633"><ele>162.0</ele><time>2026-04-25T13:10:35.993Z</time></trkpt><trkpt lat="46.07066" lon="12.5869233"><ele>162.0</ele><time>2026-04-25T13:10:36.994Z</time></trkpt><trkpt lat="46.070555" lon="12.5868667"><ele>162.0</ele><time>2026-04-25T13:10:38.994Z</time></trkpt><trkpt lat="46.0704833" lon="12.586825"><ele>162.0</ele><time>2026-04-25T13:10:40.992Z</time></trkpt><trkpt lat="46.0703983" lon="12.5867983"><ele>162.0</ele><time>2026-04-25T13:11:03.994Z</time></trkpt><trkpt lat="46.0702683" lon="12.5867217"><ele>162.0</ele><time>2026-04-25T13:11:05.993Z</time></trkpt><trkpt lat="46.07018" lon="12.5866933"><ele>162.0</ele><time>2026-04-25T13:11:06.994Z</time></trkpt><trkpt lat="46.0700767" lon="12.58666"><ele>162.0</ele><time>2026-04-25T13:11:07.994Z</time></trkpt><trkpt lat="46.069965" lon="12.586605"><ele>162.0</ele><time>2026-04-25T13:11:08.995Z</time></trkpt><trkpt lat="46.0698483" lon="12.586545"><ele>162.0</ele><time>2026-04-25T13:11:09.993Z</time></trkpt><trkpt lat="46.0697267" lon="12.5864833"><ele>162.0</ele><time>2026-04-25T13:11:10.994Z</time></trkpt><trkpt lat="46.0696" lon="12.5864167"><ele>162.0</ele><time>2026-04-25T13:11:11.995Z</time></trkpt><trkpt lat="46.06947" lon="12.5863533"><ele>162.0</ele><time>2026-04-25T13:11:12.994Z</time></trkpt><trkpt lat="46.0693333" lon="12.5862783"><ele>162.0</ele><time>2026-04-25T13:11:13.993Z</time></trkpt><trkpt lat="46.0691983" lon="12.5862033"><ele>161.5</ele><time>2026-04-25T13:11:14.993Z</time></trkpt><trkpt lat="46.0690683" lon="12.5861283"><ele>161.0</ele><time>2026-04-25T13:11:15.994Z</time></trkpt><trkpt lat="46.068945" lon="12.5860617"><ele>160.5</ele><time>2026-04-25T13:11:16.993Z</time></trkpt><trkpt lat="46.0688217" lon="12.58599"><ele>160.0</ele><time>2026-04-25T13:11:17.994Z</time></trkpt><trkpt lat="46.068695" lon="12.5859217"><ele>160.0</ele><time>2026-04-25T13:11:18.994Z</time></trkpt><trkpt lat="46.0685617" lon="12.5858517"><ele>160.0</ele><time>2026-04-25T13:11:19.993Z</time></trkpt><trkpt lat="46.0684267" lon="12.5857733"><ele>160.0</ele><time>2026-04-25T13:11:20.993Z</time></trkpt><trkpt lat="46.06829" lon="12.5857"><ele>160.0</ele><time>2026-04-25T13:11:21.993Z</time></trkpt><trkpt lat="46.06815" lon="12.58563"><ele>160.33333333333334</ele><time>2026-04-25T13:11:22.994Z</time></trkpt><trkpt lat="46.06801" lon="12.5855517"><ele>160.66666666666666</ele><time>2026-04-25T13:11:23.998Z</time></trkpt><trkpt lat="46.0678683" lon="12.5854683"><ele>161.0</ele><time>2026-04-25T13:11:24.993Z</time></trkpt><trkpt lat="46.0677267" lon="12.58539"><ele>161.0</ele><time>2026-04-25T13:11:25.993Z</time></trkpt><trkpt lat="46.0675883" lon="12.5853217"><ele>161.0</ele><time>2026-04-25T13:11:26.995Z</time></trkpt><trkpt lat="46.0674583" lon="12.5852517"><ele>161.0</ele><time>2026-04-25T13:11:27.993Z</time></trkpt><trkpt lat="46.067325" lon="12.5851967"><ele>161.0</ele><time>2026-04-25T13:11:28.993Z</time></trkpt><trkpt lat="46.0671917" lon="12.5851767"><ele>161.0</ele><time>2026-04-25T13:11:29.994Z</time></trkpt><trkpt lat="46.0670583" lon="12.5851633"><ele>161.0</ele><time>2026-04-25T13:11:30.994Z</time></trkpt><trkpt lat="46.06694" lon="12.5851183"><ele>161.0</ele><time>2026-04-25T13:11:31.995Z</time></trkpt><trkpt lat="46.0668417" lon="12.5850117"><ele>161.0</ele><time>2026-04-25T13:11:32.995Z</time></trkpt><trkpt lat="46.0667567" lon="12.5848833"><ele>161.0</ele><time>2026-04-25T13:11:33.996Z</time></trkpt><trkpt lat="46.066665" lon="12.58477"><ele>161.0</ele><time>2026-04-25T13:11:34.994Z</time></trkpt><trkpt lat="46.0665667" lon="12.5846583"><ele>161.0</ele><time>2026-04-25T13:11:35.994Z</time></trkpt><trkpt lat="46.06647" lon="12.5845283"><ele>161.0</ele><time>2026-04-25T13:11:36.993Z</time></trkpt><trkpt lat="46.06639" lon="12.5843783"><ele>161.0</ele><time>2026-04-25T13:11:37.994Z</time></trkpt><trkpt lat="46.0663283" lon="12.58423"><ele>161.0</ele><time>2026-04-25T13:11:38.993Z</time></trkpt><trkpt lat="46.0662817" lon="12.584105"><ele>161.0</ele><time>2026-04-25T13:11:39.993Z</time></trkpt><trkpt lat="46.0662467" lon="12.5840033"><ele>161.0</ele><time>2026-04-25T13:11:40.995Z</time></trkpt><trkpt lat="46.0662083" lon="12.5838667"><ele>161.0</ele><time>2026-04-25T13:11:42.994Z</time></trkpt><trkpt lat="46.0661983" lon="12.58374"><ele>161.0</ele><time>2026-04-25T13:11:44.993Z</time></trkpt><trkpt lat="46.0661283" lon="12.5836233"><ele>161.0</ele><time>2026-04-25T13:11:46.993Z</time></trkpt><trkpt lat="46.0660283" lon="12.5836917"><ele>161.0</ele><time>2026-04-25T13:11:48.994Z</time></trkpt><trkpt lat="46.06598" lon="12.5838017"><ele>161.0</ele><time>2026-04-25T13:11:49.994Z</time></trkpt><trkpt lat="46.06592" lon="12.58389"><ele>161.0</ele><time>2026-04-25T13:11:50.997Z</time></trkpt><trkpt lat="46.06584" lon="12.5839783"><ele>160.5</ele><time>2026-04-25T13:11:51.993Z</time></trkpt><trkpt lat="46.0657633" lon="12.5840817"><ele>160.0</ele><time>2026-04-25T13:11:52.995Z</time></trkpt><trkpt lat="46.0656767" lon="12.584185"><ele>159.5</ele><time>2026-04-25T13:11:53.993Z</time></trkpt><trkpt lat="46.065585" lon="12.5842967"><ele>159.0</ele><time>2026-04-25T13:11:54.993Z</time></trkpt><trkpt lat="46.065485" lon="12.5844083"><ele>159.0</ele><time>2026-04-25T13:11:55.993Z</time></trkpt><trkpt lat="46.06538" lon="12.58451"><ele>159.0</ele><time>2026-04-25T13:11:56.993Z</time></trkpt><trkpt lat="46.065275" lon="12.584605"><ele>159.0</ele><time>2026-04-25T13:11:57.993Z</time></trkpt><trkpt lat="46.065175" lon="12.5846783"><ele>159.0</ele><time>2026-04-25T13:11:58.993Z</time></trkpt><trkpt lat="46.0650883" lon="12.5847417"><ele>158.66666666666666</ele><time>2026-04-25T13:11:59.994Z</time></trkpt><trkpt lat="46.06501" lon="12.5847917"><ele>158.33333333333334</ele><time>2026-04-25T13:12:00.994Z</time></trkpt><trkpt lat="46.0649467" lon="12.58482"><ele>158.0</ele><time>2026-04-25T13:12:01.995Z</time></trkpt><trkpt lat="46.06485" lon="12.5847433"><ele>157.66666666666669</ele><time>2026-04-25T13:12:03.994Z</time></trkpt><trkpt lat="46.0647917" lon="12.5846583"><ele>157.33333333333334</ele><time>2026-04-25T13:12:04.995Z</time></trkpt><trkpt lat="46.0647333" lon="12.58455"><ele>157.0</ele><time>2026-04-25T13:12:05.993Z</time></trkpt><trkpt lat="46.0646683" lon="12.58444"><ele>156.75</ele><time>2026-04-25T13:12:06.994Z</time></trkpt><trkpt lat="46.0645983" lon="12.5843217"><ele>156.5</ele><time>2026-04-25T13:12:07.994Z</time></trkpt><trkpt lat="46.06452" lon="12.5841867"><ele>156.25</ele><time>2026-04-25T13:12:08.996Z</time></trkpt><trkpt lat="46.0644433" lon="12.5840517"><ele>156.0</ele><time>2026-04-25T13:12:09.994Z</time></trkpt><trkpt lat="46.0643717" lon="12.583915"><ele>156.0</ele><time>2026-04-25T13:12:10.994Z</time></trkpt><trkpt lat="46.0643" lon="12.5837817"><ele>156.0</ele><time>2026-04-25T13:12:11.996Z</time></trkpt><trkpt lat="46.0642267" lon="12.5836467"><ele>156.0</ele><time>2026-04-25T13:12:12.993Z</time></trkpt><trkpt lat="46.0641483" lon="12.5835117"><ele>156.0</ele><time>2026-04-25T13:12:13.996Z</time></trkpt><trkpt lat="46.0640717" lon="12.5833717"><ele>155.75</ele><time>2026-04-25T13:12:14.993Z</time></trkpt><trkpt lat="46.063995" lon="12.583225"><ele>155.5</ele><time>2026-04-25T13:12:15.994Z</time></trkpt><trkpt lat="46.063915" lon="12.583085"><ele>155.25</ele><time>2026-04-25T13:12:16.993Z</time></trkpt><trkpt lat="46.0638317" lon="12.5829417"><ele>155.0</ele><time>2026-04-25T13:12:17.993Z</time></trkpt><trkpt lat="46.06375" lon="12.5827967"><ele>155.0</ele><time>2026-04-25T13:12:18.994Z</time></trkpt><trkpt lat="46.0636667" lon="12.582645"><ele>155.0</ele><time>2026-04-25T13:12:19.993Z</time></trkpt><trkpt lat="46.0635817" lon="12.5824883"><ele>155.0</ele><time>2026-04-25T13:12:20.995Z</time></trkpt><trkpt lat="46.0635" lon="12.58234"><ele>155.0</ele><time>2026-04-25T13:12:21.993Z</time></trkpt><trkpt lat="46.0634167" lon="12.5821917"><ele>155.0</ele><time>2026-04-25T13:12:22.993Z</time></trkpt><trkpt lat="46.0633267" lon="12.58204"><ele>155.0</ele><time>2026-04-25T13:12:23.993Z</time></trkpt><trkpt lat="46.0632383" lon="12.581885"><ele>155.0</ele><time>2026-04-25T13:12:24.993Z</time></trkpt><trkpt lat="46.0631467" lon="12.5817283"><ele>155.0</ele><time>2026-04-25T13:12:25.994Z</time></trkpt><trkpt lat="46.063055" lon="12.5815683"><ele>154.75</ele><time>2026-04-25T13:12:26.994Z</time></trkpt><trkpt lat="46.062965" lon="12.5814067"><ele>154.5</ele><time>2026-04-25T13:12:27.993Z</time></trkpt><trkpt lat="46.062875" lon="12.5812433"><ele>154.25</ele><time>2026-04-25T13:12:28.995Z</time></trkpt><trkpt lat="46.0627817" lon="12.5810767"><ele>154.0</ele><time>2026-04-25T13:12:29.996Z</time></trkpt><trkpt lat="46.06269" lon="12.58091"><ele>153.75</ele><time>2026-04-25T13:12:30.994Z</time></trkpt><trkpt lat="46.062595" lon="12.58074"><ele>153.5</ele><time>2026-04-25T13:12:31.993Z</time></trkpt><trkpt lat="46.0625033" lon="12.580575"><ele>153.25</ele><time>2026-04-25T13:12:32.995Z</time></trkpt><trkpt lat="46.0624083" lon="12.5804133"><ele>153.0</ele><time>2026-04-25T13:12:33.993Z</time></trkpt><trkpt lat="46.0623117" lon="12.58026"><ele>153.5</ele><time>2026-04-25T13:12:34.993Z</time></trkpt><trkpt lat="46.0622183" lon="12.5801117"><ele>154.0</ele><time>2026-04-25T13:12:35.993Z</time></trkpt><trkpt lat="46.0621317" lon="12.57997"><ele>154.5</ele><time>2026-04-25T13:12:36.995Z</time></trkpt><trkpt lat="46.0620483" lon="12.5798383"><ele>155.0</ele><time>2026-04-25T13:12:37.995Z</time></trkpt><trkpt lat="46.0619733" lon="12.5797233"><ele>155.0</ele><time>2026-04-25T13:12:38.995Z</time></trkpt><trkpt lat="46.0619167" lon="12.579625"><ele>155.0</ele><time>2026-04-25T13:12:39.993Z</time></trkpt><trkpt lat="46.0618517" lon="12.5795"><ele>155.0</ele><time>2026-04-25T13:12:41.993Z</time></trkpt><trkpt lat="46.0617733" lon="12.5794767"><ele>155.0</ele><time>2026-04-25T13:12:44.994Z</time></trkpt><trkpt lat="46.0617183" lon="12.5795233"><ele>155.0</ele><time>2026-04-25T13:12:45.995Z</time></trkpt><trkpt lat="46.0616567" lon="12.5795933"><ele>155.0</ele><time>2026-04-25T13:12:46.994Z</time></trkpt><trkpt lat="46.0615783" lon="12.57967"><ele>154.4</ele><time>2026-04-25T13:12:47.993Z</time></trkpt><trkpt lat="46.0614867" lon="12.5797433"><ele>153.8</ele><time>2026-04-25T13:12:48.995Z</time></trkpt><trkpt lat="46.0613883" lon="12.5798167"><ele>153.2</ele><time>2026-04-25T13:12:49.994Z</time></trkpt><trkpt lat="46.061295" lon="12.5798967"><ele>152.6</ele><time>2026-04-25T13:12:50.995Z</time></trkpt><trkpt lat="46.0611933" lon="12.5799783"><ele>152.0</ele><time>2026-04-25T13:12:51.993Z</time></trkpt><trkpt lat="46.06109" lon="12.580065"><ele>152.0</ele><time>2026-04-25T13:12:52.994Z</time></trkpt><trkpt lat="46.060975" lon="12.580145"><ele>152.0</ele><time>2026-04-25T13:12:53.993Z</time></trkpt><trkpt lat="46.060855" lon="12.5802267"><ele>152.0</ele><time>2026-04-25T13:12:54.993Z</time></trkpt><trkpt lat="46.0607333" lon="12.5803033"><ele>152.0</ele><time>2026-04-25T13:12:55.993Z</time></trkpt><trkpt lat="46.0606167" lon="12.580375"><ele>151.0</ele><time>2026-04-25T13:12:56.994Z</time></trkpt><trkpt lat="46.06051" lon="12.5804417"><ele>150.0</ele><time>2026-04-25T13:12:57.993Z</time></trkpt><trkpt lat="46.0604117" lon="12.5804983"><ele>149.0</ele><time>2026-04-25T13:12:58.994Z</time></trkpt><trkpt lat="46.06031" lon="12.5805533"><ele>148.0</ele><time>2026-04-25T13:12:59.994Z</time></trkpt><trkpt lat="46.0602067" lon="12.5806133"><ele>147.0</ele><time>2026-04-25T13:13:00.994Z</time></trkpt><trkpt lat="46.0600983" lon="12.580675"><ele>147.0</ele><time>2026-04-25T13:13:01.994Z</time></trkpt><trkpt lat="46.0599833" lon="12.580725"><ele>147.0</ele><time>2026-04-25T13:13:02.995Z</time></trkpt><trkpt lat="46.05987" lon="12.5807767"><ele>147.0</ele><time>2026-04-25T13:13:03.994Z</time></trkpt><trkpt lat="46.0597617" lon="12.5808267"><ele>147.0</ele><time>2026-04-25T13:13:04.996Z</time></trkpt><trkpt lat="46.059655" lon="12.58088"><ele>146.4</ele><time>2026-04-25T13:13:05.994Z</time></trkpt><trkpt lat="46.0595533" lon="12.5809333"><ele>145.79999999999998</ele><time>2026-04-25T13:13:06.995Z</time></trkpt><trkpt lat="46.0594567" lon="12.5809867"><ele>145.2</ele><time>2026-04-25T13:13:07.994Z</time></trkpt><trkpt lat="46.05936" lon="12.5810383"><ele>144.6</ele><time>2026-04-25T13:13:08.994Z</time></trkpt><trkpt lat="46.0592533" lon="12.5811017"><ele>144.0</ele><time>2026-04-25T13:13:09.993Z</time></trkpt><trkpt lat="46.05915" lon="12.5811817"><ele>142.5</ele><time>2026-04-25T13:13:10.993Z</time></trkpt><trkpt lat="46.059045" lon="12.58128"><ele>141.0</ele><time>2026-04-25T13:13:11.993Z</time></trkpt><trkpt lat="46.05894" lon="12.5814017"><ele>139.5</ele><time>2026-04-25T13:13:12.995Z</time></trkpt><trkpt lat="46.0588367" lon="12.5815367"><ele>138.0</ele><time>2026-04-25T13:13:13.993Z</time></trkpt><trkpt lat="46.05873" lon="12.5816833"><ele>138.0</ele><time>2026-04-25T13:13:14.994Z</time></trkpt><trkpt lat="46.0586267" lon="12.58182"><ele>138.0</ele><time>2026-04-25T13:13:15.994Z</time></trkpt><trkpt lat="46.0585333" lon="12.58194"><ele>138.0</ele><time>2026-04-25T13:13:16.993Z</time></trkpt><trkpt lat="46.0584533" lon="12.5820367"><ele>138.0</ele><time>2026-04-25T13:13:17.995Z</time></trkpt><trkpt lat="46.058395" lon="12.5821017"><ele>138.0</ele><time>2026-04-25T13:13:18.993Z</time></trkpt><trkpt lat="46.0583117" lon="12.58218"><ele>137.20000000000002</ele><time>2026-04-25T13:13:20.994Z</time></trkpt><trkpt lat="46.05822" lon="12.58227"><ele>136.4</ele><time>2026-04-25T13:13:22.993Z</time></trkpt><trkpt lat="46.05815" lon="12.58234"><ele>135.60000000000002</ele><time>2026-04-25T13:13:23.994Z</time></trkpt><trkpt lat="46.0580617" lon="12.582425"><ele>134.8</ele><time>2026-04-25T13:13:24.995Z</time></trkpt><trkpt lat="46.057965" lon="12.582515"><ele>134.0</ele><time>2026-04-25T13:13:25.994Z</time></trkpt><trkpt lat="46.05786" lon="12.5826117"><ele>134.0</ele><time>2026-04-25T13:13:26.997Z</time></trkpt><trkpt lat="46.0577467" lon="12.582705"><ele>134.0</ele><time>2026-04-25T13:13:27.993Z</time></trkpt><trkpt lat="46.057625" lon="12.5827983"><ele>134.0</ele><time>2026-04-25T13:13:28.995Z</time></trkpt><trkpt lat="46.0575017" lon="12.582895"><ele>134.0</ele><time>2026-04-25T13:13:29.994Z</time></trkpt><trkpt lat="46.057375" lon="12.5829867"><ele>133.25</ele><time>2026-04-25T13:13:30.993Z</time></trkpt><trkpt lat="46.0572483" lon="12.5830717"><ele>132.5</ele><time>2026-04-25T13:13:31.994Z</time></trkpt><trkpt lat="46.0571283" lon="12.5831517"><ele>131.75</ele><time>2026-04-25T13:13:32.994Z</time></trkpt><trkpt lat="46.0570083" lon="12.58322"><ele>131.0</ele><time>2026-04-25T13:13:33.993Z</time></trkpt><trkpt lat="46.0568833" lon="12.58328"><ele>131.0</ele><time>2026-04-25T13:13:34.993Z</time></trkpt><trkpt lat="46.05675" lon="12.5833417"><ele>131.0</ele><time>2026-04-25T13:13:35.994Z</time></trkpt><trkpt lat="46.056615" lon="12.583395"><ele>131.0</ele><time>2026-04-25T13:13:36.993Z</time></trkpt><trkpt lat="46.0564933" lon="12.5834417"><ele>131.0</ele><time>2026-04-25T13:13:37.995Z</time></trkpt><trkpt lat="46.0563783" lon="12.5834667"><ele>130.25</ele><time>2026-04-25T13:13:38.995Z</time></trkpt><trkpt lat="46.0562562" lon="12.5834644"><ele>129.5</ele><time>2026-04-25T13:13:39.994Z</time></trkpt><trkpt lat="46.0561254" lon="12.5834369"><ele>128.75</ele><time>2026-04-25T13:13:40.998Z</time></trkpt><trkpt lat="46.0559921" lon="12.5833831"><ele>128.0</ele><time>2026-04-25T13:13:41.995Z</time></trkpt><trkpt lat="46.0558612" lon="12.5833115"><ele>126.66666666666666</ele><time>2026-04-25T13:13:42.995Z</time></trkpt><trkpt lat="46.0557245" lon="12.5832317"><ele>125.33333333333334</ele><time>2026-04-25T13:13:43.994Z</time></trkpt><trkpt lat="46.055581" lon="12.5831576"><ele>124.0</ele><time>2026-04-25T13:13:44.995Z</time></trkpt><trkpt lat="46.0554356" lon="12.5831033"><ele>124.0</ele><time>2026-04-25T13:13:45.996Z</time></trkpt><trkpt lat="46.0552887" lon="12.5830795"><ele>124.0</ele><time>2026-04-25T13:13:46.993Z</time></trkpt><trkpt lat="46.0551356" lon="12.5830821"><ele>124.0</ele><time>2026-04-25T13:13:47.994Z</time></trkpt><trkpt lat="46.0549856" lon="12.5831078"><ele>123.75</ele><time>2026-04-25T13:13:48.994Z</time></trkpt><trkpt lat="46.0548409" lon="12.5831529"><ele>123.5</ele><time>2026-04-25T13:13:49.994Z</time></trkpt><trkpt lat="46.0547072" lon="12.5831927"><ele>123.25</ele><time>2026-04-25T13:13:50.995Z</time></trkpt><trkpt lat="46.0545822" lon="12.5832235"><ele>123.0</ele><time>2026-04-25T13:13:51.994Z</time></trkpt><trkpt lat="46.0544652" lon="12.5832455"><ele>123.0</ele><time>2026-04-25T13:13:52.994Z</time></trkpt><trkpt lat="46.0543644" lon="12.5832513"><ele>123.00000000000001</ele><time>2026-04-25T13:13:53.993Z</time></trkpt><trkpt lat="46.0542935" lon="12.5832452"><ele>123.00000000000001</ele><time>2026-04-25T13:13:54.995Z</time></trkpt><trkpt lat="46.0541963" lon="12.5832305"><ele>123.0</ele><time>2026-04-25T13:13:56.995Z</time></trkpt><trkpt lat="46.0540981" lon="12.5832113"><ele>123.0</ele><time>2026-04-25T13:13:58.995Z</time></trkpt><trkpt lat="46.0540044" lon="12.5831817"><ele>122.60000000000001</ele><time>2026-04-25T13:14:00.995Z</time></trkpt><trkpt lat="46.0538809" lon="12.5831253"><ele>122.20000000000002</ele><time>2026-04-25T13:14:02.994Z</time></trkpt><trkpt lat="46.0537996" lon="12.5830774"><ele>121.8</ele><time>2026-04-25T13:14:03.995Z</time></trkpt><trkpt lat="46.0537078" lon="12.5830323"><ele>121.4</ele><time>2026-04-25T13:14:04.994Z</time></trkpt><trkpt lat="46.0536098" lon="12.5829961"><ele>121.0</ele><time>2026-04-25T13:14:05.996Z</time></trkpt><trkpt lat="46.053502" lon="12.5829648"><ele>121.0</ele><time>2026-04-25T13:14:06.995Z</time></trkpt><trkpt lat="46.0533907" lon="12.5829279"><ele>121.0</ele><time>2026-04-25T13:14:07.995Z</time></trkpt><trkpt lat="46.0532737" lon="12.5828886"><ele>121.0</ele><time>2026-04-25T13:14:08.994Z</time></trkpt><trkpt lat="46.0531531" lon="12.5828543"><ele>121.0</ele><time>2026-04-25T13:14:09.996Z</time></trkpt><trkpt lat="46.0530327" lon="12.5828221"><ele>121.5</ele><time>2026-04-25T13:14:10.996Z</time></trkpt><trkpt lat="46.0529108" lon="12.5827922"><ele>122.0</ele><time>2026-04-25T13:14:11.994Z</time></trkpt><trkpt lat="46.0527854" lon="12.5827715"><ele>122.5</ele><time>2026-04-25T13:14:12.995Z</time></trkpt><trkpt lat="46.0526576" lon="12.5827557"><ele>123.0</ele><time>2026-04-25T13:14:13.994Z</time></trkpt><trkpt lat="46.0525389" lon="12.58275"><ele>122.2</ele><time>2026-04-25T13:14:14.994Z</time></trkpt><trkpt lat="46.0524342" lon="12.5827506"><ele>121.4</ele><time>2026-04-25T13:14:15.994Z</time></trkpt><trkpt lat="46.0523393" lon="12.582746"><ele>120.60000000000001</ele><time>2026-04-25T13:14:16.993Z</time></trkpt><trkpt lat="46.0522496" lon="12.5827162"><ele>119.80000000000001</ele><time>2026-04-25T13:14:17.993Z</time></trkpt><trkpt lat="46.0521545" lon="12.5826631"><ele>119.0</ele><time>2026-04-25T13:14:18.994Z</time></trkpt><trkpt lat="46.0520479" lon="12.5826169"><ele>119.0</ele><time>2026-04-25T13:14:19.994Z</time></trkpt><trkpt lat="46.0519322" lon="12.5825728"><ele>119.0</ele><time>2026-04-25T13:14:20.994Z</time></trkpt><trkpt lat="46.0518142" lon="12.5825267"><ele>119.0</ele><time>2026-04-25T13:14:21.994Z</time></trkpt><trkpt lat="46.0516996" lon="12.5824865"><ele>119.0</ele><time>2026-04-25T13:14:22.994Z</time></trkpt><trkpt lat="46.0515893" lon="12.5824557"><ele>118.80000000000001</ele><time>2026-04-25T13:14:23.996Z</time></trkpt><trkpt lat="46.051481" lon="12.5824276"><ele>118.60000000000001</ele><time>2026-04-25T13:14:24.995Z</time></trkpt><trkpt lat="46.0513828" lon="12.5824001"><ele>118.4</ele><time>2026-04-25T13:14:25.994Z</time></trkpt><trkpt lat="46.0513027" lon="12.5823646"><ele>118.2</ele><time>2026-04-25T13:14:26.995Z</time></trkpt><trkpt lat="46.051238" lon="12.5823088"><ele>118.0</ele><time>2026-04-25T13:14:27.995Z</time></trkpt><trkpt lat="46.0511836" lon="12.5821939"><ele>118.0</ele><time>2026-04-25T13:14:28.994Z</time></trkpt><trkpt lat="46.0511374" lon="12.5820164"><ele>118.0</ele><time>2026-04-25T13:14:29.995Z</time></trkpt><trkpt lat="46.0510856" lon="12.5818135"><ele>118.0</ele><time>2026-04-25T13:14:30.994Z</time></trkpt><trkpt lat="46.0510308" lon="12.5816231"><ele>118.0</ele><time>2026-04-25T13:14:31.994Z</time></trkpt><trkpt lat="46.0509802" lon="12.5814657"><ele>117.75</ele><time>2026-04-25T13:14:32.995Z</time></trkpt><trkpt lat="46.0509269" lon="12.5813255"><ele>117.5</ele><time>2026-04-25T13:14:33.995Z</time></trkpt><trkpt lat="46.050858" lon="12.5811813"><ele>117.25</ele><time>2026-04-25T13:14:34.996Z</time></trkpt><trkpt lat="46.0507741" lon="12.5810226"><ele>117.0</ele><time>2026-04-25T13:14:35.995Z</time></trkpt><trkpt lat="46.050683" lon="12.5808479"><ele>117.0</ele><time>2026-04-25T13:14:36.994Z</time></trkpt><trkpt lat="46.0505899" lon="12.5806685"><ele>117.0</ele><time>2026-04-25T13:14:37.995Z</time></trkpt><trkpt lat="46.0505063" lon="12.580497"><ele>117.0</ele><time>2026-04-25T13:14:38.996Z</time></trkpt><trkpt lat="46.0504379" lon="12.5803387"><ele>117.0</ele><time>2026-04-25T13:14:39.995Z</time></trkpt><trkpt lat="46.0503842" lon="12.5801926"><ele>117.25</ele><time>2026-04-25T13:14:40.995Z</time></trkpt><trkpt lat="46.050336" lon="12.5800508"><ele>117.5</ele><time>2026-04-25T13:14:41.994Z</time></trkpt><trkpt lat="46.0502806" lon="12.5799067"><ele>117.75</ele><time>2026-04-25T13:14:42.995Z</time></trkpt><trkpt lat="46.0502144" lon="12.5797599"><ele>118.0</ele><time>2026-04-25T13:14:43.995Z</time></trkpt><trkpt lat="46.0501403" lon="12.5796134"><ele>117.0</ele><time>2026-04-25T13:14:44.995Z</time></trkpt><trkpt lat="46.0500625" lon="12.5794665"><ele>116.0</ele><time>2026-04-25T13:14:45.994Z</time></trkpt><trkpt lat="46.0499874" lon="12.5793276"><ele>115.0</ele><time>2026-04-25T13:14:46.995Z</time></trkpt><trkpt lat="46.0499148" lon="12.5792003"><ele>114.0</ele><time>2026-04-25T13:14:47.993Z</time></trkpt><trkpt lat="46.0498419" lon="12.5790757"><ele>113.75</ele><time>2026-04-25T13:14:48.993Z</time></trkpt><trkpt lat="46.0497667" lon="12.5789482"><ele>113.5</ele><time>2026-04-25T13:14:49.995Z</time></trkpt><trkpt lat="46.049687" lon="12.5788098"><ele>113.25</ele><time>2026-04-25T13:14:50.995Z</time></trkpt><trkpt lat="46.0496047" lon="12.5786638"><ele>113.0</ele><time>2026-04-25T13:14:51.994Z</time></trkpt><trkpt lat="46.0495188" lon="12.5785093"><ele>112.5</ele><time>2026-04-25T13:14:52.994Z</time></trkpt><trkpt lat="46.0494326" lon="12.5783503"><ele>112.0</ele><time>2026-04-25T13:14:53.992Z</time></trkpt><trkpt lat="46.0493423" lon="12.5781881"><ele>111.5</ele><time>2026-04-25T13:14:54.994Z</time></trkpt><trkpt lat="46.0492518" lon="12.5780233"><ele>111.0</ele><time>2026-04-25T13:14:55.993Z</time></trkpt><trkpt lat="46.0491616" lon="12.5778582"><ele>110.5</ele><time>2026-04-25T13:14:56.993Z</time></trkpt><trkpt lat="46.0490725" lon="12.5776966"><ele>110.0</ele><time>2026-04-25T13:14:57.993Z</time></trkpt><trkpt lat="46.0489833" lon="12.5775409"><ele>109.5</ele><time>2026-04-25T13:14:58.993Z</time></trkpt><trkpt lat="46.0488893" lon="12.5773881"><ele>109.0</ele><time>2026-04-25T13:14:59.994Z</time></trkpt><trkpt lat="46.0487934" lon="12.577236"><ele>109.0</ele><time>2026-04-25T13:15:00.994Z</time></trkpt><trkpt lat="46.0486978" lon="12.5770887"><ele>109.0</ele><time>2026-04-25T13:15:01.995Z</time></trkpt><trkpt lat="46.0486023" lon="12.5769488"><ele>109.0</ele><time>2026-04-25T13:15:02.994Z</time></trkpt><trkpt lat="46.0485014" lon="12.5768064"><ele>109.0</ele><time>2026-04-25T13:15:03.996Z</time></trkpt><trkpt lat="46.0483995" lon="12.5766627"><ele>109.2</ele><time>2026-04-25T13:15:04.993Z</time></trkpt><trkpt lat="46.0483007" lon="12.5765268"><ele>109.4</ele><time>2026-04-25T13:15:05.994Z</time></trkpt><trkpt lat="46.0482148" lon="12.5764114"><ele>109.6</ele><time>2026-04-25T13:15:06.995Z</time></trkpt><trkpt lat="46.0481452" lon="12.5763195"><ele>109.8</ele><time>2026-04-25T13:15:07.993Z</time></trkpt><trkpt lat="46.0480876" lon="12.5762479"><ele>110.0</ele><time>2026-04-25T13:15:08.993Z</time></trkpt><trkpt lat="46.0480085" lon="12.5761455"><ele>110.0</ele><time>2026-04-25T13:15:10.994Z</time></trkpt><trkpt lat="46.0479363" lon="12.5761028"><ele>110.0</ele><time>2026-04-25T13:15:12.994Z</time></trkpt><trkpt lat="46.0477948" lon="12.576186"><ele>110.0</ele><time>2026-04-25T13:15:14.993Z</time></trkpt><trkpt lat="46.0476854" lon="12.5763001"><ele>110.0</ele><time>2026-04-25T13:15:15.992Z</time></trkpt><trkpt lat="46.0475498" lon="12.5764474"><ele>110.5</ele><time>2026-04-25T13:15:16.993Z</time></trkpt><trkpt lat="46.0474155" lon="12.5765896"><ele>111.0</ele><time>2026-04-25T13:15:17.995Z</time></trkpt><trkpt lat="46.0473053" lon="12.5767056"><ele>111.5</ele><time>2026-04-25T13:15:18.995Z</time></trkpt><trkpt lat="46.0472134" lon="12.5768007"><ele>112.0</ele><time>2026-04-25T13:15:19.993Z</time></trkpt><trkpt lat="46.0471309" lon="12.5768767"><ele>112.0</ele><time>2026-04-25T13:15:20.994Z</time></trkpt><trkpt lat="46.0470479" lon="12.5769408"><ele>111.99999999999999</ele><time>2026-04-25T13:15:21.992Z</time></trkpt><trkpt lat="46.0469532" lon="12.5769845"><ele>111.99999999999999</ele><time>2026-04-25T13:15:22.993Z</time></trkpt><trkpt lat="46.0468582" lon="12.5769998"><ele>112.0</ele><time>2026-04-25T13:15:23.994Z</time></trkpt><trkpt lat="46.0467665" lon="12.5769841"><ele>112.0</ele><time>2026-04-25T13:15:24.993Z</time></trkpt><trkpt lat="46.0466812" lon="12.5769577"><ele>112.00000000000001</ele><time>2026-04-25T13:15:25.993Z</time></trkpt><trkpt lat="46.0466083" lon="12.5769327"><ele>112.0</ele><time>2026-04-25T13:15:26.994Z</time></trkpt><trkpt lat="46.046524" lon="12.5769202"><ele>112.0</ele><time>2026-04-25T13:15:28.994Z</time></trkpt><trkpt lat="46.046615" lon="12.5769648"><ele>112.0</ele><time>2026-04-25T13:15:32.993Z</time></trkpt><trkpt lat="46.0467244" lon="12.5769771"><ele>112.00000000000001</ele><time>2026-04-25T13:15:34.994Z</time></trkpt><trkpt lat="46.046788" lon="12.5769549"><ele>112.0</ele><time>2026-04-25T13:15:36.994Z</time></trkpt><trkpt lat="46.0467993" lon="12.5768464"><ele>112.00000000000001</ele><time>2026-04-25T13:15:38.995Z</time></trkpt><trkpt lat="46.0467702" lon="12.5767334"><ele>112.0</ele><time>2026-04-25T13:15:40.993Z</time></trkpt><trkpt lat="46.0467366" lon="12.5766433"><ele>112.0</ele><time>2026-04-25T13:15:43.994Z</time></trkpt><trkpt lat="46.0467013" lon="12.5765508"><ele>112.0</ele><time>2026-04-25T13:15:47.997Z</time></trkpt><trkpt lat="46.0466817" lon="12.5764611"><ele>112.00000000000001</ele><time>2026-04-25T13:15:49.995Z</time></trkpt><trkpt lat="46.0466485" lon="12.5763748"><ele>112.0</ele><time>2026-04-25T13:15:51.993Z</time></trkpt><trkpt lat="46.046585" lon="12.5762717"><ele>111.50000000000001</ele><time>2026-04-25T13:15:57.993Z</time></trkpt><trkpt lat="46.04653" lon="12.576165"><ele>111.0</ele><time>2026-04-25T13:15:59.993Z</time></trkpt><trkpt lat="46.046475" lon="12.5760817"><ele>110.5</ele><time>2026-04-25T13:16:01.994Z</time></trkpt><trkpt lat="46.0464317" lon="12.5759983"><ele>110.0</ele><time>2026-04-25T13:16:04.995Z</time></trkpt><trkpt lat="46.04638" lon="12.5759283"><ele>109.50000000000001</ele><time>2026-04-25T13:16:07.993Z</time></trkpt><trkpt lat="46.0464467" lon="12.5760117"><ele>109.0</ele><time>2026-04-25T13:17:34.994Z</time></trkpt><trkpt lat="46.0465233" lon="12.5761283"><ele>109.00000000000001</ele><time>2026-04-25T13:17:36.994Z</time></trkpt><trkpt lat="46.0465683" lon="12.5762267"><ele>109.0</ele><time>2026-04-25T13:17:38.993Z</time></trkpt><trkpt lat="46.04661" lon="12.5763017"><ele>109.0</ele><time>2026-04-25T13:17:40.995Z</time></trkpt><trkpt lat="46.0466517" lon="12.576395"><ele>109.0</ele><time>2026-04-25T13:17:43.994Z</time></trkpt><trkpt lat="46.0466733" lon="12.5765167"><ele>109.00000000000001</ele><time>2026-04-25T13:17:47.993Z</time></trkpt><trkpt lat="46.0467183" lon="12.5766333"><ele>109.0</ele><time>2026-04-25T13:17:49.999Z</time></trkpt><trkpt lat="46.04674" lon="12.576745"><ele>109.00000000000001</ele><time>2026-04-25T13:17:51.993Z</time></trkpt><trkpt lat="46.04676" lon="12.5768633"><ele>109.0</ele><time>2026-04-25T13:17:53.994Z</time></trkpt><trkpt lat="46.0467533" lon="12.576965"><ele>109.0</ele><time>2026-04-25T13:17:56.993Z</time></trkpt><trkpt lat="46.0466683" lon="12.576955"><ele>109.0</ele><time>2026-04-25T13:17:59.995Z</time></trkpt><trkpt lat="46.0465483" lon="12.57696"><ele>109.00000000000001</ele><time>2026-04-25T13:18:01.993Z</time></trkpt><trkpt lat="46.0464833" lon="12.576985"><ele>109.0</ele><time>2026-04-25T13:18:02.994Z</time></trkpt><trkpt lat="46.046415" lon="12.5770183"><ele>109.2</ele><time>2026-04-25T13:18:03.994Z</time></trkpt><trkpt lat="46.0463467" lon="12.5770533"><ele>109.4</ele><time>2026-04-25T13:18:04.994Z</time></trkpt><trkpt lat="46.0462683" lon="12.577105"><ele>109.6</ele><time>2026-04-25T13:18:05.993Z</time></trkpt><trkpt lat="46.0461783" lon="12.5771667"><ele>109.8</ele><time>2026-04-25T13:18:06.994Z</time></trkpt><trkpt lat="46.0460883" lon="12.5772367"><ele>110.0</ele><time>2026-04-25T13:18:07.994Z</time></trkpt><trkpt lat="46.0459967" lon="12.5773083"><ele>110.0</ele><time>2026-04-25T13:18:08.994Z</time></trkpt><trkpt lat="46.0459" lon="12.577385"><ele>110.0</ele><time>2026-04-25T13:18:09.994Z</time></trkpt><trkpt lat="46.0458017" lon="12.57746"><ele>110.0</ele><time>2026-04-25T13:18:10.993Z</time></trkpt><trkpt lat="46.0457" lon="12.5775367"><ele>110.0</ele><time>2026-04-25T13:18:11.994Z</time></trkpt><trkpt lat="46.045595" lon="12.5776183"><ele>110.0</ele><time>2026-04-25T13:18:12.994Z</time></trkpt><trkpt lat="46.0454867" lon="12.57769"><ele>110.0</ele><time>2026-04-25T13:18:13.994Z</time></trkpt><trkpt lat="46.0453717" lon="12.5777567"><ele>110.0</ele><time>2026-04-25T13:18:14.994Z</time></trkpt><trkpt lat="46.045255" lon="12.577825"><ele>110.0</ele><time>2026-04-25T13:18:15.993Z</time></trkpt><trkpt lat="46.0451417" lon="12.5779117"><ele>110.0</ele><time>2026-04-25T13:18:16.994Z</time></trkpt><trkpt lat="46.04503" lon="12.57802"><ele>110.0</ele><time>2026-04-25T13:18:17.993Z</time></trkpt><trkpt lat="46.044925" lon="12.57814"><ele>110.0</ele><time>2026-04-25T13:18:18.995Z</time></trkpt><trkpt lat="46.0448283" lon="12.5782567"><ele>110.0</ele><time>2026-04-25T13:18:19.993Z</time></trkpt><trkpt lat="46.044735" lon="12.57837"><ele>110.2</ele><time>2026-04-25T13:18:20.995Z</time></trkpt><trkpt lat="46.0446439" lon="12.5784722"><ele>110.4</ele><time>2026-04-25T13:18:21.995Z</time></trkpt><trkpt lat="46.0445597" lon="12.5785675"><ele>110.6</ele><time>2026-04-25T13:18:22.993Z</time></trkpt><trkpt lat="46.0444901" lon="12.5786579"><ele>110.8</ele><time>2026-04-25T13:18:23.994Z</time></trkpt><trkpt lat="46.0444316" lon="12.5787421"><ele>111.0</ele><time>2026-04-25T13:18:24.994Z</time></trkpt><trkpt lat="46.0443805" lon="12.5788212"><ele>111.0</ele><time>2026-04-25T13:18:25.994Z</time></trkpt><trkpt lat="46.0442909" lon="12.5789314"><ele>111.0</ele><time>2026-04-25T13:18:27.993Z</time></trkpt><trkpt lat="46.0441964" lon="12.5789617"><ele>111.0</ele><time>2026-04-25T13:18:29.993Z</time></trkpt><trkpt lat="46.0440643" lon="12.5788888"><ele>111.0</ele><time>2026-04-25T13:18:31.994Z</time></trkpt><trkpt lat="46.0439728" lon="12.57881"><ele>111.0</ele><time>2026-04-25T13:18:32.995Z</time></trkpt><trkpt lat="46.0438658" lon="12.5787067"><ele>111.0</ele><time>2026-04-25T13:18:33.996Z</time></trkpt><trkpt lat="46.0437628" lon="12.5786019"><ele>111.0</ele><time>2026-04-25T13:18:34.995Z</time></trkpt><trkpt lat="46.0436732" lon="12.5785147"><ele>111.0</ele><time>2026-04-25T13:18:35.995Z</time></trkpt><trkpt lat="46.043593" lon="12.5784441"><ele>111.0</ele><time>2026-04-25T13:18:36.993Z</time></trkpt><trkpt lat="46.0435099" lon="12.5783926"><ele>111.0</ele><time>2026-04-25T13:18:37.994Z</time></trkpt><trkpt lat="46.0434141" lon="12.5783629"><ele>111.0</ele><time>2026-04-25T13:18:38.994Z</time></trkpt><trkpt lat="46.0433049" lon="12.5783529"><ele>111.0</ele><time>2026-04-25T13:18:39.993Z</time></trkpt><trkpt lat="46.0431865" lon="12.5783532"><ele>111.0</ele><time>2026-04-25T13:18:40.995Z</time></trkpt><trkpt lat="46.0430629" lon="12.5783569"><ele>110.75</ele><time>2026-04-25T13:18:41.995Z</time></trkpt><trkpt lat="46.0429417" lon="12.578362"><ele>110.5</ele><time>2026-04-25T13:18:42.995Z</time></trkpt><trkpt lat="46.0428234" lon="12.5783647"><ele>110.25</ele><time>2026-04-25T13:18:43.994Z</time></trkpt><trkpt lat="46.0427083" lon="12.5783654"><ele>110.0</ele><time>2026-04-25T13:18:44.994Z</time></trkpt><trkpt lat="46.0425986" lon="12.5783587"><ele>110.0</ele><time>2026-04-25T13:18:45.994Z</time></trkpt><trkpt lat="46.0424847" lon="12.5783346"><ele>110.0</ele><time>2026-04-25T13:18:46.994Z</time></trkpt><trkpt lat="46.0423665" lon="12.5782868"><ele>110.0</ele><time>2026-04-25T13:18:47.994Z</time></trkpt><trkpt lat="46.042242" lon="12.5782243"><ele>110.0</ele><time>2026-04-25T13:18:48.993Z</time></trkpt><trkpt lat="46.0421207" lon="12.5781677"><ele>110.2</ele><time>2026-04-25T13:18:49.994Z</time></trkpt><trkpt lat="46.0420098" lon="12.5781249"><ele>110.4</ele><time>2026-04-25T13:18:50.994Z</time></trkpt><trkpt lat="46.0419103" lon="12.578095"><ele>110.6</ele><time>2026-04-25T13:18:51.994Z</time></trkpt><trkpt lat="46.0418212" lon="12.5780711"><ele>110.8</ele><time>2026-04-25T13:18:52.994Z</time></trkpt><trkpt lat="46.0417429" lon="12.5780446"><ele>111.0</ele><time>2026-04-25T13:18:53.994Z</time></trkpt><trkpt lat="46.0416732" lon="12.5780078"><ele>110.6</ele><time>2026-04-25T13:18:54.995Z</time></trkpt><trkpt lat="46.0416168" lon="12.5779607"><ele>110.19999999999999</ele><time>2026-04-25T13:18:55.995Z</time></trkpt><trkpt lat="46.0415652" lon="12.5778236"><ele>109.80000000000001</ele><time>2026-04-25T13:18:57.993Z</time></trkpt><trkpt lat="46.0416233" lon="12.5776339"><ele>109.4</ele><time>2026-04-25T13:18:59.995Z</time></trkpt><trkpt lat="46.0417028" lon="12.5775168"><ele>109.0</ele><time>2026-04-25T13:19:00.996Z</time></trkpt><trkpt lat="46.0418073" lon="12.5773875"><ele>108.75</ele><time>2026-04-25T13:19:01.994Z</time></trkpt><trkpt lat="46.0419112" lon="12.5772552"><ele>108.5</ele><time>2026-04-25T13:19:02.994Z</time></trkpt><trkpt lat="46.0420015" lon="12.5771248"><ele>108.25</ele><time>2026-04-25T13:19:03.994Z</time></trkpt><trkpt lat="46.042085" lon="12.5770065"><ele>108.0</ele><time>2026-04-25T13:19:04.994Z</time></trkpt><trkpt lat="46.0421628" lon="12.5769024"><ele>108.0</ele><time>2026-04-25T13:19:05.995Z</time></trkpt><trkpt lat="46.0422392" lon="12.5767927"><ele>108.0</ele><time>2026-04-25T13:19:06.994Z</time></trkpt><trkpt lat="46.0423204" lon="12.5766755"><ele>108.0</ele><time>2026-04-25T13:19:07.994Z</time></trkpt><trkpt lat="46.0424091" lon="12.5765495"><ele>108.0</ele><time>2026-04-25T13:19:09.08Z</time></trkpt><trkpt lat="46.0424966" lon="12.5764297"><ele>108.0</ele><time>2026-04-25T13:19:09.994Z</time></trkpt><trkpt lat="46.0425854" lon="12.5762995"><ele>108.0</ele><time>2026-04-25T13:19:10.994Z</time></trkpt><trkpt lat="46.0426753" lon="12.576174"><ele>108.0</ele><time>2026-04-25T13:19:11.994Z</time></trkpt><trkpt lat="46.0427632" lon="12.5760522"><ele>108.0</ele><time>2026-04-25T13:19:12.994Z</time></trkpt><trkpt lat="46.0428481" lon="12.575925"><ele>107.80000000000001</ele><time>2026-04-25T13:19:13.994Z</time></trkpt><trkpt lat="46.0429276" lon="12.5758017"><ele>107.60000000000001</ele><time>2026-04-25T13:19:14.994Z</time></trkpt><trkpt lat="46.042997" lon="12.5756833"><ele>107.39999999999999</ele><time>2026-04-25T13:19:15.999Z</time></trkpt><trkpt lat="46.0430666" lon="12.5755657"><ele>107.19999999999999</ele><time>2026-04-25T13:19:16.997Z</time></trkpt><trkpt lat="46.0431373" lon="12.57545"><ele>107.0</ele><time>2026-04-25T13:19:17.994Z</time></trkpt><trkpt lat="46.0432119" lon="12.5753377"><ele>106.8</ele><time>2026-04-25T13:19:18.993Z</time></trkpt><trkpt lat="46.0432865" lon="12.5752314"><ele>106.6</ele><time>2026-04-25T13:19:19.993Z</time></trkpt><trkpt lat="46.0433564" lon="12.5751328"><ele>106.39999999999999</ele><time>2026-04-25T13:19:20.997Z</time></trkpt><trkpt lat="46.043423" lon="12.5750311"><ele>106.19999999999999</ele><time>2026-04-25T13:19:21.995Z</time></trkpt><trkpt lat="46.0434855" lon="12.5749372"><ele>106.0</ele><time>2026-04-25T13:19:22.994Z</time></trkpt><trkpt lat="46.0435433" lon="12.5748486"><ele>106.00000000000001</ele><time>2026-04-25T13:19:23.995Z</time></trkpt><trkpt lat="46.0435998" lon="12.5747655"><ele>106.0</ele><time>2026-04-25T13:19:24.995Z</time></trkpt><trkpt lat="46.04366" lon="12.5746822"><ele>106.0</ele><time>2026-04-25T13:19:25.993Z</time></trkpt><trkpt lat="46.0437242" lon="12.5746027"><ele>106.0</ele><time>2026-04-25T13:19:26.994Z</time></trkpt><trkpt lat="46.0437854" lon="12.5745318"><ele>106.00000000000001</ele><time>2026-04-25T13:19:27.994Z</time></trkpt><trkpt lat="46.0438396" lon="12.5744681"><ele>106.0</ele><time>2026-04-25T13:19:28.993Z</time></trkpt><trkpt lat="46.0438958" lon="12.5744049"><ele>106.0</ele><time>2026-04-25T13:19:29.994Z</time></trkpt><trkpt lat="46.0439613" lon="12.5743328"><ele>106.0</ele><time>2026-04-25T13:19:30.995Z</time></trkpt><trkpt lat="46.0440309" lon="12.5742504"><ele>106.0</ele><time>2026-04-25T13:19:31.994Z</time></trkpt><trkpt lat="46.0441074" lon="12.574158"><ele>106.0</ele><time>2026-04-25T13:19:32.996Z</time></trkpt><trkpt lat="46.0441875" lon="12.5740608"><ele>106.0</ele><time>2026-04-25T13:19:33.996Z</time></trkpt><trkpt lat="46.0442719" lon="12.5739621"><ele>106.0</ele><time>2026-04-25T13:19:34.994Z</time></trkpt><trkpt lat="46.0443633" lon="12.5738573"><ele>106.0</ele><time>2026-04-25T13:19:35.995Z</time></trkpt><trkpt lat="46.0444581" lon="12.573748"><ele>106.0</ele><time>2026-04-25T13:19:36.993Z</time></trkpt><trkpt lat="46.0445495" lon="12.5736431"><ele>106.0</ele><time>2026-04-25T13:19:37.993Z</time></trkpt><trkpt lat="46.0446345" lon="12.5735376"><ele>106.0</ele><time>2026-04-25T13:19:38.995Z</time></trkpt><trkpt lat="46.0447154" lon="12.5734226"><ele>106.0</ele><time>2026-04-25T13:19:39.997Z</time></trkpt><trkpt lat="46.0447967" lon="12.5733017"><ele>106.0</ele><time>2026-04-25T13:19:40.994Z</time></trkpt><trkpt lat="46.0448771" lon="12.5731834"><ele>106.0</ele><time>2026-04-25T13:19:41.996Z</time></trkpt><trkpt lat="46.0449565" lon="12.5730755"><ele>106.0</ele><time>2026-04-25T13:19:42.997Z</time></trkpt><trkpt lat="46.045029" lon="12.5729746"><ele>106.0</ele><time>2026-04-25T13:19:43.994Z</time></trkpt><trkpt lat="46.0450981" lon="12.5728788"><ele>106.0</ele><time>2026-04-25T13:19:44.996Z</time></trkpt><trkpt lat="46.0451702" lon="12.5727853"><ele>106.0</ele><time>2026-04-25T13:19:45.995Z</time></trkpt><trkpt lat="46.045242" lon="12.5726947"><ele>106.0</ele><time>2026-04-25T13:19:46.994Z</time></trkpt><trkpt lat="46.045312" lon="12.5726119"><ele>106.16666666666667</ele><time>2026-04-25T13:19:47.995Z</time></trkpt><trkpt lat="46.0453778" lon="12.5725428"><ele>106.33333333333334</ele><time>2026-04-25T13:19:48.998Z</time></trkpt><trkpt lat="46.0454452" lon="12.5724928"><ele>106.5</ele><time>2026-04-25T13:19:49.994Z</time></trkpt><trkpt lat="46.0455191" lon="12.5724654"><ele>106.66666666666666</ele><time>2026-04-25T13:19:50.995Z</time></trkpt><trkpt lat="46.0455981" lon="12.5724588"><ele>106.83333333333333</ele><time>2026-04-25T13:19:51.994Z</time></trkpt><trkpt lat="46.0456795" lon="12.5724787"><ele>107.0</ele><time>2026-04-25T13:19:52.995Z</time></trkpt><trkpt lat="46.0457607" lon="12.5725101"><ele>106.66666666666666</ele><time>2026-04-25T13:19:53.995Z</time></trkpt><trkpt lat="46.0458383" lon="12.5725357"><ele>106.33333333333333</ele><time>2026-04-25T13:19:54.993Z</time></trkpt><trkpt lat="46.0459148" lon="12.5725468"><ele>106.0</ele><time>2026-04-25T13:19:55.994Z</time></trkpt><trkpt lat="46.0459886" lon="12.5725349"><ele>105.66666666666666</ele><time>2026-04-25T13:19:56.996Z</time></trkpt><trkpt lat="46.0460618" lon="12.5725056"><ele>105.33333333333333</ele><time>2026-04-25T13:19:57.994Z</time></trkpt><trkpt lat="46.0461323" lon="12.5724493"><ele>105.0</ele><time>2026-04-25T13:19:58.994Z</time></trkpt><trkpt lat="46.0462025" lon="12.572364"><ele>105.0</ele><time>2026-04-25T13:19:59.996Z</time></trkpt><trkpt lat="46.0462804" lon="12.5722722"><ele>105.0</ele><time>2026-04-25T13:20:00.994Z</time></trkpt><trkpt lat="46.0463654" lon="12.5721682"><ele>105.0</ele><time>2026-04-25T13:20:01.995Z</time></trkpt><trkpt lat="46.046451" lon="12.5720588"><ele>105.0</ele><time>2026-04-25T13:20:02.996Z</time></trkpt><trkpt lat="46.0465298" lon="12.5719533"><ele>105.0</ele><time>2026-04-25T13:20:03.994Z</time></trkpt><trkpt lat="46.0466041" lon="12.5718521"><ele>105.0</ele><time>2026-04-25T13:20:04.995Z</time></trkpt><trkpt lat="46.0466824" lon="12.5717474"><ele>105.0</ele><time>2026-04-25T13:20:05.994Z</time></trkpt><trkpt lat="46.0467597" lon="12.5716441"><ele>105.0</ele><time>2026-04-25T13:20:06.994Z</time></trkpt><trkpt lat="46.0468377" lon="12.5715458"><ele>105.0</ele><time>2026-04-25T13:20:07.994Z</time></trkpt><trkpt lat="46.0469108" lon="12.5714565"><ele>105.0</ele><time>2026-04-25T13:20:08.995Z</time></trkpt><trkpt lat="46.0469771" lon="12.5713747"><ele>105.0</ele><time>2026-04-25T13:20:09.995Z</time></trkpt><trkpt lat="46.0470342" lon="12.571301"><ele>105.0</ele><time>2026-04-25T13:20:10.994Z</time></trkpt><trkpt lat="46.0471057" lon="12.5711669"><ele>105.0</ele><time>2026-04-25T13:20:12.995Z</time></trkpt><trkpt lat="46.0472053" lon="12.5710335"><ele>105.0</ele><time>2026-04-25T13:20:14.994Z</time></trkpt><trkpt lat="46.0472753" lon="12.570963"><ele>105.0</ele><time>2026-04-25T13:20:15.995Z</time></trkpt><trkpt lat="46.0473546" lon="12.570885"><ele>105.4</ele><time>2026-04-25T13:20:16.994Z</time></trkpt><trkpt lat="46.047434" lon="12.5707946"><ele>105.8</ele><time>2026-04-25T13:20:17.995Z</time></trkpt><trkpt lat="46.0475091" lon="12.5706978"><ele>106.19999999999999</ele><time>2026-04-25T13:20:18.995Z</time></trkpt><trkpt lat="46.0475872" lon="12.5705927"><ele>106.6</ele><time>2026-04-25T13:20:19.993Z</time></trkpt><trkpt lat="46.0476729" lon="12.5704796"><ele>107.0</ele><time>2026-04-25T13:20:20.995Z</time></trkpt><trkpt lat="46.0477613" lon="12.5703663"><ele>106.6</ele><time>2026-04-25T13:20:21.994Z</time></trkpt><trkpt lat="46.0478484" lon="12.5702557"><ele>106.19999999999999</ele><time>2026-04-25T13:20:22.994Z</time></trkpt><trkpt lat="46.0479313" lon="12.5701536"><ele>105.8</ele><time>2026-04-25T13:20:23.995Z</time></trkpt><trkpt lat="46.0480145" lon="12.5700505"><ele>105.4</ele><time>2026-04-25T13:20:24.995Z</time></trkpt><trkpt lat="46.0480993" lon="12.5699501"><ele>105.0</ele><time>2026-04-25T13:20:25.994Z</time></trkpt><trkpt lat="46.0481843" lon="12.569854"><ele>105.0</ele><time>2026-04-25T13:20:26.994Z</time></trkpt><trkpt lat="46.0482668" lon="12.5697607"><ele>105.0</ele><time>2026-04-25T13:20:27.994Z</time></trkpt><trkpt lat="46.0483471" lon="12.5696766"><ele>105.0</ele><time>2026-04-25T13:20:28.995Z</time></trkpt><trkpt lat="46.048424" lon="12.5695955"><ele>105.0</ele><time>2026-04-25T13:20:29.994Z</time></trkpt><trkpt lat="46.0484923" lon="12.5695054"><ele>105.0</ele><time>2026-04-25T13:20:30.994Z</time></trkpt><trkpt lat="46.0485587" lon="12.5694125"><ele>105.6</ele><time>2026-04-25T13:20:31.993Z</time></trkpt><trkpt lat="46.0486317" lon="12.5693198"><ele>106.2</ele><time>2026-04-25T13:20:32.995Z</time></trkpt><trkpt lat="46.0487075" lon="12.5692218"><ele>106.80000000000001</ele><time>2026-04-25T13:20:33.994Z</time></trkpt><trkpt lat="46.0487802" lon="12.5691103"><ele>107.4</ele><time>2026-04-25T13:20:34.994Z</time></trkpt><trkpt lat="46.0488501" lon="12.5689929"><ele>108.0</ele><time>2026-04-25T13:20:35.999Z</time></trkpt><trkpt lat="46.0489167" lon="12.5688817"><ele>108.0</ele><time>2026-04-25T13:20:36.996Z</time></trkpt><trkpt lat="46.04898" lon="12.56877"><ele>108.00000000000001</ele><time>2026-04-25T13:20:37.994Z</time></trkpt><trkpt lat="46.0490417" lon="12.5686567"><ele>108.00000000000001</ele><time>2026-04-25T13:20:38.995Z</time></trkpt><trkpt lat="46.049095" lon="12.5685467"><ele>108.0</ele><time>2026-04-25T13:20:39.993Z</time></trkpt><trkpt lat="46.0491517" lon="12.56844"><ele>108.0</ele><time>2026-04-25T13:20:40.994Z</time></trkpt><trkpt lat="46.0491983" lon="12.5683417"><ele>108.14285714285714</ele><time>2026-04-25T13:20:41.994Z</time></trkpt><trkpt lat="46.0492367" lon="12.5682567"><ele>108.28571428571428</ele><time>2026-04-25T13:20:42.994Z</time></trkpt><trkpt lat="46.049275" lon="12.5681733"><ele>108.42857142857143</ele><time>2026-04-25T13:20:43.994Z</time></trkpt><trkpt lat="46.04931" lon="12.5680933"><ele>108.57142857142857</ele><time>2026-04-25T13:20:44.996Z</time></trkpt><trkpt lat="46.049345" lon="12.5680117"><ele>108.71428571428572</ele><time>2026-04-25T13:20:45.996Z</time></trkpt><trkpt lat="46.0493783" lon="12.5679183"><ele>108.85714285714286</ele><time>2026-04-25T13:20:46.995Z</time></trkpt><trkpt lat="46.0494033" lon="12.5678133"><ele>109.0</ele><time>2026-04-25T13:20:47.995Z</time></trkpt><trkpt lat="46.04943" lon="12.567715"><ele>109.4</ele><time>2026-04-25T13:20:48.995Z</time></trkpt><trkpt lat="46.0494583" lon="12.5676083"><ele>109.80000000000001</ele><time>2026-04-25T13:20:49.996Z</time></trkpt><trkpt lat="46.0494883" lon="12.5675017"><ele>110.19999999999999</ele><time>2026-04-25T13:20:50.995Z</time></trkpt><trkpt lat="46.0495117" lon="12.5673983"><ele>110.6</ele><time>2026-04-25T13:20:51.995Z</time></trkpt><trkpt lat="46.0495667" lon="12.5672683"><ele>111.0</ele><time>2026-04-25T13:20:53.995Z</time></trkpt><trkpt lat="46.0496017" lon="12.5670983"><ele>112.0</ele><time>2026-04-25T13:20:55.995Z</time></trkpt><trkpt lat="46.0496" lon="12.5669733"><ele>113.0</ele><time>2026-04-25T13:20:56.994Z</time></trkpt><trkpt lat="46.04959" lon="12.56684"><ele>114.0</ele><time>2026-04-25T13:20:57.995Z</time></trkpt><trkpt lat="46.04958" lon="12.5666933"><ele>115.0</ele><time>2026-04-25T13:20:58.994Z</time></trkpt><trkpt lat="46.0495683" lon="12.5665483"><ele>116.0</ele><time>2026-04-25T13:20:59.996Z</time></trkpt><trkpt lat="46.0495583" lon="12.56643"><ele>115.99999999999999</ele><time>2026-04-25T13:21:00.995Z</time></trkpt><trkpt lat="46.0495533" lon="12.566335"><ele>116.0</ele><time>2026-04-25T13:21:01.994Z</time></trkpt><trkpt lat="46.04956" lon="12.5662033"><ele>116.0</ele><time>2026-04-25T13:21:03.995Z</time></trkpt><trkpt lat="46.0494867" lon="12.5660967"><ele>116.0</ele><time>2026-04-25T13:21:06.994Z</time></trkpt><trkpt lat="46.0494083" lon="12.5660767"><ele>115.99999999999999</ele><time>2026-04-25T13:21:07.995Z</time></trkpt><trkpt lat="46.0493133" lon="12.56606"><ele>116.0</ele><time>2026-04-25T13:21:08.995Z</time></trkpt><trkpt lat="46.04921" lon="12.56604"><ele>114.8</ele><time>2026-04-25T13:21:09.995Z</time></trkpt><trkpt lat="46.0491033" lon="12.5660267"><ele>113.6</ele><time>2026-04-25T13:21:10.995Z</time></trkpt><trkpt lat="46.049" lon="12.566005"><ele>112.4</ele><time>2026-04-25T13:21:11.995Z</time></trkpt><trkpt lat="46.0488967" lon="12.5659867"><ele>111.2</ele><time>2026-04-25T13:21:12.994Z</time></trkpt><trkpt lat="46.0488017" lon="12.5659583"><ele>110.0</ele><time>2026-04-25T13:21:13.994Z</time></trkpt><trkpt lat="46.048715" lon="12.565925"><ele>110.0</ele><time>2026-04-25T13:21:14.995Z</time></trkpt><trkpt lat="46.0486217" lon="12.5658733"><ele>110.0</ele><time>2026-04-25T13:21:15.994Z</time></trkpt><trkpt lat="46.0485267" lon="12.5657833"><ele>110.0</ele><time>2026-04-25T13:21:16.993Z</time></trkpt><trkpt lat="46.0484283" lon="12.5656667"><ele>110.0</ele><time>2026-04-25T13:21:17.993Z</time></trkpt><trkpt lat="46.048325" lon="12.5655367"><ele>109.4</ele><time>2026-04-25T13:21:18.993Z</time></trkpt><trkpt lat="46.0482217" lon="12.5654183"><ele>108.8</ele><time>2026-04-25T13:21:19.992Z</time></trkpt><trkpt lat="46.0481317" lon="12.56532"><ele>108.19999999999999</ele><time>2026-04-25T13:21:20.993Z</time></trkpt><trkpt lat="46.04806" lon="12.56524"><ele>107.6</ele><time>2026-04-25T13:21:21.995Z</time></trkpt><trkpt lat="46.0480033" lon="12.5651733"><ele>107.0</ele><time>2026-04-25T13:21:22.993Z</time></trkpt><trkpt lat="46.0479483" lon="12.565115"><ele>107.0</ele><time>2026-04-25T13:21:23.994Z</time></trkpt><trkpt lat="46.0478567" lon="12.56503"><ele>106.99999999999999</ele><time>2026-04-25T13:21:25.994Z</time></trkpt><trkpt lat="46.0477683" lon="12.5650217"><ele>106.99999999999999</ele><time>2026-04-25T13:21:27.993Z</time></trkpt><trkpt lat="46.047685" lon="12.5651117"><ele>107.0</ele><time>2026-04-25T13:21:29.993Z</time></trkpt><trkpt lat="46.04762" lon="12.565255"><ele>107.0</ele><time>2026-04-25T13:21:31.993Z</time></trkpt><trkpt lat="46.0475717" lon="12.565325"><ele>106.83333333333333</ele><time>2026-04-25T13:21:32.993Z</time></trkpt><trkpt lat="46.047505" lon="12.5654117"><ele>106.66666666666666</ele><time>2026-04-25T13:21:33.993Z</time></trkpt><trkpt lat="46.0474367" lon="12.56549"><ele>106.5</ele><time>2026-04-25T13:21:34.993Z</time></trkpt><trkpt lat="46.0473767" lon="12.5655533"><ele>106.33333333333334</ele><time>2026-04-25T13:21:35.992Z</time></trkpt><trkpt lat="46.0473133" lon="12.5655717"><ele>106.16666666666667</ele><time>2026-04-25T13:21:36.992Z</time></trkpt><trkpt lat="46.0472517" lon="12.565535"><ele>106.0</ele><time>2026-04-25T13:21:37.992Z</time></trkpt><trkpt lat="46.047195" lon="12.5654567"><ele>105.75</ele><time>2026-04-25T13:21:38.993Z</time></trkpt><trkpt lat="46.0471133" lon="12.565325"><ele>105.5</ele><time>2026-04-25T13:21:39.993Z</time></trkpt><trkpt lat="46.0470233" lon="12.5651667"><ele>105.25</ele><time>2026-04-25T13:21:40.994Z</time></trkpt><trkpt lat="46.0469333" lon="12.56502"><ele>105.0</ele><time>2026-04-25T13:21:41.994Z</time></trkpt><trkpt lat="46.0468217" lon="12.5648983"><ele>105.0</ele><time>2026-04-25T13:21:42.995Z</time></trkpt><trkpt lat="46.04668" lon="12.5647917"><ele>105.0</ele><time>2026-04-25T13:21:43.993Z</time></trkpt><trkpt lat="46.0465283" lon="12.564715"><ele>105.0</ele><time>2026-04-25T13:21:44.993Z</time></trkpt><trkpt lat="46.0463833" lon="12.564675"><ele>104.75</ele><time>2026-04-25T13:21:45.995Z</time></trkpt><trkpt lat="46.0462517" lon="12.564665"><ele>104.5</ele><time>2026-04-25T13:21:46.993Z</time></trkpt><trkpt lat="46.046125" lon="12.5647"><ele>104.25</ele><time>2026-04-25T13:21:47.993Z</time></trkpt><trkpt lat="46.04599" lon="12.5647883"><ele>104.0</ele><time>2026-04-25T13:21:48.993Z</time></trkpt><trkpt lat="46.0458467" lon="12.5649267"><ele>103.33333333333333</ele><time>2026-04-25T13:21:49.993Z</time></trkpt><trkpt lat="46.0456967" lon="12.5651033"><ele>102.66666666666666</ele><time>2026-04-25T13:21:50.998Z</time></trkpt><trkpt lat="46.0455533" lon="12.5652933"><ele>102.0</ele><time>2026-04-25T13:21:51.996Z</time></trkpt><trkpt lat="46.0454367" lon="12.565455"><ele>101.8</ele><time>2026-04-25T13:21:52.996Z</time></trkpt><trkpt lat="46.04535" lon="12.5655733"><ele>101.6</ele><time>2026-04-25T13:21:53.992Z</time></trkpt><trkpt lat="46.045275" lon="12.565665"><ele>101.39999999999999</ele><time>2026-04-25T13:21:54.995Z</time></trkpt><trkpt lat="46.0451983" lon="12.56573"><ele>101.19999999999999</ele><time>2026-04-25T13:21:55.994Z</time></trkpt><trkpt lat="46.04512" lon="12.5657683"><ele>101.0</ele><time>2026-04-25T13:21:56.996Z</time></trkpt><trkpt lat="46.0450317" lon="12.5657683"><ele>101.5</ele><time>2026-04-25T13:21:57.993Z</time></trkpt><trkpt lat="46.0449433" lon="12.56571"><ele>102.0</ele><time>2026-04-25T13:21:58.999Z</time></trkpt><trkpt lat="46.0448567" lon="12.5655933"><ele>102.5</ele><time>2026-04-25T13:21:59.996Z</time></trkpt><trkpt lat="46.0447733" lon="12.5654167"><ele>103.0</ele><time>2026-04-25T13:22:00.994Z</time></trkpt><trkpt lat="46.04469" lon="12.56521"><ele>103.25</ele><time>2026-04-25T13:22:01.993Z</time></trkpt><trkpt lat="46.04461" lon="12.565015"><ele>103.5</ele><time>2026-04-25T13:22:02.993Z</time></trkpt><trkpt lat="46.0445317" lon="12.5648633"><ele>103.75</ele><time>2026-04-25T13:22:03.995Z</time></trkpt><trkpt lat="46.0444483" lon="12.5647417"><ele>104.0</ele><time>2026-04-25T13:22:04.993Z</time></trkpt><trkpt lat="46.0443417" lon="12.5646333"><ele>104.0</ele><time>2026-04-25T13:22:05.994Z</time></trkpt><trkpt lat="46.0442283" lon="12.564545"><ele>104.0</ele><time>2026-04-25T13:22:06.994Z</time></trkpt><trkpt lat="46.0441317" lon="12.5644733"><ele>104.0</ele><time>2026-04-25T13:22:07.992Z</time></trkpt><trkpt lat="46.0440517" lon="12.56438"><ele>104.0</ele><time>2026-04-25T13:22:08.993Z</time></trkpt><trkpt lat="46.0439767" lon="12.5642517"><ele>104.2</ele><time>2026-04-25T13:22:09.993Z</time></trkpt><trkpt lat="46.0439067" lon="12.5641017"><ele>104.4</ele><time>2026-04-25T13:22:10.993Z</time></trkpt><trkpt lat="46.0438533" lon="12.5639517"><ele>104.6</ele><time>2026-04-25T13:22:11.993Z</time></trkpt><trkpt lat="46.043805" lon="12.5638317"><ele>104.8</ele><time>2026-04-25T13:22:12.993Z</time></trkpt><trkpt lat="46.0437533" lon="12.5637383"><ele>105.0</ele><time>2026-04-25T13:22:13.993Z</time></trkpt><trkpt lat="46.043665" lon="12.5636733"><ele>105.0</ele><time>2026-04-25T13:22:14.994Z</time></trkpt><trkpt lat="46.0435267" lon="12.56364"><ele>105.0</ele><time>2026-04-25T13:22:15.996Z</time></trkpt><trkpt lat="46.0433767" lon="12.5636017"><ele>105.0</ele><time>2026-04-25T13:22:16.993Z</time></trkpt><trkpt lat="46.0432183" lon="12.5635533"><ele>105.0</ele><time>2026-04-25T13:22:17.994Z</time></trkpt><trkpt lat="46.043055" lon="12.5635"><ele>105.0</ele><time>2026-04-25T13:22:18.993Z</time></trkpt><trkpt lat="46.0429067" lon="12.563445"><ele>105.0</ele><time>2026-04-25T13:22:19.994Z</time></trkpt><trkpt lat="46.042775" lon="12.5634017"><ele>105.0</ele><time>2026-04-25T13:22:20.993Z</time></trkpt><trkpt lat="46.0426633" lon="12.5633617"><ele>105.0</ele><time>2026-04-25T13:22:21.995Z</time></trkpt><trkpt lat="46.042565" lon="12.5633283"><ele>105.0</ele><time>2026-04-25T13:22:22.993Z</time></trkpt><trkpt lat="46.0424817" lon="12.5632983"><ele>105.0</ele><time>2026-04-25T13:22:23.994Z</time></trkpt><trkpt lat="46.0424083" lon="12.5632667"><ele>105.0</ele><time>2026-04-25T13:22:24.994Z</time></trkpt><trkpt lat="46.0423467" lon="12.5632367"><ele>105.0</ele><time>2026-04-25T13:22:25.995Z</time></trkpt><trkpt lat="46.0422767" lon="12.5631867"><ele>104.8</ele><time>2026-04-25T13:22:27.993Z</time></trkpt><trkpt lat="46.0421774" lon="12.5631211"><ele>104.6</ele><time>2026-04-25T13:22:30.993Z</time></trkpt><trkpt lat="46.042112" lon="12.5630745"><ele>104.4</ele><time>2026-04-25T13:22:31.993Z</time></trkpt><trkpt lat="46.0420196" lon="12.5630101"><ele>104.2</ele><time>2026-04-25T13:22:32.995Z</time></trkpt><trkpt lat="46.0418867" lon="12.56292"><ele>104.0</ele><time>2026-04-25T13:22:33.994Z</time></trkpt><trkpt lat="46.0417567" lon="12.5628283"><ele>103.75</ele><time>2026-04-25T13:22:34.994Z</time></trkpt><trkpt lat="46.041625" lon="12.5627317"><ele>103.5</ele><time>2026-04-25T13:22:35.993Z</time></trkpt><trkpt lat="46.04151" lon="12.562645"><ele>103.25</ele><time>2026-04-25T13:22:36.996Z</time></trkpt><trkpt lat="46.041415" lon="12.5625867"><ele>103.0</ele><time>2026-04-25T13:22:37.995Z</time></trkpt><trkpt lat="46.0413183" lon="12.5625717"><ele>103.0</ele><time>2026-04-25T13:22:38.995Z</time></trkpt><trkpt lat="46.0412117" lon="12.5625967"><ele>103.0</ele><time>2026-04-25T13:22:39.994Z</time></trkpt><trkpt lat="46.041095" lon="12.5626617"><ele>103.0</ele><time>2026-04-25T13:22:40.995Z</time></trkpt><trkpt lat="46.0409617" lon="12.562745"><ele>103.0</ele><time>2026-04-25T13:22:41.993Z</time></trkpt><trkpt lat="46.040805" lon="12.5628333"><ele>102.0</ele><time>2026-04-25T13:22:42.993Z</time></trkpt><trkpt lat="46.040635" lon="12.5629233"><ele>101.0</ele><time>2026-04-25T13:22:43.996Z</time></trkpt><trkpt lat="46.0404567" lon="12.5630433"><ele>100.0</ele><time>2026-04-25T13:22:44.994Z</time></trkpt><trkpt lat="46.04027" lon="12.5631867"><ele>100.0</ele><time>2026-04-25T13:22:45.994Z</time></trkpt><trkpt lat="46.04008" lon="12.5633267"><ele>100.0</ele><time>2026-04-25T13:22:46.992Z</time></trkpt><trkpt lat="46.0399033" lon="12.5634283"><ele>100.0</ele><time>2026-04-25T13:22:47.995Z</time></trkpt><trkpt lat="46.0397333" lon="12.5634967"><ele>99.33333333333334</ele><time>2026-04-25T13:22:48.993Z</time></trkpt><trkpt lat="46.0395483" lon="12.5635483"><ele>98.66666666666666</ele><time>2026-04-25T13:22:49.994Z</time></trkpt><trkpt lat="46.0393517" lon="12.5636083"><ele>98.0</ele><time>2026-04-25T13:22:50.996Z</time></trkpt><trkpt lat="46.0391583" lon="12.563685"><ele>97.0</ele><time>2026-04-25T13:22:51.997Z</time></trkpt><trkpt lat="46.038995" lon="12.5637667"><ele>96.0</ele><time>2026-04-25T13:22:52.998Z</time></trkpt><trkpt lat="46.0388433" lon="12.5638667"><ele>95.0</ele><time>2026-04-25T13:22:53.994Z</time></trkpt><trkpt lat="46.03869" lon="12.5639917"><ele>95.0</ele><time>2026-04-25T13:22:54.994Z</time></trkpt><trkpt lat="46.0385283" lon="12.564135"><ele>95.0</ele><time>2026-04-25T13:22:55.993Z</time></trkpt><trkpt lat="46.0383717" lon="12.5642817"><ele>95.0</ele><time>2026-04-25T13:22:56.996Z</time></trkpt><trkpt lat="46.0382367" lon="12.5644117"><ele>95.0</ele><time>2026-04-25T13:22:57.994Z</time></trkpt><trkpt lat="46.0381183" lon="12.5645217"><ele>95.0</ele><time>2026-04-25T13:22:58.993Z</time></trkpt><trkpt lat="46.0379983" lon="12.564615"><ele>95.0</ele><time>2026-04-25T13:22:59.993Z</time></trkpt><trkpt lat="46.0378783" lon="12.5646983"><ele>95.0</ele><time>2026-04-25T13:23:00.994Z</time></trkpt><trkpt lat="46.0377717" lon="12.5647583"><ele>95.0</ele><time>2026-04-25T13:23:01.995Z</time></trkpt><trkpt lat="46.0376767" lon="12.564795"><ele>95.0</ele><time>2026-04-25T13:23:02.994Z</time></trkpt><trkpt lat="46.0375917" lon="12.5648183"><ele>95.0</ele><time>2026-04-25T13:23:03.995Z</time></trkpt><trkpt lat="46.0375083" lon="12.5648367"><ele>95.0</ele><time>2026-04-25T13:23:04.993Z</time></trkpt><trkpt lat="46.0374167" lon="12.5648417"><ele>95.0</ele><time>2026-04-25T13:23:05.995Z</time></trkpt><trkpt lat="46.03731" lon="12.56483"><ele>95.4</ele><time>2026-04-25T13:23:06.994Z</time></trkpt><trkpt lat="46.0371967" lon="12.5648117"><ele>95.8</ele><time>2026-04-25T13:23:07.993Z</time></trkpt><trkpt lat="46.0370917" lon="12.5647917"><ele>96.19999999999999</ele><time>2026-04-25T13:23:08.995Z</time></trkpt><trkpt lat="46.037" lon="12.56477"><ele>96.6</ele><time>2026-04-25T13:23:09.993Z</time></trkpt><trkpt lat="46.03692" lon="12.5647417"><ele>97.0</ele><time>2026-04-25T13:23:10.994Z</time></trkpt><trkpt lat="46.0368517" lon="12.5647133"><ele>97.0</ele><time>2026-04-25T13:23:11.995Z</time></trkpt><trkpt lat="46.036735" lon="12.5647283"><ele>97.0</ele><time>2026-04-25T13:23:13.996Z</time></trkpt><trkpt lat="46.03664" lon="12.5647717"><ele>97.0</ele><time>2026-04-25T13:23:15.995Z</time></trkpt><trkpt lat="46.0365367" lon="12.5648367"><ele>97.0</ele><time>2026-04-25T13:23:36.993Z</time></trkpt><trkpt lat="46.0364767" lon="12.56489"><ele>97.0</ele><time>2026-04-25T13:23:37.994Z</time></trkpt><trkpt lat="46.0364083" lon="12.5649483"><ele>96.6</ele><time>2026-04-25T13:23:38.994Z</time></trkpt><trkpt lat="46.036335" lon="12.5650033"><ele>96.19999999999999</ele><time>2026-04-25T13:23:39.994Z</time></trkpt><trkpt lat="46.0362467" lon="12.5650683"><ele>95.8</ele><time>2026-04-25T13:23:40.994Z</time></trkpt><trkpt lat="46.0361433" lon="12.5651333"><ele>95.4</ele><time>2026-04-25T13:23:41.993Z</time></trkpt><trkpt lat="46.0360267" lon="12.5652033"><ele>95.0</ele><time>2026-04-25T13:23:42.994Z</time></trkpt><trkpt lat="46.0359" lon="12.56529"><ele>95.33333333333334</ele><time>2026-04-25T13:23:43.994Z</time></trkpt><trkpt lat="46.035765" lon="12.5653867"><ele>95.66666666666667</ele><time>2026-04-25T13:23:44.996Z</time></trkpt><trkpt lat="46.035625" lon="12.56549"><ele>96.0</ele><time>2026-04-25T13:23:45.994Z</time></trkpt><trkpt lat="46.0354983" lon="12.56559"><ele>96.0</ele><time>2026-04-25T13:23:46.993Z</time></trkpt><trkpt lat="46.0353733" lon="12.5656833"><ele>96.0</ele><time>2026-04-25T13:23:47.994Z</time></trkpt><trkpt lat="46.03525" lon="12.5657733"><ele>96.0</ele><time>2026-04-25T13:23:48.994Z</time></trkpt><trkpt lat="46.0351383" lon="12.565855"><ele>96.0</ele><time>2026-04-25T13:23:49.994Z</time></trkpt><trkpt lat="46.03505" lon="12.5659233"><ele>96.0</ele><time>2026-04-25T13:23:50.993Z</time></trkpt><trkpt lat="46.034985" lon="12.5659667"><ele>96.0</ele><time>2026-04-25T13:23:51.993Z</time></trkpt><trkpt lat="46.034915" lon="12.5660283"><ele>96.0</ele><time>2026-04-25T13:23:53.995Z</time></trkpt><trkpt lat="46.0349817" lon="12.5659767"><ele>96.0</ele><time>2026-04-25T13:23:56.994Z</time></trkpt><trkpt lat="46.0350417" lon="12.5659217"><ele>96.0</ele><time>2026-04-25T13:23:57.994Z</time></trkpt><trkpt lat="46.0351333" lon="12.56584"><ele>96.0</ele><time>2026-04-25T13:23:59.998Z</time></trkpt><trkpt lat="46.0351663" lon="12.5657228"><ele>96.0</ele><time>2026-04-25T13:24:01.994Z</time></trkpt><trkpt lat="46.0351547" lon="12.5655976"><ele>96.0</ele><time>2026-04-25T13:24:02.995Z</time></trkpt><trkpt lat="46.0351327" lon="12.5654388"><ele>96.0</ele><time>2026-04-25T13:24:03.995Z</time></trkpt><trkpt lat="46.0351097" lon="12.5652623"><ele>96.0</ele><time>2026-04-25T13:24:04.993Z</time></trkpt><trkpt lat="46.0350814" lon="12.5650755"><ele>95.25</ele><time>2026-04-25T13:24:05.993Z</time></trkpt><trkpt lat="46.0350488" lon="12.5648847"><ele>94.5</ele><time>2026-04-25T13:24:06.993Z</time></trkpt><trkpt lat="46.0350165" lon="12.5646945"><ele>93.75</ele><time>2026-04-25T13:24:07.995Z</time></trkpt><trkpt lat="46.0349844" lon="12.5645196"><ele>93.0</ele><time>2026-04-25T13:24:09Z</time></trkpt><trkpt lat="46.034954" lon="12.5643621"><ele>92.75</ele><time>2026-04-25T13:24:09.994Z</time></trkpt><trkpt lat="46.03492" lon="12.564214"><ele>92.5</ele><time>2026-04-25T13:24:10.996Z</time></trkpt><trkpt lat="46.0348759" lon="12.5640629"><ele>92.25</ele><time>2026-04-25T13:24:11.997Z</time></trkpt><trkpt lat="46.0348209" lon="12.5639041"><ele>92.0</ele><time>2026-04-25T13:24:12.993Z</time></trkpt><trkpt lat="46.0347534" lon="12.5637529"><ele>91.75</ele><time>2026-04-25T13:24:13.995Z</time></trkpt><trkpt lat="46.0346833" lon="12.5636159"><ele>91.5</ele><time>2026-04-25T13:24:14.994Z</time></trkpt><trkpt lat="46.0346067" lon="12.5634799"><ele>91.25</ele><time>2026-04-25T13:24:15.997Z</time></trkpt><trkpt lat="46.0345275" lon="12.5633402"><ele>91.0</ele><time>2026-04-25T13:24:16.995Z</time></trkpt><trkpt lat="46.0344539" lon="12.5632012"><ele>91.0</ele><time>2026-04-25T13:24:17.994Z</time></trkpt><trkpt lat="46.0343907" lon="12.5630734"><ele>91.0</ele><time>2026-04-25T13:24:18.993Z</time></trkpt><trkpt lat="46.0343329" lon="12.562956"><ele>91.0</ele><time>2026-04-25T13:24:19.995Z</time></trkpt><trkpt lat="46.0342768" lon="12.5628464"><ele>91.0</ele><time>2026-04-25T13:24:20.995Z</time></trkpt><trkpt lat="46.0342226" lon="12.5627481"><ele>91.0</ele><time>2026-04-25T13:24:21.995Z</time></trkpt><trkpt lat="46.0341723" lon="12.5626652"><ele>90.6</ele><time>2026-04-25T13:24:22.995Z</time></trkpt><trkpt lat="46.0341263" lon="12.5626"><ele>90.19999999999999</ele><time>2026-04-25T13:24:23.995Z</time></trkpt><trkpt lat="46.0340417" lon="12.5626017"><ele>89.80000000000001</ele><time>2026-04-25T13:24:33.994Z</time></trkpt><trkpt lat="46.033965" lon="12.562635"><ele>89.4</ele><time>2026-04-25T13:24:35.993Z</time></trkpt><trkpt lat="46.033875" lon="12.5627083"><ele>89.0</ele><time>2026-04-25T13:24:38.993Z</time></trkpt><trkpt lat="46.0338" lon="12.5628483"><ele>89.0</ele><time>2026-04-25T13:24:40.994Z</time></trkpt><trkpt lat="46.033765" lon="12.5629317"><ele>89.0</ele><time>2026-04-25T13:24:41.994Z</time></trkpt><trkpt lat="46.0337" lon="12.5630717"><ele>89.0</ele><time>2026-04-25T13:24:43.995Z</time></trkpt><trkpt lat="46.033605" lon="12.56322"><ele>89.0</ele><time>2026-04-25T13:24:45.995Z</time></trkpt><trkpt lat="46.0335317" lon="12.563305"><ele>89.0</ele><time>2026-04-25T13:24:46.994Z</time></trkpt><trkpt lat="46.0334517" lon="12.56341"><ele>89.0</ele><time>2026-04-25T13:24:47.995Z</time></trkpt><trkpt lat="46.03337" lon="12.5635433"><ele>89.0</ele><time>2026-04-25T13:24:48.995Z</time></trkpt><trkpt lat="46.0332833" lon="12.5636883"><ele>89.0</ele><time>2026-04-25T13:24:49.993Z</time></trkpt><trkpt lat="46.0331967" lon="12.5638283"><ele>89.0</ele><time>2026-04-25T13:24:50.995Z</time></trkpt><trkpt lat="46.0331133" lon="12.56397"><ele>89.5</ele><time>2026-04-25T13:24:51.993Z</time></trkpt><trkpt lat="46.0330367" lon="12.5641033"><ele>90.0</ele><time>2026-04-25T13:24:52.994Z</time></trkpt><trkpt lat="46.0329667" lon="12.5642233"><ele>90.5</ele><time>2026-04-25T13:24:53.994Z</time></trkpt><trkpt lat="46.0328917" lon="12.5643383"><ele>91.0</ele><time>2026-04-25T13:24:54.994Z</time></trkpt><trkpt lat="46.0328117" lon="12.5644633"><ele>90.8</ele><time>2026-04-25T13:24:55.994Z</time></trkpt><trkpt lat="46.032735" lon="12.564595"><ele>90.6</ele><time>2026-04-25T13:24:56.995Z</time></trkpt><trkpt lat="46.0326683" lon="12.564715"><ele>90.4</ele><time>2026-04-25T13:24:57.993Z</time></trkpt><trkpt lat="46.032615" lon="12.5648317"><ele>90.2</ele><time>2026-04-25T13:24:58.994Z</time></trkpt><trkpt lat="46.0325733" lon="12.5649533"><ele>90.0</ele><time>2026-04-25T13:24:59.993Z</time></trkpt><trkpt lat="46.0325383" lon="12.5650767"><ele>90.0</ele><time>2026-04-25T13:25:00.994Z</time></trkpt><trkpt lat="46.0325167" lon="12.5651933"><ele>90.0</ele><time>2026-04-25T13:25:01.993Z</time></trkpt><trkpt lat="46.0324983" lon="12.5652967"><ele>90.0</ele><time>2026-04-25T13:25:02.994Z</time></trkpt><trkpt lat="46.03248" lon="12.565385"><ele>90.0</ele><time>2026-04-25T13:25:03.993Z</time></trkpt><trkpt lat="46.0324367" lon="12.56549"><ele>90.0</ele><time>2026-04-25T13:25:05.994Z</time></trkpt><trkpt lat="46.0323433" lon="12.565465"><ele>90.0</ele><time>2026-04-25T13:25:07.998Z</time></trkpt><trkpt lat="46.03227" lon="12.5654133"><ele>90.25</ele><time>2026-04-25T13:25:08.994Z</time></trkpt><trkpt lat="46.0321817" lon="12.565365"><ele>90.5</ele><time>2026-04-25T13:25:09.994Z</time></trkpt><trkpt lat="46.032075" lon="12.5653383"><ele>90.75</ele><time>2026-04-25T13:25:10.994Z</time></trkpt><trkpt lat="46.031945" lon="12.5653333"><ele>91.0</ele><time>2026-04-25T13:25:11.996Z</time></trkpt><trkpt lat="46.0318017" lon="12.5653433"><ele>91.25</ele><time>2026-04-25T13:25:12.993Z</time></trkpt><trkpt lat="46.0316583" lon="12.565345"><ele>91.5</ele><time>2026-04-25T13:25:13.993Z</time></trkpt><trkpt lat="46.0315183" lon="12.565345"><ele>91.75</ele><time>2026-04-25T13:25:14.995Z</time></trkpt><trkpt lat="46.0313783" lon="12.5653333"><ele>92.0</ele><time>2026-04-25T13:25:15.994Z</time></trkpt><trkpt lat="46.031235" lon="12.5653067"><ele>91.66666666666667</ele><time>2026-04-25T13:25:16.994Z</time></trkpt><trkpt lat="46.0310883" lon="12.5652783"><ele>91.33333333333333</ele><time>2026-04-25T13:25:17.994Z</time></trkpt><trkpt lat="46.0309383" lon="12.56525"><ele>91.0</ele><time>2026-04-25T13:25:18.994Z</time></trkpt><trkpt lat="46.0307833" lon="12.5652183"><ele>91.0</ele><time>2026-04-25T13:25:19.994Z</time></trkpt><trkpt lat="46.030635" lon="12.565185"><ele>91.0</ele><time>2026-04-25T13:25:20.995Z</time></trkpt><trkpt lat="46.0304967" lon="12.56515"><ele>91.0</ele><time>2026-04-25T13:25:21.995Z</time></trkpt><trkpt lat="46.0303717" lon="12.565105"><ele>91.0</ele><time>2026-04-25T13:25:22.996Z</time></trkpt><trkpt lat="46.0302483" lon="12.565045"><ele>91.0</ele><time>2026-04-25T13:25:23.996Z</time></trkpt><trkpt lat="46.0301167" lon="12.5649667"><ele>91.0</ele><time>2026-04-25T13:25:24.994Z</time></trkpt><trkpt lat="46.02998" lon="12.5648767"><ele>91.0</ele><time>2026-04-25T13:25:25.995Z</time></trkpt><trkpt lat="46.029835" lon="12.5647817"><ele>91.0</ele><time>2026-04-25T13:25:26.994Z</time></trkpt><trkpt lat="46.0296867" lon="12.5646917"><ele>91.0</ele><time>2026-04-25T13:25:27.994Z</time></trkpt><trkpt lat="46.0295433" lon="12.564615"><ele>91.0</ele><time>2026-04-25T13:25:28.993Z</time></trkpt><trkpt lat="46.0294083" lon="12.564555"><ele>90.6</ele><time>2026-04-25T13:25:29.993Z</time></trkpt><trkpt lat="46.029285" lon="12.5645067"><ele>90.19999999999999</ele><time>2026-04-25T13:25:30.993Z</time></trkpt><trkpt lat="46.02918" lon="12.5644717"><ele>89.80000000000001</ele><time>2026-04-25T13:25:31.994Z</time></trkpt><trkpt lat="46.0291" lon="12.5644433"><ele>89.4</ele><time>2026-04-25T13:25:32.995Z</time></trkpt><trkpt lat="46.0290183" lon="12.5643617"><ele>89.0</ele><time>2026-04-25T13:25:34.994Z</time></trkpt><trkpt lat="46.02903" lon="12.564195"><ele>89.0</ele><time>2026-04-25T13:25:36.993Z</time></trkpt><trkpt lat="46.029085" lon="12.5640667"><ele>89.0</ele><time>2026-04-25T13:25:37.994Z</time></trkpt><trkpt lat="46.02917" lon="12.5638867"><ele>89.0</ele><time>2026-04-25T13:25:38.994Z</time></trkpt><trkpt lat="46.0292533" lon="12.5636967"><ele>89.0</ele><time>2026-04-25T13:25:39.993Z</time></trkpt><trkpt lat="46.0293333" lon="12.5635067"><ele>89.25</ele><time>2026-04-25T13:25:40.996Z</time></trkpt><trkpt lat="46.0294033" lon="12.5633267"><ele>89.5</ele><time>2026-04-25T13:25:41.993Z</time></trkpt><trkpt lat="46.02947" lon="12.5631583"><ele>89.75</ele><time>2026-04-25T13:25:42.993Z</time></trkpt><trkpt lat="46.029535" lon="12.5629867"><ele>90.0</ele><time>2026-04-25T13:25:43.994Z</time></trkpt><trkpt lat="46.0296133" lon="12.5628133"><ele>89.33333333333333</ele><time>2026-04-25T13:25:44.995Z</time></trkpt><trkpt lat="46.029705" lon="12.562635"><ele>88.66666666666666</ele><time>2026-04-25T13:25:45.994Z</time></trkpt><trkpt lat="46.0298067" lon="12.5624533"><ele>88.0</ele><time>2026-04-25T13:25:46.994Z</time></trkpt><trkpt lat="46.0299133" lon="12.5622667"><ele>87.66666666666666</ele><time>2026-04-25T13:25:47.993Z</time></trkpt><trkpt lat="46.0300167" lon="12.562075"><ele>87.33333333333333</ele><time>2026-04-25T13:25:48.997Z</time></trkpt><trkpt lat="46.0301183" lon="12.5618817"><ele>87.0</ele><time>2026-04-25T13:25:49.994Z</time></trkpt><trkpt lat="46.030225" lon="12.5616917"><ele>86.66666666666667</ele><time>2026-04-25T13:25:50.994Z</time></trkpt><trkpt lat="46.030345" lon="12.5615117"><ele>86.33333333333334</ele><time>2026-04-25T13:25:51.994Z</time></trkpt><trkpt lat="46.0304752" lon="12.5613342"><ele>86.0</ele><time>2026-04-25T13:25:52.994Z</time></trkpt><trkpt lat="46.0306117" lon="12.5611588"><ele>86.0</ele><time>2026-04-25T13:25:53.994Z</time></trkpt><trkpt lat="46.03075" lon="12.5609879"><ele>86.0</ele><time>2026-04-25T13:25:54.993Z</time></trkpt><trkpt lat="46.030878" lon="12.5608239"><ele>86.0</ele><time>2026-04-25T13:25:55.994Z</time></trkpt><trkpt lat="46.0309978" lon="12.5606647"><ele>86.25</ele><time>2026-04-25T13:25:56.995Z</time></trkpt><trkpt lat="46.0311097" lon="12.5605118"><ele>86.5</ele><time>2026-04-25T13:25:57.994Z</time></trkpt><trkpt lat="46.0312094" lon="12.560363"><ele>86.75</ele><time>2026-04-25T13:25:58.996Z</time></trkpt><trkpt lat="46.0312948" lon="12.5602226"><ele>87.0</ele><time>2026-04-25T13:25:59.995Z</time></trkpt><trkpt lat="46.0313693" lon="12.5600966"><ele>87.0</ele><time>2026-04-25T13:26:00.993Z</time></trkpt><trkpt lat="46.0314354" lon="12.5599938"><ele>87.0</ele><time>2026-04-25T13:26:01.993Z</time></trkpt><trkpt lat="46.031492" lon="12.5599078"><ele>87.0</ele><time>2026-04-25T13:26:02.995Z</time></trkpt><trkpt lat="46.0315398" lon="12.5598382"><ele>87.0</ele><time>2026-04-25T13:26:03.994Z</time></trkpt><trkpt lat="46.0316192" lon="12.5597222"><ele>87.0</ele><time>2026-04-25T13:26:05.994Z</time></trkpt><trkpt lat="46.0316792" lon="12.5596579"><ele>87.0</ele><time>2026-04-25T13:26:07.994Z</time></trkpt><trkpt lat="46.0317391" lon="12.5596019"><ele>87.25</ele><time>2026-04-25T13:26:09.994Z</time></trkpt><trkpt lat="46.0318274" lon="12.5594591"><ele>87.5</ele><time>2026-04-25T13:26:11.995Z</time></trkpt><trkpt lat="46.0318839" lon="12.5593437"><ele>87.75</ele><time>2026-04-25T13:26:12.994Z</time></trkpt><trkpt lat="46.0319456" lon="12.5592075"><ele>88.0</ele><time>2026-04-25T13:26:13.993Z</time></trkpt><trkpt lat="46.0320068" lon="12.5590791"><ele>88.0</ele><time>2026-04-25T13:26:14.995Z</time></trkpt><trkpt lat="46.0320753" lon="12.558964"><ele>88.0</ele><time>2026-04-25T13:26:15.995Z</time></trkpt><trkpt lat="46.0321572" lon="12.558846"><ele>88.0</ele><time>2026-04-25T13:26:16.994Z</time></trkpt><trkpt lat="46.0322408" lon="12.558731"><ele>88.0</ele><time>2026-04-25T13:26:17.994Z</time></trkpt><trkpt lat="46.0323087" lon="12.5586304"><ele>88.0</ele><time>2026-04-25T13:26:18.994Z</time></trkpt><trkpt lat="46.032364" lon="12.5585522"><ele>88.0</ele><time>2026-04-25T13:26:19.994Z</time></trkpt><trkpt lat="46.0324263" lon="12.5584834"><ele>88.0</ele><time>2026-04-25T13:26:21.994Z</time></trkpt><trkpt lat="46.0324905" lon="12.5585061"><ele>88.0</ele><time>2026-04-25T13:26:40.992Z</time></trkpt><trkpt lat="46.0325667" lon="12.5584817"><ele>88.0</ele><time>2026-04-25T13:26:55.993Z</time></trkpt><trkpt lat="46.0326333" lon="12.5584517"><ele>88.0</ele><time>2026-04-25T13:26:58.995Z</time></trkpt><trkpt lat="46.03273" lon="12.5584167"><ele>88.0</ele><time>2026-04-25T13:27:01.994Z</time></trkpt><trkpt lat="46.032805" lon="12.5584167"><ele>88.0</ele><time>2026-04-25T13:27:03.995Z</time></trkpt><trkpt lat="46.032895" lon="12.5583767"><ele>88.0</ele><time>2026-04-25T13:27:05.995Z</time></trkpt><trkpt lat="46.032985" lon="12.5583217"><ele>88.0</ele><time>2026-04-25T13:27:07.994Z</time></trkpt><trkpt lat="46.0330998" lon="12.558276"><ele>88.0</ele><time>2026-04-25T13:27:10.995Z</time></trkpt><trkpt lat="46.0331596" lon="12.5582178"><ele>88.0</ele><time>2026-04-25T13:27:13.022Z</time></trkpt><trkpt lat="46.033144" lon="12.5581164"><ele>88.0</ele><time>2026-04-25T13:27:15.052Z</time></trkpt><trkpt lat="46.0330627" lon="12.5580454"><ele>88.0</ele><time>2026-04-25T13:27:16.994Z</time></trkpt><trkpt lat="46.0330031" lon="12.5579872"><ele>88.0</ele><time>2026-04-25T13:27:19.015Z</time></trkpt><trkpt lat="46.0330033" lon="12.5578883"><ele>88.0</ele><time>2026-04-25T13:27:33.993Z</time></trkpt><trkpt lat="46.03298" lon="12.5577917"><ele>88.0</ele><time>2026-04-25T13:27:36.992Z</time></trkpt><trkpt lat="46.03299" lon="12.557885"><ele>88.0</ele><time>2026-04-25T13:27:51.993Z</time></trkpt><trkpt lat="46.0330133" lon="12.5579733"><ele>88.0</ele><time>2026-04-25T13:27:57.995Z</time></trkpt><trkpt lat="46.0330233" lon="12.5581117"><ele>88.0</ele><time>2026-04-25T13:27:59.993Z</time></trkpt><trkpt lat="46.0329983" lon="12.5582117"><ele>88.0</ele><time>2026-04-25T13:28:01.992Z</time></trkpt><trkpt lat="46.03305" lon="12.5582783"><ele>88.0</ele><time>2026-04-25T13:28:06.992Z</time></trkpt><trkpt lat="46.0331517" lon="12.5582067"><ele>88.0</ele><time>2026-04-25T13:28:08.994Z</time></trkpt><trkpt lat="46.03322" lon="12.5581883"><ele>88.0</ele><time>2026-04-25T13:28:09.994Z</time></trkpt><trkpt lat="46.033285" lon="12.5581667"><ele>88.0</ele><time>2026-04-25T13:28:10.995Z</time></trkpt><trkpt lat="46.0333567" lon="12.5581317"><ele>88.5</ele><time>2026-04-25T13:28:11.992Z</time></trkpt><trkpt lat="46.03343" lon="12.558085"><ele>89.0</ele><time>2026-04-25T13:28:12.994Z</time></trkpt><trkpt lat="46.033495" lon="12.5580367"><ele>89.5</ele><time>2026-04-25T13:28:13.993Z</time></trkpt><trkpt lat="46.0335567" lon="12.5579867"><ele>90.0</ele><time>2026-04-25T13:28:14.994Z</time></trkpt><trkpt lat="46.0336167" lon="12.55794"><ele>90.5</ele><time>2026-04-25T13:28:15.996Z</time></trkpt><trkpt lat="46.0337133" lon="12.5578533"><ele>91.0</ele><time>2026-04-25T13:28:17.993Z</time></trkpt><trkpt lat="46.03382" lon="12.5577267"><ele>91.0</ele><time>2026-04-25T13:28:19.997Z</time></trkpt><trkpt lat="46.0338733" lon="12.5576633"><ele>91.0</ele><time>2026-04-25T13:28:20.993Z</time></trkpt><trkpt lat="46.0339333" lon="12.557595"><ele>91.0</ele><time>2026-04-25T13:28:21.993Z</time></trkpt><trkpt lat="46.03399" lon="12.5575233"><ele>91.0</ele><time>2026-04-25T13:28:22.993Z</time></trkpt><trkpt lat="46.0340383" lon="12.55746"><ele>91.0</ele><time>2026-04-25T13:28:23.993Z</time></trkpt><trkpt lat="46.0340967" lon="12.5574167"><ele>91.0</ele><time>2026-04-25T13:28:25.994Z</time></trkpt><trkpt lat="46.03417" lon="12.5573967"><ele>91.0</ele><time>2026-04-25T13:28:28.993Z</time></trkpt><trkpt lat="46.0342617" lon="12.5574533"><ele>91.5</ele><time>2026-04-25T13:28:30.993Z</time></trkpt><trkpt lat="46.0343383" lon="12.5575283"><ele>92.0</ele><time>2026-04-25T13:28:31.994Z</time></trkpt><trkpt lat="46.0344033" lon="12.5575983"><ele>92.5</ele><time>2026-04-25T13:28:32.994Z</time></trkpt><trkpt lat="46.0344683" lon="12.55766"><ele>93.0</ele><time>2026-04-25T13:28:33.996Z</time></trkpt><trkpt lat="46.03453" lon="12.5577183"><ele>93.5</ele><time>2026-04-25T13:28:34.993Z</time></trkpt><trkpt lat="46.0345867" lon="12.5577767"><ele>94.0</ele><time>2026-04-25T13:28:35.994Z</time></trkpt><trkpt lat="46.03464" lon="12.5578367"><ele>93.83333333333333</ele><time>2026-04-25T13:28:36.993Z</time></trkpt><trkpt lat="46.0347017" lon="12.55789"><ele>93.66666666666666</ele><time>2026-04-25T13:28:37.993Z</time></trkpt><trkpt lat="46.0347667" lon="12.5579483"><ele>93.5</ele><time>2026-04-25T13:28:38.995Z</time></trkpt><trkpt lat="46.0348433" lon="12.5580033"><ele>93.33333333333333</ele><time>2026-04-25T13:28:39.993Z</time></trkpt><trkpt lat="46.0349217" lon="12.5580583"><ele>93.16666666666667</ele><time>2026-04-25T13:28:40.995Z</time></trkpt><trkpt lat="46.03501" lon="12.5581133"><ele>93.0</ele><time>2026-04-25T13:28:41.994Z</time></trkpt><trkpt lat="46.0350967" lon="12.5581717"><ele>93.33333333333333</ele><time>2026-04-25T13:28:42.994Z</time></trkpt><trkpt lat="46.035175" lon="12.558225"><ele>93.66666666666667</ele><time>2026-04-25T13:28:43.998Z</time></trkpt><trkpt lat="46.03525" lon="12.5582783"><ele>94.0</ele><time>2026-04-25T13:28:44.994Z</time></trkpt><trkpt lat="46.03532" lon="12.558315"><ele>94.33333333333334</ele><time>2026-04-25T13:28:45.992Z</time></trkpt><trkpt lat="46.0354383" lon="12.558335"><ele>94.66666666666667</ele><time>2026-04-25T13:28:47.994Z</time></trkpt><trkpt lat="46.0355167" lon="12.5583367"><ele>95.0</ele><time>2026-04-25T13:28:48.993Z</time></trkpt><trkpt lat="46.0356017" lon="12.55835"><ele>95.0</ele><time>2026-04-25T13:28:49.994Z</time></trkpt><trkpt lat="46.0356933" lon="12.5583733"><ele>95.0</ele><time>2026-04-25T13:28:50.994Z</time></trkpt><trkpt lat="46.035785" lon="12.55841"><ele>95.0</ele><time>2026-04-25T13:28:51.994Z</time></trkpt><trkpt lat="46.0358683" lon="12.55845"><ele>95.0</ele><time>2026-04-25T13:28:52.994Z</time></trkpt><trkpt lat="46.0359467" lon="12.558475"><ele>95.0</ele><time>2026-04-25T13:28:53.993Z</time></trkpt><trkpt lat="46.0360183" lon="12.5584917"><ele>95.0</ele><time>2026-04-25T13:28:54.995Z</time></trkpt><trkpt lat="46.03611" lon="12.5584983"><ele>95.16666666666667</ele><time>2026-04-25T13:28:56.994Z</time></trkpt><trkpt lat="46.0361817" lon="12.55845"><ele>95.33333333333334</ele><time>2026-04-25T13:28:59.993Z</time></trkpt><trkpt lat="46.036269" lon="12.5583394"><ele>95.5</ele><time>2026-04-25T13:29:01.993Z</time></trkpt><trkpt lat="46.036317" lon="12.5582582"><ele>95.66666666666667</ele><time>2026-04-25T13:29:02.993Z</time></trkpt><trkpt lat="46.0363573" lon="12.5581782"><ele>95.83333333333333</ele><time>2026-04-25T13:29:03.993Z</time></trkpt><trkpt lat="46.036421" lon="12.5580779"><ele>96.0</ele><time>2026-04-25T13:29:06.079Z</time></trkpt><trkpt lat="46.0365389" lon="12.5580228"><ele>96.0</ele><time>2026-04-25T13:29:09.034Z</time></trkpt><trkpt lat="46.0368184" lon="12.5578115"><ele>96.0</ele><time>2026-04-25T13:29:11.994Z</time></trkpt><trkpt lat="46.0369276" lon="12.5577226"><ele>96.0</ele><time>2026-04-25T13:29:13.905Z</time></trkpt><trkpt lat="46.0370407" lon="12.5574942"><ele>96.0</ele><time>2026-04-25T13:29:15.999Z</time></trkpt><trkpt lat="46.0371222" lon="12.5573123"><ele>96.0</ele><time>2026-04-25T13:29:16.995Z</time></trkpt><trkpt lat="46.0371957" lon="12.5571649"><ele>96.0</ele><time>2026-04-25T13:29:17.992Z</time></trkpt><trkpt lat="46.0372558" lon="12.5570451"><ele>96.0</ele><time>2026-04-25T13:29:18.994Z</time></trkpt><trkpt lat="46.0373033" lon="12.5569304"><ele>96.16666666666667</ele><time>2026-04-25T13:29:19.994Z</time></trkpt><trkpt lat="46.0373388" lon="12.5568081"><ele>96.33333333333334</ele><time>2026-04-25T13:29:20.994Z</time></trkpt><trkpt lat="46.0373573" lon="12.5566798"><ele>96.5</ele><time>2026-04-25T13:29:21.994Z</time></trkpt><trkpt lat="46.0373614" lon="12.5565558"><ele>96.66666666666667</ele><time>2026-04-25T13:29:22.993Z</time></trkpt><trkpt lat="46.0373615" lon="12.5564457"><ele>96.83333333333334</ele><time>2026-04-25T13:29:23.994Z</time></trkpt><trkpt lat="46.0373564" lon="12.5563543"><ele>97.0</ele><time>2026-04-25T13:29:24.993Z</time></trkpt><trkpt lat="46.0373359" lon="12.5561938"><ele>97.19999999999999</ele><time>2026-04-25T13:29:26.995Z</time></trkpt><trkpt lat="46.0373159" lon="12.5560614"><ele>97.4</ele><time>2026-04-25T13:29:28.994Z</time></trkpt><trkpt lat="46.0372897" lon="12.5559292"><ele>97.6</ele><time>2026-04-25T13:29:31.994Z</time></trkpt><trkpt lat="46.0372686" lon="12.5558114"><ele>97.80000000000001</ele><time>2026-04-25T13:29:33.993Z</time></trkpt><trkpt lat="46.0372256" lon="12.555621"><ele>98.0</ele><time>2026-04-25T13:29:35.997Z</time></trkpt><trkpt lat="46.0371996" lon="12.5555232"><ele>97.99999999999999</ele><time>2026-04-25T13:29:36.994Z</time></trkpt><trkpt lat="46.0371736" lon="12.5554386"><ele>98.0</ele><time>2026-04-25T13:29:37.998Z</time></trkpt><trkpt lat="46.0371383" lon="12.5553551"><ele>98.0</ele><time>2026-04-25T13:29:38.994Z</time></trkpt><trkpt lat="46.0370866" lon="12.5552639"><ele>98.0</ele><time>2026-04-25T13:29:39.993Z</time></trkpt><trkpt lat="46.0370212" lon="12.5551658"><ele>97.99999999999999</ele><time>2026-04-25T13:29:40.993Z</time></trkpt><trkpt lat="46.0369514" lon="12.555051"><ele>98.0</ele><time>2026-04-25T13:29:41.993Z</time></trkpt><trkpt lat="46.0368841" lon="12.55493"><ele>97.66666666666666</ele><time>2026-04-25T13:29:42.993Z</time></trkpt><trkpt lat="46.0368253" lon="12.5548257"><ele>97.33333333333333</ele><time>2026-04-25T13:29:43.994Z</time></trkpt><trkpt lat="46.0367727" lon="12.5547254"><ele>97.0</ele><time>2026-04-25T13:29:44.993Z</time></trkpt><trkpt lat="46.0367222" lon="12.5546135"><ele>96.66666666666666</ele><time>2026-04-25T13:29:45.994Z</time></trkpt><trkpt lat="46.0366807" lon="12.5545014"><ele>96.33333333333333</ele><time>2026-04-25T13:29:46.993Z</time></trkpt><trkpt lat="46.0366358" lon="12.5544037"><ele>96.0</ele><time>2026-04-25T13:29:47.994Z</time></trkpt><trkpt lat="46.0365793" lon="12.5543196"><ele>94.8</ele><time>2026-04-25T13:29:48.993Z</time></trkpt><trkpt lat="46.0365111" lon="12.554244"><ele>93.6</ele><time>2026-04-25T13:29:49.994Z</time></trkpt><trkpt lat="46.0364504" lon="12.5541684"><ele>92.4</ele><time>2026-04-25T13:29:50.994Z</time></trkpt><trkpt lat="46.0363969" lon="12.55408"><ele>91.2</ele><time>2026-04-25T13:29:51.993Z</time></trkpt><trkpt lat="46.0363437" lon="12.5539635"><ele>90.0</ele><time>2026-04-25T13:29:52.994Z</time></trkpt><trkpt lat="46.0362847" lon="12.553825"><ele>90.2</ele><time>2026-04-25T13:29:53.993Z</time></trkpt><trkpt lat="46.0362246" lon="12.5536879"><ele>90.4</ele><time>2026-04-25T13:29:54.993Z</time></trkpt><trkpt lat="46.0361675" lon="12.5535741"><ele>90.6</ele><time>2026-04-25T13:29:55.994Z</time></trkpt><trkpt lat="46.0361114" lon="12.553482"><ele>90.8</ele><time>2026-04-25T13:29:56.993Z</time></trkpt><trkpt lat="46.0360647" lon="12.5534029"><ele>91.0</ele><time>2026-04-25T13:29:57.993Z</time></trkpt><trkpt lat="46.0359962" lon="12.5532672"><ele>91.0</ele><time>2026-04-25T13:29:59.993Z</time></trkpt><trkpt lat="46.0359724" lon="12.5530837"><ele>91.0</ele><time>2026-04-25T13:30:01.995Z</time></trkpt><trkpt lat="46.0359772" lon="12.5529721"><ele>91.0</ele><time>2026-04-25T13:30:02.995Z</time></trkpt><trkpt lat="46.0359972" lon="12.5528518"><ele>91.0</ele><time>2026-04-25T13:30:03.993Z</time></trkpt><trkpt lat="46.0360278" lon="12.5527143"><ele>91.0</ele><time>2026-04-25T13:30:04.998Z</time></trkpt><trkpt lat="46.0360638" lon="12.5525788"><ele>91.0</ele><time>2026-04-25T13:30:05.994Z</time></trkpt><trkpt lat="46.0361039" lon="12.5524534"><ele>91.0</ele><time>2026-04-25T13:30:06.995Z</time></trkpt><trkpt lat="46.0361428" lon="12.5523396"><ele>91.0</ele><time>2026-04-25T13:30:07.994Z</time></trkpt><trkpt lat="46.0361728" lon="12.5522404"><ele>91.0</ele><time>2026-04-25T13:30:08.995Z</time></trkpt><trkpt lat="46.0361983" lon="12.5521483"><ele>91.0</ele><time>2026-04-25T13:30:09.994Z</time></trkpt><trkpt lat="46.0362225" lon="12.5520531"><ele>91.0</ele><time>2026-04-25T13:30:10.995Z</time></trkpt><trkpt lat="46.0362469" lon="12.5519651"><ele>91.0</ele><time>2026-04-25T13:30:11.993Z</time></trkpt><trkpt lat="46.0362843" lon="12.5518053"><ele>91.0</ele><time>2026-04-25T13:30:13.993Z</time></trkpt><trkpt lat="46.0363127" lon="12.5516977"><ele>91.0</ele><time>2026-04-25T13:30:15.992Z</time></trkpt><trkpt lat="46.0362708" lon="12.5517689"><ele>91.0</ele><time>2026-04-25T13:30:27.994Z</time></trkpt><trkpt lat="46.0362287" lon="12.5519283"><ele>91.0</ele><time>2026-04-25T13:30:29.994Z</time></trkpt><trkpt lat="46.0362038" lon="12.5520167"><ele>91.0</ele><time>2026-04-25T13:30:30.993Z</time></trkpt><trkpt lat="46.0361771" lon="12.5521069"><ele>91.0</ele><time>2026-04-25T13:30:31.994Z</time></trkpt><trkpt lat="46.0361511" lon="12.5521994"><ele>91.0</ele><time>2026-04-25T13:30:32.998Z</time></trkpt><trkpt lat="46.0361246" lon="12.5522983"><ele>91.0</ele><time>2026-04-25T13:30:33.993Z</time></trkpt><trkpt lat="46.0361003" lon="12.5523925"><ele>91.0</ele><time>2026-04-25T13:30:34.994Z</time></trkpt><trkpt lat="46.0360645" lon="12.5525131"><ele>91.0</ele><time>2026-04-25T13:30:36.995Z</time></trkpt><trkpt lat="46.0360626" lon="12.5526164"><ele>91.0</ele><time>2026-04-25T13:30:41.993Z</time></trkpt><trkpt lat="46.0360287" lon="12.5527644"><ele>91.0</ele><time>2026-04-25T13:30:43.993Z</time></trkpt><trkpt lat="46.0359985" lon="12.5528707"><ele>91.0</ele><time>2026-04-25T13:30:45.982Z</time></trkpt><trkpt lat="46.0359836" lon="12.5529626"><ele>91.0</ele><time>2026-04-25T13:30:46.994Z</time></trkpt><trkpt lat="46.0359749" lon="12.5530664"><ele>91.0</ele><time>2026-04-25T13:30:47.994Z</time></trkpt><trkpt lat="46.0359849" lon="12.553211"><ele>91.0</ele><time>2026-04-25T13:30:49.995Z</time></trkpt><trkpt lat="46.0360296" lon="12.5533275"><ele>91.0</ele><time>2026-04-25T13:30:52.995Z</time></trkpt><trkpt lat="46.0360832" lon="12.5534339"><ele>91.0</ele><time>2026-04-25T13:30:54.993Z</time></trkpt><trkpt lat="46.036125" lon="12.5535112"><ele>91.0</ele><time>2026-04-25T13:30:55.995Z</time></trkpt><trkpt lat="46.0361708" lon="12.553598"><ele>91.0</ele><time>2026-04-25T13:30:56.993Z</time></trkpt><trkpt lat="46.0362193" lon="12.5537041"><ele>91.0</ele><time>2026-04-25T13:30:57.993Z</time></trkpt><trkpt lat="46.0362712" lon="12.5538353"><ele>91.0</ele><time>2026-04-25T13:30:58.993Z</time></trkpt><trkpt lat="46.0363209" lon="12.5539666"><ele>91.0</ele><time>2026-04-25T13:30:59.995Z</time></trkpt><trkpt lat="46.036366" lon="12.554079"><ele>90.8</ele><time>2026-04-25T13:31:00.993Z</time></trkpt><trkpt lat="46.0364201" lon="12.5541817"><ele>90.6</ele><time>2026-04-25T13:31:01.993Z</time></trkpt><trkpt lat="46.0364892" lon="12.5542796"><ele>90.4</ele><time>2026-04-25T13:31:02.994Z</time></trkpt><trkpt lat="46.03656" lon="12.5543681"><ele>90.2</ele><time>2026-04-25T13:31:03.994Z</time></trkpt><trkpt lat="46.0366164" lon="12.5544647"><ele>90.0</ele><time>2026-04-25T13:31:04.993Z</time></trkpt><trkpt lat="46.0366616" lon="12.5545824"><ele>91.25</ele><time>2026-04-25T13:31:05.994Z</time></trkpt><trkpt lat="46.036711" lon="12.5547096"><ele>92.5</ele><time>2026-04-25T13:31:06.997Z</time></trkpt><trkpt lat="46.0367785" lon="12.5548408"><ele>93.75</ele><time>2026-04-25T13:31:07.994Z</time></trkpt><trkpt lat="46.0368616" lon="12.5549781"><ele>95.0</ele><time>2026-04-25T13:31:08.994Z</time></trkpt><trkpt lat="46.0369443" lon="12.5551084"><ele>95.0</ele><time>2026-04-25T13:31:09.993Z</time></trkpt><trkpt lat="46.0370127" lon="12.5552131"><ele>95.0</ele><time>2026-04-25T13:31:10.994Z</time></trkpt><trkpt lat="46.0370733" lon="12.5553037"><ele>95.0</ele><time>2026-04-25T13:31:11.993Z</time></trkpt><trkpt lat="46.0371254" lon="12.5553799"><ele>95.0</ele><time>2026-04-25T13:31:12.995Z</time></trkpt><trkpt lat="46.0371894" lon="12.5555402"><ele>95.0</ele><time>2026-04-25T13:31:14.993Z</time></trkpt><trkpt lat="46.0372118" lon="12.5556478"><ele>95.33333333333334</ele><time>2026-04-25T13:31:15.994Z</time></trkpt><trkpt lat="46.0372323" lon="12.5557571"><ele>95.66666666666667</ele><time>2026-04-25T13:31:16.993Z</time></trkpt><trkpt lat="46.0372494" lon="12.5558599"><ele>96.0</ele><time>2026-04-25T13:31:17.995Z</time></trkpt><trkpt lat="46.0372672" lon="12.5559543"><ele>96.33333333333334</ele><time>2026-04-25T13:31:18.993Z</time></trkpt><trkpt lat="46.0372797" lon="12.5560469"><ele>96.66666666666667</ele><time>2026-04-25T13:31:19.994Z</time></trkpt><trkpt lat="46.0372896" lon="12.5561372"><ele>97.0</ele><time>2026-04-25T13:31:20.994Z</time></trkpt><trkpt lat="46.0373042" lon="12.556296"><ele>97.0</ele><time>2026-04-25T13:31:22.994Z</time></trkpt><trkpt lat="46.0373079" lon="12.5564804"><ele>97.0</ele><time>2026-04-25T13:31:24.995Z</time></trkpt><trkpt lat="46.0372993" lon="12.556602"><ele>97.0</ele><time>2026-04-25T13:31:25.995Z</time></trkpt><trkpt lat="46.0372855" lon="12.556733"><ele>97.0</ele><time>2026-04-25T13:31:26.995Z</time></trkpt><trkpt lat="46.037254" lon="12.5568626"><ele>97.0</ele><time>2026-04-25T13:31:27.993Z</time></trkpt><trkpt lat="46.0372029" lon="12.5569867"><ele>96.8</ele><time>2026-04-25T13:31:28.993Z</time></trkpt><trkpt lat="46.0371441" lon="12.5571043"><ele>96.6</ele><time>2026-04-25T13:31:29.994Z</time></trkpt><trkpt lat="46.0370872" lon="12.5572215"><ele>96.39999999999999</ele><time>2026-04-25T13:31:30.993Z</time></trkpt><trkpt lat="46.0370371" lon="12.5573402"><ele>96.19999999999999</ele><time>2026-04-25T13:31:31.995Z</time></trkpt><trkpt lat="46.0369956" lon="12.5574515"><ele>96.0</ele><time>2026-04-25T13:31:32.994Z</time></trkpt><trkpt lat="46.0369578" lon="12.5575498"><ele>96.0</ele><time>2026-04-25T13:31:33.994Z</time></trkpt><trkpt lat="46.0369153" lon="12.5576338"><ele>96.0</ele><time>2026-04-25T13:31:34.994Z</time></trkpt><trkpt lat="46.0368671" lon="12.557712"><ele>96.0</ele><time>2026-04-25T13:31:35.995Z</time></trkpt><trkpt lat="46.0368007" lon="12.5577888"><ele>96.0</ele><time>2026-04-25T13:31:36.995Z</time></trkpt><trkpt lat="46.0367255" lon="12.5578528"><ele>96.0</ele><time>2026-04-25T13:31:37.994Z</time></trkpt><trkpt lat="46.0366498" lon="12.5579123"><ele>96.0</ele><time>2026-04-25T13:31:38.994Z</time></trkpt><trkpt lat="46.0365761" lon="12.5579652"><ele>96.0</ele><time>2026-04-25T13:31:39.993Z</time></trkpt><trkpt lat="46.0365035" lon="12.5580032"><ele>96.0</ele><time>2026-04-25T13:31:40.994Z</time></trkpt><trkpt lat="46.0364398" lon="12.5580349"><ele>96.0</ele><time>2026-04-25T13:31:41.993Z</time></trkpt><trkpt lat="46.0363369" lon="12.5581144"><ele>96.0</ele><time>2026-04-25T13:31:43.996Z</time></trkpt><trkpt lat="46.0362889" lon="12.5581825"><ele>96.0</ele><time>2026-04-25T13:31:44.998Z</time></trkpt><trkpt lat="46.0362403" lon="12.5582701"><ele>96.0</ele><time>2026-04-25T13:31:45.995Z</time></trkpt><trkpt lat="46.0361911" lon="12.5583518"><ele>96.0</ele><time>2026-04-25T13:31:46.993Z</time></trkpt><trkpt lat="46.0361145" lon="12.5584443"><ele>96.0</ele><time>2026-04-25T13:31:48.993Z</time></trkpt><trkpt lat="46.0360286" lon="12.5584533"><ele>96.0</ele><time>2026-04-25T13:31:50.994Z</time></trkpt><trkpt lat="46.035962" lon="12.5584267"><ele>96.0</ele><time>2026-04-25T13:31:51.993Z</time></trkpt><trkpt lat="46.0358817" lon="12.5583895"><ele>96.0</ele><time>2026-04-25T13:31:52.993Z</time></trkpt><trkpt lat="46.035797" lon="12.5583466"><ele>96.0</ele><time>2026-04-25T13:31:53.994Z</time></trkpt><trkpt lat="46.0357166" lon="12.5583117"><ele>95.83333333333333</ele><time>2026-04-25T13:31:54.993Z</time></trkpt><trkpt lat="46.0356374" lon="12.5582806"><ele>95.66666666666667</ele><time>2026-04-25T13:31:55.993Z</time></trkpt><trkpt lat="46.035554" lon="12.5582655"><ele>95.5</ele><time>2026-04-25T13:31:56.994Z</time></trkpt><trkpt lat="46.0354763" lon="12.5582624"><ele>95.33333333333334</ele><time>2026-04-25T13:31:57.994Z</time></trkpt><trkpt lat="46.0354068" lon="12.5582441"><ele>95.16666666666667</ele><time>2026-04-25T13:31:58.994Z</time></trkpt><trkpt lat="46.035333" lon="12.5582085"><ele>95.0</ele><time>2026-04-25T13:31:59.993Z</time></trkpt><trkpt lat="46.0352488" lon="12.5581485"><ele>95.0</ele><time>2026-04-25T13:32:00.993Z</time></trkpt><trkpt lat="46.0351525" lon="12.5580806"><ele>95.0</ele><time>2026-04-25T13:32:01.995Z</time></trkpt><trkpt lat="46.0350547" lon="12.558014"><ele>95.0</ele><time>2026-04-25T13:32:02.994Z</time></trkpt><trkpt lat="46.0349622" lon="12.5579526"><ele>95.0</ele><time>2026-04-25T13:32:03.994Z</time></trkpt><trkpt lat="46.034872" lon="12.5578979"><ele>95.0</ele><time>2026-04-25T13:32:04.993Z</time></trkpt><trkpt lat="46.0347852" lon="12.5578486"><ele>94.8</ele><time>2026-04-25T13:32:05.996Z</time></trkpt><trkpt lat="46.0347088" lon="12.5577915"><ele>94.6</ele><time>2026-04-25T13:32:06.995Z</time></trkpt><trkpt lat="46.0346409" lon="12.5577201"><ele>94.4</ele><time>2026-04-25T13:32:07.994Z</time></trkpt><trkpt lat="46.034568" lon="12.5576412"><ele>94.2</ele><time>2026-04-25T13:32:08.994Z</time></trkpt><trkpt lat="46.0344879" lon="12.5575622"><ele>94.0</ele><time>2026-04-25T13:32:09.995Z</time></trkpt><trkpt lat="46.034407" lon="12.5574885"><ele>94.0</ele><time>2026-04-25T13:32:10.995Z</time></trkpt><trkpt lat="46.0343317" lon="12.5574187"><ele>94.0</ele><time>2026-04-25T13:32:11.994Z</time></trkpt><trkpt lat="46.034261" lon="12.5573608"><ele>94.0</ele><time>2026-04-25T13:32:12.993Z</time></trkpt><trkpt lat="46.0341937" lon="12.5573192"><ele>94.0</ele><time>2026-04-25T13:32:13.994Z</time></trkpt><trkpt lat="46.0341277" lon="12.5572972"><ele>94.0</ele><time>2026-04-25T13:32:14.994Z</time></trkpt><trkpt lat="46.0340543" lon="12.5573045"><ele>94.0</ele><time>2026-04-25T13:32:15.994Z</time></trkpt><trkpt lat="46.0339731" lon="12.5573442"><ele>93.4</ele><time>2026-04-25T13:32:16.993Z</time></trkpt><trkpt lat="46.0338978" lon="12.5574458"><ele>92.80000000000001</ele><time>2026-04-25T13:32:17.993Z</time></trkpt><trkpt lat="46.0338291" lon="12.5575583"><ele>92.19999999999999</ele><time>2026-04-25T13:32:18.993Z</time></trkpt><trkpt lat="46.0337576" lon="12.5576605"><ele>91.6</ele><time>2026-04-25T13:32:19.995Z</time></trkpt><trkpt lat="46.0336764" lon="12.5577616"><ele>91.0</ele><time>2026-04-25T13:32:20.994Z</time></trkpt><trkpt lat="46.0335898" lon="12.5578591"><ele>91.16666666666666</ele><time>2026-04-25T13:32:21.994Z</time></trkpt><trkpt lat="46.0335082" lon="12.5579448"><ele>91.33333333333333</ele><time>2026-04-25T13:32:22.994Z</time></trkpt><trkpt lat="46.0334332" lon="12.558022"><ele>91.5</ele><time>2026-04-25T13:32:23.996Z</time></trkpt><trkpt lat="46.033363" lon="12.5580832"><ele>91.66666666666667</ele><time>2026-04-25T13:32:24.994Z</time></trkpt><trkpt lat="46.0332883" lon="12.5581367"><ele>91.83333333333334</ele><time>2026-04-25T13:32:25.994Z</time></trkpt><trkpt lat="46.0332045" lon="12.5581839"><ele>92.0</ele><time>2026-04-25T13:32:26.995Z</time></trkpt><trkpt lat="46.0331175" lon="12.5582242"><ele>91.33333333333334</ele><time>2026-04-25T13:32:27.994Z</time></trkpt><trkpt lat="46.0330357" lon="12.5582649"><ele>90.66666666666667</ele><time>2026-04-25T13:32:28.994Z</time></trkpt><trkpt lat="46.0329576" lon="12.5583065"><ele>90.0</ele><time>2026-04-25T13:32:29.995Z</time></trkpt><trkpt lat="46.0328888" lon="12.5583403"><ele>89.33333333333333</ele><time>2026-04-25T13:32:30.995Z</time></trkpt><trkpt lat="46.0328283" lon="12.5583683"><ele>88.66666666666666</ele><time>2026-04-25T13:32:31.994Z</time></trkpt><trkpt lat="46.0327375" lon="12.5583976"><ele>88.0</ele><time>2026-04-25T13:32:33.994Z</time></trkpt><trkpt lat="46.0326754" lon="12.5584138"><ele>88.0</ele><time>2026-04-25T13:32:35.994Z</time></trkpt><trkpt lat="46.0326028" lon="12.558432"><ele>88.0</ele><time>2026-04-25T13:32:40.022Z</time></trkpt><trkpt lat="46.0325287" lon="12.558461"><ele>88.0</ele><time>2026-04-25T13:32:42.996Z</time></trkpt><trkpt lat="46.0324633" lon="12.5584978"><ele>88.0</ele><time>2026-04-25T13:32:45.082Z</time></trkpt><trkpt lat="46.0323932" lon="12.5584918"><ele>88.0</ele><time>2026-04-25T13:32:47.066Z</time></trkpt><trkpt lat="46.0323684" lon="12.5583816"><ele>88.0</ele><time>2026-04-25T13:32:48.994Z</time></trkpt><trkpt lat="46.0323783" lon="12.558245"><ele>88.2</ele><time>2026-04-25T13:32:50.994Z</time></trkpt><trkpt lat="46.0323283" lon="12.5581283"><ele>88.4</ele><time>2026-04-25T13:32:52.993Z</time></trkpt><trkpt lat="46.0322633" lon="12.5579683"><ele>88.60000000000001</ele><time>2026-04-25T13:32:54.993Z</time></trkpt><trkpt lat="46.03223" lon="12.5578833"><ele>88.80000000000001</ele><time>2026-04-25T13:32:55.994Z</time></trkpt><trkpt lat="46.0321917" lon="12.5578"><ele>89.0</ele><time>2026-04-25T13:32:56.993Z</time></trkpt><trkpt lat="46.0321117" lon="12.5576683"><ele>88.5</ele><time>2026-04-25T13:32:58.996Z</time></trkpt><trkpt lat="46.032035" lon="12.5575383"><ele>88.0</ele><time>2026-04-25T13:33:00.994Z</time></trkpt><trkpt lat="46.0320117" lon="12.5574483"><ele>87.5</ele><time>2026-04-25T13:33:01.993Z</time></trkpt><trkpt lat="46.032" lon="12.5573383"><ele>87.0</ele><time>2026-04-25T13:33:02.994Z</time></trkpt><trkpt lat="46.0319917" lon="12.55723"><ele>86.5</ele><time>2026-04-25T13:33:03.993Z</time></trkpt><trkpt lat="46.0319783" lon="12.557125"><ele>86.0</ele><time>2026-04-25T13:33:04.994Z</time></trkpt><trkpt lat="46.03196" lon="12.5570267"><ele>85.8</ele><time>2026-04-25T13:33:05.993Z</time></trkpt><trkpt lat="46.031915" lon="12.5568583"><ele>85.6</ele><time>2026-04-25T13:33:07.993Z</time></trkpt><trkpt lat="46.0318617" lon="12.5567683"><ele>85.4</ele><time>2026-04-25T13:33:08.996Z</time></trkpt><trkpt lat="46.0317983" lon="12.556665"><ele>85.2</ele><time>2026-04-25T13:33:09.993Z</time></trkpt><trkpt lat="46.0317383" lon="12.5565683"><ele>85.0</ele><time>2026-04-25T13:33:10.993Z</time></trkpt><trkpt lat="46.0316817" lon="12.5564817"><ele>84.8</ele><time>2026-04-25T13:33:11.993Z</time></trkpt><trkpt lat="46.0316283" lon="12.5563983"><ele>84.6</ele><time>2026-04-25T13:33:12.992Z</time></trkpt><trkpt lat="46.0315833" lon="12.5563233"><ele>84.4</ele><time>2026-04-25T13:33:13.994Z</time></trkpt><trkpt lat="46.0314917" lon="12.556205"><ele>84.2</ele><time>2026-04-25T13:33:15.993Z</time></trkpt><trkpt lat="46.031395" lon="12.5560917"><ele>84.0</ele><time>2026-04-25T13:33:17.993Z</time></trkpt><trkpt lat="46.0313" lon="12.5559983"><ele>84.0</ele><time>2026-04-25T13:33:19.993Z</time></trkpt><trkpt lat="46.0312267" lon="12.5559283"><ele>84.0</ele><time>2026-04-25T13:33:21.993Z</time></trkpt><trkpt lat="46.0311533" lon="12.5558433"><ele>84.0</ele><time>2026-04-25T13:33:28.995Z</time></trkpt><trkpt lat="46.0310567" lon="12.5557267"><ele>84.0</ele><time>2026-04-25T13:33:30.992Z</time></trkpt><trkpt lat="46.030995" lon="12.5556333"><ele>84.0</ele><time>2026-04-25T13:33:31.993Z</time></trkpt><trkpt lat="46.0309283" lon="12.5555267"><ele>84.0</ele><time>2026-04-25T13:33:32.998Z</time></trkpt><trkpt lat="46.0308617" lon="12.5554067"><ele>84.0</ele><time>2026-04-25T13:33:33.994Z</time></trkpt><trkpt lat="46.0307983" lon="12.5552767"><ele>84.0</ele><time>2026-04-25T13:33:34.994Z</time></trkpt><trkpt lat="46.03074" lon="12.55515"><ele>84.0</ele><time>2026-04-25T13:33:35.994Z</time></trkpt><trkpt lat="46.0306933" lon="12.55503"><ele>84.0</ele><time>2026-04-25T13:33:36.996Z</time></trkpt><trkpt lat="46.03066" lon="12.5549117"><ele>84.0</ele><time>2026-04-25T13:33:37.995Z</time></trkpt><trkpt lat="46.03066" lon="12.5547717"><ele>84.0</ele><time>2026-04-25T13:33:38.993Z</time></trkpt><trkpt lat="46.0306733" lon="12.5546333"><ele>84.0</ele><time>2026-04-25T13:33:39.996Z</time></trkpt><trkpt lat="46.030685" lon="12.5545133"><ele>84.0</ele><time>2026-04-25T13:33:40.993Z</time></trkpt><trkpt lat="46.0306883" lon="12.5544067"><ele>84.0</ele><time>2026-04-25T13:33:41.992Z</time></trkpt><trkpt lat="46.03067" lon="12.5543167"><ele>84.0</ele><time>2026-04-25T13:33:42.993Z</time></trkpt><trkpt lat="46.03063" lon="12.5542383"><ele>83.83333333333333</ele><time>2026-04-25T13:33:43.994Z</time></trkpt><trkpt lat="46.0305683" lon="12.5541417"><ele>83.66666666666667</ele><time>2026-04-25T13:33:45.993Z</time></trkpt><trkpt lat="46.0305183" lon="12.5540833"><ele>83.5</ele><time>2026-04-25T13:33:48.994Z</time></trkpt><trkpt lat="46.03046" lon="12.5539733"><ele>83.33333333333334</ele><time>2026-04-25T13:33:50.997Z</time></trkpt><trkpt lat="46.0304283" lon="12.5538917"><ele>83.16666666666667</ele><time>2026-04-25T13:33:51.993Z</time></trkpt><trkpt lat="46.0303883" lon="12.5537833"><ele>83.0</ele><time>2026-04-25T13:33:52.993Z</time></trkpt><trkpt lat="46.0303333" lon="12.55366"><ele>82.5</ele><time>2026-04-25T13:33:53.993Z</time></trkpt><trkpt lat="46.0302717" lon="12.5535267"><ele>82.0</ele><time>2026-04-25T13:33:54.993Z</time></trkpt><trkpt lat="46.03021" lon="12.5533783"><ele>81.5</ele><time>2026-04-25T13:33:55.995Z</time></trkpt><trkpt lat="46.03015" lon="12.5532283"><ele>81.0</ele><time>2026-04-25T13:33:56.993Z</time></trkpt><trkpt lat="46.030095" lon="12.5530933"><ele>81.0</ele><time>2026-04-25T13:33:57.993Z</time></trkpt><trkpt lat="46.03004" lon="12.552955"><ele>81.0</ele><time>2026-04-25T13:33:58.995Z</time></trkpt><trkpt lat="46.0299783" lon="12.5528033"><ele>81.0</ele><time>2026-04-25T13:33:59.994Z</time></trkpt><trkpt lat="46.02992" lon="12.55265"><ele>81.0</ele><time>2026-04-25T13:34:00.993Z</time></trkpt><trkpt lat="46.02987" lon="12.552505"><ele>81.0</ele><time>2026-04-25T13:34:01.993Z</time></trkpt><trkpt lat="46.029825" lon="12.552365"><ele>81.0</ele><time>2026-04-25T13:34:02.993Z</time></trkpt><trkpt lat="46.029785" lon="12.5522233"><ele>81.0</ele><time>2026-04-25T13:34:03.994Z</time></trkpt><trkpt lat="46.029745" lon="12.5520933"><ele>81.0</ele><time>2026-04-25T13:34:04.994Z</time></trkpt><trkpt lat="46.02971" lon="12.551975"><ele>81.0</ele><time>2026-04-25T13:34:05.993Z</time></trkpt><trkpt lat="46.0296817" lon="12.5518767"><ele>81.0</ele><time>2026-04-25T13:34:06.993Z</time></trkpt><trkpt lat="46.0296433" lon="12.5517217"><ele>81.0</ele><time>2026-04-25T13:34:08.994Z</time></trkpt><trkpt lat="46.0296167" lon="12.55157"><ele>81.0</ele><time>2026-04-25T13:34:10.994Z</time></trkpt><trkpt lat="46.0295933" lon="12.5514783"><ele>81.0</ele><time>2026-04-25T13:34:11.993Z</time></trkpt><trkpt lat="46.0295633" lon="12.5513833"><ele>81.0</ele><time>2026-04-25T13:34:12.994Z</time></trkpt><trkpt lat="46.02953" lon="12.5512833"><ele>81.0</ele><time>2026-04-25T13:34:13.993Z</time></trkpt><trkpt lat="46.0295083" lon="12.55118"><ele>81.0</ele><time>2026-04-25T13:34:14.993Z</time></trkpt><trkpt lat="46.02949" lon="12.5510883"><ele>81.0</ele><time>2026-04-25T13:34:15.993Z</time></trkpt><trkpt lat="46.0294633" lon="12.5509567"><ele>81.0</ele><time>2026-04-25T13:34:17.993Z</time></trkpt><trkpt lat="46.0294533" lon="12.5508633"><ele>81.0</ele><time>2026-04-25T13:34:31.994Z</time></trkpt><trkpt lat="46.029415" lon="12.5507"><ele>81.0</ele><time>2026-04-25T13:34:33.994Z</time></trkpt><trkpt lat="46.0293717" lon="12.5505483"><ele>81.0</ele><time>2026-04-25T13:34:35.994Z</time></trkpt><trkpt lat="46.02933" lon="12.5504133"><ele>81.0</ele><time>2026-04-25T13:34:37.993Z</time></trkpt><trkpt lat="46.02929" lon="12.550285"><ele>81.0</ele><time>2026-04-25T13:34:39.996Z</time></trkpt><trkpt lat="46.029245" lon="12.5501517"><ele>81.0</ele><time>2026-04-25T13:34:41.994Z</time></trkpt><trkpt lat="46.029195" lon="12.5499883"><ele>81.0</ele><time>2026-04-25T13:34:43.994Z</time></trkpt><trkpt lat="46.0291733" lon="12.5498817"><ele>80.66666666666667</ele><time>2026-04-25T13:34:44.994Z</time></trkpt><trkpt lat="46.0291533" lon="12.5497833"><ele>80.33333333333333</ele><time>2026-04-25T13:34:45.993Z</time></trkpt><trkpt lat="46.029125" lon="12.54961"><ele>80.0</ele><time>2026-04-25T13:34:47.993Z</time></trkpt><trkpt lat="46.02911" lon="12.5495183"><ele>79.66666666666666</ele><time>2026-04-25T13:34:48.994Z</time></trkpt><trkpt lat="46.0290917" lon="12.5494217"><ele>79.33333333333333</ele><time>2026-04-25T13:34:49.994Z</time></trkpt><trkpt lat="46.0290717" lon="12.5493283"><ele>79.0</ele><time>2026-04-25T13:34:50.994Z</time></trkpt><trkpt lat="46.029045" lon="12.54923"><ele>78.85714285714286</ele><time>2026-04-25T13:34:51.993Z</time></trkpt><trkpt lat="46.029015" lon="12.5491383"><ele>78.71428571428572</ele><time>2026-04-25T13:34:52.994Z</time></trkpt><trkpt lat="46.02899" lon="12.5490483"><ele>78.57142857142858</ele><time>2026-04-25T13:34:53.994Z</time></trkpt><trkpt lat="46.028965" lon="12.5489367"><ele>78.42857142857143</ele><time>2026-04-25T13:34:54.995Z</time></trkpt><trkpt lat="46.0289383" lon="12.54883"><ele>78.28571428571428</ele><time>2026-04-25T13:34:55.993Z</time></trkpt><trkpt lat="46.0289183" lon="12.54873"><ele>78.14285714285715</ele><time>2026-04-25T13:34:56.993Z</time></trkpt><trkpt lat="46.0288967" lon="12.5486267"><ele>78.0</ele><time>2026-04-25T13:34:57.993Z</time></trkpt><trkpt lat="46.0288683" lon="12.5485217"><ele>78.0</ele><time>2026-04-25T13:34:58.994Z</time></trkpt><trkpt lat="46.0288433" lon="12.54842"><ele>78.0</ele><time>2026-04-25T13:34:59.994Z</time></trkpt><trkpt lat="46.028815" lon="12.5483183"><ele>78.0</ele><time>2026-04-25T13:35:00.993Z</time></trkpt><trkpt lat="46.0287883" lon="12.5482233"><ele>78.0</ele><time>2026-04-25T13:35:01.994Z</time></trkpt><trkpt lat="46.0287617" lon="12.5481317"><ele>78.0</ele><time>2026-04-25T13:35:02.995Z</time></trkpt><trkpt lat="46.02873" lon="12.5480417"><ele>78.0</ele><time>2026-04-25T13:35:03.994Z</time></trkpt><trkpt lat="46.0287017" lon="12.54795"><ele>78.0</ele><time>2026-04-25T13:35:04.995Z</time></trkpt><trkpt lat="46.0286733" lon="12.54785"><ele>78.0</ele><time>2026-04-25T13:35:05.994Z</time></trkpt><trkpt lat="46.0286483" lon="12.54776"><ele>78.0</ele><time>2026-04-25T13:35:06.993Z</time></trkpt><trkpt lat="46.0286267" lon="12.5476683"><ele>78.0</ele><time>2026-04-25T13:35:07.996Z</time></trkpt><trkpt lat="46.0285983" lon="12.54757"><ele>78.0</ele><time>2026-04-25T13:35:08.993Z</time></trkpt><trkpt lat="46.0285583" lon="12.54747"><ele>78.0</ele><time>2026-04-25T13:35:09.993Z</time></trkpt><trkpt lat="46.0285183" lon="12.5473683"><ele>78.0</ele><time>2026-04-25T13:35:10.994Z</time></trkpt><trkpt lat="46.0284717" lon="12.547255"><ele>78.0</ele><time>2026-04-25T13:35:11.994Z</time></trkpt><trkpt lat="46.02842" lon="12.5471367"><ele>78.0</ele><time>2026-04-25T13:35:12.993Z</time></trkpt><trkpt lat="46.0283683" lon="12.547025"><ele>78.0</ele><time>2026-04-25T13:35:13.994Z</time></trkpt><trkpt lat="46.0283167" lon="12.546915"><ele>78.0</ele><time>2026-04-25T13:35:14.995Z</time></trkpt><trkpt lat="46.0282633" lon="12.546805"><ele>78.0</ele><time>2026-04-25T13:35:15.993Z</time></trkpt><trkpt lat="46.0282083" lon="12.5467033"><ele>77.66666666666667</ele><time>2026-04-25T13:35:16.993Z</time></trkpt><trkpt lat="46.0281517" lon="12.5466067"><ele>77.33333333333333</ele><time>2026-04-25T13:35:17.995Z</time></trkpt><trkpt lat="46.0280983" lon="12.5465133"><ele>77.0</ele><time>2026-04-25T13:35:18.994Z</time></trkpt><trkpt lat="46.0280483" lon="12.5464233"><ele>76.66666666666666</ele><time>2026-04-25T13:35:19.996Z</time></trkpt><trkpt lat="46.0280067" lon="12.546335"><ele>76.33333333333333</ele><time>2026-04-25T13:35:20.993Z</time></trkpt><trkpt lat="46.0279617" lon="12.5462483"><ele>76.0</ele><time>2026-04-25T13:35:21.994Z</time></trkpt><trkpt lat="46.0279183" lon="12.546155"><ele>76.0</ele><time>2026-04-25T13:35:22.996Z</time></trkpt><trkpt lat="46.0278717" lon="12.54606"><ele>76.0</ele><time>2026-04-25T13:35:23.994Z</time></trkpt><trkpt lat="46.0278233" lon="12.5459567"><ele>76.0</ele><time>2026-04-25T13:35:24.993Z</time></trkpt><trkpt lat="46.0277717" lon="12.5458483"><ele>76.0</ele><time>2026-04-25T13:35:25.994Z</time></trkpt><trkpt lat="46.0277283" lon="12.54575"><ele>76.0</ele><time>2026-04-25T13:35:26.994Z</time></trkpt><trkpt lat="46.0276783" lon="12.5456217"><ele>76.0</ele><time>2026-04-25T13:35:28.994Z</time></trkpt><trkpt lat="46.02762" lon="12.5454833"><ele>76.0</ele><time>2026-04-25T13:36:15.993Z</time></trkpt><trkpt lat="46.0275567" lon="12.5453417"><ele>76.0</ele><time>2026-04-25T13:36:17.994Z</time></trkpt><trkpt lat="46.02749" lon="12.5452617"><ele>76.0</ele><time>2026-04-25T13:36:19.994Z</time></trkpt><trkpt lat="46.0274417" lon="12.5451783"><ele>76.0</ele><time>2026-04-25T13:36:22.994Z</time></trkpt><trkpt lat="46.02743" lon="12.5450583"><ele>76.0</ele><time>2026-04-25T13:36:25.993Z</time></trkpt><trkpt lat="46.0274333" lon="12.5448883"><ele>75.66666666666666</ele><time>2026-04-25T13:36:27.993Z</time></trkpt><trkpt lat="46.027425" lon="12.5447883"><ele>75.33333333333333</ele><time>2026-04-25T13:36:28.994Z</time></trkpt><trkpt lat="46.027405" lon="12.5446667"><ele>75.0</ele><time>2026-04-25T13:36:29.993Z</time></trkpt><trkpt lat="46.0273817" lon="12.5445517"><ele>74.66666666666667</ele><time>2026-04-25T13:36:30.993Z</time></trkpt><trkpt lat="46.0273667" lon="12.5444583"><ele>74.33333333333334</ele><time>2026-04-25T13:36:31.993Z</time></trkpt><trkpt lat="46.027335" lon="12.54435"><ele>74.0</ele><time>2026-04-25T13:36:33.993Z</time></trkpt><trkpt lat="46.0272667" lon="12.5442467"><ele>74.0</ele><time>2026-04-25T13:36:35.996Z</time></trkpt><trkpt lat="46.02718" lon="12.54414"><ele>74.0</ele><time>2026-04-25T13:36:37.994Z</time></trkpt><trkpt lat="46.0270917" lon="12.5440333"><ele>74.0</ele><time>2026-04-25T13:36:39.995Z</time></trkpt><trkpt lat="46.02702" lon="12.543915"><ele>74.0</ele><time>2026-04-25T13:36:41.994Z</time></trkpt><trkpt lat="46.0269517" lon="12.543795"><ele>74.0</ele><time>2026-04-25T13:36:43.994Z</time></trkpt><trkpt lat="46.0269233" lon="12.543665"><ele>74.2</ele><time>2026-04-25T13:36:45.995Z</time></trkpt><trkpt lat="46.0269" lon="12.5434933"><ele>74.4</ele><time>2026-04-25T13:36:47.995Z</time></trkpt><trkpt lat="46.026885" lon="12.5433867"><ele>74.6</ele><time>2026-04-25T13:36:48.993Z</time></trkpt><trkpt lat="46.0268717" lon="12.543285"><ele>74.8</ele><time>2026-04-25T13:36:49.994Z</time></trkpt><trkpt lat="46.0268433" lon="12.5431317"><ele>75.0</ele><time>2026-04-25T13:36:51.993Z</time></trkpt><trkpt lat="46.0268267" lon="12.5430133"><ele>75.0</ele><time>2026-04-25T13:36:53.994Z</time></trkpt><trkpt lat="46.0268883" lon="12.542925"><ele>75.0</ele><time>2026-04-25T13:36:56.996Z</time></trkpt><trkpt lat="46.0268883" lon="12.54279"><ele>75.0</ele><time>2026-04-25T13:36:59.994Z</time></trkpt><trkpt lat="46.02687" lon="12.5426917"><ele>75.0</ele><time>2026-04-25T13:37:01.994Z</time></trkpt><trkpt lat="46.026925" lon="12.5425983"><ele>75.0</ele><time>2026-04-25T13:37:03.993Z</time></trkpt><trkpt lat="46.0270217" lon="12.54251"><ele>75.0</ele><time>2026-04-25T13:37:05.993Z</time></trkpt><trkpt lat="46.027055" lon="12.54236"><ele>75.0</ele><time>2026-04-25T13:37:07.995Z</time></trkpt><trkpt lat="46.0270333" lon="12.5422417"><ele>75.0</ele><time>2026-04-25T13:37:08.994Z</time></trkpt><trkpt lat="46.0269983" lon="12.54211"><ele>75.0</ele><time>2026-04-25T13:37:09.994Z</time></trkpt><trkpt lat="46.0269517" lon="12.541985"><ele>75.0</ele><time>2026-04-25T13:37:10.994Z</time></trkpt><trkpt lat="46.0269117" lon="12.54189"><ele>74.66666666666667</ele><time>2026-04-25T13:37:11.994Z</time></trkpt><trkpt lat="46.026875" lon="12.541815"><ele>74.33333333333333</ele><time>2026-04-25T13:37:12.998Z</time></trkpt><trkpt lat="46.026825" lon="12.541745"><ele>74.0</ele><time>2026-04-25T13:37:13.995Z</time></trkpt><trkpt lat="46.0267533" lon="12.5416767"><ele>73.66666666666666</ele><time>2026-04-25T13:37:14.994Z</time></trkpt><trkpt lat="46.026675" lon="12.5416183"><ele>73.33333333333333</ele><time>2026-04-25T13:37:15.993Z</time></trkpt><trkpt lat="46.0265967" lon="12.5415667"><ele>73.0</ele><time>2026-04-25T13:37:16.994Z</time></trkpt><trkpt lat="46.026525" lon="12.5415217"><ele>73.0</ele><time>2026-04-25T13:37:17.994Z</time></trkpt><trkpt lat="46.0264233" lon="12.5414517"><ele>73.0</ele><time>2026-04-25T13:37:19.994Z</time></trkpt><trkpt lat="46.0263817" lon="12.5413467"><ele>73.0</ele><time>2026-04-25T13:37:21.994Z</time></trkpt><trkpt lat="46.0263833" lon="12.5412317"><ele>73.0</ele><time>2026-04-25T13:37:29.994Z</time></trkpt><trkpt lat="46.02649" lon="12.5411933"><ele>73.0</ele><time>2026-04-25T13:37:31.994Z</time></trkpt><trkpt lat="46.0265617" lon="12.5411617"><ele>73.0</ele><time>2026-04-25T13:37:32.997Z</time></trkpt><trkpt lat="46.026625" lon="12.541145"><ele>73.0</ele><time>2026-04-25T13:37:33.995Z</time></trkpt><trkpt lat="46.02669" lon="12.5411317"><ele>73.0</ele><time>2026-04-25T13:37:35.995Z</time></trkpt><trkpt lat="46.0267717" lon="12.5410867"><ele>73.0</ele><time>2026-04-25T13:37:46.994Z</time></trkpt><trkpt lat="46.02684" lon="12.5410833"><ele>73.0</ele><time>2026-04-25T13:37:48.994Z</time></trkpt><trkpt lat="46.0269233" lon="12.5410683"><ele>73.0</ele><time>2026-04-25T13:37:52.995Z</time></trkpt><trkpt lat="46.027" lon="12.5410483"><ele>73.0</ele><time>2026-04-25T13:37:55.994Z</time></trkpt><trkpt lat="46.0270783" lon="12.54103"><ele>72.6</ele><time>2026-04-25T13:37:57.995Z</time></trkpt><trkpt lat="46.0271883" lon="12.5409617"><ele>72.19999999999999</ele><time>2026-04-25T13:37:59.996Z</time></trkpt><trkpt lat="46.0272433" lon="12.5409167"><ele>71.8</ele><time>2026-04-25T13:38:00.994Z</time></trkpt><trkpt lat="46.027345" lon="12.5408383"><ele>71.39999999999999</ele><time>2026-04-25T13:38:02.997Z</time></trkpt><trkpt lat="46.02743" lon="12.5407783"><ele>71.0</ele><time>2026-04-25T13:38:04.995Z</time></trkpt><trkpt lat="46.027365" lon="12.5407933"><ele>71.0</ele><time>2026-04-25T13:38:09.994Z</time></trkpt><trkpt lat="46.0273083" lon="12.5408533"><ele>71.0</ele><time>2026-04-25T13:38:10.996Z</time></trkpt><trkpt lat="46.0272517" lon="12.5409083"><ele>71.0</ele><time>2026-04-25T13:38:11.996Z</time></trkpt><trkpt lat="46.0271433" lon="12.5409833"><ele>71.0</ele><time>2026-04-25T13:38:13.994Z</time></trkpt><trkpt lat="46.0270767" lon="12.5410217"><ele>71.0</ele><time>2026-04-25T13:38:15.995Z</time></trkpt><trkpt lat="46.027005" lon="12.541035"><ele>71.0</ele><time>2026-04-25T13:38:18.994Z</time></trkpt><trkpt lat="46.0269267" lon="12.541045"><ele>71.0</ele><time>2026-04-25T13:38:20.995Z</time></trkpt><trkpt lat="46.026825" lon="12.541065"><ele>71.0</ele><time>2026-04-25T13:38:22.994Z</time></trkpt><trkpt lat="46.0267483" lon="12.5410733"><ele>71.0</ele><time>2026-04-25T13:38:23.993Z</time></trkpt><trkpt lat="46.0266617" lon="12.5410917"><ele>71.0</ele><time>2026-04-25T13:38:24.994Z</time></trkpt><trkpt lat="46.0265783" lon="12.5411233"><ele>71.0</ele><time>2026-04-25T13:38:25.993Z</time></trkpt><trkpt lat="46.0265" lon="12.54117"><ele>71.0</ele><time>2026-04-25T13:38:26.994Z</time></trkpt><trkpt lat="46.0264333" lon="12.5412083"><ele>71.33333333333334</ele><time>2026-04-25T13:38:27.996Z</time></trkpt><trkpt lat="46.0263467" lon="12.5412067"><ele>71.66666666666667</ele><time>2026-04-25T13:38:29.995Z</time></trkpt><trkpt lat="46.0262683" lon="12.5411267"><ele>72.0</ele><time>2026-04-25T13:38:32Z</time></trkpt><trkpt lat="46.0262167" lon="12.5410633"><ele>72.33333333333333</ele><time>2026-04-25T13:38:32.994Z</time></trkpt><trkpt lat="46.0261667" lon="12.540975"><ele>72.66666666666666</ele><time>2026-04-25T13:38:33.996Z</time></trkpt><trkpt lat="46.02611" lon="12.5408867"><ele>73.0</ele><time>2026-04-25T13:38:34.994Z</time></trkpt><trkpt lat="46.026045" lon="12.540795"><ele>73.0</ele><time>2026-04-25T13:38:35.993Z</time></trkpt><trkpt lat="46.0259767" lon="12.5406933"><ele>73.0</ele><time>2026-04-25T13:38:36.994Z</time></trkpt><trkpt lat="46.025905" lon="12.5405833"><ele>73.0</ele><time>2026-04-25T13:38:37.994Z</time></trkpt><trkpt lat="46.0258283" lon="12.540465"><ele>73.0</ele><time>2026-04-25T13:38:38.995Z</time></trkpt><trkpt lat="46.0257517" lon="12.5403417"><ele>73.0</ele><time>2026-04-25T13:38:39.995Z</time></trkpt><trkpt lat="46.02567" lon="12.5402167"><ele>72.25</ele><time>2026-04-25T13:38:40.993Z</time></trkpt><trkpt lat="46.0255917" lon="12.5400867"><ele>71.5</ele><time>2026-04-25T13:38:41.997Z</time></trkpt><trkpt lat="46.0255083" lon="12.5399533"><ele>70.75</ele><time>2026-04-25T13:38:42.994Z</time></trkpt><trkpt lat="46.025425" lon="12.5398183"><ele>70.0</ele><time>2026-04-25T13:38:43.993Z</time></trkpt><trkpt lat="46.02534" lon="12.5396833"><ele>70.0</ele><time>2026-04-25T13:38:44.994Z</time></trkpt><trkpt lat="46.0252533" lon="12.53955"><ele>70.0</ele><time>2026-04-25T13:38:45.994Z</time></trkpt><trkpt lat="46.0251667" lon="12.539415"><ele>70.0</ele><time>2026-04-25T13:38:46.994Z</time></trkpt><trkpt lat="46.025075" lon="12.5392783"><ele>70.0</ele><time>2026-04-25T13:38:47.998Z</time></trkpt><trkpt lat="46.0249867" lon="12.53914"><ele>69.75</ele><time>2026-04-25T13:38:48.994Z</time></trkpt><trkpt lat="46.0249" lon="12.539"><ele>69.5</ele><time>2026-04-25T13:38:49.993Z</time></trkpt><trkpt lat="46.0248133" lon="12.5388617"><ele>69.25</ele><time>2026-04-25T13:38:50.994Z</time></trkpt><trkpt lat="46.0247267" lon="12.53872"><ele>69.0</ele><time>2026-04-25T13:38:51.997Z</time></trkpt><trkpt lat="46.0246433" lon="12.5385817"><ele>69.0</ele><time>2026-04-25T13:38:52.995Z</time></trkpt><trkpt lat="46.0245633" lon="12.5384567"><ele>69.0</ele><time>2026-04-25T13:38:53.993Z</time></trkpt><trkpt lat="46.0244917" lon="12.5383433"><ele>69.0</ele><time>2026-04-25T13:38:54.994Z</time></trkpt><trkpt lat="46.0244367" lon="12.5382433"><ele>69.0</ele><time>2026-04-25T13:38:55.994Z</time></trkpt><trkpt lat="46.024395" lon="12.538155"><ele>69.0</ele><time>2026-04-25T13:38:56.996Z</time></trkpt><trkpt lat="46.024365" lon="12.5380117"><ele>69.0</ele><time>2026-04-25T13:38:58.993Z</time></trkpt><trkpt lat="46.0244067" lon="12.5379017"><ele>69.0</ele><time>2026-04-25T13:39:00.994Z</time></trkpt><trkpt lat="46.024515" lon="12.5377867"><ele>69.0</ele><time>2026-04-25T13:39:02.994Z</time></trkpt><trkpt lat="46.024585" lon="12.5377267"><ele>69.0</ele><time>2026-04-25T13:39:03.994Z</time></trkpt><trkpt lat="46.0246583" lon="12.537665"><ele>69.0</ele><time>2026-04-25T13:39:04.994Z</time></trkpt><trkpt lat="46.0247217" lon="12.53761"><ele>69.0</ele><time>2026-04-25T13:39:05.995Z</time></trkpt><trkpt lat="46.0247817" lon="12.5375533"><ele>69.0</ele><time>2026-04-25T13:39:06.996Z</time></trkpt><trkpt lat="46.02484" lon="12.5374917"><ele>69.0</ele><time>2026-04-25T13:39:07.995Z</time></trkpt><trkpt lat="46.0248941" lon="12.5374391"><ele>69.0</ele><time>2026-04-25T13:39:08.993Z</time></trkpt><trkpt lat="46.0249744" lon="12.5373588"><ele>69.0</ele><time>2026-04-25T13:39:10.993Z</time></trkpt><trkpt lat="46.0250398" lon="12.5373024"><ele>69.0</ele><time>2026-04-25T13:39:13.993Z</time></trkpt><trkpt lat="46.025105" lon="12.5372362"><ele>69.0</ele><time>2026-04-25T13:39:19.05Z</time></trkpt><trkpt lat="46.0251801" lon="12.5371597"><ele>69.0</ele><time>2026-04-25T13:39:20.993Z</time></trkpt><trkpt lat="46.0252638" lon="12.5370756"><ele>69.0</ele><time>2026-04-25T13:39:22.993Z</time></trkpt><trkpt lat="46.0253508" lon="12.5370008"><ele>69.0</ele><time>2026-04-25T13:39:24.993Z</time></trkpt><trkpt lat="46.0252528" lon="12.5369744"><ele>69.0</ele><time>2026-04-25T13:39:37.995Z</time></trkpt><trkpt lat="46.0251952" lon="12.5369292"><ele>68.8</ele><time>2026-04-25T13:39:38.994Z</time></trkpt><trkpt lat="46.025133" lon="12.5368629"><ele>68.60000000000001</ele><time>2026-04-25T13:39:39.993Z</time></trkpt><trkpt lat="46.0250707" lon="12.5367691"><ele>68.4</ele><time>2026-04-25T13:39:40.993Z</time></trkpt><trkpt lat="46.0250039" lon="12.5366444"><ele>68.2</ele><time>2026-04-25T13:39:41.994Z</time></trkpt><trkpt lat="46.0249314" lon="12.5365033"><ele>68.0</ele><time>2026-04-25T13:39:42.994Z</time></trkpt><trkpt lat="46.0248542" lon="12.5363587"><ele>67.75</ele><time>2026-04-25T13:39:43.993Z</time></trkpt><trkpt lat="46.0247778" lon="12.5362154"><ele>67.5</ele><time>2026-04-25T13:39:44.994Z</time></trkpt><trkpt lat="46.0246995" lon="12.5360721"><ele>67.25</ele><time>2026-04-25T13:39:45.994Z</time></trkpt><trkpt lat="46.0246232" lon="12.5359252"><ele>67.0</ele><time>2026-04-25T13:39:46.993Z</time></trkpt><trkpt lat="46.0245466" lon="12.5357761"><ele>67.0</ele><time>2026-04-25T13:39:47.994Z</time></trkpt><trkpt lat="46.0244714" lon="12.5356271"><ele>67.0</ele><time>2026-04-25T13:39:48.992Z</time></trkpt><trkpt lat="46.024397" lon="12.5354843"><ele>67.0</ele><time>2026-04-25T13:39:49.992Z</time></trkpt><trkpt lat="46.0243309" lon="12.5353614"><ele>67.0</ele><time>2026-04-25T13:39:50.993Z</time></trkpt><trkpt lat="46.0242734" lon="12.535257"><ele>66.83333333333333</ele><time>2026-04-25T13:39:51.994Z</time></trkpt><trkpt lat="46.0242257" lon="12.5351652"><ele>66.66666666666666</ele><time>2026-04-25T13:39:52.993Z</time></trkpt><trkpt lat="46.0241664" lon="12.5350431"><ele>66.5</ele><time>2026-04-25T13:39:54.993Z</time></trkpt><trkpt lat="46.02411" lon="12.5349617"><ele>66.33333333333333</ele><time>2026-04-25T13:39:57.992Z</time></trkpt><trkpt lat="46.02406" lon="12.5348817"><ele>66.16666666666667</ele><time>2026-04-25T13:39:59.993Z</time></trkpt><trkpt lat="46.023995" lon="12.5347567"><ele>66.0</ele><time>2026-04-25T13:40:01.994Z</time></trkpt><trkpt lat="46.0239333" lon="12.534635"><ele>66.0</ele><time>2026-04-25T13:40:03.993Z</time></trkpt><trkpt lat="46.0238933" lon="12.5345583"><ele>66.0</ele><time>2026-04-25T13:40:04.993Z</time></trkpt><trkpt lat="46.0238533" lon="12.5344867"><ele>66.0</ele><time>2026-04-25T13:40:05.993Z</time></trkpt><trkpt lat="46.02378" lon="12.5343367"><ele>66.0</ele><time>2026-04-25T13:40:07.993Z</time></trkpt><trkpt lat="46.02374" lon="12.5342567"><ele>66.0</ele><time>2026-04-25T13:40:08.994Z</time></trkpt><trkpt lat="46.0237" lon="12.53418"><ele>66.0</ele><time>2026-04-25T13:40:09.992Z</time></trkpt><trkpt lat="46.0236617" lon="12.5340983"><ele>65.71428571428571</ele><time>2026-04-25T13:40:10.992Z</time></trkpt><trkpt lat="46.02362" lon="12.5340133"><ele>65.42857142857143</ele><time>2026-04-25T13:40:11.993Z</time></trkpt><trkpt lat="46.0235833" lon="12.533935"><ele>65.14285714285714</ele><time>2026-04-25T13:40:12.997Z</time></trkpt><trkpt lat="46.0235433" lon="12.5338617"><ele>64.85714285714286</ele><time>2026-04-25T13:40:13.994Z</time></trkpt><trkpt lat="46.0235" lon="12.5337833"><ele>64.57142857142857</ele><time>2026-04-25T13:40:14.994Z</time></trkpt><trkpt lat="46.0234467" lon="12.5336917"><ele>64.28571428571428</ele><time>2026-04-25T13:40:15.994Z</time></trkpt><trkpt lat="46.023395" lon="12.5335983"><ele>64.0</ele><time>2026-04-25T13:40:16.993Z</time></trkpt><trkpt lat="46.0233483" lon="12.533515"><ele>63.99999999999999</ele><time>2026-04-25T13:40:17.994Z</time></trkpt><trkpt lat="46.0233017" lon="12.533435"><ele>64.0</ele><time>2026-04-25T13:40:18.993Z</time></trkpt><trkpt lat="46.023265" lon="12.533355"><ele>64.0</ele><time>2026-04-25T13:40:19.994Z</time></trkpt><trkpt lat="46.023225" lon="12.5332767"><ele>64.0</ele><time>2026-04-25T13:40:20.994Z</time></trkpt><trkpt lat="46.0231733" lon="12.5331933"><ele>63.99999999999999</ele><time>2026-04-25T13:40:21.995Z</time></trkpt><trkpt lat="46.0231167" lon="12.5331017"><ele>64.0</ele><time>2026-04-25T13:40:22.993Z</time></trkpt><trkpt lat="46.0230617" lon="12.5330117"><ele>63.99999999999999</ele><time>2026-04-25T13:40:23.992Z</time></trkpt><trkpt lat="46.02301" lon="12.5329167"><ele>64.0</ele><time>2026-04-25T13:40:24.994Z</time></trkpt><trkpt lat="46.0229583" lon="12.5328283"><ele>64.0</ele><time>2026-04-25T13:40:25.996Z</time></trkpt><trkpt lat="46.02291" lon="12.5327483"><ele>64.0</ele><time>2026-04-25T13:40:26.995Z</time></trkpt><trkpt lat="46.02286" lon="12.5326717"><ele>63.99999999999999</ele><time>2026-04-25T13:40:27.994Z</time></trkpt><trkpt lat="46.02279" lon="12.532525"><ele>64.0</ele><time>2026-04-25T13:40:29.993Z</time></trkpt><trkpt lat="46.022745" lon="12.532445"><ele>63.83333333333333</ele><time>2026-04-25T13:40:30.992Z</time></trkpt><trkpt lat="46.0226917" lon="12.5323667"><ele>63.666666666666664</ele><time>2026-04-25T13:40:31.994Z</time></trkpt><trkpt lat="46.0226417" lon="12.5323"><ele>63.5</ele><time>2026-04-25T13:40:32.994Z</time></trkpt><trkpt lat="46.0225633" lon="12.5321733"><ele>63.33333333333333</ele><time>2026-04-25T13:40:34.993Z</time></trkpt><trkpt lat="46.022515" lon="12.5321133"><ele>63.166666666666664</ele><time>2026-04-25T13:40:35.994Z</time></trkpt><trkpt lat="46.0224383" lon="12.5319983"><ele>63.0</ele><time>2026-04-25T13:40:37.994Z</time></trkpt><trkpt lat="46.0223833" lon="12.5319167"><ele>62.333333333333336</ele><time>2026-04-25T13:40:39.992Z</time></trkpt><trkpt lat="46.0223335" lon="12.5318481"><ele>61.66666666666667</ele><time>2026-04-25T13:40:41.993Z</time></trkpt><trkpt lat="46.0222792" lon="12.5317635"><ele>61.0</ele><time>2026-04-25T13:40:43.994Z</time></trkpt><trkpt lat="46.0222089" lon="12.5316302"><ele>60.333333333333336</ele><time>2026-04-25T13:40:45.993Z</time></trkpt><trkpt lat="46.0221674" lon="12.5315545"><ele>59.66666666666667</ele><time>2026-04-25T13:40:46.993Z</time></trkpt><trkpt lat="46.0221283" lon="12.5314757"><ele>59.0</ele><time>2026-04-25T13:40:47.992Z</time></trkpt><trkpt lat="46.0220951" lon="12.531322"><ele>59.00000000000001</ele><time>2026-04-25T13:40:49.996Z</time></trkpt><trkpt lat="46.0220743" lon="12.5312328"><ele>59.0</ele><time>2026-04-25T13:40:51.995Z</time></trkpt><trkpt lat="46.0219846" lon="12.5312061"><ele>59.0</ele><time>2026-04-25T13:40:54.994Z</time></trkpt><trkpt lat="46.0219214" lon="12.5312655"><ele>59.0</ele><time>2026-04-25T13:40:56.994Z</time></trkpt><trkpt lat="46.021857" lon="12.5313474"><ele>59.00000000000001</ele><time>2026-04-25T13:40:59.994Z</time></trkpt><trkpt lat="46.021787" lon="12.5314127"><ele>59.0</ele><time>2026-04-25T13:41:03.993Z</time></trkpt><trkpt lat="46.0217069" lon="12.5314887"><ele>59.333333333333336</ele><time>2026-04-25T13:41:06.993Z</time></trkpt><trkpt lat="46.0216431" lon="12.5315516"><ele>59.66666666666667</ele><time>2026-04-25T13:41:09.012Z</time></trkpt><trkpt lat="46.0215666" lon="12.5315508"><ele>60.0</ele><time>2026-04-25T13:41:12.068Z</time></trkpt><trkpt lat="46.0215034" lon="12.5314178"><ele>60.33333333333333</ele><time>2026-04-25T13:41:13.994Z</time></trkpt><trkpt lat="46.02146" lon="12.5313126"><ele>60.666666666666664</ele><time>2026-04-25T13:41:14.994Z</time></trkpt><trkpt lat="46.0214133" lon="12.5312081"><ele>61.0</ele><time>2026-04-25T13:41:15.996Z</time></trkpt><trkpt lat="46.0213714" lon="12.531109"><ele>61.0</ele><time>2026-04-25T13:41:16.994Z</time></trkpt><trkpt lat="46.0213328" lon="12.5310056"><ele>60.99999999999999</ele><time>2026-04-25T13:41:17.993Z</time></trkpt><trkpt lat="46.0212896" lon="12.5308872"><ele>60.99999999999999</ele><time>2026-04-25T13:41:18.993Z</time></trkpt><trkpt lat="46.021238" lon="12.5307635"><ele>61.0</ele><time>2026-04-25T13:41:19.994Z</time></trkpt><trkpt lat="46.0211704" lon="12.5306325"><ele>61.0</ele><time>2026-04-25T13:41:20.993Z</time></trkpt><trkpt lat="46.0210891" lon="12.5305032"><ele>60.8</ele><time>2026-04-25T13:41:21.993Z</time></trkpt><trkpt lat="46.021003" lon="12.5303877"><ele>60.599999999999994</ele><time>2026-04-25T13:41:22.994Z</time></trkpt><trkpt lat="46.0209252" lon="12.5302866"><ele>60.4</ele><time>2026-04-25T13:41:23.994Z</time></trkpt><trkpt lat="46.0208602" lon="12.530191"><ele>60.2</ele><time>2026-04-25T13:41:24.992Z</time></trkpt><trkpt lat="46.0208038" lon="12.530101"><ele>60.0</ele><time>2026-04-25T13:41:25.994Z</time></trkpt><trkpt lat="46.0207511" lon="12.5300205"><ele>60.0</ele><time>2026-04-25T13:41:26.994Z</time></trkpt><trkpt lat="46.0207042" lon="12.5299427"><ele>60.0</ele><time>2026-04-25T13:41:27.993Z</time></trkpt><trkpt lat="46.0206677" lon="12.5298574"><ele>60.0</ele><time>2026-04-25T13:41:28.993Z</time></trkpt><trkpt lat="46.0206475" lon="12.529756"><ele>60.0</ele><time>2026-04-25T13:41:29.993Z</time></trkpt><trkpt lat="46.0206554" lon="12.5296344"><ele>60.0</ele><time>2026-04-25T13:41:30.994Z</time></trkpt><trkpt lat="46.0206736" lon="12.5295164"><ele>60.0</ele><time>2026-04-25T13:41:31.994Z</time></trkpt><trkpt lat="46.0206893" lon="12.5294161"><ele>59.833333333333336</ele><time>2026-04-25T13:41:32.993Z</time></trkpt><trkpt lat="46.0206856" lon="12.5292572"><ele>59.66666666666667</ele><time>2026-04-25T13:41:34.993Z</time></trkpt><trkpt lat="46.0206489" lon="12.5291807"><ele>59.5</ele><time>2026-04-25T13:41:35.993Z</time></trkpt><trkpt lat="46.0205966" lon="12.529106"><ele>59.333333333333336</ele><time>2026-04-25T13:41:36.995Z</time></trkpt><trkpt lat="46.020549" lon="12.5290382"><ele>59.16666666666667</ele><time>2026-04-25T13:41:37.993Z</time></trkpt><trkpt lat="46.0204975" lon="12.5289445"><ele>59.0</ele><time>2026-04-25T13:41:39.993Z</time></trkpt><trkpt lat="46.0204179" lon="12.5288238"><ele>58.400000000000006</ele><time>2026-04-25T13:41:46.993Z</time></trkpt><trkpt lat="46.0203582" lon="12.5287106"><ele>57.800000000000004</ele><time>2026-04-25T13:41:47.993Z</time></trkpt><trkpt lat="46.0203026" lon="12.5285918"><ele>57.199999999999996</ele><time>2026-04-25T13:41:48.993Z</time></trkpt><trkpt lat="46.0202516" lon="12.5284836"><ele>56.599999999999994</ele><time>2026-04-25T13:41:49.994Z</time></trkpt><trkpt lat="46.0201897" lon="12.528388"><ele>56.0</ele><time>2026-04-25T13:41:50.995Z</time></trkpt><trkpt lat="46.0201123" lon="12.528305"><ele>56.0</ele><time>2026-04-25T13:41:51.993Z</time></trkpt><trkpt lat="46.020018" lon="12.5282291"><ele>56.0</ele><time>2026-04-25T13:41:52.996Z</time></trkpt><trkpt lat="46.019907" lon="12.528164"><ele>56.0</ele><time>2026-04-25T13:41:53.993Z</time></trkpt><trkpt lat="46.0197836" lon="12.5281018"><ele>56.0</ele><time>2026-04-25T13:41:54.994Z</time></trkpt><trkpt lat="46.0196523" lon="12.5280332"><ele>56.5</ele><time>2026-04-25T13:41:55.994Z</time></trkpt><trkpt lat="46.019522" lon="12.5279667"><ele>57.0</ele><time>2026-04-25T13:41:56.994Z</time></trkpt><trkpt lat="46.0194037" lon="12.5279048"><ele>57.5</ele><time>2026-04-25T13:41:57.995Z</time></trkpt><trkpt lat="46.0192985" lon="12.5278458"><ele>58.0</ele><time>2026-04-25T13:41:58.996Z</time></trkpt><trkpt lat="46.0191997" lon="12.5277806"><ele>57.25</ele><time>2026-04-25T13:41:59.997Z</time></trkpt><trkpt lat="46.019098" lon="12.5277062"><ele>56.5</ele><time>2026-04-25T13:42:00.996Z</time></trkpt><trkpt lat="46.0189925" lon="12.5276184"><ele>55.75</ele><time>2026-04-25T13:42:01.994Z</time></trkpt><trkpt lat="46.0188913" lon="12.5275205"><ele>55.0</ele><time>2026-04-25T13:42:02.995Z</time></trkpt><trkpt lat="46.0187955" lon="12.5274156"><ele>55.0</ele><time>2026-04-25T13:42:03.995Z</time></trkpt><trkpt lat="46.0187048" lon="12.5272955"><ele>55.0</ele><time>2026-04-25T13:42:04.994Z</time></trkpt><trkpt lat="46.0186197" lon="12.5271599"><ele>55.0</ele><time>2026-04-25T13:42:05.994Z</time></trkpt><trkpt lat="46.0185424" lon="12.5270129"><ele>55.0</ele><time>2026-04-25T13:42:06.993Z</time></trkpt><trkpt lat="46.0184718" lon="12.5268535"><ele>55.0</ele><time>2026-04-25T13:42:07.995Z</time></trkpt><trkpt lat="46.0184029" lon="12.5266865"><ele>55.0</ele><time>2026-04-25T13:42:08.993Z</time></trkpt><trkpt lat="46.0183431" lon="12.5265164"><ele>55.0</ele><time>2026-04-25T13:42:09.993Z</time></trkpt><trkpt lat="46.0182931" lon="12.5263502"><ele>55.0</ele><time>2026-04-25T13:42:10.994Z</time></trkpt><trkpt lat="46.0182497" lon="12.5261818"><ele>55.0</ele><time>2026-04-25T13:42:11.994Z</time></trkpt><trkpt lat="46.0182145" lon="12.5260218"><ele>55.0</ele><time>2026-04-25T13:42:12.995Z</time></trkpt><trkpt lat="46.0181861" lon="12.5258881"><ele>55.0</ele><time>2026-04-25T13:42:13.993Z</time></trkpt><trkpt lat="46.0181678" lon="12.5257874"><ele>55.0</ele><time>2026-04-25T13:42:14.996Z</time></trkpt><trkpt lat="46.0181555" lon="12.5256857"><ele>55.0</ele><time>2026-04-25T13:42:16.993Z</time></trkpt><trkpt lat="46.0181134" lon="12.5255569"><ele>55.0</ele><time>2026-04-25T13:42:21.993Z</time></trkpt><trkpt lat="46.0180613" lon="12.5254065"><ele>55.0</ele><time>2026-04-25T13:42:23.994Z</time></trkpt><trkpt lat="46.0180474" lon="12.525317"><ele>55.0</ele><time>2026-04-25T13:42:24.994Z</time></trkpt><trkpt lat="46.0180245" lon="12.5251688"><ele>55.0</ele><time>2026-04-25T13:42:26.994Z</time></trkpt><trkpt lat="46.0180016" lon="12.525055"><ele>55.0</ele><time>2026-04-25T13:42:28.994Z</time></trkpt><trkpt lat="46.017972" lon="12.5248732"><ele>54.6</ele><time>2026-04-25T13:42:30.993Z</time></trkpt><trkpt lat="46.0179563" lon="12.5247302"><ele>54.2</ele><time>2026-04-25T13:42:31.993Z</time></trkpt><trkpt lat="46.0179481" lon="12.5245738"><ele>53.8</ele><time>2026-04-25T13:42:32.996Z</time></trkpt><trkpt lat="46.0179469" lon="12.5244239"><ele>53.4</ele><time>2026-04-25T13:42:33.993Z</time></trkpt><trkpt lat="46.0179525" lon="12.5242957"><ele>53.0</ele><time>2026-04-25T13:42:34.993Z</time></trkpt><trkpt lat="46.0179683" lon="12.52419"><ele>52.833333333333336</ele><time>2026-04-25T13:42:35.994Z</time></trkpt><trkpt lat="46.0179733" lon="12.5240967"><ele>52.66666666666667</ele><time>2026-04-25T13:42:36.993Z</time></trkpt><trkpt lat="46.0179717" lon="12.524"><ele>52.5</ele><time>2026-04-25T13:42:37.994Z</time></trkpt><trkpt lat="46.0179733" lon="12.5238967"><ele>52.33333333333333</ele><time>2026-04-25T13:42:38.993Z</time></trkpt><trkpt lat="46.0179733" lon="12.5237683"><ele>52.166666666666664</ele><time>2026-04-25T13:42:39.993Z</time></trkpt><trkpt lat="46.017977" lon="12.5236239"><ele>52.0</ele><time>2026-04-25T13:42:40.993Z</time></trkpt><trkpt lat="46.0179886" lon="12.52349"><ele>51.8</ele><time>2026-04-25T13:42:41.997Z</time></trkpt><trkpt lat="46.0180019" lon="12.5233595"><ele>51.6</ele><time>2026-04-25T13:42:42.992Z</time></trkpt><trkpt lat="46.0180181" lon="12.5232331"><ele>51.4</ele><time>2026-04-25T13:42:43.993Z</time></trkpt><trkpt lat="46.0180452" lon="12.5230952"><ele>51.199999999999996</ele><time>2026-04-25T13:42:44.995Z</time></trkpt><trkpt lat="46.0180804" lon="12.5229413"><ele>51.0</ele><time>2026-04-25T13:42:45.994Z</time></trkpt><trkpt lat="46.018116" lon="12.5227739"><ele>50.599999999999994</ele><time>2026-04-25T13:42:46.993Z</time></trkpt><trkpt lat="46.0181546" lon="12.5226096"><ele>50.2</ele><time>2026-04-25T13:42:47.995Z</time></trkpt><trkpt lat="46.0181971" lon="12.5224541"><ele>49.8</ele><time>2026-04-25T13:42:48.993Z</time></trkpt><trkpt lat="46.0182388" lon="12.5223222"><ele>49.400000000000006</ele><time>2026-04-25T13:42:49.994Z</time></trkpt><trkpt lat="46.0182724" lon="12.5222147"><ele>49.0</ele><time>2026-04-25T13:42:50.994Z</time></trkpt><trkpt lat="46.0182945" lon="12.5221184"><ele>49.33333333333333</ele><time>2026-04-25T13:42:51.994Z</time></trkpt><trkpt lat="46.0183059" lon="12.5220243"><ele>49.666666666666664</ele><time>2026-04-25T13:42:52.994Z</time></trkpt><trkpt lat="46.0183037" lon="12.5219232"><ele>50.0</ele><time>2026-04-25T13:42:53.995Z</time></trkpt><trkpt lat="46.0182837" lon="12.5218113"><ele>50.33333333333333</ele><time>2026-04-25T13:42:54.993Z</time></trkpt><trkpt lat="46.0182482" lon="12.5216942"><ele>50.666666666666664</ele><time>2026-04-25T13:42:55.993Z</time></trkpt><trkpt lat="46.0182135" lon="12.5215759"><ele>51.0</ele><time>2026-04-25T13:42:56.994Z</time></trkpt><trkpt lat="46.0181899" lon="12.5214507"><ele>51.0</ele><time>2026-04-25T13:42:57.993Z</time></trkpt><trkpt lat="46.018169" lon="12.5213039"><ele>51.0</ele><time>2026-04-25T13:42:58.996Z</time></trkpt><trkpt lat="46.0181499" lon="12.5211556"><ele>51.0</ele><time>2026-04-25T13:42:59.993Z</time></trkpt><trkpt lat="46.0181291" lon="12.5210206"><ele>51.0</ele><time>2026-04-25T13:43:00.994Z</time></trkpt><trkpt lat="46.0181022" lon="12.5208905"><ele>51.0</ele><time>2026-04-25T13:43:01.995Z</time></trkpt><trkpt lat="46.0180834" lon="12.5207626"><ele>51.199999999999996</ele><time>2026-04-25T13:43:02.993Z</time></trkpt><trkpt lat="46.0180714" lon="12.520624"><ele>51.4</ele><time>2026-04-25T13:43:03.993Z</time></trkpt><trkpt lat="46.0180643" lon="12.5204757"><ele>51.6</ele><time>2026-04-25T13:43:04.993Z</time></trkpt><trkpt lat="46.0180566" lon="12.5203359"><ele>51.8</ele><time>2026-04-25T13:43:05.993Z</time></trkpt><trkpt lat="46.0180414" lon="12.5201985"><ele>52.0</ele><time>2026-04-25T13:43:06.994Z</time></trkpt><trkpt lat="46.0180118" lon="12.5200576"><ele>51.400000000000006</ele><time>2026-04-25T13:43:07.993Z</time></trkpt><trkpt lat="46.0179637" lon="12.5199106"><ele>50.800000000000004</ele><time>2026-04-25T13:43:08.993Z</time></trkpt><trkpt lat="46.0179054" lon="12.5197689"><ele>50.2</ele><time>2026-04-25T13:43:09.993Z</time></trkpt><trkpt lat="46.0178467" lon="12.5196373"><ele>49.6</ele><time>2026-04-25T13:43:10.995Z</time></trkpt><trkpt lat="46.0177936" lon="12.5195046"><ele>49.0</ele><time>2026-04-25T13:43:11.993Z</time></trkpt><trkpt lat="46.0177368" lon="12.5193725"><ele>48.75</ele><time>2026-04-25T13:43:12.993Z</time></trkpt><trkpt lat="46.0176736" lon="12.5192456"><ele>48.5</ele><time>2026-04-25T13:43:13.995Z</time></trkpt><trkpt lat="46.0176007" lon="12.519118"><ele>48.25</ele><time>2026-04-25T13:43:14.995Z</time></trkpt><trkpt lat="46.0175195" lon="12.5189838"><ele>48.0</ele><time>2026-04-25T13:43:15.994Z</time></trkpt><trkpt lat="46.0174426" lon="12.5188501"><ele>47.5</ele><time>2026-04-25T13:43:16.993Z</time></trkpt><trkpt lat="46.0173804" lon="12.5187267"><ele>47.0</ele><time>2026-04-25T13:43:17.996Z</time></trkpt><trkpt lat="46.0173279" lon="12.5186263"><ele>46.5</ele><time>2026-04-25T13:43:18.993Z</time></trkpt><trkpt lat="46.0172812" lon="12.5185458"><ele>46.0</ele><time>2026-04-25T13:43:19.994Z</time></trkpt><trkpt lat="46.017229" lon="12.5184689"><ele>45.5</ele><time>2026-04-25T13:43:20.995Z</time></trkpt><trkpt lat="46.0171603" lon="12.5183906"><ele>45.0</ele><time>2026-04-25T13:43:21.994Z</time></trkpt><trkpt lat="46.0170891" lon="12.5183169"><ele>45.0</ele><time>2026-04-25T13:43:22.995Z</time></trkpt><trkpt lat="46.0170235" lon="12.5182488"><ele>45.0</ele><time>2026-04-25T13:43:23.993Z</time></trkpt><trkpt lat="46.0169675" lon="12.518188"><ele>45.0</ele><time>2026-04-25T13:43:24.994Z</time></trkpt><trkpt lat="46.0169064" lon="12.5181195"><ele>45.0</ele><time>2026-04-25T13:43:26.995Z</time></trkpt><trkpt lat="46.016843" lon="12.5180979"><ele>45.0</ele><time>2026-04-25T13:43:37.993Z</time></trkpt><trkpt lat="46.0167151" lon="12.518017"><ele>45.0</ele><time>2026-04-25T13:43:39.994Z</time></trkpt><trkpt lat="46.0166418" lon="12.5179657"><ele>45.5</ele><time>2026-04-25T13:43:40.995Z</time></trkpt><trkpt lat="46.0165726" lon="12.5178965"><ele>46.0</ele><time>2026-04-25T13:43:41.994Z</time></trkpt><trkpt lat="46.0165043" lon="12.5178082"><ele>46.5</ele><time>2026-04-25T13:43:42.994Z</time></trkpt><trkpt lat="46.016437" lon="12.5177167"><ele>47.0</ele><time>2026-04-25T13:43:43.994Z</time></trkpt><trkpt lat="46.0163743" lon="12.5176346"><ele>47.5</ele><time>2026-04-25T13:43:44.993Z</time></trkpt><trkpt lat="46.0163191" lon="12.5175625"><ele>48.0</ele><time>2026-04-25T13:43:45.994Z</time></trkpt><trkpt lat="46.0162681" lon="12.5174952"><ele>48.0</ele><time>2026-04-25T13:43:46.994Z</time></trkpt><trkpt lat="46.0162155" lon="12.5174239"><ele>48.0</ele><time>2026-04-25T13:43:47.998Z</time></trkpt><trkpt lat="46.0161626" lon="12.5173409"><ele>48.0</ele><time>2026-04-25T13:43:48.994Z</time></trkpt><trkpt lat="46.0161013" lon="12.5172482"><ele>48.0</ele><time>2026-04-25T13:43:49.994Z</time></trkpt><trkpt lat="46.016034" lon="12.5171525"><ele>48.0</ele><time>2026-04-25T13:43:50.995Z</time></trkpt><trkpt lat="46.0159655" lon="12.5170599"><ele>48.0</ele><time>2026-04-25T13:43:51.996Z</time></trkpt><trkpt lat="46.0158985" lon="12.5169795"><ele>47.99999999999999</ele><time>2026-04-25T13:43:52.994Z</time></trkpt><trkpt lat="46.0158316" lon="12.5169085"><ele>48.0</ele><time>2026-04-25T13:43:53.993Z</time></trkpt><trkpt lat="46.0157644" lon="12.5168388"><ele>48.0</ele><time>2026-04-25T13:43:54.993Z</time></trkpt><trkpt lat="46.0157018" lon="12.5167707"><ele>48.0</ele><time>2026-04-25T13:43:55.995Z</time></trkpt><trkpt lat="46.0156467" lon="12.516715"><ele>48.0</ele><time>2026-04-25T13:43:56.994Z</time></trkpt><trkpt lat="46.0155917" lon="12.5166583"><ele>47.99999999999999</ele><time>2026-04-25T13:43:57.994Z</time></trkpt><trkpt lat="46.01554" lon="12.516605"><ele>48.0</ele><time>2026-04-25T13:43:58.995Z</time></trkpt><trkpt lat="46.0154817" lon="12.516545"><ele>47.99999999999999</ele><time>2026-04-25T13:43:59.994Z</time></trkpt><trkpt lat="46.0154233" lon="12.5164767"><ele>48.0</ele><time>2026-04-25T13:44:00.994Z</time></trkpt><trkpt lat="46.0153667" lon="12.5164133"><ele>48.0</ele><time>2026-04-25T13:44:01.995Z</time></trkpt><trkpt lat="46.0152917" lon="12.51635"><ele>48.0</ele><time>2026-04-25T13:44:03.995Z</time></trkpt><trkpt lat="46.0152183" lon="12.5163633"><ele>48.0</ele><time>2026-04-25T13:44:06.993Z</time></trkpt><trkpt lat="46.0151683" lon="12.5164267"><ele>47.99999999999999</ele><time>2026-04-25T13:44:09.996Z</time></trkpt><trkpt lat="46.0151167" lon="12.5164867"><ele>48.0</ele><time>2026-04-25T13:44:11.996Z</time></trkpt><trkpt lat="46.0150667" lon="12.5165583"><ele>48.0</ele><time>2026-04-25T13:44:13.993Z</time></trkpt><trkpt lat="46.0150017" lon="12.5166"><ele>48.0</ele><time>2026-04-25T13:44:15.992Z</time></trkpt><trkpt lat="46.01493" lon="12.5166217"><ele>48.0</ele><time>2026-04-25T13:44:17.993Z</time></trkpt><trkpt lat="46.0148567" lon="12.5165717"><ele>48.0</ele><time>2026-04-25T13:44:21.994Z</time></trkpt><trkpt lat="46.0148283" lon="12.5164217"><ele>48.0</ele><time>2026-04-25T13:44:23.994Z</time></trkpt><trkpt lat="46.01481" lon="12.51632"><ele>48.0</ele><time>2026-04-25T13:44:24.993Z</time></trkpt><trkpt lat="46.0147817" lon="12.5162183"><ele>47.833333333333336</ele><time>2026-04-25T13:44:25.993Z</time></trkpt><trkpt lat="46.0147533" lon="12.5161233"><ele>47.666666666666664</ele><time>2026-04-25T13:44:26.994Z</time></trkpt><trkpt lat="46.0147183" lon="12.516015"><ele>47.5</ele><time>2026-04-25T13:44:28.995Z</time></trkpt><trkpt lat="46.01463" lon="12.5160183"><ele>47.33333333333333</ele><time>2026-04-25T13:44:35.994Z</time></trkpt><trkpt lat="46.0145817" lon="12.5160833"><ele>47.166666666666664</ele><time>2026-04-25T13:44:36.993Z</time></trkpt><trkpt lat="46.0145233" lon="12.5161517"><ele>47.0</ele><time>2026-04-25T13:44:37.994Z</time></trkpt><trkpt lat="46.0144583" lon="12.5162183"><ele>47.0</ele><time>2026-04-25T13:44:38.996Z</time></trkpt><trkpt lat="46.014385" lon="12.5162883"><ele>47.0</ele><time>2026-04-25T13:44:39.993Z</time></trkpt><trkpt lat="46.0143033" lon="12.5163617"><ele>47.0</ele><time>2026-04-25T13:44:40.995Z</time></trkpt><trkpt lat="46.014225" lon="12.5164483"><ele>47.0</ele><time>2026-04-25T13:44:41.994Z</time></trkpt><trkpt lat="46.01414" lon="12.5165317"><ele>47.0</ele><time>2026-04-25T13:44:42.994Z</time></trkpt><trkpt lat="46.014045" lon="12.5166167"><ele>46.25</ele><time>2026-04-25T13:44:43.994Z</time></trkpt><trkpt lat="46.0139467" lon="12.516705"><ele>45.5</ele><time>2026-04-25T13:44:44.994Z</time></trkpt><trkpt lat="46.0138483" lon="12.5167983"><ele>44.75</ele><time>2026-04-25T13:44:45.994Z</time></trkpt><trkpt lat="46.0137533" lon="12.5168917"><ele>44.0</ele><time>2026-04-25T13:44:46.994Z</time></trkpt><trkpt lat="46.013655" lon="12.5169783"><ele>44.0</ele><time>2026-04-25T13:44:47.995Z</time></trkpt><trkpt lat="46.0135517" lon="12.5170633"><ele>44.0</ele><time>2026-04-25T13:44:48.993Z</time></trkpt><trkpt lat="46.013445" lon="12.517155"><ele>44.0</ele><time>2026-04-25T13:44:49.994Z</time></trkpt><trkpt lat="46.0133383" lon="12.5172533"><ele>44.0</ele><time>2026-04-25T13:44:50.995Z</time></trkpt><trkpt lat="46.0132317" lon="12.5173583"><ele>44.5</ele><time>2026-04-25T13:44:51.993Z</time></trkpt><trkpt lat="46.01312" lon="12.5174617"><ele>45.0</ele><time>2026-04-25T13:44:52.993Z</time></trkpt><trkpt lat="46.0130067" lon="12.51757"><ele>45.5</ele><time>2026-04-25T13:44:53.995Z</time></trkpt><trkpt lat="46.0128917" lon="12.517675"><ele>46.0</ele><time>2026-04-25T13:44:54.994Z</time></trkpt><trkpt lat="46.01278" lon="12.5177817"><ele>46.0</ele><time>2026-04-25T13:44:55.996Z</time></trkpt><trkpt lat="46.0126633" lon="12.5178883"><ele>46.0</ele><time>2026-04-25T13:44:56.994Z</time></trkpt><trkpt lat="46.01254" lon="12.518005"><ele>46.0</ele><time>2026-04-25T13:44:57.994Z</time></trkpt><trkpt lat="46.01241" lon="12.51813"><ele>46.0</ele><time>2026-04-25T13:44:58.993Z</time></trkpt><trkpt lat="46.0122767" lon="12.51826"><ele>45.333333333333336</ele><time>2026-04-25T13:44:59.995Z</time></trkpt><trkpt lat="46.0121483" lon="12.5183817"><ele>44.666666666666664</ele><time>2026-04-25T13:45:00.997Z</time></trkpt><trkpt lat="46.012025" lon="12.5185033"><ele>44.0</ele><time>2026-04-25T13:45:01.994Z</time></trkpt><trkpt lat="46.0118983" lon="12.5186267"><ele>44.33333333333333</ele><time>2026-04-25T13:45:02.996Z</time></trkpt><trkpt lat="46.0117667" lon="12.5187583"><ele>44.666666666666664</ele><time>2026-04-25T13:45:03.993Z</time></trkpt><trkpt lat="46.0116333" lon="12.5188933"><ele>45.0</ele><time>2026-04-25T13:45:04.992Z</time></trkpt><trkpt lat="46.0114967" lon="12.5190317"><ele>45.0</ele><time>2026-04-25T13:45:05.994Z</time></trkpt><trkpt lat="46.01136" lon="12.51917"><ele>45.0</ele><time>2026-04-25T13:45:06.992Z</time></trkpt><trkpt lat="46.0112233" lon="12.5193167"><ele>45.0</ele><time>2026-04-25T13:45:07.993Z</time></trkpt><trkpt lat="46.0110817" lon="12.519465"><ele>45.0</ele><time>2026-04-25T13:45:08.993Z</time></trkpt><trkpt lat="46.01094" lon="12.5196133"><ele>45.0</ele><time>2026-04-25T13:45:09.993Z</time></trkpt><trkpt lat="46.0107983" lon="12.5197633"><ele>45.0</ele><time>2026-04-25T13:45:10.993Z</time></trkpt><trkpt lat="46.0106583" lon="12.5199133"><ele>45.333333333333336</ele><time>2026-04-25T13:45:11.993Z</time></trkpt><trkpt lat="46.0105183" lon="12.52006"><ele>45.66666666666667</ele><time>2026-04-25T13:45:12.992Z</time></trkpt><trkpt lat="46.010375" lon="12.5202033"><ele>46.0</ele><time>2026-04-25T13:45:13.994Z</time></trkpt><trkpt lat="46.0102317" lon="12.5203483"><ele>45.66666666666667</ele><time>2026-04-25T13:45:14.994Z</time></trkpt><trkpt lat="46.0100917" lon="12.520495"><ele>45.333333333333336</ele><time>2026-04-25T13:45:15.993Z</time></trkpt><trkpt lat="46.0099517" lon="12.52064"><ele>45.0</ele><time>2026-04-25T13:45:16.992Z</time></trkpt><trkpt lat="46.00981" lon="12.520785"><ele>44.666666666666664</ele><time>2026-04-25T13:45:17.993Z</time></trkpt><trkpt lat="46.0096717" lon="12.5209383"><ele>44.33333333333333</ele><time>2026-04-25T13:45:18.992Z</time></trkpt><trkpt lat="46.00953" lon="12.5210867"><ele>44.0</ele><time>2026-04-25T13:45:19.993Z</time></trkpt><trkpt lat="46.0093867" lon="12.521235"><ele>43.666666666666664</ele><time>2026-04-25T13:45:20.993Z</time></trkpt><trkpt lat="46.0092383" lon="12.5213783"><ele>43.333333333333336</ele><time>2026-04-25T13:45:21.994Z</time></trkpt><trkpt lat="46.0090917" lon="12.52151"><ele>43.0</ele><time>2026-04-25T13:45:22.992Z</time></trkpt><trkpt lat="46.0089583" lon="12.5216067"><ele>43.0</ele><time>2026-04-25T13:45:23.994Z</time></trkpt><trkpt lat="46.0088467" lon="12.5216717"><ele>43.0</ele><time>2026-04-25T13:45:24.992Z</time></trkpt><trkpt lat="46.008765" lon="12.5217217"><ele>43.0</ele><time>2026-04-25T13:45:25.993Z</time></trkpt><trkpt lat="46.0087033" lon="12.5217467"><ele>43.0</ele><time>2026-04-25T13:45:26.993Z</time></trkpt><trkpt lat="46.0086767" lon="12.5218383"><ele>43.0</ele><time>2026-04-25T13:45:28.992Z</time></trkpt><trkpt lat="46.00873" lon="12.5219717"><ele>43.0</ele><time>2026-04-25T13:45:30.993Z</time></trkpt><trkpt lat="46.00879" lon="12.5220717"><ele>43.0</ele><time>2026-04-25T13:45:31.993Z</time></trkpt><trkpt lat="46.0088583" lon="12.5221917"><ele>43.0</ele><time>2026-04-25T13:45:32.994Z</time></trkpt><trkpt lat="46.008935" lon="12.5223133"><ele>43.0</ele><time>2026-04-25T13:45:33.993Z</time></trkpt><trkpt lat="46.009005" lon="12.5224367"><ele>43.0</ele><time>2026-04-25T13:45:34.993Z</time></trkpt><trkpt lat="46.0090717" lon="12.5225517"><ele>43.0</ele><time>2026-04-25T13:45:35.993Z</time></trkpt><trkpt lat="46.0091333" lon="12.522655"><ele>43.333333333333336</ele><time>2026-04-25T13:45:36.995Z</time></trkpt><trkpt lat="46.00919" lon="12.5227467"><ele>43.66666666666667</ele><time>2026-04-25T13:45:37.994Z</time></trkpt><trkpt lat="46.009235" lon="12.5228267"><ele>44.0</ele><time>2026-04-25T13:45:38.993Z</time></trkpt><trkpt lat="46.0093083" lon="12.5229617"><ele>44.333333333333336</ele><time>2026-04-25T13:45:40.993Z</time></trkpt><trkpt lat="46.0093533" lon="12.52304"><ele>44.666666666666664</ele><time>2026-04-25T13:45:41.995Z</time></trkpt><trkpt lat="46.0094033" lon="12.5231283"><ele>45.0</ele><time>2026-04-25T13:45:42.992Z</time></trkpt><trkpt lat="46.00945" lon="12.5232167"><ele>45.2</ele><time>2026-04-25T13:45:43.992Z</time></trkpt><trkpt lat="46.0094933" lon="12.523295"><ele>45.4</ele><time>2026-04-25T13:45:44.994Z</time></trkpt><trkpt lat="46.0095583" lon="12.523435"><ele>45.599999999999994</ele><time>2026-04-25T13:45:46.992Z</time></trkpt><trkpt lat="46.0096033" lon="12.5235417"><ele>45.8</ele><time>2026-04-25T13:45:48.992Z</time></trkpt><trkpt lat="46.0096467" lon="12.5236233"><ele>46.0</ele><time>2026-04-25T13:45:51.992Z</time></trkpt><trkpt lat="46.0095967" lon="12.5234733"><ele>46.0</ele><time>2026-04-25T13:45:56.993Z</time></trkpt><trkpt lat="46.0095483" lon="12.52338"><ele>46.0</ele><time>2026-04-25T13:45:57.993Z</time></trkpt><trkpt lat="46.0094933" lon="12.5232717"><ele>46.0</ele><time>2026-04-25T13:45:58.993Z</time></trkpt><trkpt lat="46.0094367" lon="12.5231667"><ele>46.0</ele><time>2026-04-25T13:45:59.992Z</time></trkpt><trkpt lat="46.0093883" lon="12.5230717"><ele>46.0</ele><time>2026-04-25T13:46:00.992Z</time></trkpt><trkpt lat="46.0093383" lon="12.52298"><ele>46.0</ele><time>2026-04-25T13:46:01.994Z</time></trkpt><trkpt lat="46.0092833" lon="12.5228717"><ele>45.8</ele><time>2026-04-25T13:46:02.993Z</time></trkpt><trkpt lat="46.00922" lon="12.522755"><ele>45.599999999999994</ele><time>2026-04-25T13:46:03.993Z</time></trkpt><trkpt lat="46.009145" lon="12.5226333"><ele>45.4</ele><time>2026-04-25T13:46:04.992Z</time></trkpt><trkpt lat="46.0090683" lon="12.5225067"><ele>45.2</ele><time>2026-04-25T13:46:05.997Z</time></trkpt><trkpt lat="46.0089967" lon="12.5223867"><ele>45.0</ele><time>2026-04-25T13:46:06.992Z</time></trkpt><trkpt lat="46.008935" lon="12.522275"><ele>44.666666666666664</ele><time>2026-04-25T13:46:07.993Z</time></trkpt><trkpt lat="46.0088817" lon="12.5221667"><ele>44.333333333333336</ele><time>2026-04-25T13:46:08.993Z</time></trkpt><trkpt lat="46.0088317" lon="12.522065"><ele>44.0</ele><time>2026-04-25T13:46:09.992Z</time></trkpt><trkpt lat="46.008785" lon="12.521975"><ele>43.66666666666667</ele><time>2026-04-25T13:46:10.993Z</time></trkpt><trkpt lat="46.0087217" lon="12.5218533"><ele>43.333333333333336</ele><time>2026-04-25T13:46:12.994Z</time></trkpt><trkpt lat="46.0086467" lon="12.5217917"><ele>43.0</ele><time>2026-04-25T13:46:15.993Z</time></trkpt><trkpt lat="46.0085817" lon="12.5218167"><ele>43.0</ele><time>2026-04-25T13:46:16.993Z</time></trkpt><trkpt lat="46.008505" lon="12.5218667"><ele>43.0</ele><time>2026-04-25T13:46:17.993Z</time></trkpt><trkpt lat="46.0084167" lon="12.5219317"><ele>43.0</ele><time>2026-04-25T13:46:18.993Z</time></trkpt><trkpt lat="46.00832" lon="12.5219983"><ele>43.0</ele><time>2026-04-25T13:46:19.993Z</time></trkpt><trkpt lat="46.0082233" lon="12.52207"><ele>43.0</ele><time>2026-04-25T13:46:20.994Z</time></trkpt><trkpt lat="46.0081233" lon="12.5221467"><ele>43.25</ele><time>2026-04-25T13:46:21.995Z</time></trkpt><trkpt lat="46.008025" lon="12.5222483"><ele>43.5</ele><time>2026-04-25T13:46:22.995Z</time></trkpt><trkpt lat="46.0079233" lon="12.5223683"><ele>43.75</ele><time>2026-04-25T13:46:23.993Z</time></trkpt><trkpt lat="46.007815" lon="12.5224833"><ele>44.0</ele><time>2026-04-25T13:46:24.992Z</time></trkpt><trkpt lat="46.007705" lon="12.5226"><ele>44.0</ele><time>2026-04-25T13:46:25.994Z</time></trkpt><trkpt lat="46.0075933" lon="12.5227183"><ele>44.0</ele><time>2026-04-25T13:46:26.993Z</time></trkpt><trkpt lat="46.0074783" lon="12.52285"><ele>44.0</ele><time>2026-04-25T13:46:27.995Z</time></trkpt><trkpt lat="46.0073633" lon="12.5229783"><ele>44.0</ele><time>2026-04-25T13:46:28.993Z</time></trkpt><trkpt lat="46.0072467" lon="12.523115"><ele>43.666666666666664</ele><time>2026-04-25T13:46:29.993Z</time></trkpt><trkpt lat="46.007125" lon="12.5232517"><ele>43.333333333333336</ele><time>2026-04-25T13:46:30.993Z</time></trkpt><trkpt lat="46.0070017" lon="12.5233967"><ele>43.0</ele><time>2026-04-25T13:46:31.994Z</time></trkpt><trkpt lat="46.0068733" lon="12.5235383"><ele>43.0</ele><time>2026-04-25T13:46:32.995Z</time></trkpt><trkpt lat="46.0067483" lon="12.5236883"><ele>43.0</ele><time>2026-04-25T13:46:33.993Z</time></trkpt><trkpt lat="46.00662" lon="12.52384"><ele>43.0</ele><time>2026-04-25T13:46:34.994Z</time></trkpt><trkpt lat="46.0064933" lon="12.5239983"><ele>44.0</ele><time>2026-04-25T13:46:35.992Z</time></trkpt><trkpt lat="46.006365" lon="12.524155"><ele>45.0</ele><time>2026-04-25T13:46:36.994Z</time></trkpt><trkpt lat="46.0062317" lon="12.5243083"><ele>46.0</ele><time>2026-04-25T13:46:37.994Z</time></trkpt><trkpt lat="46.0060967" lon="12.52446"><ele>46.0</ele><time>2026-04-25T13:46:38.995Z</time></trkpt><trkpt lat="46.005965" lon="12.5246117"><ele>46.0</ele><time>2026-04-25T13:46:39.994Z</time></trkpt><trkpt lat="46.0058317" lon="12.5247683"><ele>46.0</ele><time>2026-04-25T13:46:40.994Z</time></trkpt><trkpt lat="46.0056967" lon="12.5249217"><ele>46.66666666666667</ele><time>2026-04-25T13:46:41.993Z</time></trkpt><trkpt lat="46.0055583" lon="12.525085"><ele>47.333333333333336</ele><time>2026-04-25T13:46:42.993Z</time></trkpt><trkpt lat="46.0054183" lon="12.5252467"><ele>48.0</ele><time>2026-04-25T13:46:43.992Z</time></trkpt><trkpt lat="46.00528" lon="12.525415"><ele>48.0</ele><time>2026-04-25T13:46:44.994Z</time></trkpt><trkpt lat="46.0051467" lon="12.5255817"><ele>48.0</ele><time>2026-04-25T13:46:45.994Z</time></trkpt><trkpt lat="46.0050217" lon="12.52575"><ele>48.0</ele><time>2026-04-25T13:46:46.994Z</time></trkpt><trkpt lat="46.0049167" lon="12.5258983"><ele>48.0</ele><time>2026-04-25T13:46:47.994Z</time></trkpt><trkpt lat="46.00483" lon="12.5260133"><ele>48.0</ele><time>2026-04-25T13:46:48.994Z</time></trkpt><trkpt lat="46.0047583" lon="12.5260867"><ele>48.0</ele><time>2026-04-25T13:46:49.994Z</time></trkpt><trkpt lat="46.0046933" lon="12.526185"><ele>48.0</ele><time>2026-04-25T13:46:51.995Z</time></trkpt><trkpt lat="46.0048" lon="12.5261067"><ele>48.0</ele><time>2026-04-25T13:46:59.993Z</time></trkpt><trkpt lat="46.0048683" lon="12.5260133"><ele>48.0</ele><time>2026-04-25T13:47:00.994Z</time></trkpt><trkpt lat="46.0049317" lon="12.5259267"><ele>48.0</ele><time>2026-04-25T13:47:01.993Z</time></trkpt><trkpt lat="46.004985" lon="12.5258583"><ele>48.0</ele><time>2026-04-25T13:47:02.994Z</time></trkpt><trkpt lat="46.0050817" lon="12.5258067"><ele>48.0</ele><time>2026-04-25T13:47:04.993Z</time></trkpt><trkpt lat="46.0051683" lon="12.5259183"><ele>48.0</ele><time>2026-04-25T13:47:06.994Z</time></trkpt><trkpt lat="46.0052183" lon="12.52603"><ele>48.0</ele><time>2026-04-25T13:47:07.992Z</time></trkpt><trkpt lat="46.0052833" lon="12.526165"><ele>48.0</ele><time>2026-04-25T13:47:08.994Z</time></trkpt><trkpt lat="46.0053483" lon="12.5263133"><ele>48.0</ele><time>2026-04-25T13:47:09.993Z</time></trkpt><trkpt lat="46.0054167" lon="12.5264633"><ele>48.0</ele><time>2026-04-25T13:47:10.993Z</time></trkpt><trkpt lat="46.0054883" lon="12.526615"><ele>47.75</ele><time>2026-04-25T13:47:11.993Z</time></trkpt><trkpt lat="46.0055617" lon="12.5267733"><ele>47.5</ele><time>2026-04-25T13:47:12.996Z</time></trkpt><trkpt lat="46.0056383" lon="12.5269367"><ele>47.25</ele><time>2026-04-25T13:47:13.996Z</time></trkpt><trkpt lat="46.0057183" lon="12.5270983"><ele>47.0</ele><time>2026-04-25T13:47:14.993Z</time></trkpt><trkpt lat="46.0057983" lon="12.5272583"><ele>47.25</ele><time>2026-04-25T13:47:15.992Z</time></trkpt><trkpt lat="46.0058783" lon="12.5274217"><ele>47.5</ele><time>2026-04-25T13:47:16.993Z</time></trkpt><trkpt lat="46.0059583" lon="12.5275867"><ele>47.75</ele><time>2026-04-25T13:47:17.995Z</time></trkpt><trkpt lat="46.00604" lon="12.527755"><ele>48.0</ele><time>2026-04-25T13:47:18.993Z</time></trkpt><trkpt lat="46.0061233" lon="12.5279267"><ele>49.0</ele><time>2026-04-25T13:47:19.994Z</time></trkpt><trkpt lat="46.0062033" lon="12.5281083"><ele>50.0</ele><time>2026-04-25T13:47:20.994Z</time></trkpt><trkpt lat="46.0062867" lon="12.5283"><ele>51.0</ele><time>2026-04-25T13:47:21.994Z</time></trkpt><trkpt lat="46.0063717" lon="12.5284983"><ele>51.0</ele><time>2026-04-25T13:47:22.994Z</time></trkpt><trkpt lat="46.00646" lon="12.5287017"><ele>51.0</ele><time>2026-04-25T13:47:23.993Z</time></trkpt><trkpt lat="46.0065467" lon="12.52891"><ele>51.0</ele><time>2026-04-25T13:47:24.993Z</time></trkpt><trkpt lat="46.0066367" lon="12.5291233"><ele>51.0</ele><time>2026-04-25T13:47:25.994Z</time></trkpt><trkpt lat="46.0067283" lon="12.5293433"><ele>51.0</ele><time>2026-04-25T13:47:26.994Z</time></trkpt><trkpt lat="46.0068117" lon="12.529555"><ele>51.0</ele><time>2026-04-25T13:47:27.994Z</time></trkpt><trkpt lat="46.0068867" lon="12.5297417"><ele>51.0</ele><time>2026-04-25T13:47:28.997Z</time></trkpt><trkpt lat="46.0069483" lon="12.5299083"><ele>51.0</ele><time>2026-04-25T13:47:29.996Z</time></trkpt><trkpt lat="46.0070033" lon="12.5300617"><ele>51.0</ele><time>2026-04-25T13:47:30.994Z</time></trkpt><trkpt lat="46.0070533" lon="12.5301983"><ele>51.0</ele><time>2026-04-25T13:47:31.994Z</time></trkpt><trkpt lat="46.0071017" lon="12.5303233"><ele>51.4</ele><time>2026-04-25T13:47:32.994Z</time></trkpt><trkpt lat="46.0071517" lon="12.5304483"><ele>51.8</ele><time>2026-04-25T13:47:33.994Z</time></trkpt><trkpt lat="46.0072083" lon="12.5305867"><ele>52.199999999999996</ele><time>2026-04-25T13:47:34.993Z</time></trkpt><trkpt lat="46.0072617" lon="12.530735"><ele>52.599999999999994</ele><time>2026-04-25T13:47:35.995Z</time></trkpt><trkpt lat="46.0073083" lon="12.530875"><ele>53.0</ele><time>2026-04-25T13:47:36.994Z</time></trkpt><trkpt lat="46.0073433" lon="12.5309967"><ele>53.0</ele><time>2026-04-25T13:47:37.994Z</time></trkpt><trkpt lat="46.0073689" lon="12.5311271"><ele>53.0</ele><time>2026-04-25T13:47:38.993Z</time></trkpt><trkpt lat="46.0073753" lon="12.5312739"><ele>53.0</ele><time>2026-04-25T13:47:39.993Z</time></trkpt><trkpt lat="46.0073574" lon="12.5314348"><ele>53.0</ele><time>2026-04-25T13:47:40.993Z</time></trkpt><trkpt lat="46.0073205" lon="12.5316083"><ele>53.0</ele><time>2026-04-25T13:47:41.994Z</time></trkpt><trkpt lat="46.007287" lon="12.5317785"><ele>53.0</ele><time>2026-04-25T13:47:42.995Z</time></trkpt><trkpt lat="46.0072688" lon="12.5319547"><ele>53.0</ele><time>2026-04-25T13:47:43.994Z</time></trkpt><trkpt lat="46.0072669" lon="12.5321545"><ele>53.0</ele><time>2026-04-25T13:47:44.994Z</time></trkpt><trkpt lat="46.0072755" lon="12.5323692"><ele>53.0</ele><time>2026-04-25T13:47:45.993Z</time></trkpt><trkpt lat="46.0072869" lon="12.532581"><ele>53.0</ele><time>2026-04-25T13:47:46.994Z</time></trkpt><trkpt lat="46.0073002" lon="12.5327715"><ele>53.0</ele><time>2026-04-25T13:47:47.993Z</time></trkpt><trkpt lat="46.0073167" lon="12.5329503"><ele>53.0</ele><time>2026-04-25T13:47:48.993Z</time></trkpt><trkpt lat="46.0073423" lon="12.5331316"><ele>53.0</ele><time>2026-04-25T13:47:49.994Z</time></trkpt><trkpt lat="46.00738" lon="12.5333156"><ele>52.75</ele><time>2026-04-25T13:47:50.994Z</time></trkpt><trkpt lat="46.0074232" lon="12.5334976"><ele>52.5</ele><time>2026-04-25T13:47:51.993Z</time></trkpt><trkpt lat="46.0074683" lon="12.5336752"><ele>52.25</ele><time>2026-04-25T13:47:52.993Z</time></trkpt><trkpt lat="46.0075171" lon="12.5338479"><ele>52.0</ele><time>2026-04-25T13:47:53.993Z</time></trkpt><trkpt lat="46.0075701" lon="12.5340182"><ele>52.5</ele><time>2026-04-25T13:47:54.994Z</time></trkpt><trkpt lat="46.0076182" lon="12.5341792"><ele>53.0</ele><time>2026-04-25T13:47:55.993Z</time></trkpt><trkpt lat="46.0076608" lon="12.5343388"><ele>53.5</ele><time>2026-04-25T13:47:56.993Z</time></trkpt><trkpt lat="46.0076943" lon="12.534508"><ele>54.0</ele><time>2026-04-25T13:47:57.994Z</time></trkpt><trkpt lat="46.0077197" lon="12.5346912"><ele>54.0</ele><time>2026-04-25T13:47:58.994Z</time></trkpt><trkpt lat="46.0077421" lon="12.534884"><ele>54.0</ele><time>2026-04-25T13:47:59.994Z</time></trkpt><trkpt lat="46.007767" lon="12.5350712"><ele>54.0</ele><time>2026-04-25T13:48:00.994Z</time></trkpt><trkpt lat="46.0078004" lon="12.5352459"><ele>54.0</ele><time>2026-04-25T13:48:01.995Z</time></trkpt><trkpt lat="46.0078496" lon="12.5354202"><ele>54.0</ele><time>2026-04-25T13:48:02.996Z</time></trkpt><trkpt lat="46.0079026" lon="12.535594"><ele>54.0</ele><time>2026-04-25T13:48:03.993Z</time></trkpt><trkpt lat="46.0079553" lon="12.5357567"><ele>54.0</ele><time>2026-04-25T13:48:04.994Z</time></trkpt><trkpt lat="46.0080089" lon="12.5358981"><ele>54.0</ele><time>2026-04-25T13:48:05.993Z</time></trkpt><trkpt lat="46.0080613" lon="12.5360092"><ele>54.0</ele><time>2026-04-25T13:48:06.993Z</time></trkpt><trkpt lat="46.0081043" lon="12.5360882"><ele>54.00000000000001</ele><time>2026-04-25T13:48:07.993Z</time></trkpt><trkpt lat="46.0081719" lon="12.5362002"><ele>54.00000000000001</ele><time>2026-04-25T13:48:09.993Z</time></trkpt><trkpt lat="46.0082629" lon="12.5363611"><ele>54.0</ele><time>2026-04-25T13:48:11.994Z</time></trkpt><trkpt lat="46.0083277" lon="12.5364666"><ele>54.0</ele><time>2026-04-25T13:48:12.997Z</time></trkpt><trkpt lat="46.0084035" lon="12.5365774"><ele>54.0</ele><time>2026-04-25T13:48:13.995Z</time></trkpt><trkpt lat="46.0084982" lon="12.5366835"><ele>54.0</ele><time>2026-04-25T13:48:14.993Z</time></trkpt><trkpt lat="46.0086079" lon="12.5367904"><ele>54.0</ele><time>2026-04-25T13:48:15.994Z</time></trkpt><trkpt lat="46.0087245" lon="12.5368977"><ele>54.0</ele><time>2026-04-25T13:48:16.997Z</time></trkpt><trkpt lat="46.0088383" lon="12.5370045"><ele>54.5</ele><time>2026-04-25T13:48:17.993Z</time></trkpt><trkpt lat="46.0089518" lon="12.5371081"><ele>55.0</ele><time>2026-04-25T13:48:18.998Z</time></trkpt><trkpt lat="46.0090691" lon="12.5372045"><ele>55.5</ele><time>2026-04-25T13:48:19.993Z</time></trkpt><trkpt lat="46.0091848" lon="12.5372939"><ele>56.0</ele><time>2026-04-25T13:48:20.995Z</time></trkpt><trkpt lat="46.0093028" lon="12.5373731"><ele>56.4</ele><time>2026-04-25T13:48:21.993Z</time></trkpt><trkpt lat="46.0094143" lon="12.5374483"><ele>56.8</ele><time>2026-04-25T13:48:22.994Z</time></trkpt><trkpt lat="46.0095136" lon="12.5375123"><ele>57.199999999999996</ele><time>2026-04-25T13:48:23.992Z</time></trkpt><trkpt lat="46.0096001" lon="12.5375639"><ele>57.599999999999994</ele><time>2026-04-25T13:48:24.993Z</time></trkpt><trkpt lat="46.0096671" lon="12.5376059"><ele>58.0</ele><time>2026-04-25T13:48:25.993Z</time></trkpt><trkpt lat="46.0097163" lon="12.5376936"><ele>58.0</ele><time>2026-04-25T13:48:27.993Z</time></trkpt><trkpt lat="46.009661" lon="12.5378188"><ele>58.0</ele><time>2026-04-25T13:48:29.997Z</time></trkpt><trkpt lat="46.0095934" lon="12.537939"><ele>58.0</ele><time>2026-04-25T13:48:31.993Z</time></trkpt><trkpt lat="46.0095402" lon="12.5380257"><ele>58.0</ele><time>2026-04-25T13:48:33.994Z</time></trkpt><trkpt lat="46.0094764" lon="12.5381203"><ele>58.0</ele><time>2026-04-25T13:48:35.993Z</time></trkpt><trkpt lat="46.0093961" lon="12.5382362"><ele>57.599999999999994</ele><time>2026-04-25T13:48:37.993Z</time></trkpt><trkpt lat="46.009362" lon="12.5383189"><ele>57.199999999999996</ele><time>2026-04-25T13:48:38.995Z</time></trkpt><trkpt lat="46.0093465" lon="12.5384212"><ele>56.8</ele><time>2026-04-25T13:48:39.993Z</time></trkpt><trkpt lat="46.0093582" lon="12.5385393"><ele>56.4</ele><time>2026-04-25T13:48:40.994Z</time></trkpt><trkpt lat="46.0094027" lon="12.5386766"><ele>56.0</ele><time>2026-04-25T13:48:41.994Z</time></trkpt><trkpt lat="46.0094737" lon="12.538843"><ele>56.0</ele><time>2026-04-25T13:48:42.993Z</time></trkpt><trkpt lat="46.0095472" lon="12.5390289"><ele>56.0</ele><time>2026-04-25T13:48:43.994Z</time></trkpt><trkpt lat="46.0096181" lon="12.5392246"><ele>56.0</ele><time>2026-04-25T13:48:44.993Z</time></trkpt><trkpt lat="46.0096963" lon="12.539421"><ele>56.333333333333336</ele><time>2026-04-25T13:48:45.993Z</time></trkpt><trkpt lat="46.0097925" lon="12.5396115"><ele>56.66666666666667</ele><time>2026-04-25T13:48:46.993Z</time></trkpt><trkpt lat="46.0099073" lon="12.5397926"><ele>57.0</ele><time>2026-04-25T13:48:47.993Z</time></trkpt><trkpt lat="46.0100348" lon="12.5399672"><ele>57.33333333333333</ele><time>2026-04-25T13:48:48.995Z</time></trkpt><trkpt lat="46.0101698" lon="12.5401398"><ele>57.666666666666664</ele><time>2026-04-25T13:48:49.994Z</time></trkpt><trkpt lat="46.0103102" lon="12.5403091"><ele>58.0</ele><time>2026-04-25T13:48:50.994Z</time></trkpt><trkpt lat="46.0104505" lon="12.5404727"><ele>58.0</ele><time>2026-04-25T13:48:51.993Z</time></trkpt><trkpt lat="46.0105931" lon="12.5406284"><ele>58.0</ele><time>2026-04-25T13:48:52.994Z</time></trkpt><trkpt lat="46.0107295" lon="12.5407763"><ele>58.0</ele><time>2026-04-25T13:48:53.995Z</time></trkpt><trkpt lat="46.0108559" lon="12.5409103"><ele>58.0</ele><time>2026-04-25T13:48:54.993Z</time></trkpt><trkpt lat="46.0109766" lon="12.5410426"><ele>58.0</ele><time>2026-04-25T13:48:55.993Z</time></trkpt><trkpt lat="46.0110907" lon="12.5411905"><ele>58.0</ele><time>2026-04-25T13:48:56.993Z</time></trkpt><trkpt lat="46.0111984" lon="12.5413617"><ele>58.0</ele><time>2026-04-25T13:48:57.995Z</time></trkpt><trkpt lat="46.0112999" lon="12.5415571"><ele>58.0</ele><time>2026-04-25T13:48:58.994Z</time></trkpt><trkpt lat="46.0114006" lon="12.5417639"><ele>58.0</ele><time>2026-04-25T13:48:59.994Z</time></trkpt><trkpt lat="46.0114987" lon="12.5419661"><ele>58.0</ele><time>2026-04-25T13:49:00.993Z</time></trkpt><trkpt lat="46.0115856" lon="12.5421469"><ele>58.0</ele><time>2026-04-25T13:49:01.994Z</time></trkpt><trkpt lat="46.0116525" lon="12.5423086"><ele>58.0</ele><time>2026-04-25T13:49:02.995Z</time></trkpt><trkpt lat="46.0117021" lon="12.5424497"><ele>58.0</ele><time>2026-04-25T13:49:03.993Z</time></trkpt><trkpt lat="46.011736" lon="12.5425786"><ele>58.0</ele><time>2026-04-25T13:49:04.993Z</time></trkpt><trkpt lat="46.0117556" lon="12.542697"><ele>58.0</ele><time>2026-04-25T13:49:05.995Z</time></trkpt><trkpt lat="46.0117559" lon="12.5427902"><ele>58.0</ele><time>2026-04-25T13:49:06.994Z</time></trkpt><trkpt lat="46.0116811" lon="12.5429253"><ele>58.0</ele><time>2026-04-25T13:49:08.993Z</time></trkpt><trkpt lat="46.0116009" lon="12.5429839"><ele>58.0</ele><time>2026-04-25T13:49:09.994Z</time></trkpt><trkpt lat="46.0114929" lon="12.5430603"><ele>58.5</ele><time>2026-04-25T13:49:10.993Z</time></trkpt><trkpt lat="46.0113679" lon="12.5431507"><ele>59.0</ele><time>2026-04-25T13:49:11.993Z</time></trkpt><trkpt lat="46.0112429" lon="12.5432429"><ele>59.5</ele><time>2026-04-25T13:49:12.993Z</time></trkpt><trkpt lat="46.011131" lon="12.5433313"><ele>60.0</ele><time>2026-04-25T13:49:13.995Z</time></trkpt><trkpt lat="46.0110227" lon="12.5434292"><ele>60.0</ele><time>2026-04-25T13:49:14.993Z</time></trkpt><trkpt lat="46.0109175" lon="12.5435531"><ele>60.0</ele><time>2026-04-25T13:49:15.994Z</time></trkpt><trkpt lat="46.010813" lon="12.5437119"><ele>60.0</ele><time>2026-04-25T13:49:16.995Z</time></trkpt><trkpt lat="46.0107145" lon="12.5438774"><ele>60.0</ele><time>2026-04-25T13:49:17.993Z</time></trkpt><trkpt lat="46.0106288" lon="12.5440286"><ele>60.0</ele><time>2026-04-25T13:49:18.994Z</time></trkpt><trkpt lat="46.0105561" lon="12.5441633"><ele>60.0</ele><time>2026-04-25T13:49:19.994Z</time></trkpt><trkpt lat="46.010493" lon="12.544265"><ele>60.0</ele><time>2026-04-25T13:49:20.993Z</time></trkpt><trkpt lat="46.0104334" lon="12.5443321"><ele>60.0</ele><time>2026-04-25T13:49:21.993Z</time></trkpt><trkpt lat="46.0103672" lon="12.5443668"><ele>60.0</ele><time>2026-04-25T13:49:22.994Z</time></trkpt><trkpt lat="46.0102927" lon="12.5443594"><ele>60.0</ele><time>2026-04-25T13:49:23.993Z</time></trkpt><trkpt lat="46.010212" lon="12.5443066"><ele>60.0</ele><time>2026-04-25T13:49:24.993Z</time></trkpt><trkpt lat="46.0101067" lon="12.5441879"><ele>60.0</ele><time>2026-04-25T13:49:25.994Z</time></trkpt><trkpt lat="46.0099892" lon="12.5440578"><ele>60.0</ele><time>2026-04-25T13:49:26.995Z</time></trkpt><trkpt lat="46.0098689" lon="12.5439284"><ele>60.0</ele><time>2026-04-25T13:49:27.994Z</time></trkpt><trkpt lat="46.0097433" lon="12.5437966"><ele>59.33333333333333</ele><time>2026-04-25T13:49:28.993Z</time></trkpt><trkpt lat="46.0096114" lon="12.5436575"><ele>58.666666666666664</ele><time>2026-04-25T13:49:29.993Z</time></trkpt><trkpt lat="46.0094747" lon="12.5435083"><ele>58.0</ele><time>2026-04-25T13:49:30.993Z</time></trkpt><trkpt lat="46.0093429" lon="12.5433554"><ele>58.0</ele><time>2026-04-25T13:49:31.993Z</time></trkpt><trkpt lat="46.0092242" lon="12.5432113"><ele>58.0</ele><time>2026-04-25T13:49:32.995Z</time></trkpt><trkpt lat="46.0091197" lon="12.5430799"><ele>58.0</ele><time>2026-04-25T13:49:33.994Z</time></trkpt><trkpt lat="46.0090202" lon="12.5429623"><ele>58.0</ele><time>2026-04-25T13:49:34.995Z</time></trkpt><trkpt lat="46.0089214" lon="12.5428652"><ele>58.0</ele><time>2026-04-25T13:49:35.994Z</time></trkpt><trkpt lat="46.008818" lon="12.5427862"><ele>58.0</ele><time>2026-04-25T13:49:36.993Z</time></trkpt><trkpt lat="46.0087079" lon="12.5427189"><ele>58.0</ele><time>2026-04-25T13:49:37.994Z</time></trkpt><trkpt lat="46.008596" lon="12.5426601"><ele>58.0</ele><time>2026-04-25T13:49:38.994Z</time></trkpt><trkpt lat="46.0084882" lon="12.5426019"><ele>58.0</ele><time>2026-04-25T13:49:39.994Z</time></trkpt><trkpt lat="46.0083859" lon="12.5425355"><ele>58.0</ele><time>2026-04-25T13:49:40.994Z</time></trkpt><trkpt lat="46.0082875" lon="12.542461"><ele>58.0</ele><time>2026-04-25T13:49:41.993Z</time></trkpt><trkpt lat="46.008191" lon="12.5423828"><ele>58.0</ele><time>2026-04-25T13:49:42.994Z</time></trkpt><trkpt lat="46.0080944" lon="12.5423024"><ele>58.0</ele><time>2026-04-25T13:49:43.993Z</time></trkpt><trkpt lat="46.007995" lon="12.5422251"><ele>57.75</ele><time>2026-04-25T13:49:44.994Z</time></trkpt><trkpt lat="46.007895" lon="12.5421485"><ele>57.5</ele><time>2026-04-25T13:49:45.993Z</time></trkpt><trkpt lat="46.0077962" lon="12.5420735"><ele>57.25</ele><time>2026-04-25T13:49:46.994Z</time></trkpt><trkpt lat="46.0076967" lon="12.5419978"><ele>57.0</ele><time>2026-04-25T13:49:47.993Z</time></trkpt><trkpt lat="46.0075937" lon="12.5419289"><ele>56.5</ele><time>2026-04-25T13:49:48.994Z</time></trkpt><trkpt lat="46.0074842" lon="12.5418656"><ele>56.0</ele><time>2026-04-25T13:49:49.993Z</time></trkpt><trkpt lat="46.0073707" lon="12.5418101"><ele>55.5</ele><time>2026-04-25T13:49:50.995Z</time></trkpt><trkpt lat="46.0072542" lon="12.5417583"><ele>55.0</ele><time>2026-04-25T13:49:51.995Z</time></trkpt><trkpt lat="46.0071396" lon="12.5417012"><ele>55.0</ele><time>2026-04-25T13:49:52.995Z</time></trkpt><trkpt lat="46.0070263" lon="12.5416324"><ele>55.0</ele><time>2026-04-25T13:49:53.994Z</time></trkpt><trkpt lat="46.0069146" lon="12.5415511"><ele>55.0</ele><time>2026-04-25T13:49:54.995Z</time></trkpt><trkpt lat="46.0068018" lon="12.5414671"><ele>55.0</ele><time>2026-04-25T13:49:55.994Z</time></trkpt><trkpt lat="46.0066827" lon="12.5414017"><ele>54.5</ele><time>2026-04-25T13:49:56.994Z</time></trkpt><trkpt lat="46.0065552" lon="12.5413568"><ele>54.0</ele><time>2026-04-25T13:49:57.994Z</time></trkpt><trkpt lat="46.0064202" lon="12.5413234"><ele>53.5</ele><time>2026-04-25T13:49:58.995Z</time></trkpt><trkpt lat="46.0062739" lon="12.5412971"><ele>53.0</ele><time>2026-04-25T13:49:59.993Z</time></trkpt><trkpt lat="46.0061256" lon="12.541278"><ele>53.0</ele><time>2026-04-25T13:50:00.993Z</time></trkpt><trkpt lat="46.0059837" lon="12.5412642"><ele>53.0</ele><time>2026-04-25T13:50:01.994Z</time></trkpt><trkpt lat="46.0058563" lon="12.5412525"><ele>53.0</ele><time>2026-04-25T13:50:02.994Z</time></trkpt><trkpt lat="46.005748" lon="12.5412466"><ele>53.0</ele><time>2026-04-25T13:50:03.993Z</time></trkpt><trkpt lat="46.005663" lon="12.5412451"><ele>52.599999999999994</ele><time>2026-04-25T13:50:04.994Z</time></trkpt><trkpt lat="46.0055926" lon="12.5412561"><ele>52.199999999999996</ele><time>2026-04-25T13:50:05.994Z</time></trkpt><trkpt lat="46.0055291" lon="12.5412894"><ele>51.8</ele><time>2026-04-25T13:50:06.998Z</time></trkpt><trkpt lat="46.0054602" lon="12.5413585"><ele>51.4</ele><time>2026-04-25T13:50:07.994Z</time></trkpt><trkpt lat="46.0053813" lon="12.5414829"><ele>51.0</ele><time>2026-04-25T13:50:08.997Z</time></trkpt><trkpt lat="46.0052899" lon="12.5416337"><ele>51.0</ele><time>2026-04-25T13:50:09.993Z</time></trkpt><trkpt lat="46.0051766" lon="12.5417946"><ele>51.0</ele><time>2026-04-25T13:50:10.996Z</time></trkpt><trkpt lat="46.0050509" lon="12.5419444"><ele>51.0</ele><time>2026-04-25T13:50:11.993Z</time></trkpt><trkpt lat="46.0049388" lon="12.542083"><ele>51.5</ele><time>2026-04-25T13:50:12.993Z</time></trkpt><trkpt lat="46.0048418" lon="12.5422139"><ele>52.0</ele><time>2026-04-25T13:50:13.995Z</time></trkpt><trkpt lat="46.0047571" lon="12.5423479"><ele>52.5</ele><time>2026-04-25T13:50:14.996Z</time></trkpt><trkpt lat="46.0046723" lon="12.5424889"><ele>53.0</ele><time>2026-04-25T13:50:15.993Z</time></trkpt><trkpt lat="46.0045878" lon="12.5426433"><ele>53.0</ele><time>2026-04-25T13:50:16.994Z</time></trkpt><trkpt lat="46.0045005" lon="12.5428078"><ele>53.0</ele><time>2026-04-25T13:50:17.994Z</time></trkpt><trkpt lat="46.004407" lon="12.5429682"><ele>53.0</ele><time>2026-04-25T13:50:18.994Z</time></trkpt><trkpt lat="46.004313" lon="12.5431205"><ele>53.0</ele><time>2026-04-25T13:50:19.994Z</time></trkpt><trkpt lat="46.004222" lon="12.5432643"><ele>53.0</ele><time>2026-04-25T13:50:20.994Z</time></trkpt><trkpt lat="46.0041431" lon="12.5433881"><ele>53.0</ele><time>2026-04-25T13:50:21.993Z</time></trkpt><trkpt lat="46.0040842" lon="12.5434811"><ele>53.0</ele><time>2026-04-25T13:50:22.994Z</time></trkpt><trkpt lat="46.0040212" lon="12.5435796"><ele>53.0</ele><time>2026-04-25T13:50:24.994Z</time></trkpt><trkpt lat="46.003985" lon="12.5437233"><ele>53.0</ele><time>2026-04-25T13:50:34.993Z</time></trkpt><trkpt lat="46.0039467" lon="12.54383"><ele>53.0</ele><time>2026-04-25T13:50:35.996Z</time></trkpt><trkpt lat="46.0038933" lon="12.54395"><ele>53.0</ele><time>2026-04-25T13:50:36.993Z</time></trkpt><trkpt lat="46.0038217" lon="12.54407"><ele>53.0</ele><time>2026-04-25T13:50:37.993Z</time></trkpt><trkpt lat="46.0037483" lon="12.5442033"><ele>53.0</ele><time>2026-04-25T13:50:38.993Z</time></trkpt><trkpt lat="46.00367" lon="12.544355"><ele>53.0</ele><time>2026-04-25T13:50:39.994Z</time></trkpt><trkpt lat="46.0035867" lon="12.5445267"><ele>53.0</ele><time>2026-04-25T13:50:40.993Z</time></trkpt><trkpt lat="46.003495" lon="12.5447083"><ele>53.0</ele><time>2026-04-25T13:50:41.993Z</time></trkpt><trkpt lat="46.003395" lon="12.5449017"><ele>53.333333333333336</ele><time>2026-04-25T13:50:42.992Z</time></trkpt><trkpt lat="46.0032967" lon="12.5451133"><ele>53.66666666666667</ele><time>2026-04-25T13:50:43.993Z</time></trkpt><trkpt lat="46.0031883" lon="12.545335"><ele>54.0</ele><time>2026-04-25T13:50:44.995Z</time></trkpt><trkpt lat="46.003075" lon="12.5455617"><ele>54.0</ele><time>2026-04-25T13:50:45.993Z</time></trkpt><trkpt lat="46.00299" lon="12.545805"><ele>54.0</ele><time>2026-04-25T13:50:46.992Z</time></trkpt><trkpt lat="46.0029233" lon="12.5460333"><ele>54.0</ele><time>2026-04-25T13:50:47.994Z</time></trkpt><trkpt lat="46.0028667" lon="12.54624"><ele>54.33333333333333</ele><time>2026-04-25T13:50:48.992Z</time></trkpt><trkpt lat="46.00281" lon="12.5464383"><ele>54.666666666666664</ele><time>2026-04-25T13:50:49.993Z</time></trkpt><trkpt lat="46.00274" lon="12.546635"><ele>55.0</ele><time>2026-04-25T13:50:50.993Z</time></trkpt><trkpt lat="46.0026467" lon="12.5468133"><ele>55.0</ele><time>2026-04-25T13:50:51.993Z</time></trkpt><trkpt lat="46.0025583" lon="12.54698"><ele>55.0</ele><time>2026-04-25T13:50:52.993Z</time></trkpt><trkpt lat="46.0024783" lon="12.5471417"><ele>55.0</ele><time>2026-04-25T13:50:53.992Z</time></trkpt><trkpt lat="46.0023967" lon="12.5473"><ele>55.0</ele><time>2026-04-25T13:50:54.992Z</time></trkpt><trkpt lat="46.0023033" lon="12.54745"><ele>54.666666666666664</ele><time>2026-04-25T13:50:55.995Z</time></trkpt><trkpt lat="46.002195" lon="12.5476017"><ele>54.33333333333333</ele><time>2026-04-25T13:50:56.994Z</time></trkpt><trkpt lat="46.0020733" lon="12.5477517"><ele>54.0</ele><time>2026-04-25T13:50:57.996Z</time></trkpt><trkpt lat="46.0019467" lon="12.5479133"><ele>54.66666666666667</ele><time>2026-04-25T13:50:58.993Z</time></trkpt><trkpt lat="46.00184" lon="12.5481167"><ele>55.333333333333336</ele><time>2026-04-25T13:50:59.993Z</time></trkpt><trkpt lat="46.0017333" lon="12.54831"><ele>56.0</ele><time>2026-04-25T13:51:00.995Z</time></trkpt><trkpt lat="46.0016367" lon="12.5484967"><ele>55.333333333333336</ele><time>2026-04-25T13:51:01.993Z</time></trkpt><trkpt lat="46.0015567" lon="12.5487"><ele>54.66666666666667</ele><time>2026-04-25T13:51:02.993Z</time></trkpt><trkpt lat="46.0014817" lon="12.5489283"><ele>54.0</ele><time>2026-04-25T13:51:03.994Z</time></trkpt><trkpt lat="46.0014283" lon="12.54917"><ele>54.0</ele><time>2026-04-25T13:51:04.992Z</time></trkpt><trkpt lat="46.00136" lon="12.5493783"><ele>54.0</ele><time>2026-04-25T13:51:05.992Z</time></trkpt><trkpt lat="46.0013033" lon="12.5495483"><ele>54.0</ele><time>2026-04-25T13:51:06.992Z</time></trkpt><trkpt lat="46.0012583" lon="12.5496733"><ele>54.0</ele><time>2026-04-25T13:51:07.993Z</time></trkpt><trkpt lat="46.001225" lon="12.549775"><ele>54.0</ele><time>2026-04-25T13:51:08.993Z</time></trkpt><trkpt lat="46.0012083" lon="12.5498917"><ele>54.00000000000001</ele><time>2026-04-25T13:51:09.996Z</time></trkpt><trkpt lat="46.0012017" lon="12.5500367"><ele>54.00000000000001</ele><time>2026-04-25T13:51:10.992Z</time></trkpt><trkpt lat="46.0011933" lon="12.550205"><ele>54.0</ele><time>2026-04-25T13:51:11.993Z</time></trkpt><trkpt lat="46.0011733" lon="12.5503867"><ele>54.0</ele><time>2026-04-25T13:51:12.993Z</time></trkpt><trkpt lat="46.00115" lon="12.5505833"><ele>54.25</ele><time>2026-04-25T13:51:13.993Z</time></trkpt><trkpt lat="46.0011267" lon="12.550785"><ele>54.5</ele><time>2026-04-25T13:51:14.995Z</time></trkpt><trkpt lat="46.0011" lon="12.55098"><ele>54.75</ele><time>2026-04-25T13:51:15.995Z</time></trkpt><trkpt lat="46.0010683" lon="12.55117"><ele>55.0</ele><time>2026-04-25T13:51:16.993Z</time></trkpt><trkpt lat="46.0010217" lon="12.5513567"><ele>55.0</ele><time>2026-04-25T13:51:17.993Z</time></trkpt><trkpt lat="46.0009567" lon="12.5515467"><ele>55.0</ele><time>2026-04-25T13:51:18.993Z</time></trkpt><trkpt lat="46.0008833" lon="12.55173"><ele>55.0</ele><time>2026-04-25T13:51:19.993Z</time></trkpt><trkpt lat="46.0008183" lon="12.5519017"><ele>55.0</ele><time>2026-04-25T13:51:20.994Z</time></trkpt><trkpt lat="46.00076" lon="12.55206"><ele>54.99999999999999</ele><time>2026-04-25T13:51:21.993Z</time></trkpt><trkpt lat="46.0007117" lon="12.5522"><ele>55.0</ele><time>2026-04-25T13:51:22.993Z</time></trkpt><trkpt lat="46.0006733" lon="12.5523083"><ele>55.0</ele><time>2026-04-25T13:51:23.993Z</time></trkpt><trkpt lat="46.0006483" lon="12.5523917"><ele>55.0</ele><time>2026-04-25T13:51:24.992Z</time></trkpt><trkpt lat="46.0006267" lon="12.5525283"><ele>54.99999999999999</ele><time>2026-04-25T13:51:26.994Z</time></trkpt><trkpt lat="46.0006367" lon="12.552625"><ele>55.0</ele><time>2026-04-25T13:51:28.993Z</time></trkpt><trkpt lat="46.0006667" lon="12.5527633"><ele>55.0</ele><time>2026-04-25T13:51:30.994Z</time></trkpt><trkpt lat="46.0006617" lon="12.5528633"><ele>55.0</ele><time>2026-04-25T13:51:31.995Z</time></trkpt><trkpt lat="46.0006333" lon="12.5529667"><ele>55.0</ele><time>2026-04-25T13:51:32.995Z</time></trkpt><trkpt lat="46.000585" lon="12.55307"><ele>55.0</ele><time>2026-04-25T13:51:33.993Z</time></trkpt><trkpt lat="46.0005167" lon="12.5531833"><ele>55.0</ele><time>2026-04-25T13:51:34.993Z</time></trkpt><trkpt lat="46.000445" lon="12.55331"><ele>55.2</ele><time>2026-04-25T13:51:35.994Z</time></trkpt><trkpt lat="46.000375" lon="12.5534417"><ele>55.4</ele><time>2026-04-25T13:51:36.995Z</time></trkpt><trkpt lat="46.0003083" lon="12.5535717"><ele>55.599999999999994</ele><time>2026-04-25T13:51:37.993Z</time></trkpt><trkpt lat="46.000245" lon="12.5536967"><ele>55.8</ele><time>2026-04-25T13:51:38.998Z</time></trkpt><trkpt lat="46.0001833" lon="12.5538217"><ele>56.0</ele><time>2026-04-25T13:51:39.993Z</time></trkpt><trkpt lat="46.00012" lon="12.5539617"><ele>56.0</ele><time>2026-04-25T13:51:40.993Z</time></trkpt><trkpt lat="46.0000533" lon="12.5541217"><ele>56.0</ele><time>2026-04-25T13:51:41.993Z</time></trkpt><trkpt lat="45.9999833" lon="12.5542983"><ele>56.0</ele><time>2026-04-25T13:51:42.994Z</time></trkpt><trkpt lat="45.999905" lon="12.5544867"><ele>56.0</ele><time>2026-04-25T13:51:43.994Z</time></trkpt><trkpt lat="45.9998233" lon="12.5546883"><ele>56.0</ele><time>2026-04-25T13:51:44.995Z</time></trkpt><trkpt lat="45.999745" lon="12.5548883"><ele>56.0</ele><time>2026-04-25T13:51:45.993Z</time></trkpt><trkpt lat="45.9996683" lon="12.5550883"><ele>56.0</ele><time>2026-04-25T13:51:46.994Z</time></trkpt><trkpt lat="45.999595" lon="12.5553033"><ele>57.0</ele><time>2026-04-25T13:51:47.993Z</time></trkpt><trkpt lat="45.9995267" lon="12.555535"><ele>58.0</ele><time>2026-04-25T13:51:48.993Z</time></trkpt><trkpt lat="45.99946" lon="12.55578"><ele>59.0</ele><time>2026-04-25T13:51:49.994Z</time></trkpt><trkpt lat="45.9994" lon="12.5560133"><ele>59.0</ele><time>2026-04-25T13:51:50.995Z</time></trkpt><trkpt lat="45.99934" lon="12.5562067"><ele>59.0</ele><time>2026-04-25T13:51:51.993Z</time></trkpt><trkpt lat="45.999285" lon="12.55638"><ele>59.0</ele><time>2026-04-25T13:51:52.992Z</time></trkpt><trkpt lat="45.9992317" lon="12.556545"><ele>59.0</ele><time>2026-04-25T13:51:53.994Z</time></trkpt><trkpt lat="45.99918" lon="12.5567017"><ele>58.75</ele><time>2026-04-25T13:51:54.994Z</time></trkpt><trkpt lat="45.99913" lon="12.5568583"><ele>58.5</ele><time>2026-04-25T13:51:55.994Z</time></trkpt><trkpt lat="45.999075" lon="12.5570133"><ele>58.25</ele><time>2026-04-25T13:51:56.994Z</time></trkpt><trkpt lat="45.999015" lon="12.55716"><ele>58.0</ele><time>2026-04-25T13:51:57.993Z</time></trkpt><trkpt lat="45.9989533" lon="12.5573017"><ele>57.8</ele><time>2026-04-25T13:51:58.994Z</time></trkpt><trkpt lat="45.9988967" lon="12.55743"><ele>57.599999999999994</ele><time>2026-04-25T13:51:59.992Z</time></trkpt><trkpt lat="45.998845" lon="12.557545"><ele>57.400000000000006</ele><time>2026-04-25T13:52:00.993Z</time></trkpt><trkpt lat="45.9988033" lon="12.557635"><ele>57.2</ele><time>2026-04-25T13:52:01.994Z</time></trkpt><trkpt lat="45.9987583" lon="12.5577483"><ele>57.0</ele><time>2026-04-25T13:52:03.994Z</time></trkpt><trkpt lat="45.9987283" lon="12.5578733"><ele>57.0</ele><time>2026-04-25T13:52:07.993Z</time></trkpt><trkpt lat="45.9986833" lon="12.5580467"><ele>57.0</ele><time>2026-04-25T13:52:09.993Z</time></trkpt><trkpt lat="45.9986383" lon="12.5581583"><ele>57.0</ele><time>2026-04-25T13:52:10.993Z</time></trkpt><trkpt lat="45.99858" lon="12.55828"><ele>57.0</ele><time>2026-04-25T13:52:11.994Z</time></trkpt><trkpt lat="45.99852" lon="12.5584117"><ele>57.0</ele><time>2026-04-25T13:52:12.994Z</time></trkpt><trkpt lat="45.9984583" lon="12.55855"><ele>57.0</ele><time>2026-04-25T13:52:13.993Z</time></trkpt><trkpt lat="45.9983983" lon="12.5586783"><ele>57.0</ele><time>2026-04-25T13:52:14.994Z</time></trkpt><trkpt lat="45.9983417" lon="12.5587983"><ele>57.0</ele><time>2026-04-25T13:52:15.993Z</time></trkpt><trkpt lat="45.998285" lon="12.5589233"><ele>57.0</ele><time>2026-04-25T13:52:16.993Z</time></trkpt><trkpt lat="45.9982283" lon="12.5590683"><ele>57.0</ele><time>2026-04-25T13:52:17.995Z</time></trkpt><trkpt lat="45.9981683" lon="12.5592133"><ele>57.0</ele><time>2026-04-25T13:52:18.992Z</time></trkpt><trkpt lat="45.9981117" lon="12.5593583"><ele>57.0</ele><time>2026-04-25T13:52:19.992Z</time></trkpt><trkpt lat="45.9980517" lon="12.559505"><ele>57.0</ele><time>2026-04-25T13:52:20.993Z</time></trkpt><trkpt lat="45.99798" lon="12.5596533"><ele>57.0</ele><time>2026-04-25T13:52:21.992Z</time></trkpt><trkpt lat="45.997905" lon="12.5598117"><ele>57.25</ele><time>2026-04-25T13:52:22.993Z</time></trkpt><trkpt lat="45.9978317" lon="12.5599783"><ele>57.5</ele><time>2026-04-25T13:52:23.994Z</time></trkpt><trkpt lat="45.99775" lon="12.5601367"><ele>57.75</ele><time>2026-04-25T13:52:24.994Z</time></trkpt><trkpt lat="45.9976517" lon="12.5602633"><ele>58.0</ele><time>2026-04-25T13:52:25.993Z</time></trkpt><trkpt lat="45.997535" lon="12.56037"><ele>58.25</ele><time>2026-04-25T13:52:26.994Z</time></trkpt><trkpt lat="45.9974083" lon="12.5604633"><ele>58.5</ele><time>2026-04-25T13:52:27.993Z</time></trkpt><trkpt lat="45.9972733" lon="12.5605417"><ele>58.75</ele><time>2026-04-25T13:52:28.993Z</time></trkpt><trkpt lat="45.9971483" lon="12.56063"><ele>59.0</ele><time>2026-04-25T13:52:29.994Z</time></trkpt><trkpt lat="45.99704" lon="12.5607067"><ele>59.00000000000001</ele><time>2026-04-25T13:52:30.993Z</time></trkpt><trkpt lat="45.9969633" lon="12.5607733"><ele>59.0</ele><time>2026-04-25T13:52:31.992Z</time></trkpt><trkpt lat="45.9969067" lon="12.560825"><ele>59.0</ele><time>2026-04-25T13:52:32.993Z</time></trkpt><trkpt lat="45.9968133" lon="12.560915"><ele>59.0</ele><time>2026-04-25T13:52:41.994Z</time></trkpt><trkpt lat="45.9967783" lon="12.5609917"><ele>59.00000000000001</ele><time>2026-04-25T13:52:42.993Z</time></trkpt><trkpt lat="45.99673" lon="12.5610883"><ele>59.0</ele><time>2026-04-25T13:52:43.994Z</time></trkpt><trkpt lat="45.9966833" lon="12.5611967"><ele>58.800000000000004</ele><time>2026-04-25T13:52:44.993Z</time></trkpt><trkpt lat="45.99663" lon="12.5613083"><ele>58.60000000000001</ele><time>2026-04-25T13:52:45.996Z</time></trkpt><trkpt lat="45.9965667" lon="12.5614317"><ele>58.4</ele><time>2026-04-25T13:52:46.993Z</time></trkpt><trkpt lat="45.9964933" lon="12.5615483"><ele>58.2</ele><time>2026-04-25T13:52:47.994Z</time></trkpt><trkpt lat="45.9964233" lon="12.5616467"><ele>58.0</ele><time>2026-04-25T13:52:48.993Z</time></trkpt><trkpt lat="45.99636" lon="12.5617317"><ele>58.0</ele><time>2026-04-25T13:52:49.994Z</time></trkpt><trkpt lat="45.9963083" lon="12.561805"><ele>58.0</ele><time>2026-04-25T13:52:50.994Z</time></trkpt><trkpt lat="45.9962267" lon="12.561925"><ele>58.0</ele><time>2026-04-25T13:52:52.993Z</time></trkpt><trkpt lat="45.9961533" lon="12.56204"><ele>58.0</ele><time>2026-04-25T13:52:54.994Z</time></trkpt><trkpt lat="45.996075" lon="12.56216"><ele>58.0</ele><time>2026-04-25T13:52:56.993Z</time></trkpt><trkpt lat="45.9959967" lon="12.5623033"><ele>57.85714285714286</ele><time>2026-04-25T13:52:58.994Z</time></trkpt><trkpt lat="45.9959567" lon="12.5623833"><ele>57.714285714285715</ele><time>2026-04-25T13:52:59.993Z</time></trkpt><trkpt lat="45.9959167" lon="12.562465"><ele>57.57142857142857</ele><time>2026-04-25T13:53:00.993Z</time></trkpt><trkpt lat="45.9958733" lon="12.562545"><ele>57.42857142857143</ele><time>2026-04-25T13:53:01.994Z</time></trkpt><trkpt lat="45.9958283" lon="12.5626283"><ele>57.28571428571428</ele><time>2026-04-25T13:53:02.993Z</time></trkpt><trkpt lat="45.995785" lon="12.5627133"><ele>57.14285714285714</ele><time>2026-04-25T13:53:03.993Z</time></trkpt><trkpt lat="45.9957417" lon="12.5628033"><ele>57.0</ele><time>2026-04-25T13:53:04.994Z</time></trkpt><trkpt lat="45.9956967" lon="12.5628983"><ele>57.0</ele><time>2026-04-25T13:53:05.994Z</time></trkpt><trkpt lat="45.9956483" lon="12.5629967"><ele>57.0</ele><time>2026-04-25T13:53:06.994Z</time></trkpt><trkpt lat="45.9955867" lon="12.56311"><ele>57.0</ele><time>2026-04-25T13:53:07.994Z</time></trkpt><trkpt lat="45.995515" lon="12.56324"><ele>57.0</ele><time>2026-04-25T13:53:08.993Z</time></trkpt><trkpt lat="45.995435" lon="12.5633833"><ele>57.0</ele><time>2026-04-25T13:53:09.994Z</time></trkpt><trkpt lat="45.99535" lon="12.56355"><ele>57.0</ele><time>2026-04-25T13:53:10.993Z</time></trkpt><trkpt lat="45.9952533" lon="12.563725"><ele>57.0</ele><time>2026-04-25T13:53:11.994Z</time></trkpt><trkpt lat="45.9951483" lon="12.5639167"><ele>57.0</ele><time>2026-04-25T13:53:12.993Z</time></trkpt><trkpt lat="45.9950467" lon="12.56413"><ele>56.66666666666667</ele><time>2026-04-25T13:53:13.993Z</time></trkpt><trkpt lat="45.994935" lon="12.564345"><ele>56.333333333333336</ele><time>2026-04-25T13:53:14.993Z</time></trkpt><trkpt lat="45.9948217" lon="12.5645583"><ele>56.0</ele><time>2026-04-25T13:53:15.993Z</time></trkpt><trkpt lat="45.99471" lon="12.5647533"><ele>56.0</ele><time>2026-04-25T13:53:16.994Z</time></trkpt><trkpt lat="45.9945933" lon="12.5649483"><ele>56.0</ele><time>2026-04-25T13:53:17.993Z</time></trkpt><trkpt lat="45.9944733" lon="12.5651483"><ele>56.0</ele><time>2026-04-25T13:53:18.993Z</time></trkpt><trkpt lat="45.9943533" lon="12.5653533"><ele>56.333333333333336</ele><time>2026-04-25T13:53:19.994Z</time></trkpt><trkpt lat="45.9942333" lon="12.5655633"><ele>56.66666666666667</ele><time>2026-04-25T13:53:20.993Z</time></trkpt><trkpt lat="45.994121" lon="12.5657829"><ele>57.0</ele><time>2026-04-25T13:53:21.994Z</time></trkpt><trkpt lat="45.9940129" lon="12.5659995"><ele>57.0</ele><time>2026-04-25T13:53:22.994Z</time></trkpt><trkpt lat="45.9939159" lon="12.566193"><ele>57.0</ele><time>2026-04-25T13:53:23.994Z</time></trkpt><trkpt lat="45.993834" lon="12.566353"><ele>57.0</ele><time>2026-04-25T13:53:24.994Z</time></trkpt><trkpt lat="45.9937652" lon="12.566489"><ele>57.0</ele><time>2026-04-25T13:53:25.993Z</time></trkpt><trkpt lat="45.9937115" lon="12.5666042"><ele>56.8</ele><time>2026-04-25T13:53:26.994Z</time></trkpt><trkpt lat="45.9936703" lon="12.5666957"><ele>56.6</ele><time>2026-04-25T13:53:27.994Z</time></trkpt><trkpt lat="45.9936226" lon="12.5668219"><ele>56.39999999999999</ele><time>2026-04-25T13:53:29.995Z</time></trkpt><trkpt lat="45.9935856" lon="12.5669547"><ele>56.199999999999996</ele><time>2026-04-25T13:53:31.994Z</time></trkpt><trkpt lat="45.9935608" lon="12.567075"><ele>56.0</ele><time>2026-04-25T13:53:32.994Z</time></trkpt><trkpt lat="45.9935185" lon="12.5672245"><ele>56.5</ele><time>2026-04-25T13:53:33.994Z</time></trkpt><trkpt lat="45.9934661" lon="12.5673912"><ele>57.0</ele><time>2026-04-25T13:53:34.993Z</time></trkpt><trkpt lat="45.9934091" lon="12.5675696"><ele>57.5</ele><time>2026-04-25T13:53:35.993Z</time></trkpt><trkpt lat="45.9933501" lon="12.5677525"><ele>58.0</ele><time>2026-04-25T13:53:36.993Z</time></trkpt><trkpt lat="45.9932924" lon="12.5679423"><ele>58.0</ele><time>2026-04-25T13:53:37.993Z</time></trkpt><trkpt lat="45.993238" lon="12.5681492"><ele>58.0</ele><time>2026-04-25T13:53:38.993Z</time></trkpt><trkpt lat="45.9931874" lon="12.568374"><ele>58.0</ele><time>2026-04-25T13:53:39.993Z</time></trkpt><trkpt lat="45.9931375" lon="12.5686072"><ele>57.33333333333333</ele><time>2026-04-25T13:53:40.994Z</time></trkpt><trkpt lat="45.9930875" lon="12.568849"><ele>56.66666666666667</ele><time>2026-04-25T13:53:41.995Z</time></trkpt><trkpt lat="45.9930299" lon="12.5690952"><ele>56.0</ele><time>2026-04-25T13:53:42.997Z</time></trkpt><trkpt lat="45.9929538" lon="12.569341"><ele>56.0</ele><time>2026-04-25T13:53:43.994Z</time></trkpt><trkpt lat="45.9928611" lon="12.5695816"><ele>56.0</ele><time>2026-04-25T13:53:44.994Z</time></trkpt><trkpt lat="45.9927577" lon="12.5698087"><ele>56.0</ele><time>2026-04-25T13:53:45.994Z</time></trkpt><trkpt lat="45.9926546" lon="12.570015"><ele>56.0</ele><time>2026-04-25T13:53:46.993Z</time></trkpt><trkpt lat="45.9925636" lon="12.5701984"><ele>56.0</ele><time>2026-04-25T13:53:47.994Z</time></trkpt><trkpt lat="45.9924864" lon="12.5703594"><ele>56.0</ele><time>2026-04-25T13:53:48.994Z</time></trkpt><trkpt lat="45.9924196" lon="12.5704986"><ele>56.0</ele><time>2026-04-25T13:53:49.993Z</time></trkpt><trkpt lat="45.9923641" lon="12.5706174"><ele>56.333333333333336</ele><time>2026-04-25T13:53:50.998Z</time></trkpt><trkpt lat="45.9923191" lon="12.5707151"><ele>56.66666666666667</ele><time>2026-04-25T13:53:51.994Z</time></trkpt><trkpt lat="45.9922828" lon="12.5707938"><ele>57.0</ele><time>2026-04-25T13:53:52.993Z</time></trkpt><trkpt lat="45.9922419" lon="12.5708863"><ele>57.33333333333333</ele><time>2026-04-25T13:53:54.996Z</time></trkpt><trkpt lat="45.9921975" lon="12.5709928"><ele>57.666666666666664</ele><time>2026-04-25T13:53:57.996Z</time></trkpt><trkpt lat="45.9921451" lon="12.5711738"><ele>58.0</ele><time>2026-04-25T13:53:59.993Z</time></trkpt><trkpt lat="45.9921108" lon="12.5712856"><ele>58.0</ele><time>2026-04-25T13:54:00.993Z</time></trkpt><trkpt lat="45.9920666" lon="12.5714137"><ele>58.0</ele><time>2026-04-25T13:54:01.993Z</time></trkpt><trkpt lat="45.9920186" lon="12.5715558"><ele>58.0</ele><time>2026-04-25T13:54:02.993Z</time></trkpt><trkpt lat="45.991969" lon="12.571707"><ele>58.0</ele><time>2026-04-25T13:54:03.993Z</time></trkpt><trkpt lat="45.9919195" lon="12.5718705"><ele>58.0</ele><time>2026-04-25T13:54:04.993Z</time></trkpt><trkpt lat="45.9918666" lon="12.5720414"><ele>58.0</ele><time>2026-04-25T13:54:05.994Z</time></trkpt><trkpt lat="45.9918132" lon="12.5722138"><ele>58.0</ele><time>2026-04-25T13:54:06.996Z</time></trkpt><trkpt lat="45.991756" lon="12.5723856"><ele>58.0</ele><time>2026-04-25T13:54:07.994Z</time></trkpt><trkpt lat="45.9916972" lon="12.5725641"><ele>58.0</ele><time>2026-04-25T13:54:08.993Z</time></trkpt><trkpt lat="45.9916386" lon="12.5727477"><ele>58.5</ele><time>2026-04-25T13:54:09.993Z</time></trkpt><trkpt lat="45.9915755" lon="12.5729301"><ele>59.0</ele><time>2026-04-25T13:54:10.993Z</time></trkpt><trkpt lat="45.9915133" lon="12.5731198"><ele>59.5</ele><time>2026-04-25T13:54:11.993Z</time></trkpt><trkpt lat="45.9914499" lon="12.5733169"><ele>60.0</ele><time>2026-04-25T13:54:12.993Z</time></trkpt><trkpt lat="45.9913874" lon="12.5735198"><ele>59.66666666666667</ele><time>2026-04-25T13:54:13.995Z</time></trkpt><trkpt lat="45.9913238" lon="12.5737167"><ele>59.333333333333336</ele><time>2026-04-25T13:54:14.993Z</time></trkpt><trkpt lat="45.9912537" lon="12.5739098"><ele>59.0</ele><time>2026-04-25T13:54:15.994Z</time></trkpt><trkpt lat="45.9911876" lon="12.5741058"><ele>59.0</ele><time>2026-04-25T13:54:16.993Z</time></trkpt><trkpt lat="45.9911218" lon="12.5743071"><ele>59.0</ele><time>2026-04-25T13:54:17.994Z</time></trkpt><trkpt lat="45.9910573" lon="12.5745082"><ele>59.0</ele><time>2026-04-25T13:54:18.995Z</time></trkpt><trkpt lat="45.9909949" lon="12.5747177"><ele>59.0</ele><time>2026-04-25T13:54:19.994Z</time></trkpt><trkpt lat="45.990929" lon="12.5749204"><ele>59.0</ele><time>2026-04-25T13:54:20.994Z</time></trkpt><trkpt lat="45.9908663" lon="12.5751126"><ele>59.0</ele><time>2026-04-25T13:54:21.994Z</time></trkpt><trkpt lat="45.9908104" lon="12.5752966"><ele>59.0</ele><time>2026-04-25T13:54:22.993Z</time></trkpt><trkpt lat="45.9907718" lon="12.5754909"><ele>59.0</ele><time>2026-04-25T13:54:23.994Z</time></trkpt><trkpt lat="45.9907527" lon="12.5756868"><ele>59.0</ele><time>2026-04-25T13:54:24.994Z</time></trkpt><trkpt lat="45.9907458" lon="12.5758685"><ele>59.0</ele><time>2026-04-25T13:54:25.997Z</time></trkpt><trkpt lat="45.9907367" lon="12.5760349"><ele>59.0</ele><time>2026-04-25T13:54:26.995Z</time></trkpt><trkpt lat="45.9907081" lon="12.5761929"><ele>59.400000000000006</ele><time>2026-04-25T13:54:27.995Z</time></trkpt><trkpt lat="45.9906427" lon="12.5763418"><ele>59.800000000000004</ele><time>2026-04-25T13:54:28.994Z</time></trkpt><trkpt lat="45.990574" lon="12.5764707"><ele>60.199999999999996</ele><time>2026-04-25T13:54:29.994Z</time></trkpt><trkpt lat="45.9905253" lon="12.5765768"><ele>60.599999999999994</ele><time>2026-04-25T13:54:30.993Z</time></trkpt><trkpt lat="45.9904742" lon="12.5766512"><ele>61.0</ele><time>2026-04-25T13:54:31.993Z</time></trkpt><trkpt lat="45.9904079" lon="12.5766848"><ele>60.99999999999999</ele><time>2026-04-25T13:54:32.995Z</time></trkpt><trkpt lat="45.9903336" lon="12.5766979"><ele>61.0</ele><time>2026-04-25T13:54:33.995Z</time></trkpt><trkpt lat="45.990247" lon="12.5766897"><ele>61.0</ele><time>2026-04-25T13:54:34.997Z</time></trkpt><trkpt lat="45.9901682" lon="12.5767218"><ele>61.0</ele><time>2026-04-25T13:54:35.994Z</time></trkpt><trkpt lat="45.9901029" lon="12.5768055"><ele>60.99999999999999</ele><time>2026-04-25T13:54:36.994Z</time></trkpt><trkpt lat="45.9900547" lon="12.5769359"><ele>61.0</ele><time>2026-04-25T13:54:37.993Z</time></trkpt><trkpt lat="45.9900138" lon="12.5770954"><ele>60.75</ele><time>2026-04-25T13:54:38.993Z</time></trkpt><trkpt lat="45.9899671" lon="12.5772588"><ele>60.5</ele><time>2026-04-25T13:54:39.993Z</time></trkpt><trkpt lat="45.9899155" lon="12.5774322"><ele>60.25</ele><time>2026-04-25T13:54:40.994Z</time></trkpt><trkpt lat="45.9898573" lon="12.5776093"><ele>60.0</ele><time>2026-04-25T13:54:41.994Z</time></trkpt><trkpt lat="45.9897924" lon="12.5777829"><ele>59.5</ele><time>2026-04-25T13:54:42.995Z</time></trkpt><trkpt lat="45.9897305" lon="12.5779624"><ele>59.0</ele><time>2026-04-25T13:54:43.995Z</time></trkpt><trkpt lat="45.9896695" lon="12.5781432"><ele>58.5</ele><time>2026-04-25T13:54:44.993Z</time></trkpt><trkpt lat="45.9896064" lon="12.5783236"><ele>58.0</ele><time>2026-04-25T13:54:45.994Z</time></trkpt><trkpt lat="45.9895416" lon="12.5785051"><ele>58.75</ele><time>2026-04-25T13:54:46.993Z</time></trkpt><trkpt lat="45.989475" lon="12.5786896"><ele>59.5</ele><time>2026-04-25T13:54:47.994Z</time></trkpt><trkpt lat="45.9894106" lon="12.5788804"><ele>60.25</ele><time>2026-04-25T13:54:48.993Z</time></trkpt><trkpt lat="45.9893471" lon="12.5790767"><ele>61.0</ele><time>2026-04-25T13:54:49.994Z</time></trkpt><trkpt lat="45.9892863" lon="12.5792805"><ele>61.0</ele><time>2026-04-25T13:54:50.995Z</time></trkpt><trkpt lat="45.9892236" lon="12.579488"><ele>61.0</ele><time>2026-04-25T13:54:51.998Z</time></trkpt><trkpt lat="45.9891565" lon="12.5796973"><ele>61.0</ele><time>2026-04-25T13:54:52.995Z</time></trkpt><trkpt lat="45.9890861" lon="12.5799096"><ele>61.0</ele><time>2026-04-25T13:54:53.993Z</time></trkpt><trkpt lat="45.989017" lon="12.5801249"><ele>61.0</ele><time>2026-04-25T13:54:54.994Z</time></trkpt><trkpt lat="45.9889517" lon="12.5803282"><ele>61.0</ele><time>2026-04-25T13:54:55.996Z</time></trkpt><trkpt lat="45.9888897" lon="12.5805121"><ele>60.5</ele><time>2026-04-25T13:54:56.995Z</time></trkpt><trkpt lat="45.9888298" lon="12.5806818"><ele>60.0</ele><time>2026-04-25T13:54:57.993Z</time></trkpt><trkpt lat="45.9887742" lon="12.5808387"><ele>59.5</ele><time>2026-04-25T13:54:58.994Z</time></trkpt><trkpt lat="45.988724" lon="12.5809887"><ele>59.0</ele><time>2026-04-25T13:54:59.993Z</time></trkpt><trkpt lat="45.9886761" lon="12.5811273"><ele>59.333333333333336</ele><time>2026-04-25T13:55:00.994Z</time></trkpt><trkpt lat="45.9886271" lon="12.5812583"><ele>59.66666666666667</ele><time>2026-04-25T13:55:01.995Z</time></trkpt><trkpt lat="45.9885827" lon="12.5813813"><ele>60.0</ele><time>2026-04-25T13:55:02.994Z</time></trkpt><trkpt lat="45.9885432" lon="12.5814966"><ele>60.33333333333333</ele><time>2026-04-25T13:55:03.993Z</time></trkpt><trkpt lat="45.9885066" lon="12.5816032"><ele>60.666666666666664</ele><time>2026-04-25T13:55:04.995Z</time></trkpt><trkpt lat="45.9884743" lon="12.5817023"><ele>61.0</ele><time>2026-04-25T13:55:05.995Z</time></trkpt><trkpt lat="45.9884428" lon="12.5817953"><ele>60.99999999999999</ele><time>2026-04-25T13:55:06.994Z</time></trkpt><trkpt lat="45.9884142" lon="12.5818836"><ele>61.0</ele><time>2026-04-25T13:55:07.994Z</time></trkpt><trkpt lat="45.9883862" lon="12.5819677"><ele>61.0</ele><time>2026-04-25T13:55:08.994Z</time></trkpt><trkpt lat="45.9883369" lon="12.5821239"><ele>61.0</ele><time>2026-04-25T13:55:10.994Z</time></trkpt><trkpt lat="45.98829" lon="12.5822638"><ele>60.99999999999999</ele><time>2026-04-25T13:55:12.993Z</time></trkpt><trkpt lat="45.9882497" lon="12.5823626"><ele>61.0</ele><time>2026-04-25T13:55:14.995Z</time></trkpt><trkpt lat="45.9882033" lon="12.5825033"><ele>60.99999999999999</ele><time>2026-04-25T13:55:30.996Z</time></trkpt><trkpt lat="45.988175" lon="12.5825983"><ele>61.0</ele><time>2026-04-25T13:55:31.993Z</time></trkpt><trkpt lat="45.9881367" lon="12.5827017"><ele>61.0</ele><time>2026-04-25T13:55:32.993Z</time></trkpt><trkpt lat="45.9880933" lon="12.58281"><ele>61.0</ele><time>2026-04-25T13:55:33.994Z</time></trkpt><trkpt lat="45.988045" lon="12.5829317"><ele>60.99999999999999</ele><time>2026-04-25T13:55:34.993Z</time></trkpt><trkpt lat="45.987995" lon="12.5830633"><ele>61.0</ele><time>2026-04-25T13:55:35.993Z</time></trkpt><trkpt lat="45.9879467" lon="12.5832"><ele>61.25</ele><time>2026-04-25T13:55:36.995Z</time></trkpt><trkpt lat="45.9878933" lon="12.5833417"><ele>61.5</ele><time>2026-04-25T13:55:37.993Z</time></trkpt><trkpt lat="45.987835" lon="12.58349"><ele>61.75</ele><time>2026-04-25T13:55:38.995Z</time></trkpt><trkpt lat="45.98777" lon="12.58364"><ele>62.0</ele><time>2026-04-25T13:55:39.995Z</time></trkpt><trkpt lat="45.9877067" lon="12.5837983"><ele>62.0</ele><time>2026-04-25T13:55:40.994Z</time></trkpt><trkpt lat="45.9876417" lon="12.58396"><ele>62.0</ele><time>2026-04-25T13:55:41.995Z</time></trkpt><trkpt lat="45.98758" lon="12.5841267"><ele>62.0</ele><time>2026-04-25T13:55:42.995Z</time></trkpt><trkpt lat="45.9875167" lon="12.5842933"><ele>62.0</ele><time>2026-04-25T13:55:43.994Z</time></trkpt><trkpt lat="45.9874533" lon="12.5844667"><ele>62.0</ele><time>2026-04-25T13:55:44.995Z</time></trkpt><trkpt lat="45.9873883" lon="12.5846433"><ele>62.0</ele><time>2026-04-25T13:55:45.994Z</time></trkpt><trkpt lat="45.9873217" lon="12.5848217"><ele>62.0</ele><time>2026-04-25T13:55:46.993Z</time></trkpt><trkpt lat="45.9872517" lon="12.585"><ele>62.0</ele><time>2026-04-25T13:55:47.993Z</time></trkpt><trkpt lat="45.987185" lon="12.5851817"><ele>62.0</ele><time>2026-04-25T13:55:48.996Z</time></trkpt><trkpt lat="45.9871183" lon="12.585365"><ele>62.0</ele><time>2026-04-25T13:55:49.996Z</time></trkpt><trkpt lat="45.9870467" lon="12.5855483"><ele>62.0</ele><time>2026-04-25T13:55:50.996Z</time></trkpt><trkpt lat="45.9869733" lon="12.5857317"><ele>62.0</ele><time>2026-04-25T13:55:51.994Z</time></trkpt><trkpt lat="45.9868983" lon="12.5859183"><ele>62.0</ele><time>2026-04-25T13:55:52.994Z</time></trkpt><trkpt lat="45.9868217" lon="12.5861033"><ele>62.0</ele><time>2026-04-25T13:55:53.994Z</time></trkpt><trkpt lat="45.986745" lon="12.5862967"><ele>62.0</ele><time>2026-04-25T13:55:54.995Z</time></trkpt><trkpt lat="45.9866717" lon="12.586495"><ele>62.0</ele><time>2026-04-25T13:55:55.994Z</time></trkpt><trkpt lat="45.9866017" lon="12.586685"><ele>62.0</ele><time>2026-04-25T13:55:56.995Z</time></trkpt><trkpt lat="45.9865333" lon="12.5868617"><ele>62.0</ele><time>2026-04-25T13:55:57.994Z</time></trkpt><trkpt lat="45.986475" lon="12.5870083"><ele>62.0</ele><time>2026-04-25T13:55:58.993Z</time></trkpt><trkpt lat="45.9864267" lon="12.587115"><ele>62.00000000000001</ele><time>2026-04-25T13:55:59.993Z</time></trkpt><trkpt lat="45.98639" lon="12.5871933"><ele>62.0</ele><time>2026-04-25T13:56:00.992Z</time></trkpt><trkpt lat="45.986345" lon="12.58727"><ele>62.0</ele><time>2026-04-25T13:56:02.994Z</time></trkpt><trkpt lat="45.9863517" lon="12.5874233"><ele>62.0</ele><time>2026-04-25T13:56:06.993Z</time></trkpt><trkpt lat="45.98637" lon="12.587515"><ele>62.00000000000001</ele><time>2026-04-25T13:56:07.993Z</time></trkpt><trkpt lat="45.986375" lon="12.58762"><ele>62.0</ele><time>2026-04-25T13:56:08.993Z</time></trkpt><trkpt lat="45.98635" lon="12.58774"><ele>62.0</ele><time>2026-04-25T13:56:09.995Z</time></trkpt><trkpt lat="45.9862917" lon="12.5878767"><ele>62.0</ele><time>2026-04-25T13:56:10.993Z</time></trkpt><trkpt lat="45.9862233" lon="12.5880167"><ele>62.0</ele><time>2026-04-25T13:56:11.993Z</time></trkpt><trkpt lat="45.9861483" lon="12.5881683"><ele>62.0</ele><time>2026-04-25T13:56:12.993Z</time></trkpt><trkpt lat="45.9860733" lon="12.588335"><ele>62.0</ele><time>2026-04-25T13:56:13.993Z</time></trkpt><trkpt lat="45.9859933" lon="12.5885133"><ele>62.0</ele><time>2026-04-25T13:56:14.995Z</time></trkpt><trkpt lat="45.9859133" lon="12.5886983"><ele>62.0</ele><time>2026-04-25T13:56:15.993Z</time></trkpt><trkpt lat="45.9858367" lon="12.5888833"><ele>62.0</ele><time>2026-04-25T13:56:16.992Z</time></trkpt><trkpt lat="45.9857617" lon="12.5890717"><ele>61.66666666666667</ele><time>2026-04-25T13:56:17.993Z</time></trkpt><trkpt lat="45.9856833" lon="12.5892667"><ele>61.33333333333333</ele><time>2026-04-25T13:56:18.993Z</time></trkpt><trkpt lat="45.9856083" lon="12.5894683"><ele>61.0</ele><time>2026-04-25T13:56:19.995Z</time></trkpt><trkpt lat="45.9855317" lon="12.5896717"><ele>61.666666666666664</ele><time>2026-04-25T13:56:20.994Z</time></trkpt><trkpt lat="45.98545" lon="12.58987"><ele>62.33333333333333</ele><time>2026-04-25T13:56:21.992Z</time></trkpt><trkpt lat="45.9853667" lon="12.5900767"><ele>63.0</ele><time>2026-04-25T13:56:22.993Z</time></trkpt><trkpt lat="45.9852833" lon="12.59028"><ele>62.66666666666667</ele><time>2026-04-25T13:56:23.993Z</time></trkpt><trkpt lat="45.9852067" lon="12.5904833"><ele>62.333333333333336</ele><time>2026-04-25T13:56:24.994Z</time></trkpt><trkpt lat="45.985135" lon="12.5906783"><ele>62.0</ele><time>2026-04-25T13:56:25.992Z</time></trkpt><trkpt lat="45.9850633" lon="12.59087"><ele>60.66666666666667</ele><time>2026-04-25T13:56:26.994Z</time></trkpt><trkpt lat="45.9849883" lon="12.5910683"><ele>59.33333333333333</ele><time>2026-04-25T13:56:27.995Z</time></trkpt><trkpt lat="45.984915" lon="12.59127"><ele>58.0</ele><time>2026-04-25T13:56:28.993Z</time></trkpt><trkpt lat="45.9848433" lon="12.59146"><ele>57.75</ele><time>2026-04-25T13:56:29.992Z</time></trkpt><trkpt lat="45.98478" lon="12.5916367"><ele>57.5</ele><time>2026-04-25T13:56:30.992Z</time></trkpt><trkpt lat="45.9847217" lon="12.5918017"><ele>57.25</ele><time>2026-04-25T13:56:31.994Z</time></trkpt><trkpt lat="45.9846717" lon="12.5919467"><ele>57.0</ele><time>2026-04-25T13:56:32.993Z</time></trkpt><trkpt lat="45.9846267" lon="12.5920717"><ele>57.333333333333336</ele><time>2026-04-25T13:56:33.993Z</time></trkpt><trkpt lat="45.984595" lon="12.592175"><ele>57.66666666666667</ele><time>2026-04-25T13:56:34.993Z</time></trkpt><trkpt lat="45.984555" lon="12.592255"><ele>58.0</ele><time>2026-04-25T13:56:35.993Z</time></trkpt><trkpt lat="45.9844983" lon="12.5923117"><ele>58.333333333333336</ele><time>2026-04-25T13:56:36.992Z</time></trkpt><trkpt lat="45.98443" lon="12.5923783"><ele>58.66666666666667</ele><time>2026-04-25T13:56:37.992Z</time></trkpt><trkpt lat="45.9843633" lon="12.59247"><ele>59.0</ele><time>2026-04-25T13:56:38.994Z</time></trkpt><trkpt lat="45.9843133" lon="12.5925983"><ele>59.0</ele><time>2026-04-25T13:56:39.992Z</time></trkpt><trkpt lat="45.9842667" lon="12.592775"><ele>59.0</ele><time>2026-04-25T13:56:40.994Z</time></trkpt><trkpt lat="45.9842133" lon="12.592985"><ele>59.0</ele><time>2026-04-25T13:56:41.994Z</time></trkpt><trkpt lat="45.9841467" lon="12.5932067"><ele>58.66666666666667</ele><time>2026-04-25T13:56:42.994Z</time></trkpt><trkpt lat="45.9840733" lon="12.593435"><ele>58.33333333333333</ele><time>2026-04-25T13:56:43.993Z</time></trkpt><trkpt lat="45.9840033" lon="12.5936533"><ele>58.0</ele><time>2026-04-25T13:56:44.993Z</time></trkpt><trkpt lat="45.98394" lon="12.5938483"><ele>58.0</ele><time>2026-04-25T13:56:45.993Z</time></trkpt><trkpt lat="45.9838833" lon="12.5940267"><ele>58.0</ele><time>2026-04-25T13:56:46.994Z</time></trkpt><trkpt lat="45.9838267" lon="12.5942067"><ele>58.0</ele><time>2026-04-25T13:56:47.995Z</time></trkpt><trkpt lat="45.9837717" lon="12.5943917"><ele>58.0</ele><time>2026-04-25T13:56:48.994Z</time></trkpt><trkpt lat="45.9837117" lon="12.59458"><ele>58.0</ele><time>2026-04-25T13:56:49.994Z</time></trkpt><trkpt lat="45.9836533" lon="12.5947567"><ele>58.0</ele><time>2026-04-25T13:56:50.993Z</time></trkpt><trkpt lat="45.9835983" lon="12.5949117"><ele>58.0</ele><time>2026-04-25T13:56:51.993Z</time></trkpt><trkpt lat="45.9835467" lon="12.5950517"><ele>58.0</ele><time>2026-04-25T13:56:52.992Z</time></trkpt><trkpt lat="45.9834983" lon="12.5951767"><ele>57.99999999999999</ele><time>2026-04-25T13:56:53.995Z</time></trkpt><trkpt lat="45.9834467" lon="12.5952917"><ele>58.0</ele><time>2026-04-25T13:56:54.994Z</time></trkpt><trkpt lat="45.9833917" lon="12.5953983"><ele>58.0</ele><time>2026-04-25T13:56:55.995Z</time></trkpt><trkpt lat="45.9833383" lon="12.595495"><ele>58.0</ele><time>2026-04-25T13:56:56.994Z</time></trkpt><trkpt lat="45.9832867" lon="12.5955833"><ele>57.99999999999999</ele><time>2026-04-25T13:56:57.994Z</time></trkpt><trkpt lat="45.983245" lon="12.59567"><ele>58.0</ele><time>2026-04-25T13:56:58.992Z</time></trkpt><trkpt lat="45.9832067" lon="12.5957433"><ele>57.8</ele><time>2026-04-25T13:56:59.993Z</time></trkpt><trkpt lat="45.98314" lon="12.5958533"><ele>57.599999999999994</ele><time>2026-04-25T13:57:01.994Z</time></trkpt><trkpt lat="45.98309" lon="12.5959367"><ele>57.400000000000006</ele><time>2026-04-25T13:57:03.992Z</time></trkpt><trkpt lat="45.9830333" lon="12.5960817"><ele>57.2</ele><time>2026-04-25T13:57:05.993Z</time></trkpt><trkpt lat="45.983" lon="12.59617"><ele>57.0</ele><time>2026-04-25T13:57:06.996Z</time></trkpt><trkpt lat="45.9829467" lon="12.5963183"><ele>57.0</ele><time>2026-04-25T13:57:08.993Z</time></trkpt><trkpt lat="45.9829033" lon="12.59646"><ele>57.0</ele><time>2026-04-25T13:57:10.992Z</time></trkpt><trkpt lat="45.98284" lon="12.5966167"><ele>57.0</ele><time>2026-04-25T13:57:12.994Z</time></trkpt><trkpt lat="45.9828067" lon="12.596705"><ele>57.0</ele><time>2026-04-25T13:57:13.993Z</time></trkpt><trkpt lat="45.9827617" lon="12.5967983"><ele>57.0</ele><time>2026-04-25T13:57:14.995Z</time></trkpt><trkpt lat="45.982715" lon="12.5968967"><ele>56.8</ele><time>2026-04-25T13:57:15.993Z</time></trkpt><trkpt lat="45.98268" lon="12.5970117"><ele>56.6</ele><time>2026-04-25T13:57:16.992Z</time></trkpt><trkpt lat="45.9826467" lon="12.5971367"><ele>56.39999999999999</ele><time>2026-04-25T13:57:17.993Z</time></trkpt><trkpt lat="45.9826117" lon="12.5972783"><ele>56.199999999999996</ele><time>2026-04-25T13:57:18.993Z</time></trkpt><trkpt lat="45.9825667" lon="12.597425"><ele>56.0</ele><time>2026-04-25T13:57:19.993Z</time></trkpt><trkpt lat="45.982515" lon="12.5975717"><ele>56.0</ele><time>2026-04-25T13:57:20.998Z</time></trkpt><trkpt lat="45.982465" lon="12.59773"><ele>56.0</ele><time>2026-04-25T13:57:21.994Z</time></trkpt><trkpt lat="45.982415" lon="12.5978867"><ele>56.0</ele><time>2026-04-25T13:57:22.993Z</time></trkpt><trkpt lat="45.9823667" lon="12.5980317"><ele>56.0</ele><time>2026-04-25T13:57:23.994Z</time></trkpt><trkpt lat="45.9823167" lon="12.5981683"><ele>56.0</ele><time>2026-04-25T13:57:24.999Z</time></trkpt><trkpt lat="45.9822717" lon="12.5983083"><ele>55.99999999999999</ele><time>2026-04-25T13:57:25.994Z</time></trkpt><trkpt lat="45.9822317" lon="12.5984567"><ele>55.99999999999999</ele><time>2026-04-25T13:57:26.993Z</time></trkpt><trkpt lat="45.9821933" lon="12.598595"><ele>56.0</ele><time>2026-04-25T13:57:27.994Z</time></trkpt><trkpt lat="45.9821533" lon="12.5987233"><ele>56.0</ele><time>2026-04-25T13:57:28.995Z</time></trkpt><trkpt lat="45.9821183" lon="12.59884"><ele>56.0</ele><time>2026-04-25T13:57:29.993Z</time></trkpt><trkpt lat="45.9820867" lon="12.5989533"><ele>55.99999999999999</ele><time>2026-04-25T13:57:30.994Z</time></trkpt><trkpt lat="45.9820567" lon="12.5990667"><ele>55.99999999999999</ele><time>2026-04-25T13:57:31.992Z</time></trkpt><trkpt lat="45.9820267" lon="12.5991867"><ele>56.0</ele><time>2026-04-25T13:57:32.994Z</time></trkpt><trkpt lat="45.9819917" lon="12.5993217"><ele>56.0</ele><time>2026-04-25T13:57:33.993Z</time></trkpt><trkpt lat="45.9819483" lon="12.5994733"><ele>55.75</ele><time>2026-04-25T13:57:34.994Z</time></trkpt><trkpt lat="45.9819017" lon="12.5996417"><ele>55.5</ele><time>2026-04-25T13:57:35.993Z</time></trkpt><trkpt lat="45.9818517" lon="12.5998283"><ele>55.25</ele><time>2026-04-25T13:57:36.993Z</time></trkpt><trkpt lat="45.9817983" lon="12.60002"><ele>55.0</ele><time>2026-04-25T13:57:37.993Z</time></trkpt><trkpt lat="45.9817408" lon="12.6002148"><ele>55.0</ele><time>2026-04-25T13:57:38.994Z</time></trkpt><trkpt lat="45.9816752" lon="12.6004159"><ele>55.0</ele><time>2026-04-25T13:57:39.992Z</time></trkpt><trkpt lat="45.9816042" lon="12.6006211"><ele>55.0</ele><time>2026-04-25T13:57:40.993Z</time></trkpt><trkpt lat="45.9815298" lon="12.6008339"><ele>55.0</ele><time>2026-04-25T13:57:41.994Z</time></trkpt><trkpt lat="45.9814527" lon="12.601053"><ele>55.0</ele><time>2026-04-25T13:57:42.992Z</time></trkpt><trkpt lat="45.9813802" lon="12.6012819"><ele>55.0</ele><time>2026-04-25T13:57:43.993Z</time></trkpt><trkpt lat="45.9813158" lon="12.6015208"><ele>55.0</ele><time>2026-04-25T13:57:44.996Z</time></trkpt><trkpt lat="45.9812525" lon="12.6017684"><ele>55.0</ele><time>2026-04-25T13:57:45.993Z</time></trkpt><trkpt lat="45.9811898" lon="12.6020099"><ele>55.0</ele><time>2026-04-25T13:57:46.993Z</time></trkpt><trkpt lat="45.9811301" lon="12.6022212"><ele>55.0</ele><time>2026-04-25T13:57:47.992Z</time></trkpt><trkpt lat="45.9810692" lon="12.6023989"><ele>55.0</ele><time>2026-04-25T13:57:48.993Z</time></trkpt><trkpt lat="45.9810043" lon="12.6025532"><ele>55.0</ele><time>2026-04-25T13:57:49.995Z</time></trkpt><trkpt lat="45.9809258" lon="12.6027002"><ele>55.0</ele><time>2026-04-25T13:57:50.995Z</time></trkpt><trkpt lat="45.9808357" lon="12.602853"><ele>54.0</ele><time>2026-04-25T13:57:51.993Z</time></trkpt><trkpt lat="45.9807399" lon="12.6030216"><ele>53.0</ele><time>2026-04-25T13:57:52.994Z</time></trkpt><trkpt lat="45.9806414" lon="12.6032048"><ele>52.0</ele><time>2026-04-25T13:57:53.993Z</time></trkpt><trkpt lat="45.9805407" lon="12.6033982"><ele>52.0</ele><time>2026-04-25T13:57:54.995Z</time></trkpt><trkpt lat="45.9804416" lon="12.6035974"><ele>52.0</ele><time>2026-04-25T13:57:55.994Z</time></trkpt><trkpt lat="45.980346" lon="12.6037847"><ele>52.0</ele><time>2026-04-25T13:57:56.994Z</time></trkpt><trkpt lat="45.9802573" lon="12.6039544"><ele>52.75</ele><time>2026-04-25T13:57:57.993Z</time></trkpt><trkpt lat="45.9801774" lon="12.6041101"><ele>53.5</ele><time>2026-04-25T13:57:58.992Z</time></trkpt><trkpt lat="45.9801043" lon="12.6042561"><ele>54.25</ele><time>2026-04-25T13:57:59.993Z</time></trkpt><trkpt lat="45.9800345" lon="12.6043906"><ele>55.0</ele><time>2026-04-25T13:58:00.996Z</time></trkpt><trkpt lat="45.9799735" lon="12.6045109"><ele>55.0</ele><time>2026-04-25T13:58:01.995Z</time></trkpt><trkpt lat="45.9799211" lon="12.6046172"><ele>55.0</ele><time>2026-04-25T13:58:02.994Z</time></trkpt><trkpt lat="45.9798748" lon="12.6047093"><ele>55.0</ele><time>2026-04-25T13:58:03.993Z</time></trkpt><trkpt lat="45.9798105" lon="12.604828"><ele>55.0</ele><time>2026-04-25T13:58:05.994Z</time></trkpt><trkpt lat="45.9797694" lon="12.6049164"><ele>55.0</ele><time>2026-04-25T13:58:11.992Z</time></trkpt><trkpt lat="45.9797093" lon="12.6050839"><ele>55.0</ele><time>2026-04-25T13:58:13.994Z</time></trkpt><trkpt lat="45.9796706" lon="12.6052064"><ele>55.0</ele><time>2026-04-25T13:58:14.995Z</time></trkpt><trkpt lat="45.9796123" lon="12.6053686"><ele>55.0</ele><time>2026-04-25T13:58:15.993Z</time></trkpt><trkpt lat="45.9795488" lon="12.6055365"><ele>55.0</ele><time>2026-04-25T13:58:16.994Z</time></trkpt><trkpt lat="45.9794811" lon="12.6057036"><ele>55.0</ele><time>2026-04-25T13:58:17.994Z</time></trkpt><trkpt lat="45.9794096" lon="12.6058707"><ele>55.0</ele><time>2026-04-25T13:58:18.993Z</time></trkpt><trkpt lat="45.9793395" lon="12.6060409"><ele>55.0</ele><time>2026-04-25T13:58:19.992Z</time></trkpt><trkpt lat="45.9792689" lon="12.6062214"><ele>55.0</ele><time>2026-04-25T13:58:20.994Z</time></trkpt><trkpt lat="45.979199" lon="12.606411"><ele>54.33333333333333</ele><time>2026-04-25T13:58:21.992Z</time></trkpt><trkpt lat="45.9791237" lon="12.6065998"><ele>53.66666666666667</ele><time>2026-04-25T13:58:22.993Z</time></trkpt><trkpt lat="45.9790444" lon="12.6067948"><ele>53.0</ele><time>2026-04-25T13:58:23.992Z</time></trkpt><trkpt lat="45.9789624" lon="12.6069972"><ele>52.66666666666667</ele><time>2026-04-25T13:58:24.993Z</time></trkpt><trkpt lat="45.978879" lon="12.6072007"><ele>52.33333333333333</ele><time>2026-04-25T13:58:25.993Z</time></trkpt><trkpt lat="45.9788004" lon="12.6074065"><ele>52.0</ele><time>2026-04-25T13:58:26.994Z</time></trkpt><trkpt lat="45.9787221" lon="12.6076159"><ele>52.0</ele><time>2026-04-25T13:58:27.994Z</time></trkpt><trkpt lat="45.9786431" lon="12.6078279"><ele>52.0</ele><time>2026-04-25T13:58:28.993Z</time></trkpt><trkpt lat="45.97858" lon="12.608059"><ele>52.0</ele><time>2026-04-25T13:58:29.994Z</time></trkpt><trkpt lat="45.9785362" lon="12.6083065"><ele>52.0</ele><time>2026-04-25T13:58:30.994Z</time></trkpt><trkpt lat="45.9785054" lon="12.6085602"><ele>52.0</ele><time>2026-04-25T13:58:31.994Z</time></trkpt><trkpt lat="45.9784786" lon="12.6088146"><ele>52.0</ele><time>2026-04-25T13:58:32.994Z</time></trkpt><trkpt lat="45.9784457" lon="12.6090729"><ele>52.0</ele><time>2026-04-25T13:58:33.993Z</time></trkpt><trkpt lat="45.9784005" lon="12.6093353"><ele>52.0</ele><time>2026-04-25T13:58:34.993Z</time></trkpt><trkpt lat="45.9783473" lon="12.6096049"><ele>52.0</ele><time>2026-04-25T13:58:35.993Z</time></trkpt><trkpt lat="45.9782867" lon="12.6098812"><ele>52.0</ele><time>2026-04-25T13:58:36.993Z</time></trkpt><trkpt lat="45.9782216" lon="12.6101659"><ele>52.0</ele><time>2026-04-25T13:58:37.996Z</time></trkpt><trkpt lat="45.978156" lon="12.6104556"><ele>52.0</ele><time>2026-04-25T13:58:38.994Z</time></trkpt><trkpt lat="45.9780879" lon="12.6107448"><ele>51.33333333333333</ele><time>2026-04-25T13:58:39.992Z</time></trkpt><trkpt lat="45.9780132" lon="12.6110314"><ele>50.66666666666667</ele><time>2026-04-25T13:58:40.992Z</time></trkpt><trkpt lat="45.9779328" lon="12.6113152"><ele>50.0</ele><time>2026-04-25T13:58:41.994Z</time></trkpt><trkpt lat="45.9778477" lon="12.6115914"><ele>50.0</ele><time>2026-04-25T13:58:42.993Z</time></trkpt><trkpt lat="45.9777605" lon="12.6118646"><ele>50.0</ele><time>2026-04-25T13:58:43.992Z</time></trkpt><trkpt lat="45.9776744" lon="12.6121298"><ele>50.0</ele><time>2026-04-25T13:58:44.995Z</time></trkpt><trkpt lat="45.9775854" lon="12.6123801"><ele>50.333333333333336</ele><time>2026-04-25T13:58:45.994Z</time></trkpt><trkpt lat="45.9774905" lon="12.6126157"><ele>50.66666666666667</ele><time>2026-04-25T13:58:46.994Z</time></trkpt><trkpt lat="45.9773873" lon="12.6128415"><ele>51.0</ele><time>2026-04-25T13:58:47.993Z</time></trkpt><trkpt lat="45.977278" lon="12.6130656"><ele>51.66666666666667</ele><time>2026-04-25T13:58:48.993Z</time></trkpt><trkpt lat="45.9771738" lon="12.6132957"><ele>52.333333333333336</ele><time>2026-04-25T13:58:49.994Z</time></trkpt><trkpt lat="45.9770757" lon="12.6135296"><ele>53.0</ele><time>2026-04-25T13:58:50.993Z</time></trkpt><trkpt lat="45.9769873" lon="12.6137596"><ele>53.0</ele><time>2026-04-25T13:58:51.994Z</time></trkpt><trkpt lat="45.9769135" lon="12.6139686"><ele>53.0</ele><time>2026-04-25T13:58:52.993Z</time></trkpt><trkpt lat="45.976851" lon="12.6141566"><ele>53.0</ele><time>2026-04-25T13:58:53.993Z</time></trkpt><trkpt lat="45.9767963" lon="12.6143213"><ele>53.0</ele><time>2026-04-25T13:58:54.993Z</time></trkpt><trkpt lat="45.976751" lon="12.614454"><ele>52.833333333333336</ele><time>2026-04-25T13:58:55.994Z</time></trkpt><trkpt lat="45.9767143" lon="12.6145542"><ele>52.66666666666667</ele><time>2026-04-25T13:58:56.994Z</time></trkpt><trkpt lat="45.9766705" lon="12.6146802"><ele>52.5</ele><time>2026-04-25T13:58:58.993Z</time></trkpt><trkpt lat="45.9766525" lon="12.6148117"><ele>52.33333333333333</ele><time>2026-04-25T13:59:26.994Z</time></trkpt><trkpt lat="45.9765857" lon="12.6148606"><ele>52.166666666666664</ele><time>2026-04-25T13:59:27.994Z</time></trkpt><trkpt lat="45.9764991" lon="12.6148778"><ele>52.0</ele><time>2026-04-25T13:59:28.994Z</time></trkpt><trkpt lat="45.9763892" lon="12.6148457"><ele>51.5</ele><time>2026-04-25T13:59:29.994Z</time></trkpt><trkpt lat="45.9762669" lon="12.6148043"><ele>51.0</ele><time>2026-04-25T13:59:30.993Z</time></trkpt><trkpt lat="45.9761453" lon="12.6147723"><ele>50.5</ele><time>2026-04-25T13:59:31.994Z</time></trkpt><trkpt lat="45.9760185" lon="12.6147444"><ele>50.0</ele><time>2026-04-25T13:59:32.993Z</time></trkpt><trkpt lat="45.9758863" lon="12.6147131"><ele>49.75</ele><time>2026-04-25T13:59:33.994Z</time></trkpt><trkpt lat="45.9757474" lon="12.61468"><ele>49.5</ele><time>2026-04-25T13:59:34.993Z</time></trkpt><trkpt lat="45.9756009" lon="12.6146432"><ele>49.25</ele><time>2026-04-25T13:59:35.993Z</time></trkpt><trkpt lat="45.9754529" lon="12.6146008"><ele>49.0</ele><time>2026-04-25T13:59:36.993Z</time></trkpt><trkpt lat="45.975302" lon="12.6145601"><ele>49.0</ele><time>2026-04-25T13:59:37.993Z</time></trkpt><trkpt lat="45.9751455" lon="12.6145179"><ele>49.0</ele><time>2026-04-25T13:59:38.993Z</time></trkpt><trkpt lat="45.9749859" lon="12.6144758"><ele>49.0</ele><time>2026-04-25T13:59:39.996Z</time></trkpt><trkpt lat="45.9748227" lon="12.6144289"><ele>48.666666666666664</ele><time>2026-04-25T13:59:40.993Z</time></trkpt><trkpt lat="45.9746544" lon="12.614381"><ele>48.33333333333333</ele><time>2026-04-25T13:59:41.996Z</time></trkpt><trkpt lat="45.9744828" lon="12.6143283"><ele>48.0</ele><time>2026-04-25T13:59:42.995Z</time></trkpt><trkpt lat="45.9743107" lon="12.6142687"><ele>47.666666666666664</ele><time>2026-04-25T13:59:43.993Z</time></trkpt><trkpt lat="45.9741399" lon="12.6142063"><ele>47.33333333333333</ele><time>2026-04-25T13:59:44.994Z</time></trkpt><trkpt lat="45.9739656" lon="12.6141432"><ele>47.0</ele><time>2026-04-25T13:59:45.993Z</time></trkpt><trkpt lat="45.9737877" lon="12.6140769"><ele>47.0</ele><time>2026-04-25T13:59:46.994Z</time></trkpt><trkpt lat="45.9736135" lon="12.6140112"><ele>47.0</ele><time>2026-04-25T13:59:47.994Z</time></trkpt><trkpt lat="45.97346" lon="12.6139503"><ele>47.0</ele><time>2026-04-25T13:59:48.993Z</time></trkpt><trkpt lat="45.9733391" lon="12.613903"><ele>46.400000000000006</ele><time>2026-04-25T13:59:49.994Z</time></trkpt><trkpt lat="45.9732497" lon="12.6138698"><ele>45.800000000000004</ele><time>2026-04-25T13:59:50.994Z</time></trkpt><trkpt lat="45.9731601" lon="12.6138362"><ele>45.2</ele><time>2026-04-25T13:59:52.994Z</time></trkpt><trkpt lat="45.9730633" lon="12.6137683"><ele>44.6</ele><time>2026-04-25T13:59:55.995Z</time></trkpt><trkpt lat="45.9729467" lon="12.613795"><ele>44.0</ele><time>2026-04-25T13:59:57.993Z</time></trkpt><trkpt lat="45.9728167" lon="12.6137667"><ele>44.0</ele><time>2026-04-25T13:59:59.994Z</time></trkpt><trkpt lat="45.9727483" lon="12.6137483"><ele>44.0</ele><time>2026-04-25T14:00:00.995Z</time></trkpt><trkpt lat="45.9726783" lon="12.613735"><ele>44.0</ele><time>2026-04-25T14:00:01.995Z</time></trkpt><trkpt lat="45.9726033" lon="12.6137167"><ele>44.0</ele><time>2026-04-25T14:00:02.995Z</time></trkpt><trkpt lat="45.9725183" lon="12.6137017"><ele>44.0</ele><time>2026-04-25T14:00:03.993Z</time></trkpt><trkpt lat="45.9724233" lon="12.6136867"><ele>44.0</ele><time>2026-04-25T14:00:04.994Z</time></trkpt><trkpt lat="45.9723183" lon="12.6136667"><ele>44.0</ele><time>2026-04-25T14:00:05.993Z</time></trkpt><trkpt lat="45.972215" lon="12.613645"><ele>44.0</ele><time>2026-04-25T14:00:06.996Z</time></trkpt><trkpt lat="45.9721283" lon="12.6136233"><ele>44.0</ele><time>2026-04-25T14:00:07.993Z</time></trkpt><trkpt lat="45.9720567" lon="12.613625"><ele>44.0</ele><time>2026-04-25T14:00:08.995Z</time></trkpt><trkpt lat="45.9720167" lon="12.6137367"><ele>44.0</ele><time>2026-04-25T14:00:10.993Z</time></trkpt><trkpt lat="45.972075" lon="12.6138133"><ele>44.0</ele><time>2026-04-25T14:00:11.996Z</time></trkpt><trkpt lat="45.972155" lon="12.6138817"><ele>44.0</ele><time>2026-04-25T14:00:12.994Z</time></trkpt><trkpt lat="45.9722033" lon="12.613955"><ele>44.0</ele><time>2026-04-25T14:00:13.995Z</time></trkpt><trkpt lat="45.9722917" lon="12.6140233"><ele>44.0</ele><time>2026-04-25T14:00:15.994Z</time></trkpt><trkpt lat="45.972355" lon="12.6139933"><ele>44.0</ele><time>2026-04-25T14:00:16.994Z</time></trkpt><trkpt lat="45.9724267" lon="12.6139633"><ele>44.0</ele><time>2026-04-25T14:00:17.993Z</time></trkpt><trkpt lat="45.9725267" lon="12.6139217"><ele>44.0</ele><time>2026-04-25T14:00:19.994Z</time></trkpt><trkpt lat="45.9724383" lon="12.613955"><ele>44.285714285714285</ele><time>2026-04-25T14:15:13.995Z</time></trkpt><trkpt lat="45.9723483" lon="12.61398"><ele>44.57142857142857</ele><time>2026-04-25T14:15:15.996Z</time></trkpt><trkpt lat="45.97228" lon="12.614"><ele>44.85714285714286</ele><time>2026-04-25T14:15:17.993Z</time></trkpt><trkpt lat="45.9722467" lon="12.6139067"><ele>45.14285714285714</ele><time>2026-04-25T14:15:19.994Z</time></trkpt><trkpt lat="45.9722917" lon="12.61383"><ele>45.42857142857142</ele><time>2026-04-25T14:15:20.993Z</time></trkpt><trkpt lat="45.97236" lon="12.6138067"><ele>45.714285714285715</ele><time>2026-04-25T14:15:21.994Z</time></trkpt><trkpt lat="45.9724267" lon="12.61383"><ele>46.0</ele><time>2026-04-25T14:15:22.994Z</time></trkpt><trkpt lat="45.972485" lon="12.6137883"><ele>46.0</ele><time>2026-04-25T14:15:24.994Z</time></trkpt><trkpt lat="45.9724533" lon="12.6136867"><ele>46.0</ele><time>2026-04-25T14:15:39.993Z</time></trkpt><trkpt lat="45.9723467" lon="12.6136433"><ele>46.0</ele><time>2026-04-25T14:15:41.992Z</time></trkpt><trkpt lat="45.9722717" lon="12.6136367"><ele>46.0</ele><time>2026-04-25T14:15:42.992Z</time></trkpt><trkpt lat="45.9721917" lon="12.6136283"><ele>46.0</ele><time>2026-04-25T14:15:43.992Z</time></trkpt><trkpt lat="45.972105" lon="12.6136083"><ele>46.0</ele><time>2026-04-25T14:15:44.993Z</time></trkpt><trkpt lat="45.972015" lon="12.6135817"><ele>45.599999999999994</ele><time>2026-04-25T14:15:45.992Z</time></trkpt><trkpt lat="45.97192" lon="12.6135633"><ele>45.2</ele><time>2026-04-25T14:15:46.993Z</time></trkpt><trkpt lat="45.9718183" lon="12.613545"><ele>44.8</ele><time>2026-04-25T14:15:47.993Z</time></trkpt><trkpt lat="45.971715" lon="12.613525"><ele>44.400000000000006</ele><time>2026-04-25T14:15:48.994Z</time></trkpt><trkpt lat="45.9716067" lon="12.6135017"><ele>44.0</ele><time>2026-04-25T14:15:49.992Z</time></trkpt><trkpt lat="45.9714967" lon="12.613475"><ele>44.0</ele><time>2026-04-25T14:15:50.994Z</time></trkpt><trkpt lat="45.971385" lon="12.6134417"><ele>44.0</ele><time>2026-04-25T14:15:51.993Z</time></trkpt><trkpt lat="45.97127" lon="12.613415"><ele>44.0</ele><time>2026-04-25T14:15:52.993Z</time></trkpt><trkpt lat="45.97115" lon="12.613395"><ele>44.0</ele><time>2026-04-25T14:15:53.994Z</time></trkpt><trkpt lat="45.97103" lon="12.6133817"><ele>44.0</ele><time>2026-04-25T14:15:54.993Z</time></trkpt><trkpt lat="45.9709133" lon="12.6133717"><ele>44.0</ele><time>2026-04-25T14:15:55.994Z</time></trkpt><trkpt lat="45.9708" lon="12.6133633"><ele>44.0</ele><time>2026-04-25T14:15:56.994Z</time></trkpt><trkpt lat="45.9706817" lon="12.6133667"><ele>44.0</ele><time>2026-04-25T14:15:57.993Z</time></trkpt><trkpt lat="45.9705633" lon="12.6133683"><ele>43.75</ele><time>2026-04-25T14:15:58.992Z</time></trkpt><trkpt lat="45.9704433" lon="12.6133667"><ele>43.5</ele><time>2026-04-25T14:15:59.992Z</time></trkpt><trkpt lat="45.9703183" lon="12.6133767"><ele>43.25</ele><time>2026-04-25T14:16:00.992Z</time></trkpt><trkpt lat="45.9701983" lon="12.613385"><ele>43.0</ele><time>2026-04-25T14:16:01.992Z</time></trkpt><trkpt lat="45.9700833" lon="12.613405"><ele>42.8</ele><time>2026-04-25T14:16:02.993Z</time></trkpt><trkpt lat="45.9699733" lon="12.6134267"><ele>42.599999999999994</ele><time>2026-04-25T14:16:03.996Z</time></trkpt><trkpt lat="45.9698633" lon="12.6134483"><ele>42.400000000000006</ele><time>2026-04-25T14:16:04.994Z</time></trkpt><trkpt lat="45.9697517" lon="12.6134783"><ele>42.2</ele><time>2026-04-25T14:16:05.994Z</time></trkpt><trkpt lat="45.969645" lon="12.6135"><ele>42.0</ele><time>2026-04-25T14:16:06.993Z</time></trkpt><trkpt lat="45.96954" lon="12.6135267"><ele>42.0</ele><time>2026-04-25T14:16:07.992Z</time></trkpt><trkpt lat="45.9694417" lon="12.6135433"><ele>42.0</ele><time>2026-04-25T14:16:08.995Z</time></trkpt><trkpt lat="45.9693533" lon="12.6135683"><ele>42.0</ele><time>2026-04-25T14:16:09.992Z</time></trkpt><trkpt lat="45.96928" lon="12.6135783"><ele>42.0</ele><time>2026-04-25T14:16:10.993Z</time></trkpt><trkpt lat="45.9691767" lon="12.6135783"><ele>42.0</ele><time>2026-04-25T14:16:12.993Z</time></trkpt><trkpt lat="45.9691133" lon="12.61357"><ele>42.0</ele><time>2026-04-25T14:16:14.993Z</time></trkpt><trkpt lat="45.96903" lon="12.6135633"><ele>41.8</ele><time>2026-04-25T14:16:17.995Z</time></trkpt><trkpt lat="45.9689417" lon="12.6135117"><ele>41.6</ele><time>2026-04-25T14:16:19.993Z</time></trkpt><trkpt lat="45.96889" lon="12.6134483"><ele>41.4</ele><time>2026-04-25T14:16:20.994Z</time></trkpt><trkpt lat="45.968835" lon="12.6133417"><ele>41.199999999999996</ele><time>2026-04-25T14:16:21.992Z</time></trkpt><trkpt lat="45.9688017" lon="12.6132017"><ele>41.0</ele><time>2026-04-25T14:16:22.992Z</time></trkpt><trkpt lat="45.96879" lon="12.6130367"><ele>41.0</ele><time>2026-04-25T14:16:23.995Z</time></trkpt><trkpt lat="45.9688" lon="12.61286"><ele>41.0</ele><time>2026-04-25T14:16:24.993Z</time></trkpt><trkpt lat="45.9688067" lon="12.6126967"><ele>41.0</ele><time>2026-04-25T14:16:25.993Z</time></trkpt><trkpt lat="45.968815" lon="12.61255"><ele>41.0</ele><time>2026-04-25T14:16:26.993Z</time></trkpt><trkpt lat="45.968825" lon="12.6124167"><ele>41.0</ele><time>2026-04-25T14:16:27.992Z</time></trkpt><trkpt lat="45.9688317" lon="12.6122833"><ele>41.166666666666664</ele><time>2026-04-25T14:16:28.994Z</time></trkpt><trkpt lat="45.9688333" lon="12.61215"><ele>41.33333333333333</ele><time>2026-04-25T14:16:29.994Z</time></trkpt><trkpt lat="45.968845" lon="12.61203"><ele>41.5</ele><time>2026-04-25T14:16:30.992Z</time></trkpt><trkpt lat="45.96886" lon="12.6119183"><ele>41.666666666666664</ele><time>2026-04-25T14:16:31.993Z</time></trkpt><trkpt lat="45.96888" lon="12.6118167"><ele>41.833333333333336</ele><time>2026-04-25T14:16:32.993Z</time></trkpt><trkpt lat="45.9689117" lon="12.6117217"><ele>42.0</ele><time>2026-04-25T14:16:33.992Z</time></trkpt><trkpt lat="45.96896" lon="12.6116433"><ele>42.0</ele><time>2026-04-25T14:16:34.994Z</time></trkpt><trkpt lat="45.96898" lon="12.6115517"><ele>42.0</ele><time>2026-04-25T14:16:35.992Z</time></trkpt><trkpt lat="45.968965" lon="12.6114583"><ele>42.0</ele><time>2026-04-25T14:16:36.993Z</time></trkpt><trkpt lat="45.9688983" lon="12.6112883"><ele>42.0</ele><time>2026-04-25T14:16:38.993Z</time></trkpt><trkpt lat="45.9688333" lon="12.6112117"><ele>42.0</ele><time>2026-04-25T14:16:39.993Z</time></trkpt><trkpt lat="45.9687533" lon="12.61116"><ele>42.0</ele><time>2026-04-25T14:16:40.992Z</time></trkpt><trkpt lat="45.968655" lon="12.61115"><ele>42.0</ele><time>2026-04-25T14:16:41.995Z</time></trkpt><trkpt lat="45.968545" lon="12.6111683"><ele>42.0</ele><time>2026-04-25T14:16:42.994Z</time></trkpt><trkpt lat="45.9684283" lon="12.6111917"><ele>42.0</ele><time>2026-04-25T14:16:43.996Z</time></trkpt><trkpt lat="45.968305" lon="12.611205"><ele>42.0</ele><time>2026-04-25T14:16:44.994Z</time></trkpt><trkpt lat="45.9681783" lon="12.6112183"><ele>42.0</ele><time>2026-04-25T14:16:45.993Z</time></trkpt><trkpt lat="45.9680467" lon="12.61122"><ele>42.0</ele><time>2026-04-25T14:16:46.994Z</time></trkpt><trkpt lat="45.9679117" lon="12.6112283"><ele>42.0</ele><time>2026-04-25T14:16:47.992Z</time></trkpt><trkpt lat="45.9677667" lon="12.6112417"><ele>42.0</ele><time>2026-04-25T14:16:48.993Z</time></trkpt><trkpt lat="45.9676167" lon="12.6112467"><ele>41.333333333333336</ele><time>2026-04-25T14:16:49.993Z</time></trkpt><trkpt lat="45.96746" lon="12.611255"><ele>40.66666666666667</ele><time>2026-04-25T14:16:50.994Z</time></trkpt><trkpt lat="45.9673" lon="12.6112717"><ele>40.0</ele><time>2026-04-25T14:16:51.993Z</time></trkpt><trkpt lat="45.9671433" lon="12.611305"><ele>40.0</ele><time>2026-04-25T14:16:52.993Z</time></trkpt><trkpt lat="45.9669883" lon="12.61131"><ele>40.0</ele><time>2026-04-25T14:16:53.995Z</time></trkpt><trkpt lat="45.96684" lon="12.6113233"><ele>40.0</ele><time>2026-04-25T14:16:54.993Z</time></trkpt><trkpt lat="45.966705" lon="12.611325"><ele>40.0</ele><time>2026-04-25T14:16:55.993Z</time></trkpt><trkpt lat="45.9665767" lon="12.611325"><ele>39.75</ele><time>2026-04-25T14:16:56.996Z</time></trkpt><trkpt lat="45.9664483" lon="12.611315"><ele>39.5</ele><time>2026-04-25T14:16:57.993Z</time></trkpt><trkpt lat="45.9663167" lon="12.61131"><ele>39.25</ele><time>2026-04-25T14:16:58.993Z</time></trkpt><trkpt lat="45.9661833" lon="12.61131"><ele>39.0</ele><time>2026-04-25T14:16:59.994Z</time></trkpt><trkpt lat="45.966045" lon="12.6113133"><ele>39.0</ele><time>2026-04-25T14:17:00.993Z</time></trkpt><trkpt lat="45.9659083" lon="12.6113233"><ele>39.0</ele><time>2026-04-25T14:17:01.994Z</time></trkpt><trkpt lat="45.9657683" lon="12.611335"><ele>39.0</ele><time>2026-04-25T14:17:02.993Z</time></trkpt><trkpt lat="45.9656283" lon="12.6113417"><ele>39.0</ele><time>2026-04-25T14:17:03.993Z</time></trkpt><trkpt lat="45.96549" lon="12.6113483"><ele>38.8</ele><time>2026-04-25T14:17:04.995Z</time></trkpt><trkpt lat="45.96536" lon="12.611355"><ele>38.599999999999994</ele><time>2026-04-25T14:17:05.994Z</time></trkpt><trkpt lat="45.9652417" lon="12.6113633"><ele>38.4</ele><time>2026-04-25T14:17:06.993Z</time></trkpt><trkpt lat="45.96514" lon="12.6113633"><ele>38.199999999999996</ele><time>2026-04-25T14:17:07.993Z</time></trkpt><trkpt lat="45.9650633" lon="12.611355"><ele>38.0</ele><time>2026-04-25T14:17:08.994Z</time></trkpt><trkpt lat="45.9649417" lon="12.6113617"><ele>37.8</ele><time>2026-04-25T14:17:10.993Z</time></trkpt><trkpt lat="45.9648233" lon="12.6113533"><ele>37.599999999999994</ele><time>2026-04-25T14:17:12.994Z</time></trkpt><trkpt lat="45.9647483" lon="12.611345"><ele>37.400000000000006</ele><time>2026-04-25T14:17:13.995Z</time></trkpt><trkpt lat="45.9646633" lon="12.6113717"><ele>37.2</ele><time>2026-04-25T14:17:14.995Z</time></trkpt><trkpt lat="45.9645833" lon="12.6113867"><ele>37.0</ele><time>2026-04-25T14:17:15.993Z</time></trkpt><trkpt lat="45.96448" lon="12.6113967"><ele>37.0</ele><time>2026-04-25T14:17:16.992Z</time></trkpt><trkpt lat="45.964375" lon="12.6114"><ele>37.0</ele><time>2026-04-25T14:17:17.993Z</time></trkpt><trkpt lat="45.9642833" lon="12.6113983"><ele>37.0</ele><time>2026-04-25T14:17:18.994Z</time></trkpt><trkpt lat="45.96421" lon="12.6113833"><ele>37.0</ele><time>2026-04-25T14:17:19.994Z</time></trkpt><trkpt lat="45.9641433" lon="12.611295"><ele>37.0</ele><time>2026-04-25T14:17:21.993Z</time></trkpt><trkpt lat="45.9642667" lon="12.6112583"><ele>37.0</ele><time>2026-04-25T14:17:23.994Z</time></trkpt><trkpt lat="45.9643367" lon="12.6112583"><ele>37.0</ele><time>2026-04-25T14:17:24.996Z</time></trkpt><trkpt lat="45.9644317" lon="12.6112667"><ele>37.0</ele><time>2026-04-25T14:17:26.994Z</time></trkpt><trkpt lat="45.964505" lon="12.611245"><ele>37.0</ele><time>2026-04-25T14:17:28.993Z</time></trkpt><trkpt lat="45.9645583" lon="12.6111567"><ele>37.0</ele><time>2026-04-25T14:17:30.993Z</time></trkpt><trkpt lat="45.9645833" lon="12.611015"><ele>37.0</ele><time>2026-04-25T14:17:32.993Z</time></trkpt><trkpt lat="45.9645833" lon="12.6109183"><ele>37.0</ele><time>2026-04-25T14:17:36.994Z</time></trkpt></trkseg></trk></gpx>